<?xml version="1.0" encoding="UTF-8" standalone="no" ?>
<gpx xmlns="http://www.topografix.com/GPX/1/1" xmlns:xsi="http://www.w3.org/2001/XMLSchema-instance" xsi:schemaLocation="http://www.topografix.com/GPX/1/1 http://www.topografix.com/GPX/1/1/gpx.xsd" version="1.1" creator="VisuGPX - https://www.visugpx.com">
  <metadata>
    <name>Opoul-perillos-traucdelcavall</name>
  </metadata>
  <wpt lat="42.86961" lon="2.86942">
    <ele>201</ele>
    <name><![CDATA[Pause à 19/07, 08:57]]></name>
    <desc><![CDATA[Pause de 3min 1s]]></desc>
  </wpt>
  <wpt lat="42.89676" lon="2.84681">
    <ele>398</ele>
    <name><![CDATA[Pause à 19/07, 09:43]]></name>
    <desc><![CDATA[Pause de 6min 45s]]></desc>
  </wpt>
  <wpt lat="42.8967" lon="2.83647">
    <ele>336</ele>
    <name><![CDATA[Pause à 19/07, 09:59]]></name>
    <desc><![CDATA[Pause de 2min 15s]]></desc>
  </wpt>
  <wpt lat="42.89323" lon="2.83581">
    <ele>427</ele>
    <name><![CDATA[Pause à 19/07, 10:07]]></name>
    <desc><![CDATA[Pause de 2min 51s]]></desc>
  </wpt>
  <wpt lat="42.88331" lon="2.80804">
    <ele>310</ele>
    <name><![CDATA[Pause à 19/07, 10:42]]></name>
    <desc><![CDATA[Pause de 2min 16s]]></desc>
  </wpt>
  <wpt lat="42.88422" lon="2.80561">
    <ele>337</ele>
    <name><![CDATA[Pause à 19/07, 10:46]]></name>
    <desc><![CDATA[Pause de 2min 10s]]></desc>
  </wpt>
  <wpt lat="42.88432" lon="2.80494">
    <ele>348</ele>
    <name><![CDATA[Pause à 19/07, 10:48]]></name>
    <desc><![CDATA[Pause de 2min 20s]]></desc>
  </wpt>
  <wpt lat="42.88453" lon="2.8043">
    <ele>365</ele>
    <name><![CDATA[Pause à 19/07, 10:51]]></name>
    <desc><![CDATA[Pause de 2min 25s]]></desc>
  </wpt>
  <wpt lat="42.88428" lon="2.8037">
    <ele>380</ele>
    <name><![CDATA[Pause à 19/07, 10:53]]></name>
    <desc><![CDATA[Pause de 3min 40s]]></desc>
  </wpt>
  <wpt lat="42.88379" lon="2.80326">
    <ele>402</ele>
    <name><![CDATA[Pause à 19/07, 10:57]]></name>
    <desc><![CDATA[Pause de 3min 41s]]></desc>
  </wpt>
  <wpt lat="42.88425" lon="2.80299">
    <ele>412</ele>
    <name><![CDATA[Pause à 19/07, 11:01]]></name>
    <desc><![CDATA[Pause de 6min 23s]]></desc>
  </wpt>
  <wpt lat="42.88468" lon="2.80266">
    <ele>429</ele>
    <name><![CDATA[Pause à 19/07, 11:08]]></name>
    <desc><![CDATA[Pause de 10min 50s]]></desc>
  </wpt>
  <trk>
    <name><![CDATA[Opoul24]]></name>
    <trkseg>
      <trkpt lat="42.86961" lon="2.86942">
        <ele>201</ele>
        <time>2024-07-19T06:55:28Z</time>
      </trkpt>
      <trkpt lat="42.86961" lon="2.86942">
        <ele>201</ele>
        <time>2024-07-19T06:55:57Z</time>
      </trkpt>
      <trkpt lat="42.86961" lon="2.86942">
        <ele>201</ele>
        <time>2024-07-19T06:55:58Z</time>
      </trkpt>
      <trkpt lat="42.86961" lon="2.86942">
        <ele>201</ele>
        <time>2024-07-19T06:56:27Z</time>
      </trkpt>
      <trkpt lat="42.86961" lon="2.86942">
        <ele>200</ele>
        <time>2024-07-19T06:56:28Z</time>
      </trkpt>
      <trkpt lat="42.86961" lon="2.86942">
        <ele>200</ele>
        <time>2024-07-19T06:56:57Z</time>
      </trkpt>
      <trkpt lat="42.86961" lon="2.86942">
        <ele>200</ele>
        <time>2024-07-19T06:56:58Z</time>
      </trkpt>
      <trkpt lat="42.86961" lon="2.86942">
        <ele>200</ele>
        <time>2024-07-19T06:57:27Z</time>
      </trkpt>
      <trkpt lat="42.87008" lon="2.8695">
        <ele>203</ele>
        <time>2024-07-19T06:58:29Z</time>
      </trkpt>
      <trkpt lat="42.87013" lon="2.86953">
        <ele>204</ele>
        <time>2024-07-19T06:58:32Z</time>
      </trkpt>
      <trkpt lat="42.87018" lon="2.86954">
        <ele>204</ele>
        <time>2024-07-19T06:58:35Z</time>
      </trkpt>
      <trkpt lat="42.87018" lon="2.86954">
        <ele>204</ele>
        <time>2024-07-19T06:58:57Z</time>
      </trkpt>
      <trkpt lat="42.87018" lon="2.86954">
        <ele>205</ele>
        <time>2024-07-19T06:58:58Z</time>
      </trkpt>
      <trkpt lat="42.87023" lon="2.86956">
        <ele>205</ele>
        <time>2024-07-19T06:59:14Z</time>
      </trkpt>
      <trkpt lat="42.87029" lon="2.86956">
        <ele>205</ele>
        <time>2024-07-19T06:59:17Z</time>
      </trkpt>
      <trkpt lat="42.87034" lon="2.86957">
        <ele>205</ele>
        <time>2024-07-19T06:59:19Z</time>
      </trkpt>
      <trkpt lat="42.87038" lon="2.86958">
        <ele>205</ele>
        <time>2024-07-19T06:59:21Z</time>
      </trkpt>
      <trkpt lat="42.87043" lon="2.86959">
        <ele>206</ele>
        <time>2024-07-19T06:59:23Z</time>
      </trkpt>
      <trkpt lat="42.8705" lon="2.86961">
        <ele>206</ele>
        <time>2024-07-19T06:59:26Z</time>
      </trkpt>
      <trkpt lat="42.87055" lon="2.86963">
        <ele>207</ele>
        <time>2024-07-19T06:59:28Z</time>
      </trkpt>
      <trkpt lat="42.8706" lon="2.86964">
        <ele>207</ele>
        <time>2024-07-19T06:59:30Z</time>
      </trkpt>
      <trkpt lat="42.87065" lon="2.86965">
        <ele>207</ele>
        <time>2024-07-19T06:59:32Z</time>
      </trkpt>
      <trkpt lat="42.87069" lon="2.86967">
        <ele>208</ele>
        <time>2024-07-19T06:59:34Z</time>
      </trkpt>
      <trkpt lat="42.87074" lon="2.8697">
        <ele>208</ele>
        <time>2024-07-19T06:59:36Z</time>
      </trkpt>
      <trkpt lat="42.87079" lon="2.86971">
        <ele>209</ele>
        <time>2024-07-19T06:59:38Z</time>
      </trkpt>
      <trkpt lat="42.87083" lon="2.86972">
        <ele>209</ele>
        <time>2024-07-19T06:59:40Z</time>
      </trkpt>
      <trkpt lat="42.87088" lon="2.86972">
        <ele>209</ele>
        <time>2024-07-19T06:59:42Z</time>
      </trkpt>
      <trkpt lat="42.87093" lon="2.86972">
        <ele>209</ele>
        <time>2024-07-19T06:59:44Z</time>
      </trkpt>
      <trkpt lat="42.87099" lon="2.86975">
        <ele>209</ele>
        <time>2024-07-19T06:59:59Z</time>
      </trkpt>
      <trkpt lat="42.87104" lon="2.86976">
        <ele>209</ele>
        <time>2024-07-19T07:00:01Z</time>
      </trkpt>
      <trkpt lat="42.87111" lon="2.86978">
        <ele>209</ele>
        <time>2024-07-19T07:00:03Z</time>
      </trkpt>
      <trkpt lat="42.87117" lon="2.86981">
        <ele>209</ele>
        <time>2024-07-19T07:00:05Z</time>
      </trkpt>
      <trkpt lat="42.87123" lon="2.86982">
        <ele>209</ele>
        <time>2024-07-19T07:00:07Z</time>
      </trkpt>
      <trkpt lat="42.87129" lon="2.86983">
        <ele>210</ele>
        <time>2024-07-19T07:00:09Z</time>
      </trkpt>
      <trkpt lat="42.87135" lon="2.86985">
        <ele>210</ele>
        <time>2024-07-19T07:00:11Z</time>
      </trkpt>
      <trkpt lat="42.8714" lon="2.86988">
        <ele>211</ele>
        <time>2024-07-19T07:00:14Z</time>
      </trkpt>
      <trkpt lat="42.87146" lon="2.86989">
        <ele>211</ele>
        <time>2024-07-19T07:00:17Z</time>
      </trkpt>
      <trkpt lat="42.87152" lon="2.8699">
        <ele>211</ele>
        <time>2024-07-19T07:00:19Z</time>
      </trkpt>
      <trkpt lat="42.87159" lon="2.86992">
        <ele>212</ele>
        <time>2024-07-19T07:00:21Z</time>
      </trkpt>
      <trkpt lat="42.87165" lon="2.86994">
        <ele>212</ele>
        <time>2024-07-19T07:00:23Z</time>
      </trkpt>
      <trkpt lat="42.87172" lon="2.86996">
        <ele>213</ele>
        <time>2024-07-19T07:00:25Z</time>
      </trkpt>
      <trkpt lat="42.87178" lon="2.86997">
        <ele>213</ele>
        <time>2024-07-19T07:00:27Z</time>
      </trkpt>
      <trkpt lat="42.87185" lon="2.86998">
        <ele>214</ele>
        <time>2024-07-19T07:00:29Z</time>
      </trkpt>
      <trkpt lat="42.87191" lon="2.86999">
        <ele>214</ele>
        <time>2024-07-19T07:00:31Z</time>
      </trkpt>
      <trkpt lat="42.87197" lon="2.86999">
        <ele>215</ele>
        <time>2024-07-19T07:00:33Z</time>
      </trkpt>
      <trkpt lat="42.87204" lon="2.86999">
        <ele>215</ele>
        <time>2024-07-19T07:00:35Z</time>
      </trkpt>
      <trkpt lat="42.87209" lon="2.86994">
        <ele>215</ele>
        <time>2024-07-19T07:00:37Z</time>
      </trkpt>
      <trkpt lat="42.87209" lon="2.86986">
        <ele>216</ele>
        <time>2024-07-19T07:00:39Z</time>
      </trkpt>
      <trkpt lat="42.87207" lon="2.86977">
        <ele>216</ele>
        <time>2024-07-19T07:00:41Z</time>
      </trkpt>
      <trkpt lat="42.87205" lon="2.8697">
        <ele>216</ele>
        <time>2024-07-19T07:00:43Z</time>
      </trkpt>
      <trkpt lat="42.87203" lon="2.86963">
        <ele>217</ele>
        <time>2024-07-19T07:00:45Z</time>
      </trkpt>
      <trkpt lat="42.87199" lon="2.86956">
        <ele>217</ele>
        <time>2024-07-19T07:00:47Z</time>
      </trkpt>
      <trkpt lat="42.87194" lon="2.86948">
        <ele>218</ele>
        <time>2024-07-19T07:00:49Z</time>
      </trkpt>
      <trkpt lat="42.87191" lon="2.8694">
        <ele>218</ele>
        <time>2024-07-19T07:00:51Z</time>
      </trkpt>
      <trkpt lat="42.87187" lon="2.86933">
        <ele>218</ele>
        <time>2024-07-19T07:00:53Z</time>
      </trkpt>
      <trkpt lat="42.87182" lon="2.86927">
        <ele>219</ele>
        <time>2024-07-19T07:00:55Z</time>
      </trkpt>
      <trkpt lat="42.87177" lon="2.8692">
        <ele>219</ele>
        <time>2024-07-19T07:00:57Z</time>
      </trkpt>
      <trkpt lat="42.8717" lon="2.86914">
        <ele>219</ele>
        <time>2024-07-19T07:00:59Z</time>
      </trkpt>
      <trkpt lat="42.87166" lon="2.86911">
        <ele>220</ele>
        <time>2024-07-19T07:01:00Z</time>
      </trkpt>
      <trkpt lat="42.87162" lon="2.86908">
        <ele>220</ele>
        <time>2024-07-19T07:01:01Z</time>
      </trkpt>
      <trkpt lat="42.87155" lon="2.86902">
        <ele>220</ele>
        <time>2024-07-19T07:01:03Z</time>
      </trkpt>
      <trkpt lat="42.87148" lon="2.86896">
        <ele>220</ele>
        <time>2024-07-19T07:01:05Z</time>
      </trkpt>
      <trkpt lat="42.87143" lon="2.8689">
        <ele>220</ele>
        <time>2024-07-19T07:01:07Z</time>
      </trkpt>
      <trkpt lat="42.87137" lon="2.86883">
        <ele>220</ele>
        <time>2024-07-19T07:01:09Z</time>
      </trkpt>
      <trkpt lat="42.87131" lon="2.86876">
        <ele>220</ele>
        <time>2024-07-19T07:01:11Z</time>
      </trkpt>
      <trkpt lat="42.87127" lon="2.86867">
        <ele>220</ele>
        <time>2024-07-19T07:01:13Z</time>
      </trkpt>
      <trkpt lat="42.87125" lon="2.86859">
        <ele>220</ele>
        <time>2024-07-19T07:01:15Z</time>
      </trkpt>
      <trkpt lat="42.87123" lon="2.86852">
        <ele>221</ele>
        <time>2024-07-19T07:01:17Z</time>
      </trkpt>
      <trkpt lat="42.87119" lon="2.86846">
        <ele>221</ele>
        <time>2024-07-19T07:01:19Z</time>
      </trkpt>
      <trkpt lat="42.87116" lon="2.86839">
        <ele>221</ele>
        <time>2024-07-19T07:01:21Z</time>
      </trkpt>
      <trkpt lat="42.87114" lon="2.8683">
        <ele>222</ele>
        <time>2024-07-19T07:01:23Z</time>
      </trkpt>
      <trkpt lat="42.87113" lon="2.86823">
        <ele>222</ele>
        <time>2024-07-19T07:01:25Z</time>
      </trkpt>
      <trkpt lat="42.87112" lon="2.86816">
        <ele>223</ele>
        <time>2024-07-19T07:01:27Z</time>
      </trkpt>
      <trkpt lat="42.87113" lon="2.8681">
        <ele>224</ele>
        <time>2024-07-19T07:01:29Z</time>
      </trkpt>
      <trkpt lat="42.87114" lon="2.86802">
        <ele>225</ele>
        <time>2024-07-19T07:01:32Z</time>
      </trkpt>
      <trkpt lat="42.87116" lon="2.86793">
        <ele>226</ele>
        <time>2024-07-19T07:01:35Z</time>
      </trkpt>
      <trkpt lat="42.87114" lon="2.86787">
        <ele>227</ele>
        <time>2024-07-19T07:01:37Z</time>
      </trkpt>
      <trkpt lat="42.87112" lon="2.86781">
        <ele>227</ele>
        <time>2024-07-19T07:01:39Z</time>
      </trkpt>
      <trkpt lat="42.87111" lon="2.86775">
        <ele>228</ele>
        <time>2024-07-19T07:01:41Z</time>
      </trkpt>
      <trkpt lat="42.87109" lon="2.86769">
        <ele>229</ele>
        <time>2024-07-19T07:01:43Z</time>
      </trkpt>
      <trkpt lat="42.87107" lon="2.86764">
        <ele>229</ele>
        <time>2024-07-19T07:01:45Z</time>
      </trkpt>
      <trkpt lat="42.87106" lon="2.86757">
        <ele>230</ele>
        <time>2024-07-19T07:01:47Z</time>
      </trkpt>
      <trkpt lat="42.87104" lon="2.86751">
        <ele>230</ele>
        <time>2024-07-19T07:01:49Z</time>
      </trkpt>
      <trkpt lat="42.87102" lon="2.86746">
        <ele>231</ele>
        <time>2024-07-19T07:01:51Z</time>
      </trkpt>
      <trkpt lat="42.871" lon="2.86739">
        <ele>231</ele>
        <time>2024-07-19T07:01:53Z</time>
      </trkpt>
      <trkpt lat="42.87098" lon="2.86732">
        <ele>232</ele>
        <time>2024-07-19T07:01:55Z</time>
      </trkpt>
      <trkpt lat="42.87096" lon="2.86725">
        <ele>232</ele>
        <time>2024-07-19T07:01:57Z</time>
      </trkpt>
      <trkpt lat="42.87094" lon="2.86719">
        <ele>233</ele>
        <time>2024-07-19T07:01:59Z</time>
      </trkpt>
      <trkpt lat="42.87091" lon="2.86713">
        <ele>233</ele>
        <time>2024-07-19T07:02:01Z</time>
      </trkpt>
      <trkpt lat="42.87088" lon="2.86707">
        <ele>234</ele>
        <time>2024-07-19T07:02:03Z</time>
      </trkpt>
      <trkpt lat="42.87085" lon="2.86701">
        <ele>235</ele>
        <time>2024-07-19T07:02:05Z</time>
      </trkpt>
      <trkpt lat="42.87082" lon="2.86695">
        <ele>235</ele>
        <time>2024-07-19T07:02:07Z</time>
      </trkpt>
      <trkpt lat="42.87079" lon="2.86689">
        <ele>236</ele>
        <time>2024-07-19T07:02:09Z</time>
      </trkpt>
      <trkpt lat="42.87075" lon="2.86682">
        <ele>236</ele>
        <time>2024-07-19T07:02:11Z</time>
      </trkpt>
      <trkpt lat="42.87075" lon="2.86676">
        <ele>237</ele>
        <time>2024-07-19T07:02:13Z</time>
      </trkpt>
      <trkpt lat="42.87077" lon="2.86668">
        <ele>237</ele>
        <time>2024-07-19T07:02:16Z</time>
      </trkpt>
      <trkpt lat="42.8708" lon="2.86663">
        <ele>238</ele>
        <time>2024-07-19T07:02:19Z</time>
      </trkpt>
      <trkpt lat="42.87087" lon="2.8666">
        <ele>239</ele>
        <time>2024-07-19T07:02:22Z</time>
      </trkpt>
      <trkpt lat="42.8709" lon="2.86655">
        <ele>240</ele>
        <time>2024-07-19T07:02:31Z</time>
      </trkpt>
      <trkpt lat="42.87093" lon="2.8665">
        <ele>241</ele>
        <time>2024-07-19T07:02:39Z</time>
      </trkpt>
      <trkpt lat="42.87094" lon="2.86644">
        <ele>242</ele>
        <time>2024-07-19T07:02:44Z</time>
      </trkpt>
      <trkpt lat="42.87098" lon="2.86638">
        <ele>243</ele>
        <time>2024-07-19T07:03:12Z</time>
      </trkpt>
      <trkpt lat="42.871" lon="2.8663">
        <ele>244</ele>
        <time>2024-07-19T07:03:16Z</time>
      </trkpt>
      <trkpt lat="42.87103" lon="2.86623">
        <ele>245</ele>
        <time>2024-07-19T07:03:20Z</time>
      </trkpt>
      <trkpt lat="42.87104" lon="2.86617">
        <ele>246</ele>
        <time>2024-07-19T07:03:23Z</time>
      </trkpt>
      <trkpt lat="42.87106" lon="2.86611">
        <ele>246</ele>
        <time>2024-07-19T07:03:26Z</time>
      </trkpt>
      <trkpt lat="42.87108" lon="2.86605">
        <ele>247</ele>
        <time>2024-07-19T07:03:29Z</time>
      </trkpt>
      <trkpt lat="42.87109" lon="2.86597">
        <ele>248</ele>
        <time>2024-07-19T07:03:33Z</time>
      </trkpt>
      <trkpt lat="42.8711" lon="2.8659">
        <ele>249</ele>
        <time>2024-07-19T07:03:36Z</time>
      </trkpt>
      <trkpt lat="42.87111" lon="2.86583">
        <ele>250</ele>
        <time>2024-07-19T07:03:39Z</time>
      </trkpt>
      <trkpt lat="42.87112" lon="2.86576">
        <ele>250</ele>
        <time>2024-07-19T07:03:42Z</time>
      </trkpt>
      <trkpt lat="42.87113" lon="2.86569">
        <ele>251</ele>
        <time>2024-07-19T07:03:45Z</time>
      </trkpt>
      <trkpt lat="42.87114" lon="2.86563">
        <ele>251</ele>
        <time>2024-07-19T07:03:48Z</time>
      </trkpt>
      <trkpt lat="42.87114" lon="2.86555">
        <ele>251</ele>
        <time>2024-07-19T07:03:51Z</time>
      </trkpt>
      <trkpt lat="42.87114" lon="2.86542">
        <ele>253</ele>
        <time>2024-07-19T07:04:11Z</time>
      </trkpt>
      <trkpt lat="42.87114" lon="2.86535">
        <ele>253</ele>
        <time>2024-07-19T07:04:14Z</time>
      </trkpt>
      <trkpt lat="42.87112" lon="2.86528">
        <ele>254</ele>
        <time>2024-07-19T07:04:17Z</time>
      </trkpt>
      <trkpt lat="42.87109" lon="2.86522">
        <ele>255</ele>
        <time>2024-07-19T07:04:20Z</time>
      </trkpt>
      <trkpt lat="42.87106" lon="2.86516">
        <ele>255</ele>
        <time>2024-07-19T07:04:23Z</time>
      </trkpt>
      <trkpt lat="42.87104" lon="2.8651">
        <ele>256</ele>
        <time>2024-07-19T07:04:26Z</time>
      </trkpt>
      <trkpt lat="42.87102" lon="2.86503">
        <ele>257</ele>
        <time>2024-07-19T07:04:29Z</time>
      </trkpt>
      <trkpt lat="42.87102" lon="2.86497">
        <ele>257</ele>
        <time>2024-07-19T07:04:32Z</time>
      </trkpt>
      <trkpt lat="42.87103" lon="2.8649">
        <ele>258</ele>
        <time>2024-07-19T07:04:35Z</time>
      </trkpt>
      <trkpt lat="42.87105" lon="2.86483">
        <ele>259</ele>
        <time>2024-07-19T07:04:38Z</time>
      </trkpt>
      <trkpt lat="42.87106" lon="2.86477">
        <ele>259</ele>
        <time>2024-07-19T07:04:41Z</time>
      </trkpt>
      <trkpt lat="42.87108" lon="2.86471">
        <ele>260</ele>
        <time>2024-07-19T07:04:44Z</time>
      </trkpt>
      <trkpt lat="42.87111" lon="2.86464">
        <ele>261</ele>
        <time>2024-07-19T07:04:48Z</time>
      </trkpt>
      <trkpt lat="42.87114" lon="2.86458">
        <ele>261</ele>
        <time>2024-07-19T07:04:51Z</time>
      </trkpt>
      <trkpt lat="42.87115" lon="2.86452">
        <ele>262</ele>
        <time>2024-07-19T07:04:54Z</time>
      </trkpt>
      <trkpt lat="42.87117" lon="2.86446">
        <ele>262</ele>
        <time>2024-07-19T07:04:57Z</time>
      </trkpt>
      <trkpt lat="42.87115" lon="2.86439">
        <ele>263</ele>
        <time>2024-07-19T07:05:00Z</time>
      </trkpt>
      <trkpt lat="42.87113" lon="2.86432">
        <ele>264</ele>
        <time>2024-07-19T07:05:03Z</time>
      </trkpt>
      <trkpt lat="42.87107" lon="2.86428">
        <ele>264</ele>
        <time>2024-07-19T07:05:06Z</time>
      </trkpt>
      <trkpt lat="42.87103" lon="2.86423">
        <ele>265</ele>
        <time>2024-07-19T07:05:08Z</time>
      </trkpt>
      <trkpt lat="42.87099" lon="2.86419">
        <ele>266</ele>
        <time>2024-07-19T07:05:10Z</time>
      </trkpt>
      <trkpt lat="42.87094" lon="2.86414">
        <ele>266</ele>
        <time>2024-07-19T07:05:12Z</time>
      </trkpt>
      <trkpt lat="42.87089" lon="2.86408">
        <ele>267</ele>
        <time>2024-07-19T07:05:14Z</time>
      </trkpt>
      <trkpt lat="42.87083" lon="2.86404">
        <ele>267</ele>
        <time>2024-07-19T07:05:16Z</time>
      </trkpt>
      <trkpt lat="42.87078" lon="2.864">
        <ele>267</ele>
        <time>2024-07-19T07:05:18Z</time>
      </trkpt>
      <trkpt lat="42.87072" lon="2.86399">
        <ele>268</ele>
        <time>2024-07-19T07:05:20Z</time>
      </trkpt>
      <trkpt lat="42.87066" lon="2.86399">
        <ele>268</ele>
        <time>2024-07-19T07:05:22Z</time>
      </trkpt>
      <trkpt lat="42.87061" lon="2.86399">
        <ele>269</ele>
        <time>2024-07-19T07:05:24Z</time>
      </trkpt>
      <trkpt lat="42.87056" lon="2.86397">
        <ele>269</ele>
        <time>2024-07-19T07:05:26Z</time>
      </trkpt>
      <trkpt lat="42.87052" lon="2.86394">
        <ele>270</ele>
        <time>2024-07-19T07:05:28Z</time>
      </trkpt>
      <trkpt lat="42.87046" lon="2.8639">
        <ele>270</ele>
        <time>2024-07-19T07:05:31Z</time>
      </trkpt>
      <trkpt lat="42.87042" lon="2.86386">
        <ele>271</ele>
        <time>2024-07-19T07:05:34Z</time>
      </trkpt>
      <trkpt lat="42.87038" lon="2.86381">
        <ele>272</ele>
        <time>2024-07-19T07:05:37Z</time>
      </trkpt>
      <trkpt lat="42.87034" lon="2.86375">
        <ele>273</ele>
        <time>2024-07-19T07:05:40Z</time>
      </trkpt>
      <trkpt lat="42.87029" lon="2.86371">
        <ele>274</ele>
        <time>2024-07-19T07:05:43Z</time>
      </trkpt>
      <trkpt lat="42.87025" lon="2.86366">
        <ele>274</ele>
        <time>2024-07-19T07:05:46Z</time>
      </trkpt>
      <trkpt lat="42.87021" lon="2.86361">
        <ele>275</ele>
        <time>2024-07-19T07:05:48Z</time>
      </trkpt>
      <trkpt lat="42.87017" lon="2.86357">
        <ele>276</ele>
        <time>2024-07-19T07:05:50Z</time>
      </trkpt>
      <trkpt lat="42.87013" lon="2.86353">
        <ele>276</ele>
        <time>2024-07-19T07:05:52Z</time>
      </trkpt>
      <trkpt lat="42.87009" lon="2.8635">
        <ele>277</ele>
        <time>2024-07-19T07:05:54Z</time>
      </trkpt>
      <trkpt lat="42.87005" lon="2.86347">
        <ele>278</ele>
        <time>2024-07-19T07:05:56Z</time>
      </trkpt>
      <trkpt lat="42.87" lon="2.86344">
        <ele>278</ele>
        <time>2024-07-19T07:05:58Z</time>
      </trkpt>
      <trkpt lat="42.86995" lon="2.86339">
        <ele>279</ele>
        <time>2024-07-19T07:06:01Z</time>
      </trkpt>
      <trkpt lat="42.86991" lon="2.86334">
        <ele>279</ele>
        <time>2024-07-19T07:06:03Z</time>
      </trkpt>
      <trkpt lat="42.86987" lon="2.86329">
        <ele>279</ele>
        <time>2024-07-19T07:06:05Z</time>
      </trkpt>
      <trkpt lat="42.86983" lon="2.86324">
        <ele>280</ele>
        <time>2024-07-19T07:06:07Z</time>
      </trkpt>
      <trkpt lat="42.86979" lon="2.86319">
        <ele>280</ele>
        <time>2024-07-19T07:06:09Z</time>
      </trkpt>
      <trkpt lat="42.86975" lon="2.86314">
        <ele>280</ele>
        <time>2024-07-19T07:06:11Z</time>
      </trkpt>
      <trkpt lat="42.86971" lon="2.86309">
        <ele>281</ele>
        <time>2024-07-19T07:06:13Z</time>
      </trkpt>
      <trkpt lat="42.86968" lon="2.86303">
        <ele>281</ele>
        <time>2024-07-19T07:06:15Z</time>
      </trkpt>
      <trkpt lat="42.86965" lon="2.86297">
        <ele>281</ele>
        <time>2024-07-19T07:06:17Z</time>
      </trkpt>
      <trkpt lat="42.86963" lon="2.86291">
        <ele>281</ele>
        <time>2024-07-19T07:06:19Z</time>
      </trkpt>
      <trkpt lat="42.8696" lon="2.86285">
        <ele>282</ele>
        <time>2024-07-19T07:06:21Z</time>
      </trkpt>
      <trkpt lat="42.86958" lon="2.86279">
        <ele>282</ele>
        <time>2024-07-19T07:06:23Z</time>
      </trkpt>
      <trkpt lat="42.86955" lon="2.86273">
        <ele>282</ele>
        <time>2024-07-19T07:06:25Z</time>
      </trkpt>
      <trkpt lat="42.86953" lon="2.86267">
        <ele>283</ele>
        <time>2024-07-19T07:06:27Z</time>
      </trkpt>
      <trkpt lat="42.8695" lon="2.8626">
        <ele>283</ele>
        <time>2024-07-19T07:06:29Z</time>
      </trkpt>
      <trkpt lat="42.86948" lon="2.86253">
        <ele>283</ele>
        <time>2024-07-19T07:06:31Z</time>
      </trkpt>
      <trkpt lat="42.86945" lon="2.86246">
        <ele>283</ele>
        <time>2024-07-19T07:06:33Z</time>
      </trkpt>
      <trkpt lat="42.86942" lon="2.8624">
        <ele>284</ele>
        <time>2024-07-19T07:06:35Z</time>
      </trkpt>
      <trkpt lat="42.86939" lon="2.86234">
        <ele>284</ele>
        <time>2024-07-19T07:06:37Z</time>
      </trkpt>
      <trkpt lat="42.86935" lon="2.86228">
        <ele>284</ele>
        <time>2024-07-19T07:06:39Z</time>
      </trkpt>
      <trkpt lat="42.86932" lon="2.86221">
        <ele>284</ele>
        <time>2024-07-19T07:06:41Z</time>
      </trkpt>
      <trkpt lat="42.86929" lon="2.86215">
        <ele>284</ele>
        <time>2024-07-19T07:06:43Z</time>
      </trkpt>
      <trkpt lat="42.86926" lon="2.86209">
        <ele>284</ele>
        <time>2024-07-19T07:06:45Z</time>
      </trkpt>
      <trkpt lat="42.86922" lon="2.86202">
        <ele>284</ele>
        <time>2024-07-19T07:06:47Z</time>
      </trkpt>
      <trkpt lat="42.86918" lon="2.86195">
        <ele>285</ele>
        <time>2024-07-19T07:06:49Z</time>
      </trkpt>
      <trkpt lat="42.86913" lon="2.86189">
        <ele>285</ele>
        <time>2024-07-19T07:06:51Z</time>
      </trkpt>
      <trkpt lat="42.86909" lon="2.86182">
        <ele>285</ele>
        <time>2024-07-19T07:06:53Z</time>
      </trkpt>
      <trkpt lat="42.86907" lon="2.86174">
        <ele>285</ele>
        <time>2024-07-19T07:06:55Z</time>
      </trkpt>
      <trkpt lat="42.86909" lon="2.86168">
        <ele>285</ele>
        <time>2024-07-19T07:06:57Z</time>
      </trkpt>
      <trkpt lat="42.86916" lon="2.86168">
        <ele>285</ele>
        <time>2024-07-19T07:07:00Z</time>
      </trkpt>
      <trkpt lat="42.86921" lon="2.86171">
        <ele>285</ele>
        <time>2024-07-19T07:07:02Z</time>
      </trkpt>
      <trkpt lat="42.86926" lon="2.86173">
        <ele>286</ele>
        <time>2024-07-19T07:07:04Z</time>
      </trkpt>
      <trkpt lat="42.8693" lon="2.86176">
        <ele>286</ele>
        <time>2024-07-19T07:07:06Z</time>
      </trkpt>
      <trkpt lat="42.86934" lon="2.8618">
        <ele>286</ele>
        <time>2024-07-19T07:07:08Z</time>
      </trkpt>
      <trkpt lat="42.86938" lon="2.86185">
        <ele>287</ele>
        <time>2024-07-19T07:07:10Z</time>
      </trkpt>
      <trkpt lat="42.86942" lon="2.8619">
        <ele>287</ele>
        <time>2024-07-19T07:07:12Z</time>
      </trkpt>
      <trkpt lat="42.86946" lon="2.86196">
        <ele>287</ele>
        <time>2024-07-19T07:07:14Z</time>
      </trkpt>
      <trkpt lat="42.8695" lon="2.86201">
        <ele>287</ele>
        <time>2024-07-19T07:07:16Z</time>
      </trkpt>
      <trkpt lat="42.86955" lon="2.86206">
        <ele>287</ele>
        <time>2024-07-19T07:07:18Z</time>
      </trkpt>
      <trkpt lat="42.86959" lon="2.86211">
        <ele>287</ele>
        <time>2024-07-19T07:07:20Z</time>
      </trkpt>
      <trkpt lat="42.86963" lon="2.86215">
        <ele>287</ele>
        <time>2024-07-19T07:07:22Z</time>
      </trkpt>
      <trkpt lat="42.86968" lon="2.8622">
        <ele>288</ele>
        <time>2024-07-19T07:07:24Z</time>
      </trkpt>
      <trkpt lat="42.86972" lon="2.86226">
        <ele>288</ele>
        <time>2024-07-19T07:07:26Z</time>
      </trkpt>
      <trkpt lat="42.86977" lon="2.86231">
        <ele>288</ele>
        <time>2024-07-19T07:07:28Z</time>
      </trkpt>
      <trkpt lat="42.86983" lon="2.86234">
        <ele>288</ele>
        <time>2024-07-19T07:07:30Z</time>
      </trkpt>
      <trkpt lat="42.86989" lon="2.86233">
        <ele>289</ele>
        <time>2024-07-19T07:07:32Z</time>
      </trkpt>
      <trkpt lat="42.86995" lon="2.8623">
        <ele>289</ele>
        <time>2024-07-19T07:07:34Z</time>
      </trkpt>
      <trkpt lat="42.86999" lon="2.86225">
        <ele>289</ele>
        <time>2024-07-19T07:07:36Z</time>
      </trkpt>
      <trkpt lat="42.87004" lon="2.8622">
        <ele>290</ele>
        <time>2024-07-19T07:07:38Z</time>
      </trkpt>
      <trkpt lat="42.87009" lon="2.86216">
        <ele>290</ele>
        <time>2024-07-19T07:07:40Z</time>
      </trkpt>
      <trkpt lat="42.87013" lon="2.86211">
        <ele>290</ele>
        <time>2024-07-19T07:07:42Z</time>
      </trkpt>
      <trkpt lat="42.87017" lon="2.86205">
        <ele>290</ele>
        <time>2024-07-19T07:07:44Z</time>
      </trkpt>
      <trkpt lat="42.87023" lon="2.86199">
        <ele>290</ele>
        <time>2024-07-19T07:07:46Z</time>
      </trkpt>
      <trkpt lat="42.87029" lon="2.86195">
        <ele>289</ele>
        <time>2024-07-19T07:07:48Z</time>
      </trkpt>
      <trkpt lat="42.87036" lon="2.86192">
        <ele>289</ele>
        <time>2024-07-19T07:07:50Z</time>
      </trkpt>
      <trkpt lat="42.87043" lon="2.8619">
        <ele>289</ele>
        <time>2024-07-19T07:07:52Z</time>
      </trkpt>
      <trkpt lat="42.8705" lon="2.8619">
        <ele>289</ele>
        <time>2024-07-19T07:07:54Z</time>
      </trkpt>
      <trkpt lat="42.87057" lon="2.8619">
        <ele>289</ele>
        <time>2024-07-19T07:07:56Z</time>
      </trkpt>
      <trkpt lat="42.87064" lon="2.86189">
        <ele>289</ele>
        <time>2024-07-19T07:07:58Z</time>
      </trkpt>
      <trkpt lat="42.87071" lon="2.86187">
        <ele>289</ele>
        <time>2024-07-19T07:08:00Z</time>
      </trkpt>
      <trkpt lat="42.87078" lon="2.86184">
        <ele>289</ele>
        <time>2024-07-19T07:08:02Z</time>
      </trkpt>
      <trkpt lat="42.87084" lon="2.86179">
        <ele>289</ele>
        <time>2024-07-19T07:08:04Z</time>
      </trkpt>
      <trkpt lat="42.87091" lon="2.86175">
        <ele>290</ele>
        <time>2024-07-19T07:08:06Z</time>
      </trkpt>
      <trkpt lat="42.87099" lon="2.86172">
        <ele>290</ele>
        <time>2024-07-19T07:08:08Z</time>
      </trkpt>
      <trkpt lat="42.87106" lon="2.86168">
        <ele>290</ele>
        <time>2024-07-19T07:08:10Z</time>
      </trkpt>
      <trkpt lat="42.87113" lon="2.86168">
        <ele>290</ele>
        <time>2024-07-19T07:08:12Z</time>
      </trkpt>
      <trkpt lat="42.8712" lon="2.8617">
        <ele>290</ele>
        <time>2024-07-19T07:08:14Z</time>
      </trkpt>
      <trkpt lat="42.87125" lon="2.86173">
        <ele>291</ele>
        <time>2024-07-19T07:08:16Z</time>
      </trkpt>
      <trkpt lat="42.87131" lon="2.86177">
        <ele>291</ele>
        <time>2024-07-19T07:08:19Z</time>
      </trkpt>
      <trkpt lat="42.87136" lon="2.86179">
        <ele>292</ele>
        <time>2024-07-19T07:08:21Z</time>
      </trkpt>
      <trkpt lat="42.87141" lon="2.86181">
        <ele>292</ele>
        <time>2024-07-19T07:08:23Z</time>
      </trkpt>
      <trkpt lat="42.87146" lon="2.86183">
        <ele>293</ele>
        <time>2024-07-19T07:08:25Z</time>
      </trkpt>
      <trkpt lat="42.8715" lon="2.8619">
        <ele>294</ele>
        <time>2024-07-19T07:08:28Z</time>
      </trkpt>
      <trkpt lat="42.87148" lon="2.86198">
        <ele>294</ele>
        <time>2024-07-19T07:08:31Z</time>
      </trkpt>
      <trkpt lat="42.87145" lon="2.86204">
        <ele>295</ele>
        <time>2024-07-19T07:08:33Z</time>
      </trkpt>
      <trkpt lat="42.87143" lon="2.86212">
        <ele>295</ele>
        <time>2024-07-19T07:08:35Z</time>
      </trkpt>
      <trkpt lat="42.87143" lon="2.8622">
        <ele>296</ele>
        <time>2024-07-19T07:08:37Z</time>
      </trkpt>
      <trkpt lat="42.87145" lon="2.86228">
        <ele>296</ele>
        <time>2024-07-19T07:08:39Z</time>
      </trkpt>
      <trkpt lat="42.87148" lon="2.86234">
        <ele>296</ele>
        <time>2024-07-19T07:08:41Z</time>
      </trkpt>
      <trkpt lat="42.87152" lon="2.8624">
        <ele>296</ele>
        <time>2024-07-19T07:08:43Z</time>
      </trkpt>
      <trkpt lat="42.87156" lon="2.86246">
        <ele>297</ele>
        <time>2024-07-19T07:08:45Z</time>
      </trkpt>
      <trkpt lat="42.8716" lon="2.86252">
        <ele>297</ele>
        <time>2024-07-19T07:08:47Z</time>
      </trkpt>
      <trkpt lat="42.87164" lon="2.86258">
        <ele>297</ele>
        <time>2024-07-19T07:08:49Z</time>
      </trkpt>
      <trkpt lat="42.87169" lon="2.86263">
        <ele>298</ele>
        <time>2024-07-19T07:08:51Z</time>
      </trkpt>
      <trkpt lat="42.87174" lon="2.86266">
        <ele>298</ele>
        <time>2024-07-19T07:08:53Z</time>
      </trkpt>
      <trkpt lat="42.87179" lon="2.8627">
        <ele>298</ele>
        <time>2024-07-19T07:08:55Z</time>
      </trkpt>
      <trkpt lat="42.87184" lon="2.86274">
        <ele>299</ele>
        <time>2024-07-19T07:08:57Z</time>
      </trkpt>
      <trkpt lat="42.87188" lon="2.86277">
        <ele>299</ele>
        <time>2024-07-19T07:08:59Z</time>
      </trkpt>
      <trkpt lat="42.87194" lon="2.86279">
        <ele>300</ele>
        <time>2024-07-19T07:09:01Z</time>
      </trkpt>
      <trkpt lat="42.87199" lon="2.8628">
        <ele>300</ele>
        <time>2024-07-19T07:09:03Z</time>
      </trkpt>
      <trkpt lat="42.87205" lon="2.86283">
        <ele>301</ele>
        <time>2024-07-19T07:09:06Z</time>
      </trkpt>
      <trkpt lat="42.87209" lon="2.86286">
        <ele>302</ele>
        <time>2024-07-19T07:09:08Z</time>
      </trkpt>
      <trkpt lat="42.87213" lon="2.86288">
        <ele>302</ele>
        <time>2024-07-19T07:09:10Z</time>
      </trkpt>
      <trkpt lat="42.87217" lon="2.86291">
        <ele>303</ele>
        <time>2024-07-19T07:09:12Z</time>
      </trkpt>
      <trkpt lat="42.87221" lon="2.86294">
        <ele>303</ele>
        <time>2024-07-19T07:09:14Z</time>
      </trkpt>
      <trkpt lat="42.87226" lon="2.86295">
        <ele>304</ele>
        <time>2024-07-19T07:09:16Z</time>
      </trkpt>
      <trkpt lat="42.8723" lon="2.86297">
        <ele>304</ele>
        <time>2024-07-19T07:09:18Z</time>
      </trkpt>
      <trkpt lat="42.87236" lon="2.863">
        <ele>305</ele>
        <time>2024-07-19T07:09:21Z</time>
      </trkpt>
      <trkpt lat="42.87243" lon="2.86304">
        <ele>305</ele>
        <time>2024-07-19T07:09:24Z</time>
      </trkpt>
      <trkpt lat="42.87248" lon="2.86307">
        <ele>306</ele>
        <time>2024-07-19T07:09:27Z</time>
      </trkpt>
      <trkpt lat="42.87254" lon="2.86313">
        <ele>306</ele>
        <time>2024-07-19T07:09:30Z</time>
      </trkpt>
      <trkpt lat="42.87259" lon="2.86318">
        <ele>307</ele>
        <time>2024-07-19T07:09:33Z</time>
      </trkpt>
      <trkpt lat="42.87265" lon="2.86323">
        <ele>308</ele>
        <time>2024-07-19T07:09:36Z</time>
      </trkpt>
      <trkpt lat="42.87268" lon="2.86327">
        <ele>308</ele>
        <time>2024-07-19T07:09:38Z</time>
      </trkpt>
      <trkpt lat="42.87273" lon="2.86331">
        <ele>309</ele>
        <time>2024-07-19T07:09:41Z</time>
      </trkpt>
      <trkpt lat="42.87278" lon="2.86335">
        <ele>309</ele>
        <time>2024-07-19T07:09:44Z</time>
      </trkpt>
      <trkpt lat="42.87284" lon="2.86339">
        <ele>310</ele>
        <time>2024-07-19T07:09:47Z</time>
      </trkpt>
      <trkpt lat="42.87289" lon="2.86344">
        <ele>310</ele>
        <time>2024-07-19T07:09:50Z</time>
      </trkpt>
      <trkpt lat="42.87295" lon="2.86348">
        <ele>311</ele>
        <time>2024-07-19T07:09:53Z</time>
      </trkpt>
      <trkpt lat="42.87301" lon="2.86351">
        <ele>312</ele>
        <time>2024-07-19T07:09:56Z</time>
      </trkpt>
      <trkpt lat="42.87305" lon="2.86356">
        <ele>312</ele>
        <time>2024-07-19T07:09:59Z</time>
      </trkpt>
      <trkpt lat="42.87311" lon="2.8636">
        <ele>313</ele>
        <time>2024-07-19T07:10:02Z</time>
      </trkpt>
      <trkpt lat="42.87316" lon="2.86363">
        <ele>313</ele>
        <time>2024-07-19T07:10:05Z</time>
      </trkpt>
      <trkpt lat="42.87322" lon="2.86369">
        <ele>314</ele>
        <time>2024-07-19T07:10:08Z</time>
      </trkpt>
      <trkpt lat="42.87327" lon="2.86372">
        <ele>314</ele>
        <time>2024-07-19T07:10:11Z</time>
      </trkpt>
      <trkpt lat="42.87332" lon="2.86375">
        <ele>315</ele>
        <time>2024-07-19T07:10:14Z</time>
      </trkpt>
      <trkpt lat="42.87338" lon="2.86377">
        <ele>316</ele>
        <time>2024-07-19T07:10:17Z</time>
      </trkpt>
      <trkpt lat="42.87344" lon="2.86378">
        <ele>317</ele>
        <time>2024-07-19T07:10:20Z</time>
      </trkpt>
      <trkpt lat="42.87349" lon="2.86381">
        <ele>318</ele>
        <time>2024-07-19T07:10:23Z</time>
      </trkpt>
      <trkpt lat="42.87354" lon="2.86382">
        <ele>318</ele>
        <time>2024-07-19T07:10:26Z</time>
      </trkpt>
      <trkpt lat="42.87361" lon="2.86384">
        <ele>319</ele>
        <time>2024-07-19T07:10:29Z</time>
      </trkpt>
      <trkpt lat="42.87367" lon="2.86386">
        <ele>320</ele>
        <time>2024-07-19T07:10:32Z</time>
      </trkpt>
      <trkpt lat="42.87373" lon="2.86386">
        <ele>320</ele>
        <time>2024-07-19T07:10:35Z</time>
      </trkpt>
      <trkpt lat="42.87379" lon="2.86384">
        <ele>321</ele>
        <time>2024-07-19T07:10:38Z</time>
      </trkpt>
      <trkpt lat="42.87382" lon="2.8638">
        <ele>322</ele>
        <time>2024-07-19T07:10:47Z</time>
      </trkpt>
      <trkpt lat="42.87384" lon="2.86372">
        <ele>323</ele>
        <time>2024-07-19T07:11:02Z</time>
      </trkpt>
      <trkpt lat="42.87386" lon="2.86366">
        <ele>324</ele>
        <time>2024-07-19T07:11:05Z</time>
      </trkpt>
      <trkpt lat="42.87389" lon="2.86361">
        <ele>325</ele>
        <time>2024-07-19T07:11:08Z</time>
      </trkpt>
      <trkpt lat="42.8739" lon="2.86355">
        <ele>326</ele>
        <time>2024-07-19T07:11:11Z</time>
      </trkpt>
      <trkpt lat="42.87389" lon="2.86347">
        <ele>327</ele>
        <time>2024-07-19T07:11:14Z</time>
      </trkpt>
      <trkpt lat="42.87386" lon="2.8634">
        <ele>327</ele>
        <time>2024-07-19T07:11:17Z</time>
      </trkpt>
      <trkpt lat="42.87384" lon="2.86333">
        <ele>328</ele>
        <time>2024-07-19T07:11:20Z</time>
      </trkpt>
      <trkpt lat="42.87383" lon="2.86325">
        <ele>329</ele>
        <time>2024-07-19T07:11:23Z</time>
      </trkpt>
      <trkpt lat="42.87383" lon="2.86318">
        <ele>329</ele>
        <time>2024-07-19T07:11:26Z</time>
      </trkpt>
      <trkpt lat="42.87384" lon="2.8631">
        <ele>329</ele>
        <time>2024-07-19T07:11:29Z</time>
      </trkpt>
      <trkpt lat="42.87387" lon="2.86304">
        <ele>330</ele>
        <time>2024-07-19T07:11:32Z</time>
      </trkpt>
      <trkpt lat="42.8739" lon="2.86296">
        <ele>331</ele>
        <time>2024-07-19T07:11:35Z</time>
      </trkpt>
      <trkpt lat="42.87394" lon="2.86291">
        <ele>331</ele>
        <time>2024-07-19T07:11:38Z</time>
      </trkpt>
      <trkpt lat="42.87399" lon="2.86288">
        <ele>332</ele>
        <time>2024-07-19T07:11:41Z</time>
      </trkpt>
      <trkpt lat="42.87403" lon="2.86283">
        <ele>332</ele>
        <time>2024-07-19T07:11:44Z</time>
      </trkpt>
      <trkpt lat="42.8741" lon="2.86279">
        <ele>332</ele>
        <time>2024-07-19T07:11:47Z</time>
      </trkpt>
      <trkpt lat="42.87415" lon="2.86278">
        <ele>333</ele>
        <time>2024-07-19T07:11:49Z</time>
      </trkpt>
      <trkpt lat="42.87421" lon="2.86279">
        <ele>333</ele>
        <time>2024-07-19T07:11:51Z</time>
      </trkpt>
      <trkpt lat="42.87425" lon="2.8628">
        <ele>333</ele>
        <time>2024-07-19T07:11:53Z</time>
      </trkpt>
      <trkpt lat="42.8743" lon="2.86277">
        <ele>333</ele>
        <time>2024-07-19T07:11:55Z</time>
      </trkpt>
      <trkpt lat="42.87434" lon="2.86272">
        <ele>333</ele>
        <time>2024-07-19T07:11:57Z</time>
      </trkpt>
      <trkpt lat="42.87438" lon="2.86267">
        <ele>334</ele>
        <time>2024-07-19T07:11:59Z</time>
      </trkpt>
      <trkpt lat="42.87441" lon="2.86261">
        <ele>334</ele>
        <time>2024-07-19T07:12:01Z</time>
      </trkpt>
      <trkpt lat="42.87445" lon="2.86256">
        <ele>334</ele>
        <time>2024-07-19T07:12:03Z</time>
      </trkpt>
      <trkpt lat="42.87449" lon="2.86251">
        <ele>334</ele>
        <time>2024-07-19T07:12:05Z</time>
      </trkpt>
      <trkpt lat="42.87453" lon="2.86247">
        <ele>334</ele>
        <time>2024-07-19T07:12:07Z</time>
      </trkpt>
      <trkpt lat="42.87457" lon="2.86242">
        <ele>335</ele>
        <time>2024-07-19T07:12:09Z</time>
      </trkpt>
      <trkpt lat="42.87459" lon="2.86236">
        <ele>335</ele>
        <time>2024-07-19T07:12:11Z</time>
      </trkpt>
      <trkpt lat="42.87461" lon="2.8623">
        <ele>335</ele>
        <time>2024-07-19T07:12:13Z</time>
      </trkpt>
      <trkpt lat="42.87463" lon="2.86222">
        <ele>336</ele>
        <time>2024-07-19T07:12:15Z</time>
      </trkpt>
      <trkpt lat="42.87465" lon="2.86216">
        <ele>336</ele>
        <time>2024-07-19T07:12:17Z</time>
      </trkpt>
      <trkpt lat="42.87469" lon="2.86209">
        <ele>337</ele>
        <time>2024-07-19T07:12:20Z</time>
      </trkpt>
      <trkpt lat="42.87473" lon="2.86204">
        <ele>338</ele>
        <time>2024-07-19T07:12:23Z</time>
      </trkpt>
      <trkpt lat="42.87478" lon="2.86199">
        <ele>339</ele>
        <time>2024-07-19T07:12:26Z</time>
      </trkpt>
      <trkpt lat="42.87481" lon="2.86192">
        <ele>340</ele>
        <time>2024-07-19T07:12:29Z</time>
      </trkpt>
      <trkpt lat="42.87484" lon="2.86185">
        <ele>341</ele>
        <time>2024-07-19T07:12:32Z</time>
      </trkpt>
      <trkpt lat="42.87486" lon="2.86178">
        <ele>342</ele>
        <time>2024-07-19T07:12:34Z</time>
      </trkpt>
      <trkpt lat="42.87487" lon="2.86172">
        <ele>342</ele>
        <time>2024-07-19T07:12:36Z</time>
      </trkpt>
      <trkpt lat="42.87487" lon="2.86166">
        <ele>343</ele>
        <time>2024-07-19T07:12:38Z</time>
      </trkpt>
      <trkpt lat="42.87484" lon="2.8616">
        <ele>343</ele>
        <time>2024-07-19T07:12:40Z</time>
      </trkpt>
      <trkpt lat="42.87478" lon="2.86157">
        <ele>343</ele>
        <time>2024-07-19T07:12:42Z</time>
      </trkpt>
      <trkpt lat="42.87472" lon="2.86152">
        <ele>343</ele>
        <time>2024-07-19T07:12:44Z</time>
      </trkpt>
      <trkpt lat="42.87467" lon="2.86142">
        <ele>343</ele>
        <time>2024-07-19T07:12:46Z</time>
      </trkpt>
      <trkpt lat="42.87465" lon="2.86137">
        <ele>342</ele>
        <time>2024-07-19T07:12:47Z</time>
      </trkpt>
      <trkpt lat="42.87462" lon="2.86126">
        <ele>341</ele>
        <time>2024-07-19T07:12:49Z</time>
      </trkpt>
      <trkpt lat="42.8746" lon="2.86119">
        <ele>341</ele>
        <time>2024-07-19T07:12:50Z</time>
      </trkpt>
      <trkpt lat="42.87458" lon="2.86112">
        <ele>340</ele>
        <time>2024-07-19T07:12:51Z</time>
      </trkpt>
      <trkpt lat="42.87456" lon="2.86104">
        <ele>339</ele>
        <time>2024-07-19T07:12:52Z</time>
      </trkpt>
      <trkpt lat="42.87453" lon="2.86095">
        <ele>338</ele>
        <time>2024-07-19T07:12:53Z</time>
      </trkpt>
      <trkpt lat="42.8745" lon="2.86085">
        <ele>338</ele>
        <time>2024-07-19T07:12:54Z</time>
      </trkpt>
      <trkpt lat="42.87448" lon="2.86076">
        <ele>337</ele>
        <time>2024-07-19T07:12:55Z</time>
      </trkpt>
      <trkpt lat="42.87446" lon="2.86065">
        <ele>336</ele>
        <time>2024-07-19T07:12:56Z</time>
      </trkpt>
      <trkpt lat="42.87444" lon="2.86054">
        <ele>336</ele>
        <time>2024-07-19T07:12:57Z</time>
      </trkpt>
      <trkpt lat="42.87442" lon="2.86043">
        <ele>335</ele>
        <time>2024-07-19T07:12:58Z</time>
      </trkpt>
      <trkpt lat="42.87441" lon="2.86033">
        <ele>334</ele>
        <time>2024-07-19T07:12:59Z</time>
      </trkpt>
      <trkpt lat="42.87442" lon="2.86023">
        <ele>333</ele>
        <time>2024-07-19T07:13:00Z</time>
      </trkpt>
      <trkpt lat="42.87444" lon="2.86013">
        <ele>333</ele>
        <time>2024-07-19T07:13:01Z</time>
      </trkpt>
      <trkpt lat="42.87445" lon="2.86004">
        <ele>332</ele>
        <time>2024-07-19T07:13:02Z</time>
      </trkpt>
      <trkpt lat="42.87446" lon="2.85995">
        <ele>332</ele>
        <time>2024-07-19T07:13:03Z</time>
      </trkpt>
      <trkpt lat="42.87448" lon="2.85986">
        <ele>332</ele>
        <time>2024-07-19T07:13:04Z</time>
      </trkpt>
      <trkpt lat="42.8745" lon="2.85979">
        <ele>332</ele>
        <time>2024-07-19T07:13:05Z</time>
      </trkpt>
      <trkpt lat="42.87453" lon="2.85972">
        <ele>332</ele>
        <time>2024-07-19T07:13:06Z</time>
      </trkpt>
      <trkpt lat="42.87455" lon="2.85966">
        <ele>332</ele>
        <time>2024-07-19T07:13:07Z</time>
      </trkpt>
      <trkpt lat="42.87458" lon="2.85961">
        <ele>332</ele>
        <time>2024-07-19T07:13:08Z</time>
      </trkpt>
      <trkpt lat="42.87463" lon="2.85951">
        <ele>332</ele>
        <time>2024-07-19T07:13:10Z</time>
      </trkpt>
      <trkpt lat="42.87469" lon="2.85942">
        <ele>332</ele>
        <time>2024-07-19T07:13:12Z</time>
      </trkpt>
      <trkpt lat="42.87475" lon="2.85936">
        <ele>332</ele>
        <time>2024-07-19T07:13:14Z</time>
      </trkpt>
      <trkpt lat="42.87483" lon="2.85929">
        <ele>332</ele>
        <time>2024-07-19T07:13:16Z</time>
      </trkpt>
      <trkpt lat="42.87489" lon="2.85922">
        <ele>332</ele>
        <time>2024-07-19T07:13:18Z</time>
      </trkpt>
      <trkpt lat="42.87496" lon="2.85915">
        <ele>332</ele>
        <time>2024-07-19T07:13:20Z</time>
      </trkpt>
      <trkpt lat="42.87503" lon="2.85909">
        <ele>332</ele>
        <time>2024-07-19T07:13:22Z</time>
      </trkpt>
      <trkpt lat="42.87511" lon="2.85904">
        <ele>332</ele>
        <time>2024-07-19T07:13:24Z</time>
      </trkpt>
      <trkpt lat="42.87518" lon="2.85901">
        <ele>332</ele>
        <time>2024-07-19T07:13:26Z</time>
      </trkpt>
      <trkpt lat="42.87526" lon="2.85898">
        <ele>332</ele>
        <time>2024-07-19T07:13:28Z</time>
      </trkpt>
      <trkpt lat="42.87533" lon="2.85896">
        <ele>332</ele>
        <time>2024-07-19T07:13:30Z</time>
      </trkpt>
      <trkpt lat="42.8754" lon="2.85894">
        <ele>332</ele>
        <time>2024-07-19T07:13:32Z</time>
      </trkpt>
      <trkpt lat="42.87548" lon="2.85895">
        <ele>333</ele>
        <time>2024-07-19T07:13:34Z</time>
      </trkpt>
      <trkpt lat="42.87555" lon="2.85896">
        <ele>333</ele>
        <time>2024-07-19T07:13:36Z</time>
      </trkpt>
      <trkpt lat="42.87561" lon="2.85898">
        <ele>333</ele>
        <time>2024-07-19T07:13:38Z</time>
      </trkpt>
      <trkpt lat="42.87568" lon="2.85899">
        <ele>333</ele>
        <time>2024-07-19T07:13:40Z</time>
      </trkpt>
      <trkpt lat="42.87576" lon="2.85901">
        <ele>333</ele>
        <time>2024-07-19T07:13:42Z</time>
      </trkpt>
      <trkpt lat="42.87584" lon="2.85903">
        <ele>333</ele>
        <time>2024-07-19T07:13:44Z</time>
      </trkpt>
      <trkpt lat="42.87592" lon="2.85904">
        <ele>333</ele>
        <time>2024-07-19T07:13:46Z</time>
      </trkpt>
      <trkpt lat="42.876" lon="2.85902">
        <ele>333</ele>
        <time>2024-07-19T07:13:48Z</time>
      </trkpt>
      <trkpt lat="42.87608" lon="2.859">
        <ele>333</ele>
        <time>2024-07-19T07:13:50Z</time>
      </trkpt>
      <trkpt lat="42.87615" lon="2.85895">
        <ele>333</ele>
        <time>2024-07-19T07:13:52Z</time>
      </trkpt>
      <trkpt lat="42.8762" lon="2.85887">
        <ele>333</ele>
        <time>2024-07-19T07:13:54Z</time>
      </trkpt>
      <trkpt lat="42.87622" lon="2.8588">
        <ele>333</ele>
        <time>2024-07-19T07:13:55Z</time>
      </trkpt>
      <trkpt lat="42.87626" lon="2.85874">
        <ele>333</ele>
        <time>2024-07-19T07:13:56Z</time>
      </trkpt>
      <trkpt lat="42.87629" lon="2.85868">
        <ele>332</ele>
        <time>2024-07-19T07:13:57Z</time>
      </trkpt>
      <trkpt lat="42.87634" lon="2.85863">
        <ele>331</ele>
        <time>2024-07-19T07:13:58Z</time>
      </trkpt>
      <trkpt lat="42.87638" lon="2.85856">
        <ele>331</ele>
        <time>2024-07-19T07:13:59Z</time>
      </trkpt>
      <trkpt lat="42.87643" lon="2.8585">
        <ele>330</ele>
        <time>2024-07-19T07:14:00Z</time>
      </trkpt>
      <trkpt lat="42.87649" lon="2.85845">
        <ele>330</ele>
        <time>2024-07-19T07:14:01Z</time>
      </trkpt>
      <trkpt lat="42.87655" lon="2.85841">
        <ele>329</ele>
        <time>2024-07-19T07:14:02Z</time>
      </trkpt>
      <trkpt lat="42.8766" lon="2.85838">
        <ele>329</ele>
        <time>2024-07-19T07:14:03Z</time>
      </trkpt>
      <trkpt lat="42.87665" lon="2.85834">
        <ele>329</ele>
        <time>2024-07-19T07:14:04Z</time>
      </trkpt>
      <trkpt lat="42.87669" lon="2.85832">
        <ele>329</ele>
        <time>2024-07-19T07:14:05Z</time>
      </trkpt>
      <trkpt lat="42.87677" lon="2.85827">
        <ele>330</ele>
        <time>2024-07-19T07:14:07Z</time>
      </trkpt>
      <trkpt lat="42.87684" lon="2.85824">
        <ele>330</ele>
        <time>2024-07-19T07:14:09Z</time>
      </trkpt>
      <trkpt lat="42.8769" lon="2.85822">
        <ele>330</ele>
        <time>2024-07-19T07:14:11Z</time>
      </trkpt>
      <trkpt lat="42.87698" lon="2.8582">
        <ele>331</ele>
        <time>2024-07-19T07:14:13Z</time>
      </trkpt>
      <trkpt lat="42.87706" lon="2.85817">
        <ele>331</ele>
        <time>2024-07-19T07:14:15Z</time>
      </trkpt>
      <trkpt lat="42.87715" lon="2.85815">
        <ele>331</ele>
        <time>2024-07-19T07:14:17Z</time>
      </trkpt>
      <trkpt lat="42.87724" lon="2.85813">
        <ele>331</ele>
        <time>2024-07-19T07:14:19Z</time>
      </trkpt>
      <trkpt lat="42.87733" lon="2.85811">
        <ele>330</ele>
        <time>2024-07-19T07:14:21Z</time>
      </trkpt>
      <trkpt lat="42.87737" lon="2.8581">
        <ele>330</ele>
        <time>2024-07-19T07:14:22Z</time>
      </trkpt>
      <trkpt lat="42.87742" lon="2.85809">
        <ele>330</ele>
        <time>2024-07-19T07:14:23Z</time>
      </trkpt>
      <trkpt lat="42.87746" lon="2.85808">
        <ele>330</ele>
        <time>2024-07-19T07:14:24Z</time>
      </trkpt>
      <trkpt lat="42.87751" lon="2.85807">
        <ele>330</ele>
        <time>2024-07-19T07:14:25Z</time>
      </trkpt>
      <trkpt lat="42.87756" lon="2.85806">
        <ele>330</ele>
        <time>2024-07-19T07:14:26Z</time>
      </trkpt>
      <trkpt lat="42.8776" lon="2.85805">
        <ele>330</ele>
        <time>2024-07-19T07:14:27Z</time>
      </trkpt>
      <trkpt lat="42.87764" lon="2.85805">
        <ele>330</ele>
        <time>2024-07-19T07:14:28Z</time>
      </trkpt>
      <trkpt lat="42.87774" lon="2.85804">
        <ele>330</ele>
        <time>2024-07-19T07:14:30Z</time>
      </trkpt>
      <trkpt lat="42.87782" lon="2.85802">
        <ele>330</ele>
        <time>2024-07-19T07:14:32Z</time>
      </trkpt>
      <trkpt lat="42.87787" lon="2.85802">
        <ele>330</ele>
        <time>2024-07-19T07:14:33Z</time>
      </trkpt>
      <trkpt lat="42.87791" lon="2.85801">
        <ele>330</ele>
        <time>2024-07-19T07:14:34Z</time>
      </trkpt>
      <trkpt lat="42.87796" lon="2.858">
        <ele>329</ele>
        <time>2024-07-19T07:14:35Z</time>
      </trkpt>
      <trkpt lat="42.87801" lon="2.858">
        <ele>329</ele>
        <time>2024-07-19T07:14:36Z</time>
      </trkpt>
      <trkpt lat="42.87806" lon="2.858">
        <ele>329</ele>
        <time>2024-07-19T07:14:37Z</time>
      </trkpt>
      <trkpt lat="42.87811" lon="2.85801">
        <ele>329</ele>
        <time>2024-07-19T07:14:38Z</time>
      </trkpt>
      <trkpt lat="42.87816" lon="2.85803">
        <ele>329</ele>
        <time>2024-07-19T07:14:39Z</time>
      </trkpt>
      <trkpt lat="42.8782" lon="2.85806">
        <ele>328</ele>
        <time>2024-07-19T07:14:40Z</time>
      </trkpt>
      <trkpt lat="42.87824" lon="2.85809">
        <ele>328</ele>
        <time>2024-07-19T07:14:41Z</time>
      </trkpt>
      <trkpt lat="42.87828" lon="2.85812">
        <ele>328</ele>
        <time>2024-07-19T07:14:42Z</time>
      </trkpt>
      <trkpt lat="42.87832" lon="2.85816">
        <ele>328</ele>
        <time>2024-07-19T07:14:43Z</time>
      </trkpt>
      <trkpt lat="42.87836" lon="2.85819">
        <ele>328</ele>
        <time>2024-07-19T07:14:44Z</time>
      </trkpt>
      <trkpt lat="42.8784" lon="2.85823">
        <ele>328</ele>
        <time>2024-07-19T07:14:45Z</time>
      </trkpt>
      <trkpt lat="42.87844" lon="2.85827">
        <ele>327</ele>
        <time>2024-07-19T07:14:46Z</time>
      </trkpt>
      <trkpt lat="42.87849" lon="2.8583">
        <ele>327</ele>
        <time>2024-07-19T07:14:47Z</time>
      </trkpt>
      <trkpt lat="42.87853" lon="2.85834">
        <ele>327</ele>
        <time>2024-07-19T07:14:48Z</time>
      </trkpt>
      <trkpt lat="42.87857" lon="2.85839">
        <ele>327</ele>
        <time>2024-07-19T07:14:49Z</time>
      </trkpt>
      <trkpt lat="42.87861" lon="2.85843">
        <ele>326</ele>
        <time>2024-07-19T07:14:50Z</time>
      </trkpt>
      <trkpt lat="42.87865" lon="2.85847">
        <ele>326</ele>
        <time>2024-07-19T07:14:51Z</time>
      </trkpt>
      <trkpt lat="42.87869" lon="2.85852">
        <ele>326</ele>
        <time>2024-07-19T07:14:52Z</time>
      </trkpt>
      <trkpt lat="42.87875" lon="2.85858">
        <ele>325</ele>
        <time>2024-07-19T07:14:54Z</time>
      </trkpt>
      <trkpt lat="42.8788" lon="2.85863">
        <ele>325</ele>
        <time>2024-07-19T07:14:56Z</time>
      </trkpt>
      <trkpt lat="42.87885" lon="2.85868">
        <ele>325</ele>
        <time>2024-07-19T07:14:58Z</time>
      </trkpt>
      <trkpt lat="42.87891" lon="2.85871">
        <ele>325</ele>
        <time>2024-07-19T07:15:01Z</time>
      </trkpt>
      <trkpt lat="42.87896" lon="2.8587">
        <ele>325</ele>
        <time>2024-07-19T07:15:04Z</time>
      </trkpt>
      <trkpt lat="42.87902" lon="2.85871">
        <ele>324</ele>
        <time>2024-07-19T07:15:08Z</time>
      </trkpt>
      <trkpt lat="42.87907" lon="2.85869">
        <ele>324</ele>
        <time>2024-07-19T07:15:11Z</time>
      </trkpt>
      <trkpt lat="42.87912" lon="2.85869">
        <ele>324</ele>
        <time>2024-07-19T07:15:13Z</time>
      </trkpt>
      <trkpt lat="42.87917" lon="2.85864">
        <ele>323</ele>
        <time>2024-07-19T07:15:16Z</time>
      </trkpt>
      <trkpt lat="42.87916" lon="2.85857">
        <ele>323</ele>
        <time>2024-07-19T07:15:18Z</time>
      </trkpt>
      <trkpt lat="42.87917" lon="2.85849">
        <ele>323</ele>
        <time>2024-07-19T07:15:20Z</time>
      </trkpt>
      <trkpt lat="42.87917" lon="2.85842">
        <ele>323</ele>
        <time>2024-07-19T07:15:22Z</time>
      </trkpt>
      <trkpt lat="42.8792" lon="2.85835">
        <ele>323</ele>
        <time>2024-07-19T07:15:25Z</time>
      </trkpt>
      <trkpt lat="42.87925" lon="2.85834">
        <ele>323</ele>
        <time>2024-07-19T07:15:31Z</time>
      </trkpt>
      <trkpt lat="42.87929" lon="2.8583">
        <ele>324</ele>
        <time>2024-07-19T07:15:42Z</time>
      </trkpt>
      <trkpt lat="42.87933" lon="2.85824">
        <ele>325</ele>
        <time>2024-07-19T07:15:45Z</time>
      </trkpt>
      <trkpt lat="42.87936" lon="2.85817">
        <ele>325</ele>
        <time>2024-07-19T07:15:48Z</time>
      </trkpt>
      <trkpt lat="42.87938" lon="2.85811">
        <ele>326</ele>
        <time>2024-07-19T07:15:50Z</time>
      </trkpt>
      <trkpt lat="42.8794" lon="2.85805">
        <ele>327</ele>
        <time>2024-07-19T07:15:52Z</time>
      </trkpt>
      <trkpt lat="42.87941" lon="2.85798">
        <ele>327</ele>
        <time>2024-07-19T07:15:54Z</time>
      </trkpt>
      <trkpt lat="42.87941" lon="2.85791">
        <ele>327</ele>
        <time>2024-07-19T07:15:56Z</time>
      </trkpt>
      <trkpt lat="42.87939" lon="2.85782">
        <ele>327</ele>
        <time>2024-07-19T07:15:58Z</time>
      </trkpt>
      <trkpt lat="42.87937" lon="2.85772">
        <ele>327</ele>
        <time>2024-07-19T07:16:00Z</time>
      </trkpt>
      <trkpt lat="42.87934" lon="2.85762">
        <ele>327</ele>
        <time>2024-07-19T07:16:02Z</time>
      </trkpt>
      <trkpt lat="42.87931" lon="2.85752">
        <ele>326</ele>
        <time>2024-07-19T07:16:04Z</time>
      </trkpt>
      <trkpt lat="42.8793" lon="2.85741">
        <ele>325</ele>
        <time>2024-07-19T07:16:06Z</time>
      </trkpt>
      <trkpt lat="42.87928" lon="2.8573">
        <ele>324</ele>
        <time>2024-07-19T07:16:08Z</time>
      </trkpt>
      <trkpt lat="42.87924" lon="2.8572">
        <ele>323</ele>
        <time>2024-07-19T07:16:10Z</time>
      </trkpt>
      <trkpt lat="42.87922" lon="2.85709">
        <ele>322</ele>
        <time>2024-07-19T07:16:12Z</time>
      </trkpt>
      <trkpt lat="42.87922" lon="2.857">
        <ele>321</ele>
        <time>2024-07-19T07:16:14Z</time>
      </trkpt>
      <trkpt lat="42.87923" lon="2.85692">
        <ele>321</ele>
        <time>2024-07-19T07:16:18Z</time>
      </trkpt>
      <trkpt lat="42.87923" lon="2.85684">
        <ele>320</ele>
        <time>2024-07-19T07:16:20Z</time>
      </trkpt>
      <trkpt lat="42.87925" lon="2.85674">
        <ele>319</ele>
        <time>2024-07-19T07:16:22Z</time>
      </trkpt>
      <trkpt lat="42.87927" lon="2.85664">
        <ele>319</ele>
        <time>2024-07-19T07:16:24Z</time>
      </trkpt>
      <trkpt lat="42.8793" lon="2.85654">
        <ele>318</ele>
        <time>2024-07-19T07:16:26Z</time>
      </trkpt>
      <trkpt lat="42.87934" lon="2.85645">
        <ele>317</ele>
        <time>2024-07-19T07:16:28Z</time>
      </trkpt>
      <trkpt lat="42.87938" lon="2.85634">
        <ele>316</ele>
        <time>2024-07-19T07:16:30Z</time>
      </trkpt>
      <trkpt lat="42.87941" lon="2.85629">
        <ele>316</ele>
        <time>2024-07-19T07:16:31Z</time>
      </trkpt>
      <trkpt lat="42.87943" lon="2.85623">
        <ele>315</ele>
        <time>2024-07-19T07:16:32Z</time>
      </trkpt>
      <trkpt lat="42.87944" lon="2.85617">
        <ele>314</ele>
        <time>2024-07-19T07:16:33Z</time>
      </trkpt>
      <trkpt lat="42.87945" lon="2.8561">
        <ele>314</ele>
        <time>2024-07-19T07:16:34Z</time>
      </trkpt>
      <trkpt lat="42.87947" lon="2.85605">
        <ele>313</ele>
        <time>2024-07-19T07:16:35Z</time>
      </trkpt>
      <trkpt lat="42.87948" lon="2.85599">
        <ele>313</ele>
        <time>2024-07-19T07:16:36Z</time>
      </trkpt>
      <trkpt lat="42.8795" lon="2.85593">
        <ele>313</ele>
        <time>2024-07-19T07:16:37Z</time>
      </trkpt>
      <trkpt lat="42.87952" lon="2.85587">
        <ele>312</ele>
        <time>2024-07-19T07:16:38Z</time>
      </trkpt>
      <trkpt lat="42.87955" lon="2.85581">
        <ele>312</ele>
        <time>2024-07-19T07:16:39Z</time>
      </trkpt>
      <trkpt lat="42.87957" lon="2.85575">
        <ele>312</ele>
        <time>2024-07-19T07:16:40Z</time>
      </trkpt>
      <trkpt lat="42.8796" lon="2.85569">
        <ele>312</ele>
        <time>2024-07-19T07:16:41Z</time>
      </trkpt>
      <trkpt lat="42.87962" lon="2.85564">
        <ele>311</ele>
        <time>2024-07-19T07:16:42Z</time>
      </trkpt>
      <trkpt lat="42.87965" lon="2.85559">
        <ele>311</ele>
        <time>2024-07-19T07:16:43Z</time>
      </trkpt>
      <trkpt lat="42.8797" lon="2.8555">
        <ele>311</ele>
        <time>2024-07-19T07:16:45Z</time>
      </trkpt>
      <trkpt lat="42.87975" lon="2.8554">
        <ele>311</ele>
        <time>2024-07-19T07:16:47Z</time>
      </trkpt>
      <trkpt lat="42.87983" lon="2.85527">
        <ele>311</ele>
        <time>2024-07-19T07:16:50Z</time>
      </trkpt>
      <trkpt lat="42.8799" lon="2.85521">
        <ele>311</ele>
        <time>2024-07-19T07:16:52Z</time>
      </trkpt>
      <trkpt lat="42.87995" lon="2.85516">
        <ele>311</ele>
        <time>2024-07-19T07:16:54Z</time>
      </trkpt>
      <trkpt lat="42.88001" lon="2.85508">
        <ele>311</ele>
        <time>2024-07-19T07:16:56Z</time>
      </trkpt>
      <trkpt lat="42.88005" lon="2.855">
        <ele>311</ele>
        <time>2024-07-19T07:16:58Z</time>
      </trkpt>
      <trkpt lat="42.88008" lon="2.85494">
        <ele>311</ele>
        <time>2024-07-19T07:17:00Z</time>
      </trkpt>
      <trkpt lat="42.88013" lon="2.85486">
        <ele>311</ele>
        <time>2024-07-19T07:17:11Z</time>
      </trkpt>
      <trkpt lat="42.88017" lon="2.85478">
        <ele>311</ele>
        <time>2024-07-19T07:17:13Z</time>
      </trkpt>
      <trkpt lat="42.88022" lon="2.85471">
        <ele>311</ele>
        <time>2024-07-19T07:17:15Z</time>
      </trkpt>
      <trkpt lat="42.88027" lon="2.85465">
        <ele>311</ele>
        <time>2024-07-19T07:17:17Z</time>
      </trkpt>
      <trkpt lat="42.88031" lon="2.8546">
        <ele>311</ele>
        <time>2024-07-19T07:17:19Z</time>
      </trkpt>
      <trkpt lat="42.88036" lon="2.85454">
        <ele>311</ele>
        <time>2024-07-19T07:17:21Z</time>
      </trkpt>
      <trkpt lat="42.8804" lon="2.85449">
        <ele>311</ele>
        <time>2024-07-19T07:17:23Z</time>
      </trkpt>
      <trkpt lat="42.88043" lon="2.85444">
        <ele>310</ele>
        <time>2024-07-19T07:17:25Z</time>
      </trkpt>
      <trkpt lat="42.88045" lon="2.85436">
        <ele>310</ele>
        <time>2024-07-19T07:17:27Z</time>
      </trkpt>
      <trkpt lat="42.88049" lon="2.85428">
        <ele>310</ele>
        <time>2024-07-19T07:17:29Z</time>
      </trkpt>
      <trkpt lat="42.88055" lon="2.85427">
        <ele>310</ele>
        <time>2024-07-19T07:17:31Z</time>
      </trkpt>
      <trkpt lat="42.88062" lon="2.8543">
        <ele>310</ele>
        <time>2024-07-19T07:17:33Z</time>
      </trkpt>
      <trkpt lat="42.88068" lon="2.85433">
        <ele>309</ele>
        <time>2024-07-19T07:17:35Z</time>
      </trkpt>
      <trkpt lat="42.88074" lon="2.85433">
        <ele>309</ele>
        <time>2024-07-19T07:17:37Z</time>
      </trkpt>
      <trkpt lat="42.8808" lon="2.85431">
        <ele>309</ele>
        <time>2024-07-19T07:17:39Z</time>
      </trkpt>
      <trkpt lat="42.88087" lon="2.8543">
        <ele>309</ele>
        <time>2024-07-19T07:17:41Z</time>
      </trkpt>
      <trkpt lat="42.88094" lon="2.85429">
        <ele>309</ele>
        <time>2024-07-19T07:17:43Z</time>
      </trkpt>
      <trkpt lat="42.88101" lon="2.8543">
        <ele>308</ele>
        <time>2024-07-19T07:17:45Z</time>
      </trkpt>
      <trkpt lat="42.88108" lon="2.85432">
        <ele>308</ele>
        <time>2024-07-19T07:17:47Z</time>
      </trkpt>
      <trkpt lat="42.88115" lon="2.85436">
        <ele>307</ele>
        <time>2024-07-19T07:17:49Z</time>
      </trkpt>
      <trkpt lat="42.88122" lon="2.85441">
        <ele>307</ele>
        <time>2024-07-19T07:17:51Z</time>
      </trkpt>
      <trkpt lat="42.88129" lon="2.85447">
        <ele>306</ele>
        <time>2024-07-19T07:17:53Z</time>
      </trkpt>
      <trkpt lat="42.88136" lon="2.85452">
        <ele>305</ele>
        <time>2024-07-19T07:17:55Z</time>
      </trkpt>
      <trkpt lat="42.88145" lon="2.85456">
        <ele>305</ele>
        <time>2024-07-19T07:17:57Z</time>
      </trkpt>
      <trkpt lat="42.88149" lon="2.85459">
        <ele>304</ele>
        <time>2024-07-19T07:17:58Z</time>
      </trkpt>
      <trkpt lat="42.88154" lon="2.85462">
        <ele>303</ele>
        <time>2024-07-19T07:17:59Z</time>
      </trkpt>
      <trkpt lat="42.88158" lon="2.85465">
        <ele>303</ele>
        <time>2024-07-19T07:18:00Z</time>
      </trkpt>
      <trkpt lat="42.88163" lon="2.85469">
        <ele>302</ele>
        <time>2024-07-19T07:18:01Z</time>
      </trkpt>
      <trkpt lat="42.88167" lon="2.85472">
        <ele>302</ele>
        <time>2024-07-19T07:18:02Z</time>
      </trkpt>
      <trkpt lat="42.88172" lon="2.85476">
        <ele>302</ele>
        <time>2024-07-19T07:18:03Z</time>
      </trkpt>
      <trkpt lat="42.88176" lon="2.85481">
        <ele>301</ele>
        <time>2024-07-19T07:18:04Z</time>
      </trkpt>
      <trkpt lat="42.88181" lon="2.85486">
        <ele>301</ele>
        <time>2024-07-19T07:18:05Z</time>
      </trkpt>
      <trkpt lat="42.88186" lon="2.85491">
        <ele>300</ele>
        <time>2024-07-19T07:18:06Z</time>
      </trkpt>
      <trkpt lat="42.8819" lon="2.85496">
        <ele>300</ele>
        <time>2024-07-19T07:18:07Z</time>
      </trkpt>
      <trkpt lat="42.88194" lon="2.85502">
        <ele>300</ele>
        <time>2024-07-19T07:18:08Z</time>
      </trkpt>
      <trkpt lat="42.88199" lon="2.85507">
        <ele>299</ele>
        <time>2024-07-19T07:18:09Z</time>
      </trkpt>
      <trkpt lat="42.88203" lon="2.85511">
        <ele>299</ele>
        <time>2024-07-19T07:18:10Z</time>
      </trkpt>
      <trkpt lat="42.88208" lon="2.85516">
        <ele>298</ele>
        <time>2024-07-19T07:18:11Z</time>
      </trkpt>
      <trkpt lat="42.88212" lon="2.85521">
        <ele>298</ele>
        <time>2024-07-19T07:18:12Z</time>
      </trkpt>
      <trkpt lat="42.88217" lon="2.85527">
        <ele>298</ele>
        <time>2024-07-19T07:18:13Z</time>
      </trkpt>
      <trkpt lat="42.88221" lon="2.85532">
        <ele>297</ele>
        <time>2024-07-19T07:18:14Z</time>
      </trkpt>
      <trkpt lat="42.88226" lon="2.85537">
        <ele>297</ele>
        <time>2024-07-19T07:18:15Z</time>
      </trkpt>
      <trkpt lat="42.88231" lon="2.85542">
        <ele>297</ele>
        <time>2024-07-19T07:18:16Z</time>
      </trkpt>
      <trkpt lat="42.88235" lon="2.85548">
        <ele>297</ele>
        <time>2024-07-19T07:18:17Z</time>
      </trkpt>
      <trkpt lat="42.88239" lon="2.85553">
        <ele>297</ele>
        <time>2024-07-19T07:18:18Z</time>
      </trkpt>
      <trkpt lat="42.88242" lon="2.85558">
        <ele>297</ele>
        <time>2024-07-19T07:18:19Z</time>
      </trkpt>
      <trkpt lat="42.88246" lon="2.85563">
        <ele>297</ele>
        <time>2024-07-19T07:18:20Z</time>
      </trkpt>
      <trkpt lat="42.88249" lon="2.85568">
        <ele>296</ele>
        <time>2024-07-19T07:18:21Z</time>
      </trkpt>
      <trkpt lat="42.88256" lon="2.85576">
        <ele>296</ele>
        <time>2024-07-19T07:18:23Z</time>
      </trkpt>
      <trkpt lat="42.88264" lon="2.85581">
        <ele>296</ele>
        <time>2024-07-19T07:18:25Z</time>
      </trkpt>
      <trkpt lat="42.88268" lon="2.85584">
        <ele>296</ele>
        <time>2024-07-19T07:18:26Z</time>
      </trkpt>
      <trkpt lat="42.88273" lon="2.85587">
        <ele>296</ele>
        <time>2024-07-19T07:18:27Z</time>
      </trkpt>
      <trkpt lat="42.88276" lon="2.85592">
        <ele>296</ele>
        <time>2024-07-19T07:18:28Z</time>
      </trkpt>
      <trkpt lat="42.8828" lon="2.85597">
        <ele>296</ele>
        <time>2024-07-19T07:18:29Z</time>
      </trkpt>
      <trkpt lat="42.88284" lon="2.85601">
        <ele>296</ele>
        <time>2024-07-19T07:18:30Z</time>
      </trkpt>
      <trkpt lat="42.88288" lon="2.85604">
        <ele>296</ele>
        <time>2024-07-19T07:18:31Z</time>
      </trkpt>
      <trkpt lat="42.88292" lon="2.85607">
        <ele>296</ele>
        <time>2024-07-19T07:18:32Z</time>
      </trkpt>
      <trkpt lat="42.88295" lon="2.85611">
        <ele>296</ele>
        <time>2024-07-19T07:18:33Z</time>
      </trkpt>
      <trkpt lat="42.88299" lon="2.85615">
        <ele>296</ele>
        <time>2024-07-19T07:18:34Z</time>
      </trkpt>
      <trkpt lat="42.88302" lon="2.85619">
        <ele>295</ele>
        <time>2024-07-19T07:18:35Z</time>
      </trkpt>
      <trkpt lat="42.88306" lon="2.85623">
        <ele>295</ele>
        <time>2024-07-19T07:18:36Z</time>
      </trkpt>
      <trkpt lat="42.88314" lon="2.85628">
        <ele>295</ele>
        <time>2024-07-19T07:18:38Z</time>
      </trkpt>
      <trkpt lat="42.88323" lon="2.85632">
        <ele>295</ele>
        <time>2024-07-19T07:18:40Z</time>
      </trkpt>
      <trkpt lat="42.88327" lon="2.85635">
        <ele>295</ele>
        <time>2024-07-19T07:18:41Z</time>
      </trkpt>
      <trkpt lat="42.88335" lon="2.8564">
        <ele>295</ele>
        <time>2024-07-19T07:18:43Z</time>
      </trkpt>
      <trkpt lat="42.88339" lon="2.85643">
        <ele>294</ele>
        <time>2024-07-19T07:18:44Z</time>
      </trkpt>
      <trkpt lat="42.88343" lon="2.85646">
        <ele>294</ele>
        <time>2024-07-19T07:18:45Z</time>
      </trkpt>
      <trkpt lat="42.88348" lon="2.8565">
        <ele>294</ele>
        <time>2024-07-19T07:18:46Z</time>
      </trkpt>
      <trkpt lat="42.88355" lon="2.85655">
        <ele>294</ele>
        <time>2024-07-19T07:18:48Z</time>
      </trkpt>
      <trkpt lat="42.8836" lon="2.85657">
        <ele>293</ele>
        <time>2024-07-19T07:18:49Z</time>
      </trkpt>
      <trkpt lat="42.88367" lon="2.85663">
        <ele>293</ele>
        <time>2024-07-19T07:18:51Z</time>
      </trkpt>
      <trkpt lat="42.88374" lon="2.85669">
        <ele>293</ele>
        <time>2024-07-19T07:18:53Z</time>
      </trkpt>
      <trkpt lat="42.8838" lon="2.85675">
        <ele>293</ele>
        <time>2024-07-19T07:18:55Z</time>
      </trkpt>
      <trkpt lat="42.88387" lon="2.85681">
        <ele>292</ele>
        <time>2024-07-19T07:18:57Z</time>
      </trkpt>
      <trkpt lat="42.88393" lon="2.85688">
        <ele>292</ele>
        <time>2024-07-19T07:18:59Z</time>
      </trkpt>
      <trkpt lat="42.88398" lon="2.85697">
        <ele>292</ele>
        <time>2024-07-19T07:19:01Z</time>
      </trkpt>
      <trkpt lat="42.88404" lon="2.85705">
        <ele>291</ele>
        <time>2024-07-19T07:19:03Z</time>
      </trkpt>
      <trkpt lat="42.88411" lon="2.85708">
        <ele>291</ele>
        <time>2024-07-19T07:19:05Z</time>
      </trkpt>
      <trkpt lat="42.88419" lon="2.85706">
        <ele>291</ele>
        <time>2024-07-19T07:19:07Z</time>
      </trkpt>
      <trkpt lat="42.88427" lon="2.85705">
        <ele>291</ele>
        <time>2024-07-19T07:19:09Z</time>
      </trkpt>
      <trkpt lat="42.88435" lon="2.85706">
        <ele>290</ele>
        <time>2024-07-19T07:19:11Z</time>
      </trkpt>
      <trkpt lat="42.88442" lon="2.85706">
        <ele>290</ele>
        <time>2024-07-19T07:19:13Z</time>
      </trkpt>
      <trkpt lat="42.88449" lon="2.85704">
        <ele>290</ele>
        <time>2024-07-19T07:19:15Z</time>
      </trkpt>
      <trkpt lat="42.88456" lon="2.85696">
        <ele>290</ele>
        <time>2024-07-19T07:19:17Z</time>
      </trkpt>
      <trkpt lat="42.88459" lon="2.85692">
        <ele>290</ele>
        <time>2024-07-19T07:19:18Z</time>
      </trkpt>
      <trkpt lat="42.88463" lon="2.85688">
        <ele>289</ele>
        <time>2024-07-19T07:19:19Z</time>
      </trkpt>
      <trkpt lat="42.88466" lon="2.85683">
        <ele>289</ele>
        <time>2024-07-19T07:19:20Z</time>
      </trkpt>
      <trkpt lat="42.88469" lon="2.85679">
        <ele>289</ele>
        <time>2024-07-19T07:19:21Z</time>
      </trkpt>
      <trkpt lat="42.88473" lon="2.85675">
        <ele>289</ele>
        <time>2024-07-19T07:19:22Z</time>
      </trkpt>
      <trkpt lat="42.88481" lon="2.8567">
        <ele>289</ele>
        <time>2024-07-19T07:19:24Z</time>
      </trkpt>
      <trkpt lat="42.88488" lon="2.85664">
        <ele>289</ele>
        <time>2024-07-19T07:19:26Z</time>
      </trkpt>
      <trkpt lat="42.88496" lon="2.8566">
        <ele>288</ele>
        <time>2024-07-19T07:19:28Z</time>
      </trkpt>
      <trkpt lat="42.88504" lon="2.85658">
        <ele>288</ele>
        <time>2024-07-19T07:19:30Z</time>
      </trkpt>
      <trkpt lat="42.88511" lon="2.85654">
        <ele>288</ele>
        <time>2024-07-19T07:19:32Z</time>
      </trkpt>
      <trkpt lat="42.88518" lon="2.8565">
        <ele>288</ele>
        <time>2024-07-19T07:19:34Z</time>
      </trkpt>
      <trkpt lat="42.88526" lon="2.8565">
        <ele>288</ele>
        <time>2024-07-19T07:19:36Z</time>
      </trkpt>
      <trkpt lat="42.88534" lon="2.85653">
        <ele>288</ele>
        <time>2024-07-19T07:19:38Z</time>
      </trkpt>
      <trkpt lat="42.88541" lon="2.85657">
        <ele>288</ele>
        <time>2024-07-19T07:19:40Z</time>
      </trkpt>
      <trkpt lat="42.88547" lon="2.85657">
        <ele>287</ele>
        <time>2024-07-19T07:19:42Z</time>
      </trkpt>
      <trkpt lat="42.88549" lon="2.85649">
        <ele>287</ele>
        <time>2024-07-19T07:19:44Z</time>
      </trkpt>
      <trkpt lat="42.88548" lon="2.8564">
        <ele>287</ele>
        <time>2024-07-19T07:19:46Z</time>
      </trkpt>
      <trkpt lat="42.88547" lon="2.85631">
        <ele>287</ele>
        <time>2024-07-19T07:19:48Z</time>
      </trkpt>
      <trkpt lat="42.88545" lon="2.8562">
        <ele>286</ele>
        <time>2024-07-19T07:19:50Z</time>
      </trkpt>
      <trkpt lat="42.88541" lon="2.85609">
        <ele>286</ele>
        <time>2024-07-19T07:19:52Z</time>
      </trkpt>
      <trkpt lat="42.88538" lon="2.85598">
        <ele>285</ele>
        <time>2024-07-19T07:19:54Z</time>
      </trkpt>
      <trkpt lat="42.88534" lon="2.85587">
        <ele>285</ele>
        <time>2024-07-19T07:19:56Z</time>
      </trkpt>
      <trkpt lat="42.88532" lon="2.8558">
        <ele>284</ele>
        <time>2024-07-19T07:19:57Z</time>
      </trkpt>
      <trkpt lat="42.88531" lon="2.85574">
        <ele>283</ele>
        <time>2024-07-19T07:19:58Z</time>
      </trkpt>
      <trkpt lat="42.88529" lon="2.85568">
        <ele>283</ele>
        <time>2024-07-19T07:19:59Z</time>
      </trkpt>
      <trkpt lat="42.88528" lon="2.85562">
        <ele>282</ele>
        <time>2024-07-19T07:20:00Z</time>
      </trkpt>
      <trkpt lat="42.88527" lon="2.8555">
        <ele>282</ele>
        <time>2024-07-19T07:20:02Z</time>
      </trkpt>
      <trkpt lat="42.88527" lon="2.85538">
        <ele>281</ele>
        <time>2024-07-19T07:20:04Z</time>
      </trkpt>
      <trkpt lat="42.88527" lon="2.85527">
        <ele>281</ele>
        <time>2024-07-19T07:20:06Z</time>
      </trkpt>
      <trkpt lat="42.88526" lon="2.85515">
        <ele>280</ele>
        <time>2024-07-19T07:20:08Z</time>
      </trkpt>
      <trkpt lat="42.88525" lon="2.85503">
        <ele>280</ele>
        <time>2024-07-19T07:20:10Z</time>
      </trkpt>
      <trkpt lat="42.88525" lon="2.85492">
        <ele>279</ele>
        <time>2024-07-19T07:20:12Z</time>
      </trkpt>
      <trkpt lat="42.88523" lon="2.85484">
        <ele>278</ele>
        <time>2024-07-19T07:20:14Z</time>
      </trkpt>
      <trkpt lat="42.88524" lon="2.85477">
        <ele>278</ele>
        <time>2024-07-19T07:20:16Z</time>
      </trkpt>
      <trkpt lat="42.88526" lon="2.85468">
        <ele>277</ele>
        <time>2024-07-19T07:20:18Z</time>
      </trkpt>
      <trkpt lat="42.88531" lon="2.8546">
        <ele>277</ele>
        <time>2024-07-19T07:20:20Z</time>
      </trkpt>
      <trkpt lat="42.88538" lon="2.85456">
        <ele>276</ele>
        <time>2024-07-19T07:20:22Z</time>
      </trkpt>
      <trkpt lat="42.88546" lon="2.85457">
        <ele>276</ele>
        <time>2024-07-19T07:20:24Z</time>
      </trkpt>
      <trkpt lat="42.88553" lon="2.8546">
        <ele>276</ele>
        <time>2024-07-19T07:20:26Z</time>
      </trkpt>
      <trkpt lat="42.88561" lon="2.85462">
        <ele>275</ele>
        <time>2024-07-19T07:20:28Z</time>
      </trkpt>
      <trkpt lat="42.88568" lon="2.85464">
        <ele>275</ele>
        <time>2024-07-19T07:20:30Z</time>
      </trkpt>
      <trkpt lat="42.88575" lon="2.85466">
        <ele>275</ele>
        <time>2024-07-19T07:20:32Z</time>
      </trkpt>
      <trkpt lat="42.88582" lon="2.85467">
        <ele>275</ele>
        <time>2024-07-19T07:20:34Z</time>
      </trkpt>
      <trkpt lat="42.88589" lon="2.85468">
        <ele>275</ele>
        <time>2024-07-19T07:20:36Z</time>
      </trkpt>
      <trkpt lat="42.88597" lon="2.8547">
        <ele>274</ele>
        <time>2024-07-19T07:20:38Z</time>
      </trkpt>
      <trkpt lat="42.88604" lon="2.85472">
        <ele>273</ele>
        <time>2024-07-19T07:20:40Z</time>
      </trkpt>
      <trkpt lat="42.88612" lon="2.85475">
        <ele>273</ele>
        <time>2024-07-19T07:20:42Z</time>
      </trkpt>
      <trkpt lat="42.88615" lon="2.85479">
        <ele>272</ele>
        <time>2024-07-19T07:20:43Z</time>
      </trkpt>
      <trkpt lat="42.88619" lon="2.85483">
        <ele>271</ele>
        <time>2024-07-19T07:20:44Z</time>
      </trkpt>
      <trkpt lat="42.88624" lon="2.85485">
        <ele>270</ele>
        <time>2024-07-19T07:20:45Z</time>
      </trkpt>
      <trkpt lat="42.88628" lon="2.85486">
        <ele>270</ele>
        <time>2024-07-19T07:20:46Z</time>
      </trkpt>
      <trkpt lat="42.88633" lon="2.85489">
        <ele>269</ele>
        <time>2024-07-19T07:20:47Z</time>
      </trkpt>
      <trkpt lat="42.88641" lon="2.85493">
        <ele>269</ele>
        <time>2024-07-19T07:20:49Z</time>
      </trkpt>
      <trkpt lat="42.8865" lon="2.85497">
        <ele>269</ele>
        <time>2024-07-19T07:20:51Z</time>
      </trkpt>
      <trkpt lat="42.88654" lon="2.85499">
        <ele>268</ele>
        <time>2024-07-19T07:20:52Z</time>
      </trkpt>
      <trkpt lat="42.88658" lon="2.85503">
        <ele>268</ele>
        <time>2024-07-19T07:20:53Z</time>
      </trkpt>
      <trkpt lat="42.88662" lon="2.85511">
        <ele>267</ele>
        <time>2024-07-19T07:20:55Z</time>
      </trkpt>
      <trkpt lat="42.88664" lon="2.85519">
        <ele>267</ele>
        <time>2024-07-19T07:20:57Z</time>
      </trkpt>
      <trkpt lat="42.88664" lon="2.85529">
        <ele>266</ele>
        <time>2024-07-19T07:20:59Z</time>
      </trkpt>
      <trkpt lat="42.88662" lon="2.85541">
        <ele>265</ele>
        <time>2024-07-19T07:21:01Z</time>
      </trkpt>
      <trkpt lat="42.8866" lon="2.85548">
        <ele>265</ele>
        <time>2024-07-19T07:21:02Z</time>
      </trkpt>
      <trkpt lat="42.88659" lon="2.85557">
        <ele>264</ele>
        <time>2024-07-19T07:21:04Z</time>
      </trkpt>
      <trkpt lat="42.88658" lon="2.85564">
        <ele>264</ele>
        <time>2024-07-19T07:21:27Z</time>
      </trkpt>
      <trkpt lat="42.88658" lon="2.85564">
        <ele>265</ele>
        <time>2024-07-19T07:21:42Z</time>
      </trkpt>
      <trkpt lat="42.88658" lon="2.85564">
        <ele>265</ele>
        <time>2024-07-19T07:21:43Z</time>
      </trkpt>
      <trkpt lat="42.88659" lon="2.85572">
        <ele>266</ele>
        <time>2024-07-19T07:21:55Z</time>
      </trkpt>
      <trkpt lat="42.88656" lon="2.85578">
        <ele>267</ele>
        <time>2024-07-19T07:21:59Z</time>
      </trkpt>
      <trkpt lat="42.88654" lon="2.85585">
        <ele>268</ele>
        <time>2024-07-19T07:22:03Z</time>
      </trkpt>
      <trkpt lat="42.88653" lon="2.85592">
        <ele>269</ele>
        <time>2024-07-19T07:22:06Z</time>
      </trkpt>
      <trkpt lat="42.88652" lon="2.856">
        <ele>269</ele>
        <time>2024-07-19T07:22:10Z</time>
      </trkpt>
      <trkpt lat="42.88656" lon="2.85605">
        <ele>270</ele>
        <time>2024-07-19T07:22:22Z</time>
      </trkpt>
      <trkpt lat="42.8866" lon="2.85609">
        <ele>271</ele>
        <time>2024-07-19T07:22:32Z</time>
      </trkpt>
      <trkpt lat="42.88665" lon="2.85609">
        <ele>272</ele>
        <time>2024-07-19T07:22:35Z</time>
      </trkpt>
      <trkpt lat="42.88671" lon="2.85608">
        <ele>273</ele>
        <time>2024-07-19T07:22:38Z</time>
      </trkpt>
      <trkpt lat="42.88676" lon="2.85605">
        <ele>274</ele>
        <time>2024-07-19T07:22:41Z</time>
      </trkpt>
      <trkpt lat="42.88681" lon="2.85604">
        <ele>274</ele>
        <time>2024-07-19T07:22:44Z</time>
      </trkpt>
      <trkpt lat="42.88686" lon="2.85601">
        <ele>275</ele>
        <time>2024-07-19T07:22:47Z</time>
      </trkpt>
      <trkpt lat="42.8869" lon="2.85598">
        <ele>275</ele>
        <time>2024-07-19T07:22:50Z</time>
      </trkpt>
      <trkpt lat="42.88694" lon="2.85599">
        <ele>276</ele>
        <time>2024-07-19T07:22:53Z</time>
      </trkpt>
      <trkpt lat="42.887" lon="2.85597">
        <ele>276</ele>
        <time>2024-07-19T07:22:57Z</time>
      </trkpt>
      <trkpt lat="42.88704" lon="2.85594">
        <ele>277</ele>
        <time>2024-07-19T07:23:00Z</time>
      </trkpt>
      <trkpt lat="42.8871" lon="2.85592">
        <ele>277</ele>
        <time>2024-07-19T07:23:04Z</time>
      </trkpt>
      <trkpt lat="42.88715" lon="2.85589">
        <ele>278</ele>
        <time>2024-07-19T07:23:08Z</time>
      </trkpt>
      <trkpt lat="42.88718" lon="2.85582">
        <ele>279</ele>
        <time>2024-07-19T07:23:12Z</time>
      </trkpt>
      <trkpt lat="42.8872" lon="2.85576">
        <ele>279</ele>
        <time>2024-07-19T07:23:15Z</time>
      </trkpt>
      <trkpt lat="42.88726" lon="2.85577">
        <ele>280</ele>
        <time>2024-07-19T07:23:19Z</time>
      </trkpt>
      <trkpt lat="42.88725" lon="2.85584">
        <ele>281</ele>
        <time>2024-07-19T07:23:22Z</time>
      </trkpt>
      <trkpt lat="42.88726" lon="2.85591">
        <ele>282</ele>
        <time>2024-07-19T07:23:25Z</time>
      </trkpt>
      <trkpt lat="42.88726" lon="2.85599">
        <ele>282</ele>
        <time>2024-07-19T07:23:28Z</time>
      </trkpt>
      <trkpt lat="42.88728" lon="2.85606">
        <ele>282</ele>
        <time>2024-07-19T07:23:31Z</time>
      </trkpt>
      <trkpt lat="42.88731" lon="2.85613">
        <ele>283</ele>
        <time>2024-07-19T07:23:34Z</time>
      </trkpt>
      <trkpt lat="42.88735" lon="2.85617">
        <ele>283</ele>
        <time>2024-07-19T07:23:37Z</time>
      </trkpt>
      <trkpt lat="42.88741" lon="2.85617">
        <ele>283</ele>
        <time>2024-07-19T07:23:40Z</time>
      </trkpt>
      <trkpt lat="42.88746" lon="2.85621">
        <ele>284</ele>
        <time>2024-07-19T07:23:43Z</time>
      </trkpt>
      <trkpt lat="42.8875" lon="2.85626">
        <ele>284</ele>
        <time>2024-07-19T07:23:46Z</time>
      </trkpt>
      <trkpt lat="42.88754" lon="2.85631">
        <ele>285</ele>
        <time>2024-07-19T07:23:49Z</time>
      </trkpt>
      <trkpt lat="42.88758" lon="2.85633">
        <ele>285</ele>
        <time>2024-07-19T07:23:52Z</time>
      </trkpt>
      <trkpt lat="42.88763" lon="2.85631">
        <ele>285</ele>
        <time>2024-07-19T07:23:55Z</time>
      </trkpt>
      <trkpt lat="42.88768" lon="2.85633">
        <ele>286</ele>
        <time>2024-07-19T07:23:58Z</time>
      </trkpt>
      <trkpt lat="42.88773" lon="2.85635">
        <ele>286</ele>
        <time>2024-07-19T07:24:01Z</time>
      </trkpt>
      <trkpt lat="42.88778" lon="2.85632">
        <ele>286</ele>
        <time>2024-07-19T07:24:04Z</time>
      </trkpt>
      <trkpt lat="42.88779" lon="2.85625">
        <ele>286</ele>
        <time>2024-07-19T07:24:07Z</time>
      </trkpt>
      <trkpt lat="42.88782" lon="2.85619">
        <ele>287</ele>
        <time>2024-07-19T07:24:10Z</time>
      </trkpt>
      <trkpt lat="42.88786" lon="2.85615">
        <ele>287</ele>
        <time>2024-07-19T07:24:13Z</time>
      </trkpt>
      <trkpt lat="42.88792" lon="2.85618">
        <ele>288</ele>
        <time>2024-07-19T07:24:17Z</time>
      </trkpt>
      <trkpt lat="42.88797" lon="2.85621">
        <ele>288</ele>
        <time>2024-07-19T07:24:19Z</time>
      </trkpt>
      <trkpt lat="42.88802" lon="2.85623">
        <ele>289</ele>
        <time>2024-07-19T07:24:22Z</time>
      </trkpt>
      <trkpt lat="42.88808" lon="2.85627">
        <ele>289</ele>
        <time>2024-07-19T07:24:25Z</time>
      </trkpt>
      <trkpt lat="42.88814" lon="2.85628">
        <ele>289</ele>
        <time>2024-07-19T07:24:28Z</time>
      </trkpt>
      <trkpt lat="42.8882" lon="2.85631">
        <ele>290</ele>
        <time>2024-07-19T07:24:31Z</time>
      </trkpt>
      <trkpt lat="42.88825" lon="2.85632">
        <ele>290</ele>
        <time>2024-07-19T07:24:34Z</time>
      </trkpt>
      <trkpt lat="42.88831" lon="2.85631">
        <ele>291</ele>
        <time>2024-07-19T07:24:37Z</time>
      </trkpt>
      <trkpt lat="42.88837" lon="2.85628">
        <ele>292</ele>
        <time>2024-07-19T07:24:40Z</time>
      </trkpt>
      <trkpt lat="42.88839" lon="2.85622">
        <ele>293</ele>
        <time>2024-07-19T07:24:43Z</time>
      </trkpt>
      <trkpt lat="42.88842" lon="2.85617">
        <ele>293</ele>
        <time>2024-07-19T07:24:46Z</time>
      </trkpt>
      <trkpt lat="42.88847" lon="2.85614">
        <ele>294</ele>
        <time>2024-07-19T07:24:49Z</time>
      </trkpt>
      <trkpt lat="42.88852" lon="2.85611">
        <ele>295</ele>
        <time>2024-07-19T07:24:53Z</time>
      </trkpt>
      <trkpt lat="42.88855" lon="2.85606">
        <ele>296</ele>
        <time>2024-07-19T07:25:07Z</time>
      </trkpt>
      <trkpt lat="42.88857" lon="2.85601">
        <ele>298</ele>
        <time>2024-07-19T07:25:14Z</time>
      </trkpt>
      <trkpt lat="42.88862" lon="2.856">
        <ele>299</ele>
        <time>2024-07-19T07:25:21Z</time>
      </trkpt>
      <trkpt lat="42.88867" lon="2.85598">
        <ele>300</ele>
        <time>2024-07-19T07:25:27Z</time>
      </trkpt>
      <trkpt lat="42.88869" lon="2.85597">
        <ele>301</ele>
        <time>2024-07-19T07:25:42Z</time>
      </trkpt>
      <trkpt lat="42.88869" lon="2.85597">
        <ele>302</ele>
        <time>2024-07-19T07:25:43Z</time>
      </trkpt>
      <trkpt lat="42.88874" lon="2.85597">
        <ele>303</ele>
        <time>2024-07-19T07:26:00Z</time>
      </trkpt>
      <trkpt lat="42.88877" lon="2.85602">
        <ele>303</ele>
        <time>2024-07-19T07:26:03Z</time>
      </trkpt>
      <trkpt lat="42.8888" lon="2.85598">
        <ele>304</ele>
        <time>2024-07-19T07:26:08Z</time>
      </trkpt>
      <trkpt lat="42.88881" lon="2.85593">
        <ele>304</ele>
        <time>2024-07-19T07:26:27Z</time>
      </trkpt>
      <trkpt lat="42.88882" lon="2.85592">
        <ele>305</ele>
        <time>2024-07-19T07:26:28Z</time>
      </trkpt>
      <trkpt lat="42.88887" lon="2.85594">
        <ele>306</ele>
        <time>2024-07-19T07:26:32Z</time>
      </trkpt>
      <trkpt lat="42.88891" lon="2.85595">
        <ele>307</ele>
        <time>2024-07-19T07:26:35Z</time>
      </trkpt>
      <trkpt lat="42.88896" lon="2.85592">
        <ele>308</ele>
        <time>2024-07-19T07:26:39Z</time>
      </trkpt>
      <trkpt lat="42.889" lon="2.85589">
        <ele>308</ele>
        <time>2024-07-19T07:26:42Z</time>
      </trkpt>
      <trkpt lat="42.88901" lon="2.85591">
        <ele>309</ele>
        <time>2024-07-19T07:26:57Z</time>
      </trkpt>
      <trkpt lat="42.88901" lon="2.85591">
        <ele>309</ele>
        <time>2024-07-19T07:26:58Z</time>
      </trkpt>
      <trkpt lat="42.88907" lon="2.85589">
        <ele>309</ele>
        <time>2024-07-19T07:27:05Z</time>
      </trkpt>
      <trkpt lat="42.88911" lon="2.85586">
        <ele>310</ele>
        <time>2024-07-19T07:27:09Z</time>
      </trkpt>
      <trkpt lat="42.88916" lon="2.85585">
        <ele>310</ele>
        <time>2024-07-19T07:27:13Z</time>
      </trkpt>
      <trkpt lat="42.8892" lon="2.85584">
        <ele>311</ele>
        <time>2024-07-19T07:27:18Z</time>
      </trkpt>
      <trkpt lat="42.88924" lon="2.85581">
        <ele>311</ele>
        <time>2024-07-19T07:27:22Z</time>
      </trkpt>
      <trkpt lat="42.88929" lon="2.85578">
        <ele>312</ele>
        <time>2024-07-19T07:27:26Z</time>
      </trkpt>
      <trkpt lat="42.88934" lon="2.85577">
        <ele>312</ele>
        <time>2024-07-19T07:27:32Z</time>
      </trkpt>
      <trkpt lat="42.88938" lon="2.85574">
        <ele>313</ele>
        <time>2024-07-19T07:27:45Z</time>
      </trkpt>
      <trkpt lat="42.88942" lon="2.85571">
        <ele>313</ele>
        <time>2024-07-19T07:27:49Z</time>
      </trkpt>
      <trkpt lat="42.88947" lon="2.85568">
        <ele>314</ele>
        <time>2024-07-19T07:27:54Z</time>
      </trkpt>
      <trkpt lat="42.88953" lon="2.85565">
        <ele>314</ele>
        <time>2024-07-19T07:27:58Z</time>
      </trkpt>
      <trkpt lat="42.88958" lon="2.85563">
        <ele>315</ele>
        <time>2024-07-19T07:28:02Z</time>
      </trkpt>
      <trkpt lat="42.88963" lon="2.85561">
        <ele>316</ele>
        <time>2024-07-19T07:28:05Z</time>
      </trkpt>
      <trkpt lat="42.88968" lon="2.85559">
        <ele>316</ele>
        <time>2024-07-19T07:28:08Z</time>
      </trkpt>
      <trkpt lat="42.88973" lon="2.85557">
        <ele>316</ele>
        <time>2024-07-19T07:28:11Z</time>
      </trkpt>
      <trkpt lat="42.88978" lon="2.85555">
        <ele>317</ele>
        <time>2024-07-19T07:28:14Z</time>
      </trkpt>
      <trkpt lat="42.88983" lon="2.85554">
        <ele>317</ele>
        <time>2024-07-19T07:28:17Z</time>
      </trkpt>
      <trkpt lat="42.88994" lon="2.85552">
        <ele>318</ele>
        <time>2024-07-19T07:28:23Z</time>
      </trkpt>
      <trkpt lat="42.88999" lon="2.85551">
        <ele>319</ele>
        <time>2024-07-19T07:28:26Z</time>
      </trkpt>
      <trkpt lat="42.89004" lon="2.8555">
        <ele>319</ele>
        <time>2024-07-19T07:28:29Z</time>
      </trkpt>
      <trkpt lat="42.8901" lon="2.85548">
        <ele>320</ele>
        <time>2024-07-19T07:28:32Z</time>
      </trkpt>
      <trkpt lat="42.89014" lon="2.85546">
        <ele>321</ele>
        <time>2024-07-19T07:28:35Z</time>
      </trkpt>
      <trkpt lat="42.89019" lon="2.85545">
        <ele>322</ele>
        <time>2024-07-19T07:28:38Z</time>
      </trkpt>
      <trkpt lat="42.89024" lon="2.85545">
        <ele>323</ele>
        <time>2024-07-19T07:28:41Z</time>
      </trkpt>
      <trkpt lat="42.89029" lon="2.85544">
        <ele>324</ele>
        <time>2024-07-19T07:28:45Z</time>
      </trkpt>
      <trkpt lat="42.89034" lon="2.85543">
        <ele>324</ele>
        <time>2024-07-19T07:28:49Z</time>
      </trkpt>
      <trkpt lat="42.89038" lon="2.8554">
        <ele>325</ele>
        <time>2024-07-19T07:28:52Z</time>
      </trkpt>
      <trkpt lat="42.89043" lon="2.85538">
        <ele>326</ele>
        <time>2024-07-19T07:28:55Z</time>
      </trkpt>
      <trkpt lat="42.89048" lon="2.85537">
        <ele>327</ele>
        <time>2024-07-19T07:28:59Z</time>
      </trkpt>
      <trkpt lat="42.89053" lon="2.85536">
        <ele>328</ele>
        <time>2024-07-19T07:29:02Z</time>
      </trkpt>
      <trkpt lat="42.89058" lon="2.85537">
        <ele>329</ele>
        <time>2024-07-19T07:29:12Z</time>
      </trkpt>
      <trkpt lat="42.89059" lon="2.85538">
        <ele>329</ele>
        <time>2024-07-19T07:29:27Z</time>
      </trkpt>
      <trkpt lat="42.89059" lon="2.85538">
        <ele>329</ele>
        <time>2024-07-19T07:29:28Z</time>
      </trkpt>
      <trkpt lat="42.89064" lon="2.85538">
        <ele>330</ele>
        <time>2024-07-19T07:29:45Z</time>
      </trkpt>
      <trkpt lat="42.89068" lon="2.85537">
        <ele>330</ele>
        <time>2024-07-19T07:29:51Z</time>
      </trkpt>
      <trkpt lat="42.89072" lon="2.85537">
        <ele>330</ele>
        <time>2024-07-19T07:30:12Z</time>
      </trkpt>
      <trkpt lat="42.89073" lon="2.85537">
        <ele>331</ele>
        <time>2024-07-19T07:30:13Z</time>
      </trkpt>
      <trkpt lat="42.89077" lon="2.85534">
        <ele>331</ele>
        <time>2024-07-19T07:30:31Z</time>
      </trkpt>
      <trkpt lat="42.89079" lon="2.85529">
        <ele>332</ele>
        <time>2024-07-19T07:30:40Z</time>
      </trkpt>
      <trkpt lat="42.89084" lon="2.85529">
        <ele>333</ele>
        <time>2024-07-19T07:30:49Z</time>
      </trkpt>
      <trkpt lat="42.89089" lon="2.85527">
        <ele>333</ele>
        <time>2024-07-19T07:30:53Z</time>
      </trkpt>
      <trkpt lat="42.89093" lon="2.85523">
        <ele>334</ele>
        <time>2024-07-19T07:30:57Z</time>
      </trkpt>
      <trkpt lat="42.89098" lon="2.85518">
        <ele>334</ele>
        <time>2024-07-19T07:31:01Z</time>
      </trkpt>
      <trkpt lat="42.891" lon="2.85512">
        <ele>335</ele>
        <time>2024-07-19T07:31:04Z</time>
      </trkpt>
      <trkpt lat="42.89103" lon="2.85507">
        <ele>335</ele>
        <time>2024-07-19T07:31:07Z</time>
      </trkpt>
      <trkpt lat="42.89106" lon="2.85501">
        <ele>336</ele>
        <time>2024-07-19T07:31:10Z</time>
      </trkpt>
      <trkpt lat="42.89108" lon="2.85495">
        <ele>336</ele>
        <time>2024-07-19T07:31:14Z</time>
      </trkpt>
      <trkpt lat="42.89112" lon="2.85489">
        <ele>337</ele>
        <time>2024-07-19T07:31:18Z</time>
      </trkpt>
      <trkpt lat="42.89116" lon="2.85483">
        <ele>337</ele>
        <time>2024-07-19T07:31:22Z</time>
      </trkpt>
      <trkpt lat="42.89119" lon="2.85477">
        <ele>338</ele>
        <time>2024-07-19T07:31:26Z</time>
      </trkpt>
      <trkpt lat="42.89122" lon="2.85472">
        <ele>338</ele>
        <time>2024-07-19T07:31:29Z</time>
      </trkpt>
      <trkpt lat="42.89124" lon="2.85466">
        <ele>338</ele>
        <time>2024-07-19T07:31:32Z</time>
      </trkpt>
      <trkpt lat="42.89126" lon="2.85461">
        <ele>339</ele>
        <time>2024-07-19T07:31:35Z</time>
      </trkpt>
      <trkpt lat="42.89129" lon="2.85454">
        <ele>339</ele>
        <time>2024-07-19T07:31:39Z</time>
      </trkpt>
      <trkpt lat="42.89132" lon="2.85449">
        <ele>340</ele>
        <time>2024-07-19T07:31:42Z</time>
      </trkpt>
      <trkpt lat="42.89135" lon="2.85443">
        <ele>340</ele>
        <time>2024-07-19T07:31:45Z</time>
      </trkpt>
      <trkpt lat="42.89138" lon="2.85437">
        <ele>340</ele>
        <time>2024-07-19T07:31:48Z</time>
      </trkpt>
      <trkpt lat="42.89142" lon="2.85432">
        <ele>341</ele>
        <time>2024-07-19T07:31:51Z</time>
      </trkpt>
      <trkpt lat="42.89145" lon="2.85427">
        <ele>341</ele>
        <time>2024-07-19T07:31:54Z</time>
      </trkpt>
      <trkpt lat="42.8915" lon="2.85421">
        <ele>342</ele>
        <time>2024-07-19T07:31:57Z</time>
      </trkpt>
      <trkpt lat="42.89154" lon="2.85416">
        <ele>342</ele>
        <time>2024-07-19T07:32:00Z</time>
      </trkpt>
      <trkpt lat="42.89157" lon="2.8541">
        <ele>343</ele>
        <time>2024-07-19T07:32:03Z</time>
      </trkpt>
      <trkpt lat="42.8916" lon="2.85405">
        <ele>343</ele>
        <time>2024-07-19T07:32:06Z</time>
      </trkpt>
      <trkpt lat="42.89162" lon="2.85399">
        <ele>344</ele>
        <time>2024-07-19T07:32:10Z</time>
      </trkpt>
      <trkpt lat="42.89164" lon="2.85393">
        <ele>345</ele>
        <time>2024-07-19T07:32:14Z</time>
      </trkpt>
      <trkpt lat="42.89167" lon="2.85387">
        <ele>346</ele>
        <time>2024-07-19T07:32:18Z</time>
      </trkpt>
      <trkpt lat="42.89171" lon="2.85383">
        <ele>347</ele>
        <time>2024-07-19T07:32:22Z</time>
      </trkpt>
      <trkpt lat="42.89175" lon="2.85379">
        <ele>348</ele>
        <time>2024-07-19T07:32:25Z</time>
      </trkpt>
      <trkpt lat="42.89179" lon="2.85375">
        <ele>349</ele>
        <time>2024-07-19T07:32:28Z</time>
      </trkpt>
      <trkpt lat="42.89182" lon="2.85371">
        <ele>349</ele>
        <time>2024-07-19T07:32:31Z</time>
      </trkpt>
      <trkpt lat="42.89184" lon="2.85365">
        <ele>350</ele>
        <time>2024-07-19T07:32:35Z</time>
      </trkpt>
      <trkpt lat="42.89186" lon="2.85358">
        <ele>350</ele>
        <time>2024-07-19T07:32:39Z</time>
      </trkpt>
      <trkpt lat="42.89188" lon="2.8535">
        <ele>351</ele>
        <time>2024-07-19T07:32:43Z</time>
      </trkpt>
      <trkpt lat="42.89192" lon="2.85344">
        <ele>352</ele>
        <time>2024-07-19T07:32:47Z</time>
      </trkpt>
      <trkpt lat="42.89195" lon="2.8534">
        <ele>353</ele>
        <time>2024-07-19T07:32:50Z</time>
      </trkpt>
      <trkpt lat="42.89191" lon="2.85334">
        <ele>353</ele>
        <time>2024-07-19T07:32:54Z</time>
      </trkpt>
      <trkpt lat="42.89188" lon="2.85329">
        <ele>354</ele>
        <time>2024-07-19T07:32:57Z</time>
      </trkpt>
      <trkpt lat="42.89186" lon="2.85323">
        <ele>355</ele>
        <time>2024-07-19T07:33:01Z</time>
      </trkpt>
      <trkpt lat="42.89181" lon="2.8532">
        <ele>356</ele>
        <time>2024-07-19T07:33:04Z</time>
      </trkpt>
      <trkpt lat="42.89177" lon="2.85318">
        <ele>357</ele>
        <time>2024-07-19T07:33:07Z</time>
      </trkpt>
      <trkpt lat="42.89173" lon="2.85314">
        <ele>358</ele>
        <time>2024-07-19T07:33:18Z</time>
      </trkpt>
      <trkpt lat="42.89171" lon="2.85312">
        <ele>359</ele>
        <time>2024-07-19T07:33:42Z</time>
      </trkpt>
      <trkpt lat="42.89171" lon="2.85312">
        <ele>360</ele>
        <time>2024-07-19T07:33:43Z</time>
      </trkpt>
      <trkpt lat="42.89167" lon="2.85307">
        <ele>360</ele>
        <time>2024-07-19T07:34:01Z</time>
      </trkpt>
      <trkpt lat="42.89164" lon="2.85301">
        <ele>361</ele>
        <time>2024-07-19T07:34:08Z</time>
      </trkpt>
      <trkpt lat="42.8916" lon="2.85298">
        <ele>362</ele>
        <time>2024-07-19T07:34:18Z</time>
      </trkpt>
      <trkpt lat="42.89154" lon="2.85295">
        <ele>362</ele>
        <time>2024-07-19T07:34:21Z</time>
      </trkpt>
      <trkpt lat="42.8915" lon="2.85292">
        <ele>363</ele>
        <time>2024-07-19T07:34:24Z</time>
      </trkpt>
      <trkpt lat="42.89146" lon="2.85288">
        <ele>364</ele>
        <time>2024-07-19T07:34:27Z</time>
      </trkpt>
      <trkpt lat="42.89143" lon="2.85282">
        <ele>365</ele>
        <time>2024-07-19T07:34:31Z</time>
      </trkpt>
      <trkpt lat="42.89143" lon="2.85276">
        <ele>366</ele>
        <time>2024-07-19T07:34:34Z</time>
      </trkpt>
      <trkpt lat="42.89144" lon="2.85268">
        <ele>366</ele>
        <time>2024-07-19T07:34:39Z</time>
      </trkpt>
      <trkpt lat="42.89143" lon="2.85261">
        <ele>367</ele>
        <time>2024-07-19T07:34:46Z</time>
      </trkpt>
      <trkpt lat="42.89142" lon="2.85257">
        <ele>367</ele>
        <time>2024-07-19T07:35:12Z</time>
      </trkpt>
      <trkpt lat="42.89142" lon="2.85257">
        <ele>368</ele>
        <time>2024-07-19T07:35:13Z</time>
      </trkpt>
      <trkpt lat="42.8914" lon="2.8525">
        <ele>368</ele>
        <time>2024-07-19T07:35:17Z</time>
      </trkpt>
      <trkpt lat="42.89138" lon="2.85243">
        <ele>368</ele>
        <time>2024-07-19T07:35:21Z</time>
      </trkpt>
      <trkpt lat="42.89137" lon="2.85236">
        <ele>368</ele>
        <time>2024-07-19T07:35:25Z</time>
      </trkpt>
      <trkpt lat="42.89134" lon="2.85231">
        <ele>368</ele>
        <time>2024-07-19T07:35:29Z</time>
      </trkpt>
      <trkpt lat="42.89132" lon="2.85223">
        <ele>368</ele>
        <time>2024-07-19T07:35:32Z</time>
      </trkpt>
      <trkpt lat="42.89132" lon="2.85215">
        <ele>367</ele>
        <time>2024-07-19T07:35:36Z</time>
      </trkpt>
      <trkpt lat="42.89132" lon="2.85209">
        <ele>367</ele>
        <time>2024-07-19T07:35:38Z</time>
      </trkpt>
      <trkpt lat="42.8913" lon="2.85201">
        <ele>366</ele>
        <time>2024-07-19T07:35:41Z</time>
      </trkpt>
      <trkpt lat="42.8913" lon="2.85193">
        <ele>366</ele>
        <time>2024-07-19T07:35:44Z</time>
      </trkpt>
      <trkpt lat="42.8913" lon="2.85187">
        <ele>366</ele>
        <time>2024-07-19T07:35:46Z</time>
      </trkpt>
      <trkpt lat="42.89129" lon="2.85179">
        <ele>366</ele>
        <time>2024-07-19T07:35:49Z</time>
      </trkpt>
      <trkpt lat="42.89129" lon="2.85172">
        <ele>367</ele>
        <time>2024-07-19T07:35:50Z</time>
      </trkpt>
      <trkpt lat="42.8913" lon="2.85165">
        <ele>367</ele>
        <time>2024-07-19T07:35:53Z</time>
      </trkpt>
      <trkpt lat="42.89132" lon="2.85157">
        <ele>368</ele>
        <time>2024-07-19T07:35:56Z</time>
      </trkpt>
      <trkpt lat="42.89134" lon="2.8515">
        <ele>368</ele>
        <time>2024-07-19T07:35:59Z</time>
      </trkpt>
      <trkpt lat="42.89136" lon="2.85143">
        <ele>369</ele>
        <time>2024-07-19T07:36:02Z</time>
      </trkpt>
      <trkpt lat="42.89139" lon="2.85136">
        <ele>369</ele>
        <time>2024-07-19T07:36:05Z</time>
      </trkpt>
      <trkpt lat="42.89142" lon="2.8513">
        <ele>370</ele>
        <time>2024-07-19T07:36:08Z</time>
      </trkpt>
      <trkpt lat="42.89144" lon="2.85123">
        <ele>371</ele>
        <time>2024-07-19T07:36:11Z</time>
      </trkpt>
      <trkpt lat="42.89146" lon="2.85116">
        <ele>371</ele>
        <time>2024-07-19T07:36:14Z</time>
      </trkpt>
      <trkpt lat="42.89148" lon="2.85109">
        <ele>372</ele>
        <time>2024-07-19T07:36:17Z</time>
      </trkpt>
      <trkpt lat="42.8915" lon="2.85102">
        <ele>372</ele>
        <time>2024-07-19T07:36:26Z</time>
      </trkpt>
      <trkpt lat="42.89151" lon="2.85094">
        <ele>373</ele>
        <time>2024-07-19T07:36:29Z</time>
      </trkpt>
      <trkpt lat="42.89154" lon="2.85088">
        <ele>374</ele>
        <time>2024-07-19T07:36:32Z</time>
      </trkpt>
      <trkpt lat="42.89159" lon="2.85084">
        <ele>375</ele>
        <time>2024-07-19T07:36:35Z</time>
      </trkpt>
      <trkpt lat="42.89166" lon="2.85083">
        <ele>375</ele>
        <time>2024-07-19T07:36:38Z</time>
      </trkpt>
      <trkpt lat="42.8917" lon="2.85081">
        <ele>376</ele>
        <time>2024-07-19T07:36:40Z</time>
      </trkpt>
      <trkpt lat="42.89176" lon="2.85079">
        <ele>376</ele>
        <time>2024-07-19T07:36:43Z</time>
      </trkpt>
      <trkpt lat="42.89182" lon="2.85077">
        <ele>375</ele>
        <time>2024-07-19T07:36:46Z</time>
      </trkpt>
      <trkpt lat="42.89187" lon="2.85074">
        <ele>375</ele>
        <time>2024-07-19T07:36:49Z</time>
      </trkpt>
      <trkpt lat="42.89193" lon="2.8507">
        <ele>375</ele>
        <time>2024-07-19T07:36:52Z</time>
      </trkpt>
      <trkpt lat="42.89197" lon="2.85065">
        <ele>376</ele>
        <time>2024-07-19T07:36:55Z</time>
      </trkpt>
      <trkpt lat="42.892" lon="2.85059">
        <ele>376</ele>
        <time>2024-07-19T07:36:58Z</time>
      </trkpt>
      <trkpt lat="42.89204" lon="2.85053">
        <ele>377</ele>
        <time>2024-07-19T07:37:01Z</time>
      </trkpt>
      <trkpt lat="42.89208" lon="2.85047">
        <ele>377</ele>
        <time>2024-07-19T07:37:04Z</time>
      </trkpt>
      <trkpt lat="42.89212" lon="2.85041">
        <ele>378</ele>
        <time>2024-07-19T07:37:07Z</time>
      </trkpt>
      <trkpt lat="42.89216" lon="2.85035">
        <ele>379</ele>
        <time>2024-07-19T07:37:10Z</time>
      </trkpt>
      <trkpt lat="42.8922" lon="2.85031">
        <ele>380</ele>
        <time>2024-07-19T07:37:13Z</time>
      </trkpt>
      <trkpt lat="42.89224" lon="2.85026">
        <ele>380</ele>
        <time>2024-07-19T07:37:16Z</time>
      </trkpt>
      <trkpt lat="42.89227" lon="2.85021">
        <ele>381</ele>
        <time>2024-07-19T07:37:19Z</time>
      </trkpt>
      <trkpt lat="42.89231" lon="2.85016">
        <ele>382</ele>
        <time>2024-07-19T07:37:22Z</time>
      </trkpt>
      <trkpt lat="42.89235" lon="2.85012">
        <ele>383</ele>
        <time>2024-07-19T07:37:25Z</time>
      </trkpt>
      <trkpt lat="42.89239" lon="2.85009">
        <ele>384</ele>
        <time>2024-07-19T07:37:28Z</time>
      </trkpt>
      <trkpt lat="42.89244" lon="2.85006">
        <ele>384</ele>
        <time>2024-07-19T07:37:31Z</time>
      </trkpt>
      <trkpt lat="42.89249" lon="2.85004">
        <ele>385</ele>
        <time>2024-07-19T07:37:34Z</time>
      </trkpt>
      <trkpt lat="42.89253" lon="2.85002">
        <ele>386</ele>
        <time>2024-07-19T07:37:37Z</time>
      </trkpt>
      <trkpt lat="42.89258" lon="2.84999">
        <ele>387</ele>
        <time>2024-07-19T07:37:40Z</time>
      </trkpt>
      <trkpt lat="42.89263" lon="2.84997">
        <ele>388</ele>
        <time>2024-07-19T07:37:43Z</time>
      </trkpt>
      <trkpt lat="42.89269" lon="2.84996">
        <ele>389</ele>
        <time>2024-07-19T07:37:46Z</time>
      </trkpt>
      <trkpt lat="42.89274" lon="2.84995">
        <ele>389</ele>
        <time>2024-07-19T07:37:49Z</time>
      </trkpt>
      <trkpt lat="42.8928" lon="2.84994">
        <ele>390</ele>
        <time>2024-07-19T07:37:52Z</time>
      </trkpt>
      <trkpt lat="42.89286" lon="2.84994">
        <ele>391</ele>
        <time>2024-07-19T07:37:55Z</time>
      </trkpt>
      <trkpt lat="42.89291" lon="2.84996">
        <ele>392</ele>
        <time>2024-07-19T07:37:58Z</time>
      </trkpt>
      <trkpt lat="42.89296" lon="2.84999">
        <ele>392</ele>
        <time>2024-07-19T07:38:01Z</time>
      </trkpt>
      <trkpt lat="42.89302" lon="2.85">
        <ele>393</ele>
        <time>2024-07-19T07:38:04Z</time>
      </trkpt>
      <trkpt lat="42.89307" lon="2.84996">
        <ele>394</ele>
        <time>2024-07-19T07:38:07Z</time>
      </trkpt>
      <trkpt lat="42.89306" lon="2.8499">
        <ele>395</ele>
        <time>2024-07-19T07:38:10Z</time>
      </trkpt>
      <trkpt lat="42.89305" lon="2.84984">
        <ele>395</ele>
        <time>2024-07-19T07:38:13Z</time>
      </trkpt>
      <trkpt lat="42.89306" lon="2.84977">
        <ele>396</ele>
        <time>2024-07-19T07:38:16Z</time>
      </trkpt>
      <trkpt lat="42.89309" lon="2.84972">
        <ele>397</ele>
        <time>2024-07-19T07:38:19Z</time>
      </trkpt>
      <trkpt lat="42.89312" lon="2.84967">
        <ele>398</ele>
        <time>2024-07-19T07:38:22Z</time>
      </trkpt>
      <trkpt lat="42.89315" lon="2.84962">
        <ele>399</ele>
        <time>2024-07-19T07:38:25Z</time>
      </trkpt>
      <trkpt lat="42.8932" lon="2.84959">
        <ele>399</ele>
        <time>2024-07-19T07:38:28Z</time>
      </trkpt>
      <trkpt lat="42.89323" lon="2.84955">
        <ele>400</ele>
        <time>2024-07-19T07:38:31Z</time>
      </trkpt>
      <trkpt lat="42.89328" lon="2.84951">
        <ele>401</ele>
        <time>2024-07-19T07:38:34Z</time>
      </trkpt>
      <trkpt lat="42.89333" lon="2.84947">
        <ele>401</ele>
        <time>2024-07-19T07:38:37Z</time>
      </trkpt>
      <trkpt lat="42.89338" lon="2.84942">
        <ele>402</ele>
        <time>2024-07-19T07:38:40Z</time>
      </trkpt>
      <trkpt lat="42.89342" lon="2.84938">
        <ele>402</ele>
        <time>2024-07-19T07:38:43Z</time>
      </trkpt>
      <trkpt lat="42.89346" lon="2.84933">
        <ele>402</ele>
        <time>2024-07-19T07:38:46Z</time>
      </trkpt>
      <trkpt lat="42.89351" lon="2.84929">
        <ele>403</ele>
        <time>2024-07-19T07:38:49Z</time>
      </trkpt>
      <trkpt lat="42.89355" lon="2.84926">
        <ele>403</ele>
        <time>2024-07-19T07:38:52Z</time>
      </trkpt>
      <trkpt lat="42.8936" lon="2.84925">
        <ele>403</ele>
        <time>2024-07-19T07:38:55Z</time>
      </trkpt>
      <trkpt lat="42.89365" lon="2.84927">
        <ele>404</ele>
        <time>2024-07-19T07:38:58Z</time>
      </trkpt>
      <trkpt lat="42.89372" lon="2.84927">
        <ele>404</ele>
        <time>2024-07-19T07:39:01Z</time>
      </trkpt>
      <trkpt lat="42.89375" lon="2.84923">
        <ele>404</ele>
        <time>2024-07-19T07:39:03Z</time>
      </trkpt>
      <trkpt lat="42.8938" lon="2.84919">
        <ele>404</ele>
        <time>2024-07-19T07:39:06Z</time>
      </trkpt>
      <trkpt lat="42.89385" lon="2.84913">
        <ele>404</ele>
        <time>2024-07-19T07:39:09Z</time>
      </trkpt>
      <trkpt lat="42.8939" lon="2.8491">
        <ele>404</ele>
        <time>2024-07-19T07:39:12Z</time>
      </trkpt>
      <trkpt lat="42.89395" lon="2.84906">
        <ele>404</ele>
        <time>2024-07-19T07:39:15Z</time>
      </trkpt>
      <trkpt lat="42.894" lon="2.84902">
        <ele>404</ele>
        <time>2024-07-19T07:39:18Z</time>
      </trkpt>
      <trkpt lat="42.89407" lon="2.84899">
        <ele>404</ele>
        <time>2024-07-19T07:39:21Z</time>
      </trkpt>
      <trkpt lat="42.89412" lon="2.84895">
        <ele>404</ele>
        <time>2024-07-19T07:39:23Z</time>
      </trkpt>
      <trkpt lat="42.89417" lon="2.84892">
        <ele>404</ele>
        <time>2024-07-19T07:39:25Z</time>
      </trkpt>
      <trkpt lat="42.89422" lon="2.84888">
        <ele>403</ele>
        <time>2024-07-19T07:39:27Z</time>
      </trkpt>
      <trkpt lat="42.89427" lon="2.84883">
        <ele>403</ele>
        <time>2024-07-19T07:39:29Z</time>
      </trkpt>
      <trkpt lat="42.89432" lon="2.84877">
        <ele>403</ele>
        <time>2024-07-19T07:39:31Z</time>
      </trkpt>
      <trkpt lat="42.89437" lon="2.84871">
        <ele>402</ele>
        <time>2024-07-19T07:39:33Z</time>
      </trkpt>
      <trkpt lat="42.89442" lon="2.84865">
        <ele>402</ele>
        <time>2024-07-19T07:39:35Z</time>
      </trkpt>
      <trkpt lat="42.89448" lon="2.84857">
        <ele>401</ele>
        <time>2024-07-19T07:39:37Z</time>
      </trkpt>
      <trkpt lat="42.89455" lon="2.8485">
        <ele>401</ele>
        <time>2024-07-19T07:39:39Z</time>
      </trkpt>
      <trkpt lat="42.89462" lon="2.84843">
        <ele>400</ele>
        <time>2024-07-19T07:39:41Z</time>
      </trkpt>
      <trkpt lat="42.89469" lon="2.84836">
        <ele>400</ele>
        <time>2024-07-19T07:39:43Z</time>
      </trkpt>
      <trkpt lat="42.89475" lon="2.8483">
        <ele>399</ele>
        <time>2024-07-19T07:39:45Z</time>
      </trkpt>
      <trkpt lat="42.89481" lon="2.84825">
        <ele>399</ele>
        <time>2024-07-19T07:39:47Z</time>
      </trkpt>
      <trkpt lat="42.89486" lon="2.84821">
        <ele>399</ele>
        <time>2024-07-19T07:39:49Z</time>
      </trkpt>
      <trkpt lat="42.89491" lon="2.84818">
        <ele>399</ele>
        <time>2024-07-19T07:39:51Z</time>
      </trkpt>
      <trkpt lat="42.89496" lon="2.84815">
        <ele>399</ele>
        <time>2024-07-19T07:39:53Z</time>
      </trkpt>
      <trkpt lat="42.895" lon="2.84812">
        <ele>399</ele>
        <time>2024-07-19T07:39:55Z</time>
      </trkpt>
      <trkpt lat="42.89504" lon="2.84809">
        <ele>399</ele>
        <time>2024-07-19T07:39:57Z</time>
      </trkpt>
      <trkpt lat="42.89509" lon="2.84806">
        <ele>399</ele>
        <time>2024-07-19T07:39:59Z</time>
      </trkpt>
      <trkpt lat="42.89514" lon="2.84804">
        <ele>399</ele>
        <time>2024-07-19T07:40:01Z</time>
      </trkpt>
      <trkpt lat="42.89518" lon="2.84801">
        <ele>400</ele>
        <time>2024-07-19T07:40:03Z</time>
      </trkpt>
      <trkpt lat="42.89522" lon="2.84797">
        <ele>400</ele>
        <time>2024-07-19T07:40:05Z</time>
      </trkpt>
      <trkpt lat="42.89528" lon="2.84795">
        <ele>400</ele>
        <time>2024-07-19T07:40:08Z</time>
      </trkpt>
      <trkpt lat="42.89533" lon="2.84794">
        <ele>401</ele>
        <time>2024-07-19T07:40:10Z</time>
      </trkpt>
      <trkpt lat="42.89538" lon="2.84791">
        <ele>401</ele>
        <time>2024-07-19T07:40:13Z</time>
      </trkpt>
      <trkpt lat="42.89545" lon="2.84788">
        <ele>402</ele>
        <time>2024-07-19T07:40:16Z</time>
      </trkpt>
      <trkpt lat="42.89551" lon="2.84787">
        <ele>402</ele>
        <time>2024-07-19T07:40:19Z</time>
      </trkpt>
      <trkpt lat="42.89557" lon="2.84784">
        <ele>402</ele>
        <time>2024-07-19T07:40:22Z</time>
      </trkpt>
      <trkpt lat="42.89563" lon="2.8478">
        <ele>402</ele>
        <time>2024-07-19T07:40:25Z</time>
      </trkpt>
      <trkpt lat="42.89568" lon="2.84776">
        <ele>402</ele>
        <time>2024-07-19T07:40:27Z</time>
      </trkpt>
      <trkpt lat="42.8957" lon="2.84771">
        <ele>402</ele>
        <time>2024-07-19T07:40:29Z</time>
      </trkpt>
      <trkpt lat="42.89574" lon="2.84763">
        <ele>402</ele>
        <time>2024-07-19T07:40:32Z</time>
      </trkpt>
      <trkpt lat="42.89576" lon="2.84755">
        <ele>401</ele>
        <time>2024-07-19T07:40:35Z</time>
      </trkpt>
      <trkpt lat="42.89578" lon="2.8475">
        <ele>401</ele>
        <time>2024-07-19T07:40:37Z</time>
      </trkpt>
      <trkpt lat="42.89583" lon="2.84745">
        <ele>400</ele>
        <time>2024-07-19T07:40:39Z</time>
      </trkpt>
      <trkpt lat="42.8959" lon="2.84743">
        <ele>400</ele>
        <time>2024-07-19T07:40:41Z</time>
      </trkpt>
      <trkpt lat="42.89598" lon="2.84744">
        <ele>399</ele>
        <time>2024-07-19T07:40:43Z</time>
      </trkpt>
      <trkpt lat="42.89605" lon="2.84744">
        <ele>399</ele>
        <time>2024-07-19T07:40:45Z</time>
      </trkpt>
      <trkpt lat="42.89611" lon="2.84742">
        <ele>399</ele>
        <time>2024-07-19T07:40:47Z</time>
      </trkpt>
      <trkpt lat="42.89616" lon="2.84738">
        <ele>399</ele>
        <time>2024-07-19T07:40:49Z</time>
      </trkpt>
      <trkpt lat="42.89621" lon="2.84732">
        <ele>399</ele>
        <time>2024-07-19T07:40:51Z</time>
      </trkpt>
      <trkpt lat="42.89624" lon="2.84726">
        <ele>398</ele>
        <time>2024-07-19T07:40:53Z</time>
      </trkpt>
      <trkpt lat="42.89629" lon="2.8472">
        <ele>398</ele>
        <time>2024-07-19T07:40:55Z</time>
      </trkpt>
      <trkpt lat="42.89634" lon="2.84715">
        <ele>398</ele>
        <time>2024-07-19T07:40:57Z</time>
      </trkpt>
      <trkpt lat="42.8964" lon="2.8471">
        <ele>398</ele>
        <time>2024-07-19T07:40:59Z</time>
      </trkpt>
      <trkpt lat="42.89644" lon="2.84704">
        <ele>398</ele>
        <time>2024-07-19T07:41:01Z</time>
      </trkpt>
      <trkpt lat="42.89649" lon="2.84698">
        <ele>398</ele>
        <time>2024-07-19T07:41:03Z</time>
      </trkpt>
      <trkpt lat="42.89654" lon="2.84694">
        <ele>398</ele>
        <time>2024-07-19T07:41:05Z</time>
      </trkpt>
      <trkpt lat="42.89659" lon="2.84692">
        <ele>398</ele>
        <time>2024-07-19T07:41:07Z</time>
      </trkpt>
      <trkpt lat="42.89665" lon="2.84688">
        <ele>398</ele>
        <time>2024-07-19T07:41:09Z</time>
      </trkpt>
      <trkpt lat="42.89671" lon="2.84684">
        <ele>398</ele>
        <time>2024-07-19T07:41:11Z</time>
      </trkpt>
      <trkpt lat="42.89676" lon="2.84681">
        <ele>398</ele>
        <time>2024-07-19T07:41:13Z</time>
      </trkpt>
      <trkpt lat="42.89682" lon="2.84684">
        <ele>398</ele>
        <time>2024-07-19T07:41:31Z</time>
      </trkpt>
      <trkpt lat="42.89687" lon="2.84682">
        <ele>398</ele>
        <time>2024-07-19T07:41:33Z</time>
      </trkpt>
      <trkpt lat="42.89692" lon="2.84679">
        <ele>398</ele>
        <time>2024-07-19T07:41:35Z</time>
      </trkpt>
      <trkpt lat="42.89697" lon="2.84676">
        <ele>398</ele>
        <time>2024-07-19T07:41:37Z</time>
      </trkpt>
      <trkpt lat="42.897" lon="2.84672">
        <ele>399</ele>
        <time>2024-07-19T07:41:39Z</time>
      </trkpt>
      <trkpt lat="42.89704" lon="2.84667">
        <ele>399</ele>
        <time>2024-07-19T07:41:42Z</time>
      </trkpt>
      <trkpt lat="42.89706" lon="2.84659">
        <ele>400</ele>
        <time>2024-07-19T07:41:46Z</time>
      </trkpt>
      <trkpt lat="42.89704" lon="2.84652">
        <ele>400</ele>
        <time>2024-07-19T07:41:50Z</time>
      </trkpt>
      <trkpt lat="42.89702" lon="2.84646">
        <ele>401</ele>
        <time>2024-07-19T07:42:00Z</time>
      </trkpt>
      <trkpt lat="42.89701" lon="2.84646">
        <ele>402</ele>
        <time>2024-07-19T07:42:27Z</time>
      </trkpt>
      <trkpt lat="42.897" lon="2.84645">
        <ele>402</ele>
        <time>2024-07-19T07:42:29Z</time>
      </trkpt>
      <trkpt lat="42.89701" lon="2.84638">
        <ele>402</ele>
        <time>2024-07-19T07:42:36Z</time>
      </trkpt>
      <trkpt lat="42.89703" lon="2.84635">
        <ele>402</ele>
        <time>2024-07-19T07:42:57Z</time>
      </trkpt>
      <trkpt lat="42.89703" lon="2.84636">
        <ele>402</ele>
        <time>2024-07-19T07:42:59Z</time>
      </trkpt>
      <trkpt lat="42.89774" lon="2.8462">
        <ele>382</ele>
        <time>2024-07-19T07:48:35Z</time>
      </trkpt>
      <trkpt lat="42.89772" lon="2.84611">
        <ele>382</ele>
        <time>2024-07-19T07:48:36Z</time>
      </trkpt>
      <trkpt lat="42.89771" lon="2.84602">
        <ele>382</ele>
        <time>2024-07-19T07:48:37Z</time>
      </trkpt>
      <trkpt lat="42.8977" lon="2.84594">
        <ele>382</ele>
        <time>2024-07-19T07:48:38Z</time>
      </trkpt>
      <trkpt lat="42.89769" lon="2.84585">
        <ele>382</ele>
        <time>2024-07-19T07:48:39Z</time>
      </trkpt>
      <trkpt lat="42.89767" lon="2.84576">
        <ele>382</ele>
        <time>2024-07-19T07:48:40Z</time>
      </trkpt>
      <trkpt lat="42.89766" lon="2.84567">
        <ele>382</ele>
        <time>2024-07-19T07:48:41Z</time>
      </trkpt>
      <trkpt lat="42.89763" lon="2.84558">
        <ele>381</ele>
        <time>2024-07-19T07:48:42Z</time>
      </trkpt>
      <trkpt lat="42.89761" lon="2.84549">
        <ele>381</ele>
        <time>2024-07-19T07:48:43Z</time>
      </trkpt>
      <trkpt lat="42.89758" lon="2.8454">
        <ele>380</ele>
        <time>2024-07-19T07:48:44Z</time>
      </trkpt>
      <trkpt lat="42.89757" lon="2.84532">
        <ele>380</ele>
        <time>2024-07-19T07:48:45Z</time>
      </trkpt>
      <trkpt lat="42.89757" lon="2.84522">
        <ele>379</ele>
        <time>2024-07-19T07:48:46Z</time>
      </trkpt>
      <trkpt lat="42.89758" lon="2.84514">
        <ele>379</ele>
        <time>2024-07-19T07:48:47Z</time>
      </trkpt>
      <trkpt lat="42.89762" lon="2.84506">
        <ele>378</ele>
        <time>2024-07-19T07:48:48Z</time>
      </trkpt>
      <trkpt lat="42.89766" lon="2.845">
        <ele>378</ele>
        <time>2024-07-19T07:48:49Z</time>
      </trkpt>
      <trkpt lat="42.89772" lon="2.84495">
        <ele>378</ele>
        <time>2024-07-19T07:48:50Z</time>
      </trkpt>
      <trkpt lat="42.89779" lon="2.84492">
        <ele>377</ele>
        <time>2024-07-19T07:48:51Z</time>
      </trkpt>
      <trkpt lat="42.89786" lon="2.8449">
        <ele>377</ele>
        <time>2024-07-19T07:48:52Z</time>
      </trkpt>
      <trkpt lat="42.89793" lon="2.84489">
        <ele>376</ele>
        <time>2024-07-19T07:48:53Z</time>
      </trkpt>
      <trkpt lat="42.89801" lon="2.8449">
        <ele>376</ele>
        <time>2024-07-19T07:48:54Z</time>
      </trkpt>
      <trkpt lat="42.89808" lon="2.84493">
        <ele>376</ele>
        <time>2024-07-19T07:48:55Z</time>
      </trkpt>
      <trkpt lat="42.89815" lon="2.84498">
        <ele>375</ele>
        <time>2024-07-19T07:48:56Z</time>
      </trkpt>
      <trkpt lat="42.89821" lon="2.84504">
        <ele>375</ele>
        <time>2024-07-19T07:48:57Z</time>
      </trkpt>
      <trkpt lat="42.89827" lon="2.84511">
        <ele>375</ele>
        <time>2024-07-19T07:48:58Z</time>
      </trkpt>
      <trkpt lat="42.89832" lon="2.84519">
        <ele>374</ele>
        <time>2024-07-19T07:48:59Z</time>
      </trkpt>
      <trkpt lat="42.89836" lon="2.84527">
        <ele>374</ele>
        <time>2024-07-19T07:49:00Z</time>
      </trkpt>
      <trkpt lat="42.89841" lon="2.84536">
        <ele>374</ele>
        <time>2024-07-19T07:49:01Z</time>
      </trkpt>
      <trkpt lat="42.89845" lon="2.84544">
        <ele>373</ele>
        <time>2024-07-19T07:49:02Z</time>
      </trkpt>
      <trkpt lat="42.89849" lon="2.84552">
        <ele>373</ele>
        <time>2024-07-19T07:49:03Z</time>
      </trkpt>
      <trkpt lat="42.89851" lon="2.84558">
        <ele>373</ele>
        <time>2024-07-19T07:49:04Z</time>
      </trkpt>
      <trkpt lat="42.89856" lon="2.84567">
        <ele>372</ele>
        <time>2024-07-19T07:49:06Z</time>
      </trkpt>
      <trkpt lat="42.8986" lon="2.84571">
        <ele>372</ele>
        <time>2024-07-19T07:49:08Z</time>
      </trkpt>
      <trkpt lat="42.89861" lon="2.84563">
        <ele>372</ele>
        <time>2024-07-19T07:49:12Z</time>
      </trkpt>
      <trkpt lat="42.89858" lon="2.84559">
        <ele>372</ele>
        <time>2024-07-19T07:49:14Z</time>
      </trkpt>
      <trkpt lat="42.89855" lon="2.84553">
        <ele>372</ele>
        <time>2024-07-19T07:49:16Z</time>
      </trkpt>
      <trkpt lat="42.89853" lon="2.84547">
        <ele>373</ele>
        <time>2024-07-19T07:49:18Z</time>
      </trkpt>
      <trkpt lat="42.8985" lon="2.84539">
        <ele>373</ele>
        <time>2024-07-19T07:49:21Z</time>
      </trkpt>
      <trkpt lat="42.89848" lon="2.84531">
        <ele>374</ele>
        <time>2024-07-19T07:49:24Z</time>
      </trkpt>
      <trkpt lat="42.89846" lon="2.84524">
        <ele>374</ele>
        <time>2024-07-19T07:49:26Z</time>
      </trkpt>
      <trkpt lat="42.89844" lon="2.84517">
        <ele>375</ele>
        <time>2024-07-19T07:49:28Z</time>
      </trkpt>
      <trkpt lat="42.89842" lon="2.8451">
        <ele>375</ele>
        <time>2024-07-19T07:49:30Z</time>
      </trkpt>
      <trkpt lat="42.89841" lon="2.84502">
        <ele>376</ele>
        <time>2024-07-19T07:49:32Z</time>
      </trkpt>
      <trkpt lat="42.89841" lon="2.84495">
        <ele>377</ele>
        <time>2024-07-19T07:49:34Z</time>
      </trkpt>
      <trkpt lat="42.89843" lon="2.84488">
        <ele>377</ele>
        <time>2024-07-19T07:49:36Z</time>
      </trkpt>
      <trkpt lat="42.89846" lon="2.84481">
        <ele>378</ele>
        <time>2024-07-19T07:49:38Z</time>
      </trkpt>
      <trkpt lat="42.8985" lon="2.84474">
        <ele>378</ele>
        <time>2024-07-19T07:49:40Z</time>
      </trkpt>
      <trkpt lat="42.89855" lon="2.84468">
        <ele>378</ele>
        <time>2024-07-19T07:49:42Z</time>
      </trkpt>
      <trkpt lat="42.89859" lon="2.84461">
        <ele>379</ele>
        <time>2024-07-19T07:49:44Z</time>
      </trkpt>
      <trkpt lat="42.89863" lon="2.84454">
        <ele>379</ele>
        <time>2024-07-19T07:49:46Z</time>
      </trkpt>
      <trkpt lat="42.89868" lon="2.84446">
        <ele>378</ele>
        <time>2024-07-19T07:49:48Z</time>
      </trkpt>
      <trkpt lat="42.89876" lon="2.8444">
        <ele>378</ele>
        <time>2024-07-19T07:49:50Z</time>
      </trkpt>
      <trkpt lat="42.89879" lon="2.84435">
        <ele>378</ele>
        <time>2024-07-19T07:49:51Z</time>
      </trkpt>
      <trkpt lat="42.89883" lon="2.84431">
        <ele>377</ele>
        <time>2024-07-19T07:49:52Z</time>
      </trkpt>
      <trkpt lat="42.89888" lon="2.84427">
        <ele>377</ele>
        <time>2024-07-19T07:49:53Z</time>
      </trkpt>
      <trkpt lat="42.89895" lon="2.84421">
        <ele>377</ele>
        <time>2024-07-19T07:49:55Z</time>
      </trkpt>
      <trkpt lat="42.89901" lon="2.84414">
        <ele>377</ele>
        <time>2024-07-19T07:49:57Z</time>
      </trkpt>
      <trkpt lat="42.89904" lon="2.84407">
        <ele>377</ele>
        <time>2024-07-19T07:49:59Z</time>
      </trkpt>
      <trkpt lat="42.89906" lon="2.844">
        <ele>378</ele>
        <time>2024-07-19T07:50:01Z</time>
      </trkpt>
      <trkpt lat="42.89907" lon="2.84394">
        <ele>378</ele>
        <time>2024-07-19T07:50:03Z</time>
      </trkpt>
      <trkpt lat="42.89908" lon="2.84388">
        <ele>379</ele>
        <time>2024-07-19T07:50:05Z</time>
      </trkpt>
      <trkpt lat="42.89909" lon="2.84381">
        <ele>380</ele>
        <time>2024-07-19T07:50:07Z</time>
      </trkpt>
      <trkpt lat="42.8991" lon="2.84375">
        <ele>380</ele>
        <time>2024-07-19T07:50:09Z</time>
      </trkpt>
      <trkpt lat="42.89911" lon="2.84368">
        <ele>381</ele>
        <time>2024-07-19T07:50:11Z</time>
      </trkpt>
      <trkpt lat="42.89911" lon="2.84361">
        <ele>381</ele>
        <time>2024-07-19T07:50:13Z</time>
      </trkpt>
      <trkpt lat="42.89911" lon="2.84354">
        <ele>382</ele>
        <time>2024-07-19T07:50:15Z</time>
      </trkpt>
      <trkpt lat="42.89909" lon="2.84347">
        <ele>382</ele>
        <time>2024-07-19T07:50:17Z</time>
      </trkpt>
      <trkpt lat="42.89908" lon="2.8434">
        <ele>382</ele>
        <time>2024-07-19T07:50:19Z</time>
      </trkpt>
      <trkpt lat="42.89904" lon="2.84333">
        <ele>383</ele>
        <time>2024-07-19T07:50:21Z</time>
      </trkpt>
      <trkpt lat="42.89899" lon="2.84328">
        <ele>383</ele>
        <time>2024-07-19T07:50:23Z</time>
      </trkpt>
      <trkpt lat="42.89893" lon="2.84326">
        <ele>383</ele>
        <time>2024-07-19T07:50:25Z</time>
      </trkpt>
      <trkpt lat="42.89886" lon="2.84329">
        <ele>383</ele>
        <time>2024-07-19T07:50:27Z</time>
      </trkpt>
      <trkpt lat="42.89879" lon="2.84331">
        <ele>383</ele>
        <time>2024-07-19T07:50:29Z</time>
      </trkpt>
      <trkpt lat="42.89873" lon="2.84332">
        <ele>383</ele>
        <time>2024-07-19T07:50:31Z</time>
      </trkpt>
      <trkpt lat="42.89866" lon="2.8433">
        <ele>383</ele>
        <time>2024-07-19T07:50:33Z</time>
      </trkpt>
      <trkpt lat="42.8986" lon="2.84327">
        <ele>383</ele>
        <time>2024-07-19T07:50:35Z</time>
      </trkpt>
      <trkpt lat="42.89853" lon="2.84326">
        <ele>383</ele>
        <time>2024-07-19T07:50:37Z</time>
      </trkpt>
      <trkpt lat="42.89846" lon="2.84326">
        <ele>383</ele>
        <time>2024-07-19T07:50:39Z</time>
      </trkpt>
      <trkpt lat="42.89839" lon="2.84329">
        <ele>383</ele>
        <time>2024-07-19T07:50:41Z</time>
      </trkpt>
      <trkpt lat="42.89835" lon="2.84335">
        <ele>384</ele>
        <time>2024-07-19T07:50:43Z</time>
      </trkpt>
      <trkpt lat="42.8983" lon="2.84342">
        <ele>384</ele>
        <time>2024-07-19T07:50:45Z</time>
      </trkpt>
      <trkpt lat="42.89825" lon="2.84347">
        <ele>384</ele>
        <time>2024-07-19T07:50:47Z</time>
      </trkpt>
      <trkpt lat="42.89818" lon="2.84349">
        <ele>384</ele>
        <time>2024-07-19T07:50:49Z</time>
      </trkpt>
      <trkpt lat="42.89812" lon="2.84352">
        <ele>385</ele>
        <time>2024-07-19T07:50:51Z</time>
      </trkpt>
      <trkpt lat="42.89806" lon="2.84354">
        <ele>385</ele>
        <time>2024-07-19T07:50:53Z</time>
      </trkpt>
      <trkpt lat="42.89801" lon="2.84357">
        <ele>386</ele>
        <time>2024-07-19T07:50:55Z</time>
      </trkpt>
      <trkpt lat="42.89803" lon="2.84353">
        <ele>386</ele>
        <time>2024-07-19T07:51:18Z</time>
      </trkpt>
      <trkpt lat="42.89803" lon="2.84353">
        <ele>386</ele>
        <time>2024-07-19T07:51:19Z</time>
      </trkpt>
      <trkpt lat="42.89802" lon="2.84344">
        <ele>386</ele>
        <time>2024-07-19T07:51:24Z</time>
      </trkpt>
      <trkpt lat="42.89801" lon="2.84336">
        <ele>385</ele>
        <time>2024-07-19T07:51:26Z</time>
      </trkpt>
      <trkpt lat="42.898" lon="2.84328">
        <ele>385</ele>
        <time>2024-07-19T07:51:28Z</time>
      </trkpt>
      <trkpt lat="42.89799" lon="2.8432">
        <ele>384</ele>
        <time>2024-07-19T07:51:30Z</time>
      </trkpt>
      <trkpt lat="42.89798" lon="2.84312">
        <ele>384</ele>
        <time>2024-07-19T07:51:32Z</time>
      </trkpt>
      <trkpt lat="42.89796" lon="2.84304">
        <ele>383</ele>
        <time>2024-07-19T07:51:34Z</time>
      </trkpt>
      <trkpt lat="42.89795" lon="2.84298">
        <ele>382</ele>
        <time>2024-07-19T07:51:36Z</time>
      </trkpt>
      <trkpt lat="42.89793" lon="2.84292">
        <ele>382</ele>
        <time>2024-07-19T07:51:38Z</time>
      </trkpt>
      <trkpt lat="42.89789" lon="2.84286">
        <ele>381</ele>
        <time>2024-07-19T07:51:40Z</time>
      </trkpt>
      <trkpt lat="42.89786" lon="2.8428">
        <ele>380</ele>
        <time>2024-07-19T07:51:42Z</time>
      </trkpt>
      <trkpt lat="42.89786" lon="2.84273">
        <ele>379</ele>
        <time>2024-07-19T07:51:44Z</time>
      </trkpt>
      <trkpt lat="42.89789" lon="2.84267">
        <ele>379</ele>
        <time>2024-07-19T07:51:46Z</time>
      </trkpt>
      <trkpt lat="42.89792" lon="2.84261">
        <ele>378</ele>
        <time>2024-07-19T07:51:48Z</time>
      </trkpt>
      <trkpt lat="42.89796" lon="2.84258">
        <ele>377</ele>
        <time>2024-07-19T07:51:50Z</time>
      </trkpt>
      <trkpt lat="42.89802" lon="2.84256">
        <ele>377</ele>
        <time>2024-07-19T07:51:53Z</time>
      </trkpt>
      <trkpt lat="42.89807" lon="2.84251">
        <ele>376</ele>
        <time>2024-07-19T07:51:56Z</time>
      </trkpt>
      <trkpt lat="42.89805" lon="2.84245">
        <ele>375</ele>
        <time>2024-07-19T07:52:00Z</time>
      </trkpt>
      <trkpt lat="42.89806" lon="2.84238">
        <ele>374</ele>
        <time>2024-07-19T07:52:03Z</time>
      </trkpt>
      <trkpt lat="42.89805" lon="2.84231">
        <ele>373</ele>
        <time>2024-07-19T07:52:06Z</time>
      </trkpt>
      <trkpt lat="42.89808" lon="2.84224">
        <ele>372</ele>
        <time>2024-07-19T07:52:09Z</time>
      </trkpt>
      <trkpt lat="42.89811" lon="2.84215">
        <ele>372</ele>
        <time>2024-07-19T07:52:12Z</time>
      </trkpt>
      <trkpt lat="42.89811" lon="2.84208">
        <ele>371</ele>
        <time>2024-07-19T07:52:14Z</time>
      </trkpt>
      <trkpt lat="42.89811" lon="2.84201">
        <ele>370</ele>
        <time>2024-07-19T07:52:17Z</time>
      </trkpt>
      <trkpt lat="42.89806" lon="2.84196">
        <ele>369</ele>
        <time>2024-07-19T07:52:20Z</time>
      </trkpt>
      <trkpt lat="42.89806" lon="2.8419">
        <ele>369</ele>
        <time>2024-07-19T07:52:22Z</time>
      </trkpt>
      <trkpt lat="42.89803" lon="2.84182">
        <ele>368</ele>
        <time>2024-07-19T07:52:25Z</time>
      </trkpt>
      <trkpt lat="42.89804" lon="2.84174">
        <ele>367</ele>
        <time>2024-07-19T07:52:29Z</time>
      </trkpt>
      <trkpt lat="42.89803" lon="2.84166">
        <ele>367</ele>
        <time>2024-07-19T07:52:32Z</time>
      </trkpt>
      <trkpt lat="42.89805" lon="2.84157">
        <ele>366</ele>
        <time>2024-07-19T07:52:35Z</time>
      </trkpt>
      <trkpt lat="42.89805" lon="2.84151">
        <ele>366</ele>
        <time>2024-07-19T07:52:37Z</time>
      </trkpt>
      <trkpt lat="42.89804" lon="2.84142">
        <ele>366</ele>
        <time>2024-07-19T07:52:40Z</time>
      </trkpt>
      <trkpt lat="42.89801" lon="2.84137">
        <ele>365</ele>
        <time>2024-07-19T07:52:42Z</time>
      </trkpt>
      <trkpt lat="42.898" lon="2.8413">
        <ele>365</ele>
        <time>2024-07-19T07:52:44Z</time>
      </trkpt>
      <trkpt lat="42.898" lon="2.84123">
        <ele>364</ele>
        <time>2024-07-19T07:52:46Z</time>
      </trkpt>
      <trkpt lat="42.89798" lon="2.84117">
        <ele>364</ele>
        <time>2024-07-19T07:52:48Z</time>
      </trkpt>
      <trkpt lat="42.89796" lon="2.84112">
        <ele>363</ele>
        <time>2024-07-19T07:52:50Z</time>
      </trkpt>
      <trkpt lat="42.89797" lon="2.84103">
        <ele>362</ele>
        <time>2024-07-19T07:52:53Z</time>
      </trkpt>
      <trkpt lat="42.89799" lon="2.84096">
        <ele>362</ele>
        <time>2024-07-19T07:52:56Z</time>
      </trkpt>
      <trkpt lat="42.89796" lon="2.8409">
        <ele>361</ele>
        <time>2024-07-19T07:52:59Z</time>
      </trkpt>
      <trkpt lat="42.89796" lon="2.84083">
        <ele>360</ele>
        <time>2024-07-19T07:53:02Z</time>
      </trkpt>
      <trkpt lat="42.89793" lon="2.84077">
        <ele>359</ele>
        <time>2024-07-19T07:53:05Z</time>
      </trkpt>
      <trkpt lat="42.89793" lon="2.84069">
        <ele>358</ele>
        <time>2024-07-19T07:53:08Z</time>
      </trkpt>
      <trkpt lat="42.89793" lon="2.84062">
        <ele>357</ele>
        <time>2024-07-19T07:53:10Z</time>
      </trkpt>
      <trkpt lat="42.89792" lon="2.84055">
        <ele>356</ele>
        <time>2024-07-19T07:53:13Z</time>
      </trkpt>
      <trkpt lat="42.8979" lon="2.84049">
        <ele>355</ele>
        <time>2024-07-19T07:53:24Z</time>
      </trkpt>
      <trkpt lat="42.89789" lon="2.84041">
        <ele>354</ele>
        <time>2024-07-19T07:53:34Z</time>
      </trkpt>
      <trkpt lat="42.89787" lon="2.84035">
        <ele>353</ele>
        <time>2024-07-19T07:53:36Z</time>
      </trkpt>
      <trkpt lat="42.89785" lon="2.84027">
        <ele>352</ele>
        <time>2024-07-19T07:53:38Z</time>
      </trkpt>
      <trkpt lat="42.89783" lon="2.8402">
        <ele>352</ele>
        <time>2024-07-19T07:53:40Z</time>
      </trkpt>
      <trkpt lat="42.89781" lon="2.84014">
        <ele>351</ele>
        <time>2024-07-19T07:53:42Z</time>
      </trkpt>
      <trkpt lat="42.89777" lon="2.84008">
        <ele>350</ele>
        <time>2024-07-19T07:53:44Z</time>
      </trkpt>
      <trkpt lat="42.89775" lon="2.84001">
        <ele>350</ele>
        <time>2024-07-19T07:53:47Z</time>
      </trkpt>
      <trkpt lat="42.89772" lon="2.83997">
        <ele>349</ele>
        <time>2024-07-19T07:53:49Z</time>
      </trkpt>
      <trkpt lat="42.89767" lon="2.83993">
        <ele>348</ele>
        <time>2024-07-19T07:53:51Z</time>
      </trkpt>
      <trkpt lat="42.89764" lon="2.83988">
        <ele>348</ele>
        <time>2024-07-19T07:53:53Z</time>
      </trkpt>
      <trkpt lat="42.8976" lon="2.83982">
        <ele>347</ele>
        <time>2024-07-19T07:53:55Z</time>
      </trkpt>
      <trkpt lat="42.89757" lon="2.83977">
        <ele>347</ele>
        <time>2024-07-19T07:53:57Z</time>
      </trkpt>
      <trkpt lat="42.89754" lon="2.83972">
        <ele>347</ele>
        <time>2024-07-19T07:53:59Z</time>
      </trkpt>
      <trkpt lat="42.8975" lon="2.83968">
        <ele>346</ele>
        <time>2024-07-19T07:54:01Z</time>
      </trkpt>
      <trkpt lat="42.89746" lon="2.83965">
        <ele>345</ele>
        <time>2024-07-19T07:54:03Z</time>
      </trkpt>
      <trkpt lat="42.89741" lon="2.8396">
        <ele>345</ele>
        <time>2024-07-19T07:54:05Z</time>
      </trkpt>
      <trkpt lat="42.8974" lon="2.83953">
        <ele>344</ele>
        <time>2024-07-19T07:54:07Z</time>
      </trkpt>
      <trkpt lat="42.89739" lon="2.83947">
        <ele>344</ele>
        <time>2024-07-19T07:54:09Z</time>
      </trkpt>
      <trkpt lat="42.89736" lon="2.83941">
        <ele>343</ele>
        <time>2024-07-19T07:54:12Z</time>
      </trkpt>
      <trkpt lat="42.89734" lon="2.83933">
        <ele>343</ele>
        <time>2024-07-19T07:54:17Z</time>
      </trkpt>
      <trkpt lat="42.89731" lon="2.83927">
        <ele>343</ele>
        <time>2024-07-19T07:54:20Z</time>
      </trkpt>
      <trkpt lat="42.89729" lon="2.8392">
        <ele>343</ele>
        <time>2024-07-19T07:54:23Z</time>
      </trkpt>
      <trkpt lat="42.89728" lon="2.83913">
        <ele>343</ele>
        <time>2024-07-19T07:54:26Z</time>
      </trkpt>
      <trkpt lat="42.89726" lon="2.83907">
        <ele>342</ele>
        <time>2024-07-19T07:54:28Z</time>
      </trkpt>
      <trkpt lat="42.89723" lon="2.83899">
        <ele>342</ele>
        <time>2024-07-19T07:54:31Z</time>
      </trkpt>
      <trkpt lat="42.8972" lon="2.83894">
        <ele>341</ele>
        <time>2024-07-19T07:54:34Z</time>
      </trkpt>
      <trkpt lat="42.8972" lon="2.83887">
        <ele>340</ele>
        <time>2024-07-19T07:54:36Z</time>
      </trkpt>
      <trkpt lat="42.8972" lon="2.83878">
        <ele>339</ele>
        <time>2024-07-19T07:54:39Z</time>
      </trkpt>
      <trkpt lat="42.89721" lon="2.8387">
        <ele>338</ele>
        <time>2024-07-19T07:54:42Z</time>
      </trkpt>
      <trkpt lat="42.89719" lon="2.83864">
        <ele>337</ele>
        <time>2024-07-19T07:54:44Z</time>
      </trkpt>
      <trkpt lat="42.89718" lon="2.83858">
        <ele>336</ele>
        <time>2024-07-19T07:54:46Z</time>
      </trkpt>
      <trkpt lat="42.89714" lon="2.83852">
        <ele>335</ele>
        <time>2024-07-19T07:54:48Z</time>
      </trkpt>
      <trkpt lat="42.89712" lon="2.83846">
        <ele>334</ele>
        <time>2024-07-19T07:54:50Z</time>
      </trkpt>
      <trkpt lat="42.89711" lon="2.8384">
        <ele>333</ele>
        <time>2024-07-19T07:54:52Z</time>
      </trkpt>
      <trkpt lat="42.89708" lon="2.83832">
        <ele>333</ele>
        <time>2024-07-19T07:54:55Z</time>
      </trkpt>
      <trkpt lat="42.89706" lon="2.83825">
        <ele>332</ele>
        <time>2024-07-19T07:54:57Z</time>
      </trkpt>
      <trkpt lat="42.89703" lon="2.83817">
        <ele>331</ele>
        <time>2024-07-19T07:54:59Z</time>
      </trkpt>
      <trkpt lat="42.89702" lon="2.83811">
        <ele>330</ele>
        <time>2024-07-19T07:55:01Z</time>
      </trkpt>
      <trkpt lat="42.89701" lon="2.83803">
        <ele>329</ele>
        <time>2024-07-19T07:55:04Z</time>
      </trkpt>
      <trkpt lat="42.89699" lon="2.83796">
        <ele>328</ele>
        <time>2024-07-19T07:55:07Z</time>
      </trkpt>
      <trkpt lat="42.89701" lon="2.8379">
        <ele>327</ele>
        <time>2024-07-19T07:55:09Z</time>
      </trkpt>
      <trkpt lat="42.89703" lon="2.83783">
        <ele>326</ele>
        <time>2024-07-19T07:55:11Z</time>
      </trkpt>
      <trkpt lat="42.89706" lon="2.83776">
        <ele>324</ele>
        <time>2024-07-19T07:55:13Z</time>
      </trkpt>
      <trkpt lat="42.89708" lon="2.83768">
        <ele>323</ele>
        <time>2024-07-19T07:55:15Z</time>
      </trkpt>
      <trkpt lat="42.8971" lon="2.83757">
        <ele>323</ele>
        <time>2024-07-19T07:55:17Z</time>
      </trkpt>
      <trkpt lat="42.89713" lon="2.83751">
        <ele>322</ele>
        <time>2024-07-19T07:55:19Z</time>
      </trkpt>
      <trkpt lat="42.89717" lon="2.83747">
        <ele>321</ele>
        <time>2024-07-19T07:55:23Z</time>
      </trkpt>
      <trkpt lat="42.89722" lon="2.83747">
        <ele>321</ele>
        <time>2024-07-19T07:55:27Z</time>
      </trkpt>
      <trkpt lat="42.89723" lon="2.83741">
        <ele>321</ele>
        <time>2024-07-19T07:55:30Z</time>
      </trkpt>
      <trkpt lat="42.89726" lon="2.83735">
        <ele>321</ele>
        <time>2024-07-19T07:55:39Z</time>
      </trkpt>
      <trkpt lat="42.89728" lon="2.83735">
        <ele>322</ele>
        <time>2024-07-19T07:56:03Z</time>
      </trkpt>
      <trkpt lat="42.89728" lon="2.83735">
        <ele>322</ele>
        <time>2024-07-19T07:56:04Z</time>
      </trkpt>
      <trkpt lat="42.89732" lon="2.83733">
        <ele>323</ele>
        <time>2024-07-19T07:56:08Z</time>
      </trkpt>
      <trkpt lat="42.89729" lon="2.83728">
        <ele>324</ele>
        <time>2024-07-19T07:56:11Z</time>
      </trkpt>
      <trkpt lat="42.89724" lon="2.83725">
        <ele>324</ele>
        <time>2024-07-19T07:56:14Z</time>
      </trkpt>
      <trkpt lat="42.89719" lon="2.83721">
        <ele>325</ele>
        <time>2024-07-19T07:56:17Z</time>
      </trkpt>
      <trkpt lat="42.89716" lon="2.83717">
        <ele>326</ele>
        <time>2024-07-19T07:56:24Z</time>
      </trkpt>
      <trkpt lat="42.89711" lon="2.83713">
        <ele>327</ele>
        <time>2024-07-19T07:56:37Z</time>
      </trkpt>
      <trkpt lat="42.89707" lon="2.83707">
        <ele>328</ele>
        <time>2024-07-19T07:56:41Z</time>
      </trkpt>
      <trkpt lat="42.89704" lon="2.83703">
        <ele>329</ele>
        <time>2024-07-19T07:56:44Z</time>
      </trkpt>
      <trkpt lat="42.89699" lon="2.83698">
        <ele>329</ele>
        <time>2024-07-19T07:56:49Z</time>
      </trkpt>
      <trkpt lat="42.89695" lon="2.83693">
        <ele>330</ele>
        <time>2024-07-19T07:56:53Z</time>
      </trkpt>
      <trkpt lat="42.89691" lon="2.83689">
        <ele>331</ele>
        <time>2024-07-19T07:56:57Z</time>
      </trkpt>
      <trkpt lat="42.89688" lon="2.83683">
        <ele>331</ele>
        <time>2024-07-19T07:57:01Z</time>
      </trkpt>
      <trkpt lat="42.89685" lon="2.83678">
        <ele>332</ele>
        <time>2024-07-19T07:57:16Z</time>
      </trkpt>
      <trkpt lat="42.89682" lon="2.83671">
        <ele>333</ele>
        <time>2024-07-19T07:57:20Z</time>
      </trkpt>
      <trkpt lat="42.89678" lon="2.83665">
        <ele>333</ele>
        <time>2024-07-19T07:57:24Z</time>
      </trkpt>
      <trkpt lat="42.89675" lon="2.83659">
        <ele>334</ele>
        <time>2024-07-19T07:57:28Z</time>
      </trkpt>
      <trkpt lat="42.89672" lon="2.83653">
        <ele>335</ele>
        <time>2024-07-19T07:57:32Z</time>
      </trkpt>
      <trkpt lat="42.8967" lon="2.83647">
        <ele>336</ele>
        <time>2024-07-19T07:57:36Z</time>
      </trkpt>
      <trkpt lat="42.89668" lon="2.83641">
        <ele>337</ele>
        <time>2024-07-19T07:57:53Z</time>
      </trkpt>
      <trkpt lat="42.89666" lon="2.83636">
        <ele>338</ele>
        <time>2024-07-19T07:57:57Z</time>
      </trkpt>
      <trkpt lat="42.89665" lon="2.83629">
        <ele>339</ele>
        <time>2024-07-19T07:58:01Z</time>
      </trkpt>
      <trkpt lat="42.89665" lon="2.83623">
        <ele>339</ele>
        <time>2024-07-19T07:58:06Z</time>
      </trkpt>
      <trkpt lat="42.89668" lon="2.83595">
        <ele>345</ele>
        <time>2024-07-19T07:58:55Z</time>
      </trkpt>
      <trkpt lat="42.89613" lon="2.83574">
        <ele>353</ele>
        <time>2024-07-19T08:00:12Z</time>
      </trkpt>
      <trkpt lat="42.89573" lon="2.83562">
        <ele>353</ele>
        <time>2024-07-19T08:00:48Z</time>
      </trkpt>
      <trkpt lat="42.89563" lon="2.83561">
        <ele>355</ele>
        <time>2024-07-19T08:01:11Z</time>
      </trkpt>
      <trkpt lat="42.89539" lon="2.8355">
        <ele>359</ele>
        <time>2024-07-19T08:01:43Z</time>
      </trkpt>
      <trkpt lat="42.89529" lon="2.83548">
        <ele>362</ele>
        <time>2024-07-19T08:02:18Z</time>
      </trkpt>
      <trkpt lat="42.89518" lon="2.83544">
        <ele>362</ele>
        <time>2024-07-19T08:02:46Z</time>
      </trkpt>
      <trkpt lat="42.89503" lon="2.83553">
        <ele>415</ele>
        <time>2024-07-19T08:03:35Z</time>
      </trkpt>
      <trkpt lat="42.89499" lon="2.83559">
        <ele>415</ele>
        <time>2024-07-19T08:03:38Z</time>
      </trkpt>
      <trkpt lat="42.89496" lon="2.83564">
        <ele>416</ele>
        <time>2024-07-19T08:03:41Z</time>
      </trkpt>
      <trkpt lat="42.89492" lon="2.83569">
        <ele>416</ele>
        <time>2024-07-19T08:03:44Z</time>
      </trkpt>
      <trkpt lat="42.89488" lon="2.83571">
        <ele>416</ele>
        <time>2024-07-19T08:03:46Z</time>
      </trkpt>
      <trkpt lat="42.89481" lon="2.83573">
        <ele>416</ele>
        <time>2024-07-19T08:03:49Z</time>
      </trkpt>
      <trkpt lat="42.89475" lon="2.83577">
        <ele>417</ele>
        <time>2024-07-19T08:03:52Z</time>
      </trkpt>
      <trkpt lat="42.89471" lon="2.83578">
        <ele>417</ele>
        <time>2024-07-19T08:03:54Z</time>
      </trkpt>
      <trkpt lat="42.89464" lon="2.83579">
        <ele>417</ele>
        <time>2024-07-19T08:03:57Z</time>
      </trkpt>
      <trkpt lat="42.89459" lon="2.83579">
        <ele>417</ele>
        <time>2024-07-19T08:04:00Z</time>
      </trkpt>
      <trkpt lat="42.89454" lon="2.8358">
        <ele>417</ele>
        <time>2024-07-19T08:04:02Z</time>
      </trkpt>
      <trkpt lat="42.89449" lon="2.83582">
        <ele>417</ele>
        <time>2024-07-19T08:04:04Z</time>
      </trkpt>
      <trkpt lat="42.89444" lon="2.83583">
        <ele>418</ele>
        <time>2024-07-19T08:04:06Z</time>
      </trkpt>
      <trkpt lat="42.89439" lon="2.83584">
        <ele>418</ele>
        <time>2024-07-19T08:04:08Z</time>
      </trkpt>
      <trkpt lat="42.89435" lon="2.83585">
        <ele>418</ele>
        <time>2024-07-19T08:04:10Z</time>
      </trkpt>
      <trkpt lat="42.8943" lon="2.83587">
        <ele>418</ele>
        <time>2024-07-19T08:04:12Z</time>
      </trkpt>
      <trkpt lat="42.89425" lon="2.83591">
        <ele>418</ele>
        <time>2024-07-19T08:04:15Z</time>
      </trkpt>
      <trkpt lat="42.89418" lon="2.83591">
        <ele>419</ele>
        <time>2024-07-19T08:04:18Z</time>
      </trkpt>
      <trkpt lat="42.89413" lon="2.8359">
        <ele>419</ele>
        <time>2024-07-19T08:04:20Z</time>
      </trkpt>
      <trkpt lat="42.89408" lon="2.83588">
        <ele>419</ele>
        <time>2024-07-19T08:04:22Z</time>
      </trkpt>
      <trkpt lat="42.89404" lon="2.83587">
        <ele>420</ele>
        <time>2024-07-19T08:04:24Z</time>
      </trkpt>
      <trkpt lat="42.89399" lon="2.83588">
        <ele>420</ele>
        <time>2024-07-19T08:04:26Z</time>
      </trkpt>
      <trkpt lat="42.89394" lon="2.83587">
        <ele>420</ele>
        <time>2024-07-19T08:04:28Z</time>
      </trkpt>
      <trkpt lat="42.8939" lon="2.83587">
        <ele>420</ele>
        <time>2024-07-19T08:04:30Z</time>
      </trkpt>
      <trkpt lat="42.89385" lon="2.83586">
        <ele>421</ele>
        <time>2024-07-19T08:04:32Z</time>
      </trkpt>
      <trkpt lat="42.8938" lon="2.83586">
        <ele>421</ele>
        <time>2024-07-19T08:04:34Z</time>
      </trkpt>
      <trkpt lat="42.89375" lon="2.83585">
        <ele>421</ele>
        <time>2024-07-19T08:04:36Z</time>
      </trkpt>
      <trkpt lat="42.89371" lon="2.83584">
        <ele>421</ele>
        <time>2024-07-19T08:04:38Z</time>
      </trkpt>
      <trkpt lat="42.89366" lon="2.83583">
        <ele>422</ele>
        <time>2024-07-19T08:04:40Z</time>
      </trkpt>
      <trkpt lat="42.89361" lon="2.83583">
        <ele>422</ele>
        <time>2024-07-19T08:04:42Z</time>
      </trkpt>
      <trkpt lat="42.89357" lon="2.83583">
        <ele>423</ele>
        <time>2024-07-19T08:04:44Z</time>
      </trkpt>
      <trkpt lat="42.8935" lon="2.83583">
        <ele>423</ele>
        <time>2024-07-19T08:04:47Z</time>
      </trkpt>
      <trkpt lat="42.89346" lon="2.83581">
        <ele>424</ele>
        <time>2024-07-19T08:04:49Z</time>
      </trkpt>
      <trkpt lat="42.89339" lon="2.83579">
        <ele>424</ele>
        <time>2024-07-19T08:04:52Z</time>
      </trkpt>
      <trkpt lat="42.89334" lon="2.83578">
        <ele>425</ele>
        <time>2024-07-19T08:04:55Z</time>
      </trkpt>
      <trkpt lat="42.89329" lon="2.8358">
        <ele>426</ele>
        <time>2024-07-19T08:04:58Z</time>
      </trkpt>
      <trkpt lat="42.89323" lon="2.83581">
        <ele>427</ele>
        <time>2024-07-19T08:05:02Z</time>
      </trkpt>
      <trkpt lat="42.89319" lon="2.83583">
        <ele>429</ele>
        <time>2024-07-19T08:05:14Z</time>
      </trkpt>
      <trkpt lat="42.89315" lon="2.83584">
        <ele>430</ele>
        <time>2024-07-19T08:05:22Z</time>
      </trkpt>
      <trkpt lat="42.8931" lon="2.83585">
        <ele>432</ele>
        <time>2024-07-19T08:05:32Z</time>
      </trkpt>
      <trkpt lat="42.89305" lon="2.83586">
        <ele>434</ele>
        <time>2024-07-19T08:05:40Z</time>
      </trkpt>
      <trkpt lat="42.893" lon="2.83588">
        <ele>435</ele>
        <time>2024-07-19T08:05:47Z</time>
      </trkpt>
      <trkpt lat="42.89296" lon="2.83592">
        <ele>436</ele>
        <time>2024-07-19T08:05:53Z</time>
      </trkpt>
      <trkpt lat="42.89297" lon="2.83593">
        <ele>437</ele>
        <time>2024-07-19T08:06:09Z</time>
      </trkpt>
      <trkpt lat="42.89297" lon="2.83593">
        <ele>437</ele>
        <time>2024-07-19T08:06:11Z</time>
      </trkpt>
      <trkpt lat="42.89297" lon="2.83593">
        <ele>438</ele>
        <time>2024-07-19T08:06:39Z</time>
      </trkpt>
      <trkpt lat="42.89296" lon="2.83593">
        <ele>438</ele>
        <time>2024-07-19T08:06:41Z</time>
      </trkpt>
      <trkpt lat="42.89284" lon="2.83616">
        <ele>437</ele>
        <time>2024-07-19T08:07:53Z</time>
      </trkpt>
      <trkpt lat="42.89278" lon="2.83622">
        <ele>436</ele>
        <time>2024-07-19T08:07:55Z</time>
      </trkpt>
      <trkpt lat="42.89273" lon="2.83628">
        <ele>436</ele>
        <time>2024-07-19T08:07:57Z</time>
      </trkpt>
      <trkpt lat="42.89266" lon="2.83633">
        <ele>435</ele>
        <time>2024-07-19T08:07:59Z</time>
      </trkpt>
      <trkpt lat="42.89258" lon="2.83635">
        <ele>434</ele>
        <time>2024-07-19T08:08:01Z</time>
      </trkpt>
      <trkpt lat="42.8925" lon="2.83634">
        <ele>433</ele>
        <time>2024-07-19T08:08:03Z</time>
      </trkpt>
      <trkpt lat="42.89243" lon="2.83636">
        <ele>433</ele>
        <time>2024-07-19T08:08:05Z</time>
      </trkpt>
      <trkpt lat="42.89235" lon="2.83639">
        <ele>433</ele>
        <time>2024-07-19T08:08:07Z</time>
      </trkpt>
      <trkpt lat="42.89227" lon="2.8364">
        <ele>432</ele>
        <time>2024-07-19T08:08:09Z</time>
      </trkpt>
      <trkpt lat="42.8922" lon="2.8364">
        <ele>432</ele>
        <time>2024-07-19T08:08:11Z</time>
      </trkpt>
      <trkpt lat="42.89214" lon="2.83638">
        <ele>431</ele>
        <time>2024-07-19T08:08:13Z</time>
      </trkpt>
      <trkpt lat="42.89208" lon="2.83638">
        <ele>431</ele>
        <time>2024-07-19T08:08:15Z</time>
      </trkpt>
      <trkpt lat="42.89201" lon="2.83638">
        <ele>430</ele>
        <time>2024-07-19T08:08:17Z</time>
      </trkpt>
      <trkpt lat="42.89195" lon="2.83638">
        <ele>430</ele>
        <time>2024-07-19T08:08:19Z</time>
      </trkpt>
      <trkpt lat="42.89189" lon="2.83638">
        <ele>430</ele>
        <time>2024-07-19T08:08:21Z</time>
      </trkpt>
      <trkpt lat="42.89183" lon="2.83638">
        <ele>429</ele>
        <time>2024-07-19T08:08:23Z</time>
      </trkpt>
      <trkpt lat="42.89177" lon="2.83635">
        <ele>429</ele>
        <time>2024-07-19T08:08:25Z</time>
      </trkpt>
      <trkpt lat="42.8917" lon="2.83633">
        <ele>429</ele>
        <time>2024-07-19T08:08:27Z</time>
      </trkpt>
      <trkpt lat="42.89164" lon="2.8363">
        <ele>428</ele>
        <time>2024-07-19T08:08:29Z</time>
      </trkpt>
      <trkpt lat="42.89158" lon="2.83626">
        <ele>428</ele>
        <time>2024-07-19T08:08:31Z</time>
      </trkpt>
      <trkpt lat="42.89151" lon="2.83623">
        <ele>427</ele>
        <time>2024-07-19T08:08:33Z</time>
      </trkpt>
      <trkpt lat="42.89145" lon="2.83619">
        <ele>426</ele>
        <time>2024-07-19T08:08:35Z</time>
      </trkpt>
      <trkpt lat="42.89139" lon="2.83615">
        <ele>425</ele>
        <time>2024-07-19T08:08:37Z</time>
      </trkpt>
      <trkpt lat="42.89132" lon="2.83611">
        <ele>424</ele>
        <time>2024-07-19T08:08:39Z</time>
      </trkpt>
      <trkpt lat="42.89127" lon="2.83608">
        <ele>423</ele>
        <time>2024-07-19T08:08:41Z</time>
      </trkpt>
      <trkpt lat="42.89121" lon="2.83603">
        <ele>422</ele>
        <time>2024-07-19T08:08:43Z</time>
      </trkpt>
      <trkpt lat="42.89115" lon="2.83599">
        <ele>421</ele>
        <time>2024-07-19T08:08:45Z</time>
      </trkpt>
      <trkpt lat="42.89109" lon="2.83595">
        <ele>420</ele>
        <time>2024-07-19T08:08:47Z</time>
      </trkpt>
      <trkpt lat="42.89107" lon="2.83589">
        <ele>420</ele>
        <time>2024-07-19T08:08:49Z</time>
      </trkpt>
      <trkpt lat="42.89103" lon="2.83583">
        <ele>419</ele>
        <time>2024-07-19T08:08:51Z</time>
      </trkpt>
      <trkpt lat="42.89099" lon="2.83577">
        <ele>418</ele>
        <time>2024-07-19T08:08:53Z</time>
      </trkpt>
      <trkpt lat="42.89096" lon="2.83571">
        <ele>417</ele>
        <time>2024-07-19T08:08:55Z</time>
      </trkpt>
      <trkpt lat="42.89093" lon="2.83564">
        <ele>416</ele>
        <time>2024-07-19T08:08:57Z</time>
      </trkpt>
      <trkpt lat="42.8909" lon="2.83557">
        <ele>416</ele>
        <time>2024-07-19T08:08:59Z</time>
      </trkpt>
      <trkpt lat="42.89085" lon="2.83553">
        <ele>415</ele>
        <time>2024-07-19T08:09:01Z</time>
      </trkpt>
      <trkpt lat="42.8908" lon="2.83551">
        <ele>414</ele>
        <time>2024-07-19T08:09:03Z</time>
      </trkpt>
      <trkpt lat="42.89076" lon="2.83546">
        <ele>413</ele>
        <time>2024-07-19T08:09:05Z</time>
      </trkpt>
      <trkpt lat="42.89074" lon="2.83541">
        <ele>413</ele>
        <time>2024-07-19T08:09:08Z</time>
      </trkpt>
      <trkpt lat="42.8907" lon="2.83535">
        <ele>413</ele>
        <time>2024-07-19T08:09:12Z</time>
      </trkpt>
      <trkpt lat="42.89067" lon="2.8353">
        <ele>413</ele>
        <time>2024-07-19T08:09:15Z</time>
      </trkpt>
      <trkpt lat="42.89063" lon="2.83525">
        <ele>413</ele>
        <time>2024-07-19T08:09:18Z</time>
      </trkpt>
      <trkpt lat="42.89058" lon="2.83521">
        <ele>413</ele>
        <time>2024-07-19T08:09:21Z</time>
      </trkpt>
      <trkpt lat="42.89054" lon="2.83519">
        <ele>412</ele>
        <time>2024-07-19T08:09:23Z</time>
      </trkpt>
      <trkpt lat="42.89049" lon="2.83518">
        <ele>412</ele>
        <time>2024-07-19T08:09:25Z</time>
      </trkpt>
      <trkpt lat="42.89044" lon="2.83517">
        <ele>411</ele>
        <time>2024-07-19T08:09:27Z</time>
      </trkpt>
      <trkpt lat="42.89038" lon="2.83516">
        <ele>410</ele>
        <time>2024-07-19T08:09:29Z</time>
      </trkpt>
      <trkpt lat="42.89032" lon="2.83514">
        <ele>409</ele>
        <time>2024-07-19T08:09:31Z</time>
      </trkpt>
      <trkpt lat="42.89026" lon="2.83514">
        <ele>408</ele>
        <time>2024-07-19T08:09:33Z</time>
      </trkpt>
      <trkpt lat="42.8902" lon="2.83513">
        <ele>407</ele>
        <time>2024-07-19T08:09:35Z</time>
      </trkpt>
      <trkpt lat="42.89014" lon="2.83511">
        <ele>405</ele>
        <time>2024-07-19T08:09:37Z</time>
      </trkpt>
      <trkpt lat="42.89009" lon="2.83506">
        <ele>404</ele>
        <time>2024-07-19T08:09:39Z</time>
      </trkpt>
      <trkpt lat="42.89004" lon="2.835">
        <ele>403</ele>
        <time>2024-07-19T08:09:41Z</time>
      </trkpt>
      <trkpt lat="42.88999" lon="2.83492">
        <ele>402</ele>
        <time>2024-07-19T08:09:43Z</time>
      </trkpt>
      <trkpt lat="42.88994" lon="2.83483">
        <ele>402</ele>
        <time>2024-07-19T08:09:45Z</time>
      </trkpt>
      <trkpt lat="42.8899" lon="2.83475">
        <ele>401</ele>
        <time>2024-07-19T08:09:47Z</time>
      </trkpt>
      <trkpt lat="42.88984" lon="2.83468">
        <ele>400</ele>
        <time>2024-07-19T08:09:49Z</time>
      </trkpt>
      <trkpt lat="42.8898" lon="2.83461">
        <ele>399</ele>
        <time>2024-07-19T08:09:51Z</time>
      </trkpt>
      <trkpt lat="42.88976" lon="2.83455">
        <ele>399</ele>
        <time>2024-07-19T08:09:53Z</time>
      </trkpt>
      <trkpt lat="42.88972" lon="2.83451">
        <ele>398</ele>
        <time>2024-07-19T08:09:55Z</time>
      </trkpt>
      <trkpt lat="42.88967" lon="2.83448">
        <ele>397</ele>
        <time>2024-07-19T08:09:57Z</time>
      </trkpt>
      <trkpt lat="42.88961" lon="2.83445">
        <ele>396</ele>
        <time>2024-07-19T08:09:59Z</time>
      </trkpt>
      <trkpt lat="42.88955" lon="2.83445">
        <ele>395</ele>
        <time>2024-07-19T08:10:01Z</time>
      </trkpt>
      <trkpt lat="42.88949" lon="2.83446">
        <ele>394</ele>
        <time>2024-07-19T08:10:03Z</time>
      </trkpt>
      <trkpt lat="42.88944" lon="2.83451">
        <ele>392</ele>
        <time>2024-07-19T08:10:05Z</time>
      </trkpt>
      <trkpt lat="42.88939" lon="2.83458">
        <ele>391</ele>
        <time>2024-07-19T08:10:07Z</time>
      </trkpt>
      <trkpt lat="42.88933" lon="2.83467">
        <ele>390</ele>
        <time>2024-07-19T08:10:09Z</time>
      </trkpt>
      <trkpt lat="42.88929" lon="2.83477">
        <ele>389</ele>
        <time>2024-07-19T08:10:11Z</time>
      </trkpt>
      <trkpt lat="42.88921" lon="2.83482">
        <ele>388</ele>
        <time>2024-07-19T08:10:13Z</time>
      </trkpt>
      <trkpt lat="42.88914" lon="2.83483">
        <ele>387</ele>
        <time>2024-07-19T08:10:15Z</time>
      </trkpt>
      <trkpt lat="42.88909" lon="2.83484">
        <ele>387</ele>
        <time>2024-07-19T08:10:17Z</time>
      </trkpt>
      <trkpt lat="42.88903" lon="2.83485">
        <ele>386</ele>
        <time>2024-07-19T08:10:20Z</time>
      </trkpt>
      <trkpt lat="42.88897" lon="2.83487">
        <ele>386</ele>
        <time>2024-07-19T08:10:23Z</time>
      </trkpt>
      <trkpt lat="42.88892" lon="2.8349">
        <ele>386</ele>
        <time>2024-07-19T08:10:26Z</time>
      </trkpt>
      <trkpt lat="42.88886" lon="2.83492">
        <ele>386</ele>
        <time>2024-07-19T08:10:29Z</time>
      </trkpt>
      <trkpt lat="42.88882" lon="2.83496">
        <ele>386</ele>
        <time>2024-07-19T08:10:32Z</time>
      </trkpt>
      <trkpt lat="42.88878" lon="2.835">
        <ele>386</ele>
        <time>2024-07-19T08:10:35Z</time>
      </trkpt>
      <trkpt lat="42.88871" lon="2.83502">
        <ele>386</ele>
        <time>2024-07-19T08:10:38Z</time>
      </trkpt>
      <trkpt lat="42.88866" lon="2.83502">
        <ele>385</ele>
        <time>2024-07-19T08:10:40Z</time>
      </trkpt>
      <trkpt lat="42.8886" lon="2.83502">
        <ele>385</ele>
        <time>2024-07-19T08:10:43Z</time>
      </trkpt>
      <trkpt lat="42.88856" lon="2.83499">
        <ele>384</ele>
        <time>2024-07-19T08:10:45Z</time>
      </trkpt>
      <trkpt lat="42.8885" lon="2.83498">
        <ele>383</ele>
        <time>2024-07-19T08:10:47Z</time>
      </trkpt>
      <trkpt lat="42.88845" lon="2.835">
        <ele>382</ele>
        <time>2024-07-19T08:10:49Z</time>
      </trkpt>
      <trkpt lat="42.88841" lon="2.83504">
        <ele>382</ele>
        <time>2024-07-19T08:10:51Z</time>
      </trkpt>
      <trkpt lat="42.88837" lon="2.83508">
        <ele>381</ele>
        <time>2024-07-19T08:10:53Z</time>
      </trkpt>
      <trkpt lat="42.88833" lon="2.83515">
        <ele>381</ele>
        <time>2024-07-19T08:10:56Z</time>
      </trkpt>
      <trkpt lat="42.8883" lon="2.83522">
        <ele>381</ele>
        <time>2024-07-19T08:10:59Z</time>
      </trkpt>
      <trkpt lat="42.88827" lon="2.83527">
        <ele>381</ele>
        <time>2024-07-19T08:11:01Z</time>
      </trkpt>
      <trkpt lat="42.88824" lon="2.83533">
        <ele>381</ele>
        <time>2024-07-19T08:11:04Z</time>
      </trkpt>
      <trkpt lat="42.8882" lon="2.8354">
        <ele>381</ele>
        <time>2024-07-19T08:11:07Z</time>
      </trkpt>
      <trkpt lat="42.88814" lon="2.83544">
        <ele>380</ele>
        <time>2024-07-19T08:11:09Z</time>
      </trkpt>
      <trkpt lat="42.88807" lon="2.83547">
        <ele>380</ele>
        <time>2024-07-19T08:11:11Z</time>
      </trkpt>
      <trkpt lat="42.88801" lon="2.8355">
        <ele>379</ele>
        <time>2024-07-19T08:11:13Z</time>
      </trkpt>
      <trkpt lat="42.88796" lon="2.83555">
        <ele>379</ele>
        <time>2024-07-19T08:11:15Z</time>
      </trkpt>
      <trkpt lat="42.8879" lon="2.8356">
        <ele>378</ele>
        <time>2024-07-19T08:11:17Z</time>
      </trkpt>
      <trkpt lat="42.88784" lon="2.83565">
        <ele>377</ele>
        <time>2024-07-19T08:11:19Z</time>
      </trkpt>
      <trkpt lat="42.88778" lon="2.83568">
        <ele>376</ele>
        <time>2024-07-19T08:11:21Z</time>
      </trkpt>
      <trkpt lat="42.88772" lon="2.83572">
        <ele>375</ele>
        <time>2024-07-19T08:11:23Z</time>
      </trkpt>
      <trkpt lat="42.88766" lon="2.83576">
        <ele>374</ele>
        <time>2024-07-19T08:11:25Z</time>
      </trkpt>
      <trkpt lat="42.88759" lon="2.83582">
        <ele>373</ele>
        <time>2024-07-19T08:11:27Z</time>
      </trkpt>
      <trkpt lat="42.88754" lon="2.83586">
        <ele>373</ele>
        <time>2024-07-19T08:11:28Z</time>
      </trkpt>
      <trkpt lat="42.8875" lon="2.83589">
        <ele>372</ele>
        <time>2024-07-19T08:11:29Z</time>
      </trkpt>
      <trkpt lat="42.88742" lon="2.83595">
        <ele>371</ele>
        <time>2024-07-19T08:11:31Z</time>
      </trkpt>
      <trkpt lat="42.88734" lon="2.83598">
        <ele>370</ele>
        <time>2024-07-19T08:11:33Z</time>
      </trkpt>
      <trkpt lat="42.88727" lon="2.836">
        <ele>369</ele>
        <time>2024-07-19T08:11:35Z</time>
      </trkpt>
      <trkpt lat="42.88719" lon="2.83598">
        <ele>368</ele>
        <time>2024-07-19T08:11:37Z</time>
      </trkpt>
      <trkpt lat="42.88712" lon="2.83595">
        <ele>367</ele>
        <time>2024-07-19T08:11:39Z</time>
      </trkpt>
      <trkpt lat="42.88703" lon="2.83593">
        <ele>366</ele>
        <time>2024-07-19T08:11:41Z</time>
      </trkpt>
      <trkpt lat="42.88698" lon="2.83592">
        <ele>365</ele>
        <time>2024-07-19T08:11:42Z</time>
      </trkpt>
      <trkpt lat="42.88693" lon="2.83592">
        <ele>364</ele>
        <time>2024-07-19T08:11:43Z</time>
      </trkpt>
      <trkpt lat="42.88688" lon="2.83593">
        <ele>363</ele>
        <time>2024-07-19T08:11:44Z</time>
      </trkpt>
      <trkpt lat="42.88679" lon="2.83591">
        <ele>363</ele>
        <time>2024-07-19T08:11:46Z</time>
      </trkpt>
      <trkpt lat="42.8867" lon="2.8359">
        <ele>362</ele>
        <time>2024-07-19T08:11:48Z</time>
      </trkpt>
      <trkpt lat="42.88662" lon="2.83592">
        <ele>361</ele>
        <time>2024-07-19T08:11:50Z</time>
      </trkpt>
      <trkpt lat="42.88655" lon="2.83591">
        <ele>360</ele>
        <time>2024-07-19T08:11:52Z</time>
      </trkpt>
      <trkpt lat="42.88648" lon="2.83585">
        <ele>359</ele>
        <time>2024-07-19T08:11:54Z</time>
      </trkpt>
      <trkpt lat="42.88641" lon="2.83579">
        <ele>359</ele>
        <time>2024-07-19T08:11:56Z</time>
      </trkpt>
      <trkpt lat="42.88633" lon="2.83579">
        <ele>358</ele>
        <time>2024-07-19T08:11:58Z</time>
      </trkpt>
      <trkpt lat="42.88626" lon="2.83577">
        <ele>357</ele>
        <time>2024-07-19T08:12:00Z</time>
      </trkpt>
      <trkpt lat="42.88622" lon="2.83571">
        <ele>357</ele>
        <time>2024-07-19T08:12:02Z</time>
      </trkpt>
      <trkpt lat="42.88617" lon="2.83564">
        <ele>356</ele>
        <time>2024-07-19T08:12:04Z</time>
      </trkpt>
      <trkpt lat="42.88612" lon="2.83558">
        <ele>356</ele>
        <time>2024-07-19T08:12:06Z</time>
      </trkpt>
      <trkpt lat="42.88607" lon="2.83554">
        <ele>355</ele>
        <time>2024-07-19T08:12:08Z</time>
      </trkpt>
      <trkpt lat="42.88602" lon="2.83548">
        <ele>355</ele>
        <time>2024-07-19T08:12:10Z</time>
      </trkpt>
      <trkpt lat="42.88598" lon="2.83543">
        <ele>355</ele>
        <time>2024-07-19T08:12:12Z</time>
      </trkpt>
      <trkpt lat="42.88592" lon="2.83539">
        <ele>354</ele>
        <time>2024-07-19T08:12:14Z</time>
      </trkpt>
      <trkpt lat="42.88586" lon="2.83536">
        <ele>354</ele>
        <time>2024-07-19T08:12:16Z</time>
      </trkpt>
      <trkpt lat="42.88578" lon="2.83534">
        <ele>354</ele>
        <time>2024-07-19T08:12:18Z</time>
      </trkpt>
      <trkpt lat="42.8857" lon="2.83534">
        <ele>353</ele>
        <time>2024-07-19T08:12:20Z</time>
      </trkpt>
      <trkpt lat="42.88565" lon="2.83534">
        <ele>352</ele>
        <time>2024-07-19T08:12:21Z</time>
      </trkpt>
      <trkpt lat="42.88559" lon="2.83534">
        <ele>352</ele>
        <time>2024-07-19T08:12:22Z</time>
      </trkpt>
      <trkpt lat="42.88555" lon="2.83534">
        <ele>351</ele>
        <time>2024-07-19T08:12:23Z</time>
      </trkpt>
      <trkpt lat="42.8855" lon="2.83533">
        <ele>351</ele>
        <time>2024-07-19T08:12:24Z</time>
      </trkpt>
      <trkpt lat="42.88545" lon="2.83533">
        <ele>350</ele>
        <time>2024-07-19T08:12:25Z</time>
      </trkpt>
      <trkpt lat="42.8854" lon="2.83533">
        <ele>350</ele>
        <time>2024-07-19T08:12:26Z</time>
      </trkpt>
      <trkpt lat="42.88536" lon="2.83533">
        <ele>350</ele>
        <time>2024-07-19T08:12:27Z</time>
      </trkpt>
      <trkpt lat="42.88531" lon="2.83532">
        <ele>349</ele>
        <time>2024-07-19T08:12:28Z</time>
      </trkpt>
      <trkpt lat="42.88526" lon="2.83532">
        <ele>349</ele>
        <time>2024-07-19T08:12:29Z</time>
      </trkpt>
      <trkpt lat="42.88522" lon="2.83531">
        <ele>348</ele>
        <time>2024-07-19T08:12:30Z</time>
      </trkpt>
      <trkpt lat="42.88513" lon="2.83533">
        <ele>348</ele>
        <time>2024-07-19T08:12:32Z</time>
      </trkpt>
      <trkpt lat="42.88505" lon="2.83537">
        <ele>347</ele>
        <time>2024-07-19T08:12:34Z</time>
      </trkpt>
      <trkpt lat="42.88496" lon="2.83538">
        <ele>347</ele>
        <time>2024-07-19T08:12:36Z</time>
      </trkpt>
      <trkpt lat="42.88483" lon="2.83543">
        <ele>295</ele>
        <time>2024-07-19T08:12:39Z</time>
      </trkpt>
      <trkpt lat="42.88475" lon="2.83547">
        <ele>294</ele>
        <time>2024-07-19T08:12:41Z</time>
      </trkpt>
      <trkpt lat="42.88468" lon="2.83551">
        <ele>294</ele>
        <time>2024-07-19T08:12:43Z</time>
      </trkpt>
      <trkpt lat="42.88461" lon="2.83556">
        <ele>293</ele>
        <time>2024-07-19T08:12:45Z</time>
      </trkpt>
      <trkpt lat="42.88453" lon="2.83562">
        <ele>293</ele>
        <time>2024-07-19T08:12:47Z</time>
      </trkpt>
      <trkpt lat="42.88445" lon="2.83568">
        <ele>292</ele>
        <time>2024-07-19T08:12:49Z</time>
      </trkpt>
      <trkpt lat="42.88439" lon="2.83571">
        <ele>291</ele>
        <time>2024-07-19T08:12:51Z</time>
      </trkpt>
      <trkpt lat="42.88432" lon="2.83576">
        <ele>290</ele>
        <time>2024-07-19T08:12:53Z</time>
      </trkpt>
      <trkpt lat="42.88427" lon="2.8358">
        <ele>289</ele>
        <time>2024-07-19T08:12:54Z</time>
      </trkpt>
      <trkpt lat="42.88424" lon="2.83583">
        <ele>289</ele>
        <time>2024-07-19T08:12:55Z</time>
      </trkpt>
      <trkpt lat="42.88419" lon="2.83587">
        <ele>288</ele>
        <time>2024-07-19T08:12:56Z</time>
      </trkpt>
      <trkpt lat="42.88416" lon="2.83592">
        <ele>288</ele>
        <time>2024-07-19T08:12:57Z</time>
      </trkpt>
      <trkpt lat="42.88413" lon="2.83598">
        <ele>288</ele>
        <time>2024-07-19T08:12:58Z</time>
      </trkpt>
      <trkpt lat="42.88409" lon="2.83606">
        <ele>287</ele>
        <time>2024-07-19T08:13:00Z</time>
      </trkpt>
      <trkpt lat="42.88406" lon="2.83611">
        <ele>287</ele>
        <time>2024-07-19T08:13:01Z</time>
      </trkpt>
      <trkpt lat="42.88399" lon="2.83617">
        <ele>286</ele>
        <time>2024-07-19T08:13:03Z</time>
      </trkpt>
      <trkpt lat="42.88395" lon="2.83621">
        <ele>286</ele>
        <time>2024-07-19T08:13:04Z</time>
      </trkpt>
      <trkpt lat="42.88391" lon="2.83624">
        <ele>285</ele>
        <time>2024-07-19T08:13:05Z</time>
      </trkpt>
      <trkpt lat="42.88387" lon="2.83627">
        <ele>285</ele>
        <time>2024-07-19T08:13:06Z</time>
      </trkpt>
      <trkpt lat="42.88382" lon="2.8363">
        <ele>284</ele>
        <time>2024-07-19T08:13:07Z</time>
      </trkpt>
      <trkpt lat="42.88379" lon="2.83634">
        <ele>284</ele>
        <time>2024-07-19T08:13:08Z</time>
      </trkpt>
      <trkpt lat="42.88374" lon="2.83637">
        <ele>283</ele>
        <time>2024-07-19T08:13:09Z</time>
      </trkpt>
      <trkpt lat="42.8837" lon="2.83641">
        <ele>283</ele>
        <time>2024-07-19T08:13:10Z</time>
      </trkpt>
      <trkpt lat="42.88362" lon="2.83644">
        <ele>282</ele>
        <time>2024-07-19T08:13:12Z</time>
      </trkpt>
      <trkpt lat="42.88355" lon="2.83644">
        <ele>281</ele>
        <time>2024-07-19T08:13:14Z</time>
      </trkpt>
      <trkpt lat="42.88347" lon="2.83647">
        <ele>281</ele>
        <time>2024-07-19T08:13:16Z</time>
      </trkpt>
      <trkpt lat="42.88342" lon="2.83647">
        <ele>280</ele>
        <time>2024-07-19T08:13:17Z</time>
      </trkpt>
      <trkpt lat="42.88337" lon="2.83647">
        <ele>279</ele>
        <time>2024-07-19T08:13:18Z</time>
      </trkpt>
      <trkpt lat="42.88332" lon="2.83648">
        <ele>278</ele>
        <time>2024-07-19T08:13:19Z</time>
      </trkpt>
      <trkpt lat="42.88326" lon="2.83649">
        <ele>278</ele>
        <time>2024-07-19T08:13:20Z</time>
      </trkpt>
      <trkpt lat="42.88318" lon="2.83648">
        <ele>278</ele>
        <time>2024-07-19T08:13:22Z</time>
      </trkpt>
      <trkpt lat="42.88312" lon="2.83645">
        <ele>278</ele>
        <time>2024-07-19T08:13:25Z</time>
      </trkpt>
      <trkpt lat="42.88308" lon="2.83639">
        <ele>278</ele>
        <time>2024-07-19T08:13:27Z</time>
      </trkpt>
      <trkpt lat="42.88305" lon="2.83634">
        <ele>278</ele>
        <time>2024-07-19T08:13:29Z</time>
      </trkpt>
      <trkpt lat="42.88302" lon="2.83628">
        <ele>278</ele>
        <time>2024-07-19T08:13:31Z</time>
      </trkpt>
      <trkpt lat="42.88298" lon="2.83623">
        <ele>278</ele>
        <time>2024-07-19T08:13:33Z</time>
      </trkpt>
      <trkpt lat="42.88295" lon="2.83618">
        <ele>279</ele>
        <time>2024-07-19T08:13:35Z</time>
      </trkpt>
      <trkpt lat="42.88291" lon="2.83613">
        <ele>279</ele>
        <time>2024-07-19T08:13:37Z</time>
      </trkpt>
      <trkpt lat="42.88287" lon="2.83608">
        <ele>279</ele>
        <time>2024-07-19T08:13:39Z</time>
      </trkpt>
      <trkpt lat="42.88283" lon="2.83602">
        <ele>279</ele>
        <time>2024-07-19T08:13:41Z</time>
      </trkpt>
      <trkpt lat="42.88279" lon="2.83597">
        <ele>279</ele>
        <time>2024-07-19T08:13:43Z</time>
      </trkpt>
      <trkpt lat="42.88276" lon="2.83591">
        <ele>279</ele>
        <time>2024-07-19T08:13:45Z</time>
      </trkpt>
      <trkpt lat="42.88271" lon="2.83586">
        <ele>279</ele>
        <time>2024-07-19T08:13:47Z</time>
      </trkpt>
      <trkpt lat="42.88266" lon="2.8358">
        <ele>279</ele>
        <time>2024-07-19T08:13:49Z</time>
      </trkpt>
      <trkpt lat="42.88262" lon="2.83575">
        <ele>279</ele>
        <time>2024-07-19T08:13:51Z</time>
      </trkpt>
      <trkpt lat="42.88257" lon="2.8357">
        <ele>279</ele>
        <time>2024-07-19T08:13:53Z</time>
      </trkpt>
      <trkpt lat="42.88252" lon="2.83565">
        <ele>279</ele>
        <time>2024-07-19T08:13:55Z</time>
      </trkpt>
      <trkpt lat="42.88247" lon="2.83561">
        <ele>279</ele>
        <time>2024-07-19T08:13:57Z</time>
      </trkpt>
      <trkpt lat="42.88242" lon="2.83556">
        <ele>278</ele>
        <time>2024-07-19T08:13:59Z</time>
      </trkpt>
      <trkpt lat="42.88236" lon="2.83551">
        <ele>278</ele>
        <time>2024-07-19T08:14:01Z</time>
      </trkpt>
      <trkpt lat="42.88229" lon="2.83548">
        <ele>278</ele>
        <time>2024-07-19T08:14:03Z</time>
      </trkpt>
      <trkpt lat="42.8822" lon="2.83548">
        <ele>277</ele>
        <time>2024-07-19T08:14:05Z</time>
      </trkpt>
      <trkpt lat="42.88211" lon="2.83546">
        <ele>277</ele>
        <time>2024-07-19T08:14:07Z</time>
      </trkpt>
      <trkpt lat="42.88207" lon="2.83545">
        <ele>276</ele>
        <time>2024-07-19T08:14:08Z</time>
      </trkpt>
      <trkpt lat="42.88202" lon="2.83545">
        <ele>275</ele>
        <time>2024-07-19T08:14:09Z</time>
      </trkpt>
      <trkpt lat="42.88197" lon="2.83545">
        <ele>275</ele>
        <time>2024-07-19T08:14:10Z</time>
      </trkpt>
      <trkpt lat="42.88191" lon="2.83545">
        <ele>274</ele>
        <time>2024-07-19T08:14:11Z</time>
      </trkpt>
      <trkpt lat="42.88186" lon="2.83545">
        <ele>274</ele>
        <time>2024-07-19T08:14:12Z</time>
      </trkpt>
      <trkpt lat="42.8818" lon="2.83545">
        <ele>273</ele>
        <time>2024-07-19T08:14:13Z</time>
      </trkpt>
      <trkpt lat="42.88175" lon="2.83543">
        <ele>273</ele>
        <time>2024-07-19T08:14:14Z</time>
      </trkpt>
      <trkpt lat="42.8817" lon="2.83542">
        <ele>272</ele>
        <time>2024-07-19T08:14:15Z</time>
      </trkpt>
      <trkpt lat="42.88165" lon="2.83541">
        <ele>272</ele>
        <time>2024-07-19T08:14:16Z</time>
      </trkpt>
      <trkpt lat="42.8816" lon="2.83541">
        <ele>271</ele>
        <time>2024-07-19T08:14:17Z</time>
      </trkpt>
      <trkpt lat="42.88155" lon="2.83541">
        <ele>271</ele>
        <time>2024-07-19T08:14:18Z</time>
      </trkpt>
      <trkpt lat="42.88151" lon="2.83543">
        <ele>270</ele>
        <time>2024-07-19T08:14:19Z</time>
      </trkpt>
      <trkpt lat="42.88146" lon="2.83546">
        <ele>270</ele>
        <time>2024-07-19T08:14:20Z</time>
      </trkpt>
      <trkpt lat="42.88141" lon="2.83547">
        <ele>269</ele>
        <time>2024-07-19T08:14:21Z</time>
      </trkpt>
      <trkpt lat="42.88136" lon="2.8355">
        <ele>269</ele>
        <time>2024-07-19T08:14:22Z</time>
      </trkpt>
      <trkpt lat="42.88131" lon="2.83554">
        <ele>268</ele>
        <time>2024-07-19T08:14:23Z</time>
      </trkpt>
      <trkpt lat="42.88126" lon="2.83557">
        <ele>268</ele>
        <time>2024-07-19T08:14:24Z</time>
      </trkpt>
      <trkpt lat="42.8812" lon="2.83562">
        <ele>267</ele>
        <time>2024-07-19T08:14:25Z</time>
      </trkpt>
      <trkpt lat="42.88114" lon="2.83565">
        <ele>267</ele>
        <time>2024-07-19T08:14:26Z</time>
      </trkpt>
      <trkpt lat="42.88108" lon="2.8357">
        <ele>266</ele>
        <time>2024-07-19T08:14:27Z</time>
      </trkpt>
      <trkpt lat="42.88103" lon="2.83573">
        <ele>266</ele>
        <time>2024-07-19T08:14:28Z</time>
      </trkpt>
      <trkpt lat="42.88097" lon="2.83577">
        <ele>265</ele>
        <time>2024-07-19T08:14:29Z</time>
      </trkpt>
      <trkpt lat="42.88092" lon="2.83581">
        <ele>265</ele>
        <time>2024-07-19T08:14:30Z</time>
      </trkpt>
      <trkpt lat="42.88088" lon="2.83584">
        <ele>264</ele>
        <time>2024-07-19T08:14:31Z</time>
      </trkpt>
      <trkpt lat="42.88084" lon="2.83589">
        <ele>263</ele>
        <time>2024-07-19T08:14:32Z</time>
      </trkpt>
      <trkpt lat="42.88079" lon="2.83594">
        <ele>263</ele>
        <time>2024-07-19T08:14:33Z</time>
      </trkpt>
      <trkpt lat="42.88074" lon="2.83598">
        <ele>262</ele>
        <time>2024-07-19T08:14:34Z</time>
      </trkpt>
      <trkpt lat="42.88068" lon="2.836">
        <ele>262</ele>
        <time>2024-07-19T08:14:35Z</time>
      </trkpt>
      <trkpt lat="42.88063" lon="2.83603">
        <ele>261</ele>
        <time>2024-07-19T08:14:36Z</time>
      </trkpt>
      <trkpt lat="42.88058" lon="2.83607">
        <ele>261</ele>
        <time>2024-07-19T08:14:37Z</time>
      </trkpt>
      <trkpt lat="42.88052" lon="2.83608">
        <ele>260</ele>
        <time>2024-07-19T08:14:38Z</time>
      </trkpt>
      <trkpt lat="42.88047" lon="2.83607">
        <ele>259</ele>
        <time>2024-07-19T08:14:39Z</time>
      </trkpt>
      <trkpt lat="42.88042" lon="2.83607">
        <ele>259</ele>
        <time>2024-07-19T08:14:40Z</time>
      </trkpt>
      <trkpt lat="42.88037" lon="2.83605">
        <ele>258</ele>
        <time>2024-07-19T08:14:41Z</time>
      </trkpt>
      <trkpt lat="42.88031" lon="2.83603">
        <ele>258</ele>
        <time>2024-07-19T08:14:42Z</time>
      </trkpt>
      <trkpt lat="42.88026" lon="2.83601">
        <ele>257</ele>
        <time>2024-07-19T08:14:43Z</time>
      </trkpt>
      <trkpt lat="42.8802" lon="2.83598">
        <ele>257</ele>
        <time>2024-07-19T08:14:44Z</time>
      </trkpt>
      <trkpt lat="42.88015" lon="2.83593">
        <ele>256</ele>
        <time>2024-07-19T08:14:45Z</time>
      </trkpt>
      <trkpt lat="42.8801" lon="2.83586">
        <ele>256</ele>
        <time>2024-07-19T08:14:46Z</time>
      </trkpt>
      <trkpt lat="42.88006" lon="2.8358">
        <ele>256</ele>
        <time>2024-07-19T08:14:47Z</time>
      </trkpt>
      <trkpt lat="42.88001" lon="2.83574">
        <ele>255</ele>
        <time>2024-07-19T08:14:48Z</time>
      </trkpt>
      <trkpt lat="42.87996" lon="2.8357">
        <ele>255</ele>
        <time>2024-07-19T08:14:49Z</time>
      </trkpt>
      <trkpt lat="42.8799" lon="2.83566">
        <ele>254</ele>
        <time>2024-07-19T08:14:50Z</time>
      </trkpt>
      <trkpt lat="42.87984" lon="2.83561">
        <ele>254</ele>
        <time>2024-07-19T08:14:51Z</time>
      </trkpt>
      <trkpt lat="42.87978" lon="2.83558">
        <ele>254</ele>
        <time>2024-07-19T08:14:52Z</time>
      </trkpt>
      <trkpt lat="42.87972" lon="2.83556">
        <ele>253</ele>
        <time>2024-07-19T08:14:53Z</time>
      </trkpt>
      <trkpt lat="42.87965" lon="2.83553">
        <ele>253</ele>
        <time>2024-07-19T08:14:54Z</time>
      </trkpt>
      <trkpt lat="42.87959" lon="2.83551">
        <ele>252</ele>
        <time>2024-07-19T08:14:55Z</time>
      </trkpt>
      <trkpt lat="42.87953" lon="2.83548">
        <ele>251</ele>
        <time>2024-07-19T08:14:56Z</time>
      </trkpt>
      <trkpt lat="42.87947" lon="2.83545">
        <ele>251</ele>
        <time>2024-07-19T08:14:57Z</time>
      </trkpt>
      <trkpt lat="42.87941" lon="2.83543">
        <ele>250</ele>
        <time>2024-07-19T08:14:58Z</time>
      </trkpt>
      <trkpt lat="42.87936" lon="2.83541">
        <ele>250</ele>
        <time>2024-07-19T08:14:59Z</time>
      </trkpt>
      <trkpt lat="42.8793" lon="2.8354">
        <ele>249</ele>
        <time>2024-07-19T08:15:00Z</time>
      </trkpt>
      <trkpt lat="42.87923" lon="2.83539">
        <ele>249</ele>
        <time>2024-07-19T08:15:01Z</time>
      </trkpt>
      <trkpt lat="42.87917" lon="2.83537">
        <ele>248</ele>
        <time>2024-07-19T08:15:02Z</time>
      </trkpt>
      <trkpt lat="42.87912" lon="2.83536">
        <ele>248</ele>
        <time>2024-07-19T08:15:03Z</time>
      </trkpt>
      <trkpt lat="42.87906" lon="2.83534">
        <ele>247</ele>
        <time>2024-07-19T08:15:04Z</time>
      </trkpt>
      <trkpt lat="42.879" lon="2.83532">
        <ele>246</ele>
        <time>2024-07-19T08:15:05Z</time>
      </trkpt>
      <trkpt lat="42.87894" lon="2.83529">
        <ele>246</ele>
        <time>2024-07-19T08:15:06Z</time>
      </trkpt>
      <trkpt lat="42.87889" lon="2.83525">
        <ele>245</ele>
        <time>2024-07-19T08:15:07Z</time>
      </trkpt>
      <trkpt lat="42.87884" lon="2.83516">
        <ele>244</ele>
        <time>2024-07-19T08:15:09Z</time>
      </trkpt>
      <trkpt lat="42.87883" lon="2.8351">
        <ele>243</ele>
        <time>2024-07-19T08:15:10Z</time>
      </trkpt>
      <trkpt lat="42.87882" lon="2.83502">
        <ele>243</ele>
        <time>2024-07-19T08:15:11Z</time>
      </trkpt>
      <trkpt lat="42.8788" lon="2.83493">
        <ele>242</ele>
        <time>2024-07-19T08:15:12Z</time>
      </trkpt>
      <trkpt lat="42.87878" lon="2.83485">
        <ele>241</ele>
        <time>2024-07-19T08:15:13Z</time>
      </trkpt>
      <trkpt lat="42.87875" lon="2.83479">
        <ele>241</ele>
        <time>2024-07-19T08:15:14Z</time>
      </trkpt>
      <trkpt lat="42.87871" lon="2.83474">
        <ele>241</ele>
        <time>2024-07-19T08:15:15Z</time>
      </trkpt>
      <trkpt lat="42.87867" lon="2.83469">
        <ele>240</ele>
        <time>2024-07-19T08:15:16Z</time>
      </trkpt>
      <trkpt lat="42.87862" lon="2.83465">
        <ele>240</ele>
        <time>2024-07-19T08:15:17Z</time>
      </trkpt>
      <trkpt lat="42.87858" lon="2.83461">
        <ele>240</ele>
        <time>2024-07-19T08:15:18Z</time>
      </trkpt>
      <trkpt lat="42.87854" lon="2.83457">
        <ele>240</ele>
        <time>2024-07-19T08:15:19Z</time>
      </trkpt>
      <trkpt lat="42.8785" lon="2.83453">
        <ele>240</ele>
        <time>2024-07-19T08:15:20Z</time>
      </trkpt>
      <trkpt lat="42.87846" lon="2.83449">
        <ele>239</ele>
        <time>2024-07-19T08:15:21Z</time>
      </trkpt>
      <trkpt lat="42.87843" lon="2.83445">
        <ele>239</ele>
        <time>2024-07-19T08:15:22Z</time>
      </trkpt>
      <trkpt lat="42.87836" lon="2.8344">
        <ele>238</ele>
        <time>2024-07-19T08:15:24Z</time>
      </trkpt>
      <trkpt lat="42.87828" lon="2.83437">
        <ele>237</ele>
        <time>2024-07-19T08:15:26Z</time>
      </trkpt>
      <trkpt lat="42.87819" lon="2.8344">
        <ele>236</ele>
        <time>2024-07-19T08:15:28Z</time>
      </trkpt>
      <trkpt lat="42.87814" lon="2.83442">
        <ele>235</ele>
        <time>2024-07-19T08:15:29Z</time>
      </trkpt>
      <trkpt lat="42.8781" lon="2.83445">
        <ele>234</ele>
        <time>2024-07-19T08:15:30Z</time>
      </trkpt>
      <trkpt lat="42.87805" lon="2.83448">
        <ele>233</ele>
        <time>2024-07-19T08:15:31Z</time>
      </trkpt>
      <trkpt lat="42.87801" lon="2.83451">
        <ele>232</ele>
        <time>2024-07-19T08:15:32Z</time>
      </trkpt>
      <trkpt lat="42.87796" lon="2.83453">
        <ele>231</ele>
        <time>2024-07-19T08:15:33Z</time>
      </trkpt>
      <trkpt lat="42.87791" lon="2.83454">
        <ele>231</ele>
        <time>2024-07-19T08:15:34Z</time>
      </trkpt>
      <trkpt lat="42.87786" lon="2.83455">
        <ele>230</ele>
        <time>2024-07-19T08:15:35Z</time>
      </trkpt>
      <trkpt lat="42.87781" lon="2.83456">
        <ele>229</ele>
        <time>2024-07-19T08:15:36Z</time>
      </trkpt>
      <trkpt lat="42.87777" lon="2.83458">
        <ele>228</ele>
        <time>2024-07-19T08:15:37Z</time>
      </trkpt>
      <trkpt lat="42.87772" lon="2.83461">
        <ele>228</ele>
        <time>2024-07-19T08:15:38Z</time>
      </trkpt>
      <trkpt lat="42.87766" lon="2.83465">
        <ele>227</ele>
        <time>2024-07-19T08:15:39Z</time>
      </trkpt>
      <trkpt lat="42.87761" lon="2.83468">
        <ele>226</ele>
        <time>2024-07-19T08:15:40Z</time>
      </trkpt>
      <trkpt lat="42.87757" lon="2.83472">
        <ele>226</ele>
        <time>2024-07-19T08:15:41Z</time>
      </trkpt>
      <trkpt lat="42.87752" lon="2.83474">
        <ele>225</ele>
        <time>2024-07-19T08:15:42Z</time>
      </trkpt>
      <trkpt lat="42.87744" lon="2.83475">
        <ele>224</ele>
        <time>2024-07-19T08:15:44Z</time>
      </trkpt>
      <trkpt lat="42.87738" lon="2.83468">
        <ele>224</ele>
        <time>2024-07-19T08:15:46Z</time>
      </trkpt>
      <trkpt lat="42.87734" lon="2.83462">
        <ele>224</ele>
        <time>2024-07-19T08:15:48Z</time>
      </trkpt>
      <trkpt lat="42.87732" lon="2.83455">
        <ele>223</ele>
        <time>2024-07-19T08:15:50Z</time>
      </trkpt>
      <trkpt lat="42.87731" lon="2.83449">
        <ele>224</ele>
        <time>2024-07-19T08:15:52Z</time>
      </trkpt>
      <trkpt lat="42.87734" lon="2.83442">
        <ele>224</ele>
        <time>2024-07-19T08:15:55Z</time>
      </trkpt>
      <trkpt lat="42.87738" lon="2.83438">
        <ele>224</ele>
        <time>2024-07-19T08:15:57Z</time>
      </trkpt>
      <trkpt lat="42.87743" lon="2.83432">
        <ele>224</ele>
        <time>2024-07-19T08:15:59Z</time>
      </trkpt>
      <trkpt lat="42.87748" lon="2.83426">
        <ele>225</ele>
        <time>2024-07-19T08:16:01Z</time>
      </trkpt>
      <trkpt lat="42.87753" lon="2.83421">
        <ele>225</ele>
        <time>2024-07-19T08:16:03Z</time>
      </trkpt>
      <trkpt lat="42.8776" lon="2.83416">
        <ele>225</ele>
        <time>2024-07-19T08:16:05Z</time>
      </trkpt>
      <trkpt lat="42.87766" lon="2.83413">
        <ele>226</ele>
        <time>2024-07-19T08:16:07Z</time>
      </trkpt>
      <trkpt lat="42.87772" lon="2.83407">
        <ele>226</ele>
        <time>2024-07-19T08:16:09Z</time>
      </trkpt>
      <trkpt lat="42.87779" lon="2.83402">
        <ele>227</ele>
        <time>2024-07-19T08:16:11Z</time>
      </trkpt>
      <trkpt lat="42.87784" lon="2.83395">
        <ele>227</ele>
        <time>2024-07-19T08:16:13Z</time>
      </trkpt>
      <trkpt lat="42.87788" lon="2.83388">
        <ele>228</ele>
        <time>2024-07-19T08:16:15Z</time>
      </trkpt>
      <trkpt lat="42.87793" lon="2.8338">
        <ele>228</ele>
        <time>2024-07-19T08:16:17Z</time>
      </trkpt>
      <trkpt lat="42.87798" lon="2.83373">
        <ele>228</ele>
        <time>2024-07-19T08:16:19Z</time>
      </trkpt>
      <trkpt lat="42.87803" lon="2.83366">
        <ele>229</ele>
        <time>2024-07-19T08:16:21Z</time>
      </trkpt>
      <trkpt lat="42.87808" lon="2.83359">
        <ele>229</ele>
        <time>2024-07-19T08:16:23Z</time>
      </trkpt>
      <trkpt lat="42.87814" lon="2.83352">
        <ele>229</ele>
        <time>2024-07-19T08:16:25Z</time>
      </trkpt>
      <trkpt lat="42.87819" lon="2.83346">
        <ele>229</ele>
        <time>2024-07-19T08:16:27Z</time>
      </trkpt>
      <trkpt lat="42.87825" lon="2.83339">
        <ele>230</ele>
        <time>2024-07-19T08:16:29Z</time>
      </trkpt>
      <trkpt lat="42.8783" lon="2.83331">
        <ele>230</ele>
        <time>2024-07-19T08:16:31Z</time>
      </trkpt>
      <trkpt lat="42.87833" lon="2.83322">
        <ele>230</ele>
        <time>2024-07-19T08:16:33Z</time>
      </trkpt>
      <trkpt lat="42.87835" lon="2.83313">
        <ele>231</ele>
        <time>2024-07-19T08:16:35Z</time>
      </trkpt>
      <trkpt lat="42.87837" lon="2.83302">
        <ele>231</ele>
        <time>2024-07-19T08:16:37Z</time>
      </trkpt>
      <trkpt lat="42.87838" lon="2.83293">
        <ele>231</ele>
        <time>2024-07-19T08:16:39Z</time>
      </trkpt>
      <trkpt lat="42.8784" lon="2.83283">
        <ele>232</ele>
        <time>2024-07-19T08:16:41Z</time>
      </trkpt>
      <trkpt lat="42.87842" lon="2.83273">
        <ele>232</ele>
        <time>2024-07-19T08:16:43Z</time>
      </trkpt>
      <trkpt lat="42.87845" lon="2.83263">
        <ele>232</ele>
        <time>2024-07-19T08:16:45Z</time>
      </trkpt>
      <trkpt lat="42.87848" lon="2.83255">
        <ele>232</ele>
        <time>2024-07-19T08:16:47Z</time>
      </trkpt>
      <trkpt lat="42.87852" lon="2.83246">
        <ele>232</ele>
        <time>2024-07-19T08:16:49Z</time>
      </trkpt>
      <trkpt lat="42.87856" lon="2.83237">
        <ele>233</ele>
        <time>2024-07-19T08:16:51Z</time>
      </trkpt>
      <trkpt lat="42.87859" lon="2.83228">
        <ele>233</ele>
        <time>2024-07-19T08:16:53Z</time>
      </trkpt>
      <trkpt lat="42.87861" lon="2.83218">
        <ele>233</ele>
        <time>2024-07-19T08:16:55Z</time>
      </trkpt>
      <trkpt lat="42.87863" lon="2.83209">
        <ele>233</ele>
        <time>2024-07-19T08:16:57Z</time>
      </trkpt>
      <trkpt lat="42.87867" lon="2.832">
        <ele>233</ele>
        <time>2024-07-19T08:16:59Z</time>
      </trkpt>
      <trkpt lat="42.87874" lon="2.83196">
        <ele>234</ele>
        <time>2024-07-19T08:17:01Z</time>
      </trkpt>
      <trkpt lat="42.87881" lon="2.83193">
        <ele>234</ele>
        <time>2024-07-19T08:17:03Z</time>
      </trkpt>
      <trkpt lat="42.87886" lon="2.83186">
        <ele>234</ele>
        <time>2024-07-19T08:17:05Z</time>
      </trkpt>
      <trkpt lat="42.87888" lon="2.83176">
        <ele>234</ele>
        <time>2024-07-19T08:17:07Z</time>
      </trkpt>
      <trkpt lat="42.87888" lon="2.83166">
        <ele>235</ele>
        <time>2024-07-19T08:17:09Z</time>
      </trkpt>
      <trkpt lat="42.8789" lon="2.83156">
        <ele>235</ele>
        <time>2024-07-19T08:17:11Z</time>
      </trkpt>
      <trkpt lat="42.87892" lon="2.83147">
        <ele>235</ele>
        <time>2024-07-19T08:17:13Z</time>
      </trkpt>
      <trkpt lat="42.87894" lon="2.83138">
        <ele>236</ele>
        <time>2024-07-19T08:17:15Z</time>
      </trkpt>
      <trkpt lat="42.87897" lon="2.8313">
        <ele>236</ele>
        <time>2024-07-19T08:17:17Z</time>
      </trkpt>
      <trkpt lat="42.87901" lon="2.83121">
        <ele>236</ele>
        <time>2024-07-19T08:17:19Z</time>
      </trkpt>
      <trkpt lat="42.87906" lon="2.83113">
        <ele>237</ele>
        <time>2024-07-19T08:17:21Z</time>
      </trkpt>
      <trkpt lat="42.8791" lon="2.83104">
        <ele>237</ele>
        <time>2024-07-19T08:17:23Z</time>
      </trkpt>
      <trkpt lat="42.87914" lon="2.83095">
        <ele>238</ele>
        <time>2024-07-19T08:17:25Z</time>
      </trkpt>
      <trkpt lat="42.87917" lon="2.83087">
        <ele>238</ele>
        <time>2024-07-19T08:17:27Z</time>
      </trkpt>
      <trkpt lat="42.87921" lon="2.83079">
        <ele>238</ele>
        <time>2024-07-19T08:17:29Z</time>
      </trkpt>
      <trkpt lat="42.87923" lon="2.83069">
        <ele>239</ele>
        <time>2024-07-19T08:17:31Z</time>
      </trkpt>
      <trkpt lat="42.87926" lon="2.8306">
        <ele>239</ele>
        <time>2024-07-19T08:17:33Z</time>
      </trkpt>
      <trkpt lat="42.8793" lon="2.83051">
        <ele>240</ele>
        <time>2024-07-19T08:17:35Z</time>
      </trkpt>
      <trkpt lat="42.87934" lon="2.83043">
        <ele>240</ele>
        <time>2024-07-19T08:17:37Z</time>
      </trkpt>
      <trkpt lat="42.87939" lon="2.83036">
        <ele>241</ele>
        <time>2024-07-19T08:17:39Z</time>
      </trkpt>
      <trkpt lat="42.87944" lon="2.8303">
        <ele>241</ele>
        <time>2024-07-19T08:17:41Z</time>
      </trkpt>
      <trkpt lat="42.8795" lon="2.83024">
        <ele>241</ele>
        <time>2024-07-19T08:17:43Z</time>
      </trkpt>
      <trkpt lat="42.87957" lon="2.8302">
        <ele>242</ele>
        <time>2024-07-19T08:17:45Z</time>
      </trkpt>
      <trkpt lat="42.87964" lon="2.83017">
        <ele>242</ele>
        <time>2024-07-19T08:17:47Z</time>
      </trkpt>
      <trkpt lat="42.87972" lon="2.83018">
        <ele>242</ele>
        <time>2024-07-19T08:17:49Z</time>
      </trkpt>
      <trkpt lat="42.87981" lon="2.8302">
        <ele>241</ele>
        <time>2024-07-19T08:17:51Z</time>
      </trkpt>
      <trkpt lat="42.87989" lon="2.83023">
        <ele>241</ele>
        <time>2024-07-19T08:17:53Z</time>
      </trkpt>
      <trkpt lat="42.87997" lon="2.83026">
        <ele>241</ele>
        <time>2024-07-19T08:17:55Z</time>
      </trkpt>
      <trkpt lat="42.88006" lon="2.8303">
        <ele>241</ele>
        <time>2024-07-19T08:17:57Z</time>
      </trkpt>
      <trkpt lat="42.88015" lon="2.83034">
        <ele>241</ele>
        <time>2024-07-19T08:17:59Z</time>
      </trkpt>
      <trkpt lat="42.88019" lon="2.83035">
        <ele>241</ele>
        <time>2024-07-19T08:18:00Z</time>
      </trkpt>
      <trkpt lat="42.88024" lon="2.83035">
        <ele>240</ele>
        <time>2024-07-19T08:18:01Z</time>
      </trkpt>
      <trkpt lat="42.88028" lon="2.83031">
        <ele>240</ele>
        <time>2024-07-19T08:18:02Z</time>
      </trkpt>
      <trkpt lat="42.88031" lon="2.83026">
        <ele>240</ele>
        <time>2024-07-19T08:18:03Z</time>
      </trkpt>
      <trkpt lat="42.88034" lon="2.83015">
        <ele>240</ele>
        <time>2024-07-19T08:18:05Z</time>
      </trkpt>
      <trkpt lat="42.88035" lon="2.83004">
        <ele>240</ele>
        <time>2024-07-19T08:18:07Z</time>
      </trkpt>
      <trkpt lat="42.88034" lon="2.82994">
        <ele>240</ele>
        <time>2024-07-19T08:18:09Z</time>
      </trkpt>
      <trkpt lat="42.88032" lon="2.82984">
        <ele>240</ele>
        <time>2024-07-19T08:18:11Z</time>
      </trkpt>
      <trkpt lat="42.88029" lon="2.82975">
        <ele>241</ele>
        <time>2024-07-19T08:18:13Z</time>
      </trkpt>
      <trkpt lat="42.88026" lon="2.82966">
        <ele>241</ele>
        <time>2024-07-19T08:18:15Z</time>
      </trkpt>
      <trkpt lat="42.88023" lon="2.82956">
        <ele>241</ele>
        <time>2024-07-19T08:18:17Z</time>
      </trkpt>
      <trkpt lat="42.88021" lon="2.82946">
        <ele>242</ele>
        <time>2024-07-19T08:18:19Z</time>
      </trkpt>
      <trkpt lat="42.88019" lon="2.82937">
        <ele>242</ele>
        <time>2024-07-19T08:18:21Z</time>
      </trkpt>
      <trkpt lat="42.88019" lon="2.82928">
        <ele>243</ele>
        <time>2024-07-19T08:18:23Z</time>
      </trkpt>
      <trkpt lat="42.88022" lon="2.82919">
        <ele>243</ele>
        <time>2024-07-19T08:18:25Z</time>
      </trkpt>
      <trkpt lat="42.88026" lon="2.82911">
        <ele>244</ele>
        <time>2024-07-19T08:18:27Z</time>
      </trkpt>
      <trkpt lat="42.88031" lon="2.82905">
        <ele>244</ele>
        <time>2024-07-19T08:18:29Z</time>
      </trkpt>
      <trkpt lat="42.88039" lon="2.82902">
        <ele>245</ele>
        <time>2024-07-19T08:18:31Z</time>
      </trkpt>
      <trkpt lat="42.88046" lon="2.82896">
        <ele>245</ele>
        <time>2024-07-19T08:18:33Z</time>
      </trkpt>
      <trkpt lat="42.8805" lon="2.82888">
        <ele>246</ele>
        <time>2024-07-19T08:18:35Z</time>
      </trkpt>
      <trkpt lat="42.88052" lon="2.82879">
        <ele>246</ele>
        <time>2024-07-19T08:18:37Z</time>
      </trkpt>
      <trkpt lat="42.88054" lon="2.82869">
        <ele>246</ele>
        <time>2024-07-19T08:18:39Z</time>
      </trkpt>
      <trkpt lat="42.88056" lon="2.8286">
        <ele>247</ele>
        <time>2024-07-19T08:18:41Z</time>
      </trkpt>
      <trkpt lat="42.8806" lon="2.82852">
        <ele>247</ele>
        <time>2024-07-19T08:18:43Z</time>
      </trkpt>
      <trkpt lat="42.88065" lon="2.82846">
        <ele>248</ele>
        <time>2024-07-19T08:18:45Z</time>
      </trkpt>
      <trkpt lat="42.88072" lon="2.82841">
        <ele>248</ele>
        <time>2024-07-19T08:18:47Z</time>
      </trkpt>
      <trkpt lat="42.88079" lon="2.8284">
        <ele>249</ele>
        <time>2024-07-19T08:18:49Z</time>
      </trkpt>
      <trkpt lat="42.88086" lon="2.82838">
        <ele>249</ele>
        <time>2024-07-19T08:18:51Z</time>
      </trkpt>
      <trkpt lat="42.88093" lon="2.82835">
        <ele>249</ele>
        <time>2024-07-19T08:18:53Z</time>
      </trkpt>
      <trkpt lat="42.881" lon="2.82833">
        <ele>249</ele>
        <time>2024-07-19T08:18:55Z</time>
      </trkpt>
      <trkpt lat="42.88108" lon="2.82831">
        <ele>250</ele>
        <time>2024-07-19T08:18:57Z</time>
      </trkpt>
      <trkpt lat="42.88115" lon="2.82828">
        <ele>250</ele>
        <time>2024-07-19T08:18:59Z</time>
      </trkpt>
      <trkpt lat="42.88121" lon="2.82823">
        <ele>250</ele>
        <time>2024-07-19T08:19:01Z</time>
      </trkpt>
      <trkpt lat="42.88128" lon="2.82817">
        <ele>250</ele>
        <time>2024-07-19T08:19:03Z</time>
      </trkpt>
      <trkpt lat="42.88134" lon="2.82812">
        <ele>251</ele>
        <time>2024-07-19T08:19:05Z</time>
      </trkpt>
      <trkpt lat="42.88141" lon="2.82808">
        <ele>251</ele>
        <time>2024-07-19T08:19:07Z</time>
      </trkpt>
      <trkpt lat="42.88148" lon="2.82804">
        <ele>251</ele>
        <time>2024-07-19T08:19:09Z</time>
      </trkpt>
      <trkpt lat="42.88154" lon="2.82799">
        <ele>251</ele>
        <time>2024-07-19T08:19:11Z</time>
      </trkpt>
      <trkpt lat="42.8816" lon="2.82795">
        <ele>252</ele>
        <time>2024-07-19T08:19:13Z</time>
      </trkpt>
      <trkpt lat="42.88168" lon="2.82793">
        <ele>252</ele>
        <time>2024-07-19T08:19:15Z</time>
      </trkpt>
      <trkpt lat="42.88175" lon="2.82791">
        <ele>252</ele>
        <time>2024-07-19T08:19:17Z</time>
      </trkpt>
      <trkpt lat="42.88182" lon="2.8279">
        <ele>253</ele>
        <time>2024-07-19T08:19:19Z</time>
      </trkpt>
      <trkpt lat="42.8819" lon="2.82789">
        <ele>253</ele>
        <time>2024-07-19T08:19:21Z</time>
      </trkpt>
      <trkpt lat="42.88197" lon="2.82788">
        <ele>254</ele>
        <time>2024-07-19T08:19:23Z</time>
      </trkpt>
      <trkpt lat="42.88204" lon="2.82785">
        <ele>254</ele>
        <time>2024-07-19T08:19:25Z</time>
      </trkpt>
      <trkpt lat="42.88211" lon="2.82782">
        <ele>254</ele>
        <time>2024-07-19T08:19:27Z</time>
      </trkpt>
      <trkpt lat="42.88217" lon="2.82777">
        <ele>254</ele>
        <time>2024-07-19T08:19:29Z</time>
      </trkpt>
      <trkpt lat="42.88224" lon="2.82772">
        <ele>255</ele>
        <time>2024-07-19T08:19:31Z</time>
      </trkpt>
      <trkpt lat="42.88231" lon="2.82767">
        <ele>255</ele>
        <time>2024-07-19T08:19:33Z</time>
      </trkpt>
      <trkpt lat="42.88237" lon="2.82761">
        <ele>255</ele>
        <time>2024-07-19T08:19:35Z</time>
      </trkpt>
      <trkpt lat="42.88244" lon="2.82757">
        <ele>256</ele>
        <time>2024-07-19T08:19:37Z</time>
      </trkpt>
      <trkpt lat="42.88251" lon="2.82753">
        <ele>256</ele>
        <time>2024-07-19T08:19:39Z</time>
      </trkpt>
      <trkpt lat="42.88257" lon="2.82747">
        <ele>257</ele>
        <time>2024-07-19T08:19:41Z</time>
      </trkpt>
      <trkpt lat="42.88262" lon="2.8274">
        <ele>257</ele>
        <time>2024-07-19T08:19:43Z</time>
      </trkpt>
      <trkpt lat="42.88268" lon="2.82734">
        <ele>258</ele>
        <time>2024-07-19T08:19:45Z</time>
      </trkpt>
      <trkpt lat="42.88275" lon="2.8273">
        <ele>258</ele>
        <time>2024-07-19T08:19:47Z</time>
      </trkpt>
      <trkpt lat="42.88282" lon="2.82728">
        <ele>258</ele>
        <time>2024-07-19T08:19:49Z</time>
      </trkpt>
      <trkpt lat="42.8829" lon="2.82732">
        <ele>259</ele>
        <time>2024-07-19T08:19:51Z</time>
      </trkpt>
      <trkpt lat="42.88297" lon="2.82736">
        <ele>259</ele>
        <time>2024-07-19T08:19:53Z</time>
      </trkpt>
      <trkpt lat="42.88305" lon="2.82736">
        <ele>260</ele>
        <time>2024-07-19T08:19:55Z</time>
      </trkpt>
      <trkpt lat="42.88312" lon="2.82734">
        <ele>260</ele>
        <time>2024-07-19T08:19:57Z</time>
      </trkpt>
      <trkpt lat="42.88319" lon="2.82734">
        <ele>261</ele>
        <time>2024-07-19T08:19:59Z</time>
      </trkpt>
      <trkpt lat="42.88326" lon="2.82734">
        <ele>261</ele>
        <time>2024-07-19T08:20:01Z</time>
      </trkpt>
      <trkpt lat="42.88333" lon="2.82737">
        <ele>261</ele>
        <time>2024-07-19T08:20:03Z</time>
      </trkpt>
      <trkpt lat="42.8834" lon="2.8274">
        <ele>262</ele>
        <time>2024-07-19T08:20:05Z</time>
      </trkpt>
      <trkpt lat="42.88348" lon="2.82744">
        <ele>262</ele>
        <time>2024-07-19T08:20:07Z</time>
      </trkpt>
      <trkpt lat="42.88355" lon="2.82748">
        <ele>262</ele>
        <time>2024-07-19T08:20:09Z</time>
      </trkpt>
      <trkpt lat="42.88361" lon="2.82756">
        <ele>262</ele>
        <time>2024-07-19T08:20:11Z</time>
      </trkpt>
      <trkpt lat="42.88367" lon="2.82764">
        <ele>262</ele>
        <time>2024-07-19T08:20:13Z</time>
      </trkpt>
      <trkpt lat="42.8837" lon="2.82769">
        <ele>262</ele>
        <time>2024-07-19T08:20:14Z</time>
      </trkpt>
      <trkpt lat="42.88376" lon="2.82778">
        <ele>262</ele>
        <time>2024-07-19T08:20:16Z</time>
      </trkpt>
      <trkpt lat="42.88382" lon="2.82785">
        <ele>262</ele>
        <time>2024-07-19T08:20:18Z</time>
      </trkpt>
      <trkpt lat="42.88389" lon="2.82791">
        <ele>262</ele>
        <time>2024-07-19T08:20:20Z</time>
      </trkpt>
      <trkpt lat="42.88398" lon="2.82793">
        <ele>262</ele>
        <time>2024-07-19T08:20:22Z</time>
      </trkpt>
      <trkpt lat="42.88406" lon="2.82795">
        <ele>262</ele>
        <time>2024-07-19T08:20:24Z</time>
      </trkpt>
      <trkpt lat="42.88414" lon="2.82797">
        <ele>262</ele>
        <time>2024-07-19T08:20:26Z</time>
      </trkpt>
      <trkpt lat="42.88422" lon="2.82801">
        <ele>263</ele>
        <time>2024-07-19T08:20:28Z</time>
      </trkpt>
      <trkpt lat="42.88429" lon="2.82804">
        <ele>263</ele>
        <time>2024-07-19T08:20:30Z</time>
      </trkpt>
      <trkpt lat="42.88436" lon="2.82808">
        <ele>263</ele>
        <time>2024-07-19T08:20:32Z</time>
      </trkpt>
      <trkpt lat="42.88443" lon="2.82811">
        <ele>263</ele>
        <time>2024-07-19T08:20:34Z</time>
      </trkpt>
      <trkpt lat="42.8845" lon="2.82814">
        <ele>263</ele>
        <time>2024-07-19T08:20:36Z</time>
      </trkpt>
      <trkpt lat="42.88456" lon="2.82819">
        <ele>264</ele>
        <time>2024-07-19T08:20:38Z</time>
      </trkpt>
      <trkpt lat="42.88464" lon="2.82823">
        <ele>264</ele>
        <time>2024-07-19T08:20:40Z</time>
      </trkpt>
      <trkpt lat="42.88471" lon="2.82826">
        <ele>264</ele>
        <time>2024-07-19T08:20:42Z</time>
      </trkpt>
      <trkpt lat="42.88477" lon="2.82828">
        <ele>265</ele>
        <time>2024-07-19T08:20:44Z</time>
      </trkpt>
      <trkpt lat="42.88484" lon="2.82831">
        <ele>265</ele>
        <time>2024-07-19T08:20:46Z</time>
      </trkpt>
      <trkpt lat="42.88491" lon="2.82834">
        <ele>265</ele>
        <time>2024-07-19T08:20:48Z</time>
      </trkpt>
      <trkpt lat="42.88498" lon="2.82836">
        <ele>266</ele>
        <time>2024-07-19T08:20:50Z</time>
      </trkpt>
      <trkpt lat="42.88505" lon="2.82838">
        <ele>266</ele>
        <time>2024-07-19T08:20:52Z</time>
      </trkpt>
      <trkpt lat="42.88511" lon="2.82841">
        <ele>266</ele>
        <time>2024-07-19T08:20:54Z</time>
      </trkpt>
      <trkpt lat="42.88517" lon="2.82844">
        <ele>267</ele>
        <time>2024-07-19T08:20:56Z</time>
      </trkpt>
      <trkpt lat="42.88524" lon="2.82847">
        <ele>267</ele>
        <time>2024-07-19T08:20:58Z</time>
      </trkpt>
      <trkpt lat="42.8853" lon="2.82849">
        <ele>268</ele>
        <time>2024-07-19T08:21:00Z</time>
      </trkpt>
      <trkpt lat="42.88536" lon="2.82851">
        <ele>268</ele>
        <time>2024-07-19T08:21:02Z</time>
      </trkpt>
      <trkpt lat="42.88541" lon="2.82854">
        <ele>269</ele>
        <time>2024-07-19T08:21:04Z</time>
      </trkpt>
      <trkpt lat="42.88547" lon="2.82856">
        <ele>270</ele>
        <time>2024-07-19T08:21:06Z</time>
      </trkpt>
      <trkpt lat="42.88552" lon="2.82858">
        <ele>270</ele>
        <time>2024-07-19T08:21:08Z</time>
      </trkpt>
      <trkpt lat="42.88557" lon="2.8286">
        <ele>271</ele>
        <time>2024-07-19T08:21:10Z</time>
      </trkpt>
      <trkpt lat="42.88563" lon="2.82863">
        <ele>272</ele>
        <time>2024-07-19T08:21:12Z</time>
      </trkpt>
      <trkpt lat="42.88568" lon="2.82867">
        <ele>272</ele>
        <time>2024-07-19T08:21:14Z</time>
      </trkpt>
      <trkpt lat="42.88572" lon="2.82872">
        <ele>273</ele>
        <time>2024-07-19T08:21:16Z</time>
      </trkpt>
      <trkpt lat="42.88572" lon="2.8288">
        <ele>274</ele>
        <time>2024-07-19T08:21:18Z</time>
      </trkpt>
      <trkpt lat="42.88571" lon="2.82889">
        <ele>274</ele>
        <time>2024-07-19T08:21:20Z</time>
      </trkpt>
      <trkpt lat="42.88569" lon="2.82898">
        <ele>275</ele>
        <time>2024-07-19T08:21:22Z</time>
      </trkpt>
      <trkpt lat="42.88569" lon="2.82906">
        <ele>275</ele>
        <time>2024-07-19T08:21:24Z</time>
      </trkpt>
      <trkpt lat="42.88568" lon="2.82915">
        <ele>275</ele>
        <time>2024-07-19T08:21:26Z</time>
      </trkpt>
      <trkpt lat="42.88567" lon="2.82924">
        <ele>276</ele>
        <time>2024-07-19T08:21:28Z</time>
      </trkpt>
      <trkpt lat="42.88566" lon="2.82932">
        <ele>276</ele>
        <time>2024-07-19T08:21:30Z</time>
      </trkpt>
      <trkpt lat="42.88566" lon="2.82941">
        <ele>277</ele>
        <time>2024-07-19T08:21:32Z</time>
      </trkpt>
      <trkpt lat="42.88567" lon="2.82949">
        <ele>277</ele>
        <time>2024-07-19T08:21:34Z</time>
      </trkpt>
      <trkpt lat="42.88569" lon="2.82958">
        <ele>278</ele>
        <time>2024-07-19T08:21:36Z</time>
      </trkpt>
      <trkpt lat="42.88573" lon="2.82965">
        <ele>278</ele>
        <time>2024-07-19T08:21:38Z</time>
      </trkpt>
      <trkpt lat="42.88577" lon="2.82971">
        <ele>279</ele>
        <time>2024-07-19T08:21:40Z</time>
      </trkpt>
      <trkpt lat="42.88582" lon="2.82974">
        <ele>279</ele>
        <time>2024-07-19T08:21:42Z</time>
      </trkpt>
      <trkpt lat="42.88586" lon="2.82978">
        <ele>280</ele>
        <time>2024-07-19T08:21:44Z</time>
      </trkpt>
      <trkpt lat="42.8859" lon="2.82982">
        <ele>281</ele>
        <time>2024-07-19T08:21:46Z</time>
      </trkpt>
      <trkpt lat="42.88595" lon="2.82986">
        <ele>281</ele>
        <time>2024-07-19T08:21:48Z</time>
      </trkpt>
      <trkpt lat="42.88599" lon="2.8299">
        <ele>282</ele>
        <time>2024-07-19T08:21:50Z</time>
      </trkpt>
      <trkpt lat="42.88602" lon="2.82994">
        <ele>282</ele>
        <time>2024-07-19T08:21:52Z</time>
      </trkpt>
      <trkpt lat="42.88606" lon="2.82999">
        <ele>283</ele>
        <time>2024-07-19T08:21:54Z</time>
      </trkpt>
      <trkpt lat="42.88611" lon="2.83002">
        <ele>283</ele>
        <time>2024-07-19T08:21:56Z</time>
      </trkpt>
      <trkpt lat="42.88616" lon="2.83006">
        <ele>283</ele>
        <time>2024-07-19T08:21:58Z</time>
      </trkpt>
      <trkpt lat="42.88621" lon="2.83009">
        <ele>284</ele>
        <time>2024-07-19T08:22:00Z</time>
      </trkpt>
      <trkpt lat="42.88626" lon="2.83012">
        <ele>284</ele>
        <time>2024-07-19T08:22:02Z</time>
      </trkpt>
      <trkpt lat="42.88631" lon="2.83015">
        <ele>285</ele>
        <time>2024-07-19T08:22:04Z</time>
      </trkpt>
      <trkpt lat="42.88636" lon="2.83018">
        <ele>285</ele>
        <time>2024-07-19T08:22:06Z</time>
      </trkpt>
      <trkpt lat="42.88641" lon="2.83022">
        <ele>286</ele>
        <time>2024-07-19T08:22:08Z</time>
      </trkpt>
      <trkpt lat="42.88646" lon="2.83025">
        <ele>286</ele>
        <time>2024-07-19T08:22:10Z</time>
      </trkpt>
      <trkpt lat="42.88651" lon="2.83029">
        <ele>287</ele>
        <time>2024-07-19T08:22:12Z</time>
      </trkpt>
      <trkpt lat="42.88655" lon="2.83033">
        <ele>287</ele>
        <time>2024-07-19T08:22:14Z</time>
      </trkpt>
      <trkpt lat="42.88659" lon="2.83038">
        <ele>288</ele>
        <time>2024-07-19T08:22:16Z</time>
      </trkpt>
      <trkpt lat="42.88663" lon="2.83042">
        <ele>288</ele>
        <time>2024-07-19T08:22:18Z</time>
      </trkpt>
      <trkpt lat="42.88669" lon="2.83043">
        <ele>288</ele>
        <time>2024-07-19T08:22:20Z</time>
      </trkpt>
      <trkpt lat="42.88673" lon="2.83038">
        <ele>289</ele>
        <time>2024-07-19T08:22:22Z</time>
      </trkpt>
      <trkpt lat="42.88676" lon="2.8303">
        <ele>289</ele>
        <time>2024-07-19T08:22:24Z</time>
      </trkpt>
      <trkpt lat="42.88677" lon="2.83022">
        <ele>289</ele>
        <time>2024-07-19T08:22:26Z</time>
      </trkpt>
      <trkpt lat="42.88678" lon="2.83014">
        <ele>289</ele>
        <time>2024-07-19T08:22:28Z</time>
      </trkpt>
      <trkpt lat="42.88678" lon="2.83006">
        <ele>289</ele>
        <time>2024-07-19T08:22:30Z</time>
      </trkpt>
      <trkpt lat="42.8868" lon="2.82999">
        <ele>290</ele>
        <time>2024-07-19T08:22:32Z</time>
      </trkpt>
      <trkpt lat="42.88681" lon="2.82991">
        <ele>290</ele>
        <time>2024-07-19T08:22:34Z</time>
      </trkpt>
      <trkpt lat="42.88682" lon="2.82983">
        <ele>291</ele>
        <time>2024-07-19T08:22:36Z</time>
      </trkpt>
      <trkpt lat="42.88682" lon="2.82975">
        <ele>291</ele>
        <time>2024-07-19T08:22:38Z</time>
      </trkpt>
      <trkpt lat="42.88682" lon="2.82967">
        <ele>292</ele>
        <time>2024-07-19T08:22:40Z</time>
      </trkpt>
      <trkpt lat="42.88679" lon="2.8296">
        <ele>292</ele>
        <time>2024-07-19T08:22:42Z</time>
      </trkpt>
      <trkpt lat="42.88676" lon="2.82953">
        <ele>293</ele>
        <time>2024-07-19T08:22:44Z</time>
      </trkpt>
      <trkpt lat="42.88674" lon="2.82946">
        <ele>293</ele>
        <time>2024-07-19T08:22:46Z</time>
      </trkpt>
      <trkpt lat="42.88673" lon="2.82939">
        <ele>294</ele>
        <time>2024-07-19T08:22:48Z</time>
      </trkpt>
      <trkpt lat="42.88672" lon="2.82931">
        <ele>294</ele>
        <time>2024-07-19T08:22:50Z</time>
      </trkpt>
      <trkpt lat="42.8867" lon="2.82923">
        <ele>295</ele>
        <time>2024-07-19T08:22:52Z</time>
      </trkpt>
      <trkpt lat="42.88667" lon="2.82915">
        <ele>295</ele>
        <time>2024-07-19T08:22:54Z</time>
      </trkpt>
      <trkpt lat="42.88665" lon="2.82906">
        <ele>295</ele>
        <time>2024-07-19T08:22:56Z</time>
      </trkpt>
      <trkpt lat="42.88664" lon="2.82898">
        <ele>296</ele>
        <time>2024-07-19T08:22:58Z</time>
      </trkpt>
      <trkpt lat="42.88662" lon="2.82888">
        <ele>296</ele>
        <time>2024-07-19T08:23:00Z</time>
      </trkpt>
      <trkpt lat="42.88661" lon="2.82877">
        <ele>296</ele>
        <time>2024-07-19T08:23:02Z</time>
      </trkpt>
      <trkpt lat="42.88661" lon="2.82865">
        <ele>295</ele>
        <time>2024-07-19T08:23:04Z</time>
      </trkpt>
      <trkpt lat="42.88662" lon="2.82854">
        <ele>295</ele>
        <time>2024-07-19T08:23:06Z</time>
      </trkpt>
      <trkpt lat="42.88661" lon="2.82844">
        <ele>295</ele>
        <time>2024-07-19T08:23:08Z</time>
      </trkpt>
      <trkpt lat="42.88658" lon="2.82836">
        <ele>295</ele>
        <time>2024-07-19T08:23:10Z</time>
      </trkpt>
      <trkpt lat="42.88659" lon="2.82826">
        <ele>295</ele>
        <time>2024-07-19T08:23:12Z</time>
      </trkpt>
      <trkpt lat="42.88659" lon="2.82818">
        <ele>295</ele>
        <time>2024-07-19T08:23:14Z</time>
      </trkpt>
      <trkpt lat="42.88659" lon="2.8281">
        <ele>296</ele>
        <time>2024-07-19T08:23:16Z</time>
      </trkpt>
      <trkpt lat="42.88657" lon="2.82802">
        <ele>296</ele>
        <time>2024-07-19T08:23:18Z</time>
      </trkpt>
      <trkpt lat="42.88654" lon="2.82794">
        <ele>296</ele>
        <time>2024-07-19T08:23:20Z</time>
      </trkpt>
      <trkpt lat="42.88651" lon="2.82786">
        <ele>296</ele>
        <time>2024-07-19T08:23:22Z</time>
      </trkpt>
      <trkpt lat="42.88648" lon="2.82777">
        <ele>296</ele>
        <time>2024-07-19T08:23:24Z</time>
      </trkpt>
      <trkpt lat="42.88647" lon="2.82768">
        <ele>296</ele>
        <time>2024-07-19T08:23:26Z</time>
      </trkpt>
      <trkpt lat="42.88646" lon="2.82759">
        <ele>297</ele>
        <time>2024-07-19T08:23:28Z</time>
      </trkpt>
      <trkpt lat="42.88644" lon="2.8275">
        <ele>297</ele>
        <time>2024-07-19T08:23:30Z</time>
      </trkpt>
      <trkpt lat="42.88643" lon="2.82742">
        <ele>297</ele>
        <time>2024-07-19T08:23:32Z</time>
      </trkpt>
      <trkpt lat="42.88642" lon="2.82734">
        <ele>298</ele>
        <time>2024-07-19T08:23:34Z</time>
      </trkpt>
      <trkpt lat="42.8864" lon="2.82726">
        <ele>298</ele>
        <time>2024-07-19T08:23:36Z</time>
      </trkpt>
      <trkpt lat="42.88638" lon="2.82718">
        <ele>298</ele>
        <time>2024-07-19T08:23:38Z</time>
      </trkpt>
      <trkpt lat="42.88636" lon="2.8271">
        <ele>299</ele>
        <time>2024-07-19T08:23:40Z</time>
      </trkpt>
      <trkpt lat="42.88635" lon="2.82701">
        <ele>299</ele>
        <time>2024-07-19T08:23:42Z</time>
      </trkpt>
      <trkpt lat="42.88634" lon="2.82693">
        <ele>299</ele>
        <time>2024-07-19T08:23:44Z</time>
      </trkpt>
      <trkpt lat="42.88632" lon="2.82685">
        <ele>300</ele>
        <time>2024-07-19T08:23:46Z</time>
      </trkpt>
      <trkpt lat="42.88629" lon="2.82677">
        <ele>300</ele>
        <time>2024-07-19T08:23:48Z</time>
      </trkpt>
      <trkpt lat="42.88625" lon="2.8267">
        <ele>300</ele>
        <time>2024-07-19T08:23:50Z</time>
      </trkpt>
      <trkpt lat="42.88623" lon="2.82663">
        <ele>300</ele>
        <time>2024-07-19T08:23:52Z</time>
      </trkpt>
      <trkpt lat="42.88622" lon="2.82656">
        <ele>300</ele>
        <time>2024-07-19T08:23:54Z</time>
      </trkpt>
      <trkpt lat="42.8862" lon="2.82649">
        <ele>300</ele>
        <time>2024-07-19T08:23:56Z</time>
      </trkpt>
      <trkpt lat="42.88619" lon="2.82643">
        <ele>299</ele>
        <time>2024-07-19T08:23:58Z</time>
      </trkpt>
      <trkpt lat="42.88617" lon="2.82636">
        <ele>299</ele>
        <time>2024-07-19T08:24:00Z</time>
      </trkpt>
      <trkpt lat="42.88615" lon="2.82628">
        <ele>299</ele>
        <time>2024-07-19T08:24:02Z</time>
      </trkpt>
      <trkpt lat="42.88614" lon="2.8262">
        <ele>299</ele>
        <time>2024-07-19T08:24:04Z</time>
      </trkpt>
      <trkpt lat="42.88612" lon="2.82613">
        <ele>300</ele>
        <time>2024-07-19T08:24:06Z</time>
      </trkpt>
      <trkpt lat="42.88611" lon="2.82606">
        <ele>300</ele>
        <time>2024-07-19T08:24:08Z</time>
      </trkpt>
      <trkpt lat="42.8861" lon="2.82599">
        <ele>300</ele>
        <time>2024-07-19T08:24:10Z</time>
      </trkpt>
      <trkpt lat="42.88608" lon="2.82591">
        <ele>299</ele>
        <time>2024-07-19T08:24:12Z</time>
      </trkpt>
      <trkpt lat="42.88607" lon="2.82585">
        <ele>299</ele>
        <time>2024-07-19T08:24:14Z</time>
      </trkpt>
      <trkpt lat="42.88606" lon="2.82578">
        <ele>299</ele>
        <time>2024-07-19T08:24:16Z</time>
      </trkpt>
      <trkpt lat="42.88605" lon="2.82571">
        <ele>299</ele>
        <time>2024-07-19T08:24:18Z</time>
      </trkpt>
      <trkpt lat="42.88603" lon="2.82564">
        <ele>299</ele>
        <time>2024-07-19T08:24:20Z</time>
      </trkpt>
      <trkpt lat="42.88602" lon="2.82557">
        <ele>299</ele>
        <time>2024-07-19T08:24:22Z</time>
      </trkpt>
      <trkpt lat="42.88601" lon="2.8255">
        <ele>299</ele>
        <time>2024-07-19T08:24:24Z</time>
      </trkpt>
      <trkpt lat="42.886" lon="2.82543">
        <ele>299</ele>
        <time>2024-07-19T08:24:26Z</time>
      </trkpt>
      <trkpt lat="42.88599" lon="2.82535">
        <ele>299</ele>
        <time>2024-07-19T08:24:28Z</time>
      </trkpt>
      <trkpt lat="42.88598" lon="2.8252">
        <ele>299</ele>
        <time>2024-07-19T08:24:32Z</time>
      </trkpt>
      <trkpt lat="42.88597" lon="2.82512">
        <ele>299</ele>
        <time>2024-07-19T08:24:34Z</time>
      </trkpt>
      <trkpt lat="42.88596" lon="2.82505">
        <ele>299</ele>
        <time>2024-07-19T08:24:36Z</time>
      </trkpt>
      <trkpt lat="42.88595" lon="2.82497">
        <ele>300</ele>
        <time>2024-07-19T08:24:38Z</time>
      </trkpt>
      <trkpt lat="42.88595" lon="2.8249">
        <ele>300</ele>
        <time>2024-07-19T08:24:40Z</time>
      </trkpt>
      <trkpt lat="42.88595" lon="2.82483">
        <ele>300</ele>
        <time>2024-07-19T08:24:42Z</time>
      </trkpt>
      <trkpt lat="42.88594" lon="2.82475">
        <ele>300</ele>
        <time>2024-07-19T08:24:44Z</time>
      </trkpt>
      <trkpt lat="42.88593" lon="2.82468">
        <ele>300</ele>
        <time>2024-07-19T08:24:46Z</time>
      </trkpt>
      <trkpt lat="42.88592" lon="2.8246">
        <ele>300</ele>
        <time>2024-07-19T08:24:48Z</time>
      </trkpt>
      <trkpt lat="42.88592" lon="2.82454">
        <ele>300</ele>
        <time>2024-07-19T08:24:50Z</time>
      </trkpt>
      <trkpt lat="42.88589" lon="2.82447">
        <ele>300</ele>
        <time>2024-07-19T08:24:52Z</time>
      </trkpt>
      <trkpt lat="42.88585" lon="2.82442">
        <ele>300</ele>
        <time>2024-07-19T08:24:54Z</time>
      </trkpt>
      <trkpt lat="42.8858" lon="2.82438">
        <ele>300</ele>
        <time>2024-07-19T08:24:56Z</time>
      </trkpt>
      <trkpt lat="42.88573" lon="2.82434">
        <ele>300</ele>
        <time>2024-07-19T08:24:58Z</time>
      </trkpt>
      <trkpt lat="42.88566" lon="2.8243">
        <ele>300</ele>
        <time>2024-07-19T08:25:00Z</time>
      </trkpt>
      <trkpt lat="42.8856" lon="2.82425">
        <ele>300</ele>
        <time>2024-07-19T08:25:02Z</time>
      </trkpt>
      <trkpt lat="42.88553" lon="2.82421">
        <ele>299</ele>
        <time>2024-07-19T08:25:04Z</time>
      </trkpt>
      <trkpt lat="42.88545" lon="2.82418">
        <ele>299</ele>
        <time>2024-07-19T08:25:06Z</time>
      </trkpt>
      <trkpt lat="42.88538" lon="2.82414">
        <ele>299</ele>
        <time>2024-07-19T08:25:08Z</time>
      </trkpt>
      <trkpt lat="42.88532" lon="2.82409">
        <ele>298</ele>
        <time>2024-07-19T08:25:10Z</time>
      </trkpt>
      <trkpt lat="42.88526" lon="2.82404">
        <ele>298</ele>
        <time>2024-07-19T08:25:12Z</time>
      </trkpt>
      <trkpt lat="42.88519" lon="2.82398">
        <ele>297</ele>
        <time>2024-07-19T08:25:14Z</time>
      </trkpt>
      <trkpt lat="42.88512" lon="2.82393">
        <ele>297</ele>
        <time>2024-07-19T08:25:16Z</time>
      </trkpt>
      <trkpt lat="42.88505" lon="2.82389">
        <ele>296</ele>
        <time>2024-07-19T08:25:18Z</time>
      </trkpt>
      <trkpt lat="42.88498" lon="2.82385">
        <ele>296</ele>
        <time>2024-07-19T08:25:20Z</time>
      </trkpt>
      <trkpt lat="42.88491" lon="2.82382">
        <ele>296</ele>
        <time>2024-07-19T08:25:22Z</time>
      </trkpt>
      <trkpt lat="42.88485" lon="2.82377">
        <ele>295</ele>
        <time>2024-07-19T08:25:24Z</time>
      </trkpt>
      <trkpt lat="42.88479" lon="2.82373">
        <ele>295</ele>
        <time>2024-07-19T08:25:26Z</time>
      </trkpt>
      <trkpt lat="42.88471" lon="2.82368">
        <ele>294</ele>
        <time>2024-07-19T08:25:28Z</time>
      </trkpt>
      <trkpt lat="42.88465" lon="2.82363">
        <ele>294</ele>
        <time>2024-07-19T08:25:30Z</time>
      </trkpt>
      <trkpt lat="42.8846" lon="2.82361">
        <ele>293</ele>
        <time>2024-07-19T08:25:32Z</time>
      </trkpt>
      <trkpt lat="42.88456" lon="2.82358">
        <ele>293</ele>
        <time>2024-07-19T08:25:34Z</time>
      </trkpt>
      <trkpt lat="42.88451" lon="2.8235">
        <ele>293</ele>
        <time>2024-07-19T08:25:37Z</time>
      </trkpt>
      <trkpt lat="42.88447" lon="2.82343">
        <ele>292</ele>
        <time>2024-07-19T08:25:39Z</time>
      </trkpt>
      <trkpt lat="42.88445" lon="2.82334">
        <ele>292</ele>
        <time>2024-07-19T08:25:41Z</time>
      </trkpt>
      <trkpt lat="42.88443" lon="2.82326">
        <ele>292</ele>
        <time>2024-07-19T08:25:43Z</time>
      </trkpt>
      <trkpt lat="42.88442" lon="2.82318">
        <ele>292</ele>
        <time>2024-07-19T08:25:45Z</time>
      </trkpt>
      <trkpt lat="42.8844" lon="2.8231">
        <ele>292</ele>
        <time>2024-07-19T08:25:47Z</time>
      </trkpt>
      <trkpt lat="42.88438" lon="2.82302">
        <ele>292</ele>
        <time>2024-07-19T08:25:49Z</time>
      </trkpt>
      <trkpt lat="42.88437" lon="2.82295">
        <ele>292</ele>
        <time>2024-07-19T08:25:51Z</time>
      </trkpt>
      <trkpt lat="42.88435" lon="2.82288">
        <ele>292</ele>
        <time>2024-07-19T08:25:53Z</time>
      </trkpt>
      <trkpt lat="42.88433" lon="2.8228">
        <ele>292</ele>
        <time>2024-07-19T08:25:55Z</time>
      </trkpt>
      <trkpt lat="42.88432" lon="2.82271">
        <ele>292</ele>
        <time>2024-07-19T08:25:57Z</time>
      </trkpt>
      <trkpt lat="42.88433" lon="2.82263">
        <ele>292</ele>
        <time>2024-07-19T08:25:59Z</time>
      </trkpt>
      <trkpt lat="42.88435" lon="2.82255">
        <ele>292</ele>
        <time>2024-07-19T08:26:01Z</time>
      </trkpt>
      <trkpt lat="42.88435" lon="2.82248">
        <ele>291</ele>
        <time>2024-07-19T08:26:03Z</time>
      </trkpt>
      <trkpt lat="42.88432" lon="2.8224">
        <ele>291</ele>
        <time>2024-07-19T08:26:05Z</time>
      </trkpt>
      <trkpt lat="42.88429" lon="2.82232">
        <ele>291</ele>
        <time>2024-07-19T08:26:07Z</time>
      </trkpt>
      <trkpt lat="42.8843" lon="2.82222">
        <ele>290</ele>
        <time>2024-07-19T08:26:09Z</time>
      </trkpt>
      <trkpt lat="42.88435" lon="2.82213">
        <ele>289</ele>
        <time>2024-07-19T08:26:11Z</time>
      </trkpt>
      <trkpt lat="42.8844" lon="2.82207">
        <ele>288</ele>
        <time>2024-07-19T08:26:13Z</time>
      </trkpt>
      <trkpt lat="42.88445" lon="2.82201">
        <ele>288</ele>
        <time>2024-07-19T08:26:15Z</time>
      </trkpt>
      <trkpt lat="42.8845" lon="2.82194">
        <ele>287</ele>
        <time>2024-07-19T08:26:17Z</time>
      </trkpt>
      <trkpt lat="42.88455" lon="2.82186">
        <ele>286</ele>
        <time>2024-07-19T08:26:19Z</time>
      </trkpt>
      <trkpt lat="42.8846" lon="2.82179">
        <ele>286</ele>
        <time>2024-07-19T08:26:21Z</time>
      </trkpt>
      <trkpt lat="42.88464" lon="2.82171">
        <ele>285</ele>
        <time>2024-07-19T08:26:23Z</time>
      </trkpt>
      <trkpt lat="42.88468" lon="2.82164">
        <ele>284</ele>
        <time>2024-07-19T08:26:25Z</time>
      </trkpt>
      <trkpt lat="42.88473" lon="2.82155">
        <ele>284</ele>
        <time>2024-07-19T08:26:27Z</time>
      </trkpt>
      <trkpt lat="42.88479" lon="2.82146">
        <ele>283</ele>
        <time>2024-07-19T08:26:29Z</time>
      </trkpt>
      <trkpt lat="42.88483" lon="2.82136">
        <ele>282</ele>
        <time>2024-07-19T08:26:31Z</time>
      </trkpt>
      <trkpt lat="42.88486" lon="2.82131">
        <ele>282</ele>
        <time>2024-07-19T08:26:32Z</time>
      </trkpt>
      <trkpt lat="42.88488" lon="2.82125">
        <ele>281</ele>
        <time>2024-07-19T08:26:33Z</time>
      </trkpt>
      <trkpt lat="42.88491" lon="2.8212">
        <ele>280</ele>
        <time>2024-07-19T08:26:34Z</time>
      </trkpt>
      <trkpt lat="42.88495" lon="2.82115">
        <ele>280</ele>
        <time>2024-07-19T08:26:35Z</time>
      </trkpt>
      <trkpt lat="42.88502" lon="2.82111">
        <ele>279</ele>
        <time>2024-07-19T08:26:37Z</time>
      </trkpt>
      <trkpt lat="42.88509" lon="2.8211">
        <ele>279</ele>
        <time>2024-07-19T08:26:39Z</time>
      </trkpt>
      <trkpt lat="42.88516" lon="2.82112">
        <ele>279</ele>
        <time>2024-07-19T08:26:41Z</time>
      </trkpt>
      <trkpt lat="42.8852" lon="2.82109">
        <ele>279</ele>
        <time>2024-07-19T08:26:50Z</time>
      </trkpt>
      <trkpt lat="42.88522" lon="2.82103">
        <ele>278</ele>
        <time>2024-07-19T08:26:52Z</time>
      </trkpt>
      <trkpt lat="42.88524" lon="2.82096">
        <ele>279</ele>
        <time>2024-07-19T08:26:54Z</time>
      </trkpt>
      <trkpt lat="42.88527" lon="2.8209">
        <ele>279</ele>
        <time>2024-07-19T08:26:56Z</time>
      </trkpt>
      <trkpt lat="42.88532" lon="2.82086">
        <ele>279</ele>
        <time>2024-07-19T08:26:58Z</time>
      </trkpt>
      <trkpt lat="42.88536" lon="2.82088">
        <ele>280</ele>
        <time>2024-07-19T08:27:00Z</time>
      </trkpt>
      <trkpt lat="42.8854" lon="2.82091">
        <ele>280</ele>
        <time>2024-07-19T08:27:02Z</time>
      </trkpt>
      <trkpt lat="42.88543" lon="2.82094">
        <ele>281</ele>
        <time>2024-07-19T08:27:24Z</time>
      </trkpt>
      <trkpt lat="42.88543" lon="2.82094">
        <ele>281</ele>
        <time>2024-07-19T08:27:26Z</time>
      </trkpt>
      <trkpt lat="42.88538" lon="2.82092">
        <ele>281</ele>
        <time>2024-07-19T08:27:48Z</time>
      </trkpt>
      <trkpt lat="42.88535" lon="2.82085">
        <ele>282</ele>
        <time>2024-07-19T08:27:50Z</time>
      </trkpt>
      <trkpt lat="42.88535" lon="2.82079">
        <ele>282</ele>
        <time>2024-07-19T08:27:52Z</time>
      </trkpt>
      <trkpt lat="42.88534" lon="2.82071">
        <ele>282</ele>
        <time>2024-07-19T08:27:55Z</time>
      </trkpt>
      <trkpt lat="42.8853" lon="2.82067">
        <ele>283</ele>
        <time>2024-07-19T08:27:57Z</time>
      </trkpt>
      <trkpt lat="42.88526" lon="2.82064">
        <ele>283</ele>
        <time>2024-07-19T08:27:59Z</time>
      </trkpt>
      <trkpt lat="42.88523" lon="2.82059">
        <ele>284</ele>
        <time>2024-07-19T08:28:01Z</time>
      </trkpt>
      <trkpt lat="42.88519" lon="2.82053">
        <ele>284</ele>
        <time>2024-07-19T08:28:03Z</time>
      </trkpt>
      <trkpt lat="42.88516" lon="2.82047">
        <ele>285</ele>
        <time>2024-07-19T08:28:05Z</time>
      </trkpt>
      <trkpt lat="42.88513" lon="2.82043">
        <ele>285</ele>
        <time>2024-07-19T08:28:07Z</time>
      </trkpt>
      <trkpt lat="42.8851" lon="2.82035">
        <ele>286</ele>
        <time>2024-07-19T08:28:10Z</time>
      </trkpt>
      <trkpt lat="42.88508" lon="2.8203">
        <ele>286</ele>
        <time>2024-07-19T08:28:12Z</time>
      </trkpt>
      <trkpt lat="42.88504" lon="2.82025">
        <ele>287</ele>
        <time>2024-07-19T08:28:14Z</time>
      </trkpt>
      <trkpt lat="42.88501" lon="2.8202">
        <ele>287</ele>
        <time>2024-07-19T08:28:16Z</time>
      </trkpt>
      <trkpt lat="42.88497" lon="2.82014">
        <ele>288</ele>
        <time>2024-07-19T08:28:18Z</time>
      </trkpt>
      <trkpt lat="42.88494" lon="2.82008">
        <ele>288</ele>
        <time>2024-07-19T08:28:20Z</time>
      </trkpt>
      <trkpt lat="42.88491" lon="2.82001">
        <ele>288</ele>
        <time>2024-07-19T08:28:22Z</time>
      </trkpt>
      <trkpt lat="42.88488" lon="2.81994">
        <ele>288</ele>
        <time>2024-07-19T08:28:24Z</time>
      </trkpt>
      <trkpt lat="42.88484" lon="2.81987">
        <ele>288</ele>
        <time>2024-07-19T08:28:26Z</time>
      </trkpt>
      <trkpt lat="42.8848" lon="2.81979">
        <ele>289</ele>
        <time>2024-07-19T08:28:28Z</time>
      </trkpt>
      <trkpt lat="42.88476" lon="2.81971">
        <ele>289</ele>
        <time>2024-07-19T08:28:30Z</time>
      </trkpt>
      <trkpt lat="42.88471" lon="2.81962">
        <ele>289</ele>
        <time>2024-07-19T08:28:32Z</time>
      </trkpt>
      <trkpt lat="42.88467" lon="2.81952">
        <ele>289</ele>
        <time>2024-07-19T08:28:34Z</time>
      </trkpt>
      <trkpt lat="42.88467" lon="2.81941">
        <ele>289</ele>
        <time>2024-07-19T08:28:36Z</time>
      </trkpt>
      <trkpt lat="42.8847" lon="2.81933">
        <ele>289</ele>
        <time>2024-07-19T08:28:38Z</time>
      </trkpt>
      <trkpt lat="42.88472" lon="2.81928">
        <ele>290</ele>
        <time>2024-07-19T08:28:40Z</time>
      </trkpt>
      <trkpt lat="42.88477" lon="2.8192">
        <ele>290</ele>
        <time>2024-07-19T08:28:43Z</time>
      </trkpt>
      <trkpt lat="42.88479" lon="2.81914">
        <ele>291</ele>
        <time>2024-07-19T08:28:45Z</time>
      </trkpt>
      <trkpt lat="42.8848" lon="2.81906">
        <ele>291</ele>
        <time>2024-07-19T08:28:47Z</time>
      </trkpt>
      <trkpt lat="42.88479" lon="2.81898">
        <ele>292</ele>
        <time>2024-07-19T08:28:49Z</time>
      </trkpt>
      <trkpt lat="42.88478" lon="2.8189">
        <ele>292</ele>
        <time>2024-07-19T08:28:51Z</time>
      </trkpt>
      <trkpt lat="42.88476" lon="2.81882">
        <ele>291</ele>
        <time>2024-07-19T08:28:53Z</time>
      </trkpt>
      <trkpt lat="42.88474" lon="2.81872">
        <ele>291</ele>
        <time>2024-07-19T08:28:55Z</time>
      </trkpt>
      <trkpt lat="42.88474" lon="2.81863">
        <ele>291</ele>
        <time>2024-07-19T08:28:57Z</time>
      </trkpt>
      <trkpt lat="42.88474" lon="2.81853">
        <ele>290</ele>
        <time>2024-07-19T08:28:59Z</time>
      </trkpt>
      <trkpt lat="42.88473" lon="2.81842">
        <ele>290</ele>
        <time>2024-07-19T08:29:01Z</time>
      </trkpt>
      <trkpt lat="42.88473" lon="2.81832">
        <ele>289</ele>
        <time>2024-07-19T08:29:03Z</time>
      </trkpt>
      <trkpt lat="42.88474" lon="2.81825">
        <ele>288</ele>
        <time>2024-07-19T08:29:05Z</time>
      </trkpt>
      <trkpt lat="42.88479" lon="2.81817">
        <ele>287</ele>
        <time>2024-07-19T08:29:07Z</time>
      </trkpt>
      <trkpt lat="42.88484" lon="2.81807">
        <ele>286</ele>
        <time>2024-07-19T08:29:09Z</time>
      </trkpt>
      <trkpt lat="42.8849" lon="2.81798">
        <ele>285</ele>
        <time>2024-07-19T08:29:11Z</time>
      </trkpt>
      <trkpt lat="42.88493" lon="2.81793">
        <ele>283</ele>
        <time>2024-07-19T08:29:12Z</time>
      </trkpt>
      <trkpt lat="42.88496" lon="2.81789">
        <ele>282</ele>
        <time>2024-07-19T08:29:13Z</time>
      </trkpt>
      <trkpt lat="42.885" lon="2.81784">
        <ele>281</ele>
        <time>2024-07-19T08:29:14Z</time>
      </trkpt>
      <trkpt lat="42.88504" lon="2.81776">
        <ele>280</ele>
        <time>2024-07-19T08:29:16Z</time>
      </trkpt>
      <trkpt lat="42.88502" lon="2.8177">
        <ele>280</ele>
        <time>2024-07-19T08:29:18Z</time>
      </trkpt>
      <trkpt lat="42.885" lon="2.81764">
        <ele>280</ele>
        <time>2024-07-19T08:29:20Z</time>
      </trkpt>
      <trkpt lat="42.88496" lon="2.81758">
        <ele>279</ele>
        <time>2024-07-19T08:29:23Z</time>
      </trkpt>
      <trkpt lat="42.88492" lon="2.8175">
        <ele>279</ele>
        <time>2024-07-19T08:29:26Z</time>
      </trkpt>
      <trkpt lat="42.88489" lon="2.81743">
        <ele>279</ele>
        <time>2024-07-19T08:29:28Z</time>
      </trkpt>
      <trkpt lat="42.88486" lon="2.81735">
        <ele>279</ele>
        <time>2024-07-19T08:29:30Z</time>
      </trkpt>
      <trkpt lat="42.88481" lon="2.81728">
        <ele>279</ele>
        <time>2024-07-19T08:29:32Z</time>
      </trkpt>
      <trkpt lat="42.88476" lon="2.8172">
        <ele>278</ele>
        <time>2024-07-19T08:29:34Z</time>
      </trkpt>
      <trkpt lat="42.88471" lon="2.81712">
        <ele>278</ele>
        <time>2024-07-19T08:29:36Z</time>
      </trkpt>
      <trkpt lat="42.88466" lon="2.81703">
        <ele>278</ele>
        <time>2024-07-19T08:29:38Z</time>
      </trkpt>
      <trkpt lat="42.88461" lon="2.81694">
        <ele>277</ele>
        <time>2024-07-19T08:29:40Z</time>
      </trkpt>
      <trkpt lat="42.88456" lon="2.81687">
        <ele>277</ele>
        <time>2024-07-19T08:29:42Z</time>
      </trkpt>
      <trkpt lat="42.8845" lon="2.81679">
        <ele>277</ele>
        <time>2024-07-19T08:29:44Z</time>
      </trkpt>
      <trkpt lat="42.88447" lon="2.81668">
        <ele>277</ele>
        <time>2024-07-19T08:29:46Z</time>
      </trkpt>
      <trkpt lat="42.88445" lon="2.81658">
        <ele>277</ele>
        <time>2024-07-19T08:29:48Z</time>
      </trkpt>
      <trkpt lat="42.88443" lon="2.81649">
        <ele>278</ele>
        <time>2024-07-19T08:29:50Z</time>
      </trkpt>
      <trkpt lat="42.8844" lon="2.8164">
        <ele>278</ele>
        <time>2024-07-19T08:29:52Z</time>
      </trkpt>
      <trkpt lat="42.88435" lon="2.81632">
        <ele>279</ele>
        <time>2024-07-19T08:29:54Z</time>
      </trkpt>
      <trkpt lat="42.88429" lon="2.81624">
        <ele>279</ele>
        <time>2024-07-19T08:29:56Z</time>
      </trkpt>
      <trkpt lat="42.88422" lon="2.81617">
        <ele>280</ele>
        <time>2024-07-19T08:29:58Z</time>
      </trkpt>
      <trkpt lat="42.88417" lon="2.8161">
        <ele>280</ele>
        <time>2024-07-19T08:30:00Z</time>
      </trkpt>
      <trkpt lat="42.8841" lon="2.81606">
        <ele>281</ele>
        <time>2024-07-19T08:30:02Z</time>
      </trkpt>
      <trkpt lat="42.88403" lon="2.81602">
        <ele>281</ele>
        <time>2024-07-19T08:30:04Z</time>
      </trkpt>
      <trkpt lat="42.88397" lon="2.81597">
        <ele>281</ele>
        <time>2024-07-19T08:30:06Z</time>
      </trkpt>
      <trkpt lat="42.88393" lon="2.8159">
        <ele>282</ele>
        <time>2024-07-19T08:30:08Z</time>
      </trkpt>
      <trkpt lat="42.88393" lon="2.81582">
        <ele>282</ele>
        <time>2024-07-19T08:30:10Z</time>
      </trkpt>
      <trkpt lat="42.8839" lon="2.81575">
        <ele>283</ele>
        <time>2024-07-19T08:30:12Z</time>
      </trkpt>
      <trkpt lat="42.88385" lon="2.81568">
        <ele>283</ele>
        <time>2024-07-19T08:30:14Z</time>
      </trkpt>
      <trkpt lat="42.8838" lon="2.81562">
        <ele>283</ele>
        <time>2024-07-19T08:30:16Z</time>
      </trkpt>
      <trkpt lat="42.88375" lon="2.81554">
        <ele>283</ele>
        <time>2024-07-19T08:30:18Z</time>
      </trkpt>
      <trkpt lat="42.88368" lon="2.81546">
        <ele>283</ele>
        <time>2024-07-19T08:30:20Z</time>
      </trkpt>
      <trkpt lat="42.88364" lon="2.81537">
        <ele>283</ele>
        <time>2024-07-19T08:30:22Z</time>
      </trkpt>
      <trkpt lat="42.88364" lon="2.81527">
        <ele>282</ele>
        <time>2024-07-19T08:30:24Z</time>
      </trkpt>
      <trkpt lat="42.88365" lon="2.81514">
        <ele>281</ele>
        <time>2024-07-19T08:30:26Z</time>
      </trkpt>
      <trkpt lat="42.88364" lon="2.81508">
        <ele>281</ele>
        <time>2024-07-19T08:30:27Z</time>
      </trkpt>
      <trkpt lat="42.8836" lon="2.81497">
        <ele>280</ele>
        <time>2024-07-19T08:30:29Z</time>
      </trkpt>
      <trkpt lat="42.88354" lon="2.81489">
        <ele>280</ele>
        <time>2024-07-19T08:30:31Z</time>
      </trkpt>
      <trkpt lat="42.88347" lon="2.81485">
        <ele>279</ele>
        <time>2024-07-19T08:30:33Z</time>
      </trkpt>
      <trkpt lat="42.88341" lon="2.81489">
        <ele>278</ele>
        <time>2024-07-19T08:30:35Z</time>
      </trkpt>
      <trkpt lat="42.88337" lon="2.81494">
        <ele>277</ele>
        <time>2024-07-19T08:30:36Z</time>
      </trkpt>
      <trkpt lat="42.88334" lon="2.81498">
        <ele>276</ele>
        <time>2024-07-19T08:30:37Z</time>
      </trkpt>
      <trkpt lat="42.88327" lon="2.81504">
        <ele>275</ele>
        <time>2024-07-19T08:30:39Z</time>
      </trkpt>
      <trkpt lat="42.88323" lon="2.81507">
        <ele>275</ele>
        <time>2024-07-19T08:30:54Z</time>
      </trkpt>
      <trkpt lat="42.88323" lon="2.81507">
        <ele>274</ele>
        <time>2024-07-19T08:30:56Z</time>
      </trkpt>
      <trkpt lat="42.88317" lon="2.81512">
        <ele>273</ele>
        <time>2024-07-19T08:31:03Z</time>
      </trkpt>
      <trkpt lat="42.8831" lon="2.81517">
        <ele>273</ele>
        <time>2024-07-19T08:31:05Z</time>
      </trkpt>
      <trkpt lat="42.88306" lon="2.81519">
        <ele>272</ele>
        <time>2024-07-19T08:31:06Z</time>
      </trkpt>
      <trkpt lat="42.88302" lon="2.81524">
        <ele>271</ele>
        <time>2024-07-19T08:31:07Z</time>
      </trkpt>
      <trkpt lat="42.88294" lon="2.81531">
        <ele>270</ele>
        <time>2024-07-19T08:31:09Z</time>
      </trkpt>
      <trkpt lat="42.8829" lon="2.81535">
        <ele>269</ele>
        <time>2024-07-19T08:31:10Z</time>
      </trkpt>
      <trkpt lat="42.88286" lon="2.81539">
        <ele>268</ele>
        <time>2024-07-19T08:31:11Z</time>
      </trkpt>
      <trkpt lat="42.88283" lon="2.81544">
        <ele>268</ele>
        <time>2024-07-19T08:31:12Z</time>
      </trkpt>
      <trkpt lat="42.88276" lon="2.81547">
        <ele>267</ele>
        <time>2024-07-19T08:31:14Z</time>
      </trkpt>
      <trkpt lat="42.88271" lon="2.8154">
        <ele>266</ele>
        <time>2024-07-19T08:31:16Z</time>
      </trkpt>
      <trkpt lat="42.8827" lon="2.81529">
        <ele>265</ele>
        <time>2024-07-19T08:31:18Z</time>
      </trkpt>
      <trkpt lat="42.8827" lon="2.81523">
        <ele>264</ele>
        <time>2024-07-19T08:31:19Z</time>
      </trkpt>
      <trkpt lat="42.88269" lon="2.81516">
        <ele>263</ele>
        <time>2024-07-19T08:31:20Z</time>
      </trkpt>
      <trkpt lat="42.8827" lon="2.81509">
        <ele>263</ele>
        <time>2024-07-19T08:31:21Z</time>
      </trkpt>
      <trkpt lat="42.88269" lon="2.81497">
        <ele>262</ele>
        <time>2024-07-19T08:31:23Z</time>
      </trkpt>
      <trkpt lat="42.88263" lon="2.81489">
        <ele>261</ele>
        <time>2024-07-19T08:31:25Z</time>
      </trkpt>
      <trkpt lat="42.88258" lon="2.81488">
        <ele>260</ele>
        <time>2024-07-19T08:31:26Z</time>
      </trkpt>
      <trkpt lat="42.88253" lon="2.81489">
        <ele>259</ele>
        <time>2024-07-19T08:31:27Z</time>
      </trkpt>
      <trkpt lat="42.88248" lon="2.81489">
        <ele>259</ele>
        <time>2024-07-19T08:31:28Z</time>
      </trkpt>
      <trkpt lat="42.88244" lon="2.81486">
        <ele>259</ele>
        <time>2024-07-19T08:31:29Z</time>
      </trkpt>
      <trkpt lat="42.88239" lon="2.81483">
        <ele>258</ele>
        <time>2024-07-19T08:31:30Z</time>
      </trkpt>
      <trkpt lat="42.88235" lon="2.81478">
        <ele>258</ele>
        <time>2024-07-19T08:31:31Z</time>
      </trkpt>
      <trkpt lat="42.88231" lon="2.81474">
        <ele>258</ele>
        <time>2024-07-19T08:31:32Z</time>
      </trkpt>
      <trkpt lat="42.88226" lon="2.81469">
        <ele>258</ele>
        <time>2024-07-19T08:31:33Z</time>
      </trkpt>
      <trkpt lat="42.88221" lon="2.81464">
        <ele>257</ele>
        <time>2024-07-19T08:31:34Z</time>
      </trkpt>
      <trkpt lat="42.88216" lon="2.8146">
        <ele>257</ele>
        <time>2024-07-19T08:31:35Z</time>
      </trkpt>
      <trkpt lat="42.88211" lon="2.81459">
        <ele>256</ele>
        <time>2024-07-19T08:31:36Z</time>
      </trkpt>
      <trkpt lat="42.88206" lon="2.81459">
        <ele>256</ele>
        <time>2024-07-19T08:31:37Z</time>
      </trkpt>
      <trkpt lat="42.88201" lon="2.81462">
        <ele>255</ele>
        <time>2024-07-19T08:31:38Z</time>
      </trkpt>
      <trkpt lat="42.88198" lon="2.81467">
        <ele>255</ele>
        <time>2024-07-19T08:31:39Z</time>
      </trkpt>
      <trkpt lat="42.88195" lon="2.81474">
        <ele>254</ele>
        <time>2024-07-19T08:31:40Z</time>
      </trkpt>
      <trkpt lat="42.88192" lon="2.8148">
        <ele>254</ele>
        <time>2024-07-19T08:31:41Z</time>
      </trkpt>
      <trkpt lat="42.88189" lon="2.81486">
        <ele>253</ele>
        <time>2024-07-19T08:31:42Z</time>
      </trkpt>
      <trkpt lat="42.88188" lon="2.81493">
        <ele>253</ele>
        <time>2024-07-19T08:31:43Z</time>
      </trkpt>
      <trkpt lat="42.88181" lon="2.81499">
        <ele>253</ele>
        <time>2024-07-19T08:31:45Z</time>
      </trkpt>
      <trkpt lat="42.88177" lon="2.81498">
        <ele>253</ele>
        <time>2024-07-19T08:31:46Z</time>
      </trkpt>
      <trkpt lat="42.8817" lon="2.81492">
        <ele>252</ele>
        <time>2024-07-19T08:31:48Z</time>
      </trkpt>
      <trkpt lat="42.88163" lon="2.81489">
        <ele>252</ele>
        <time>2024-07-19T08:31:50Z</time>
      </trkpt>
      <trkpt lat="42.88157" lon="2.81487">
        <ele>252</ele>
        <time>2024-07-19T08:31:52Z</time>
      </trkpt>
      <trkpt lat="42.8815" lon="2.81484">
        <ele>252</ele>
        <time>2024-07-19T08:31:54Z</time>
      </trkpt>
      <trkpt lat="42.88145" lon="2.81481">
        <ele>252</ele>
        <time>2024-07-19T08:31:56Z</time>
      </trkpt>
      <trkpt lat="42.88147" lon="2.8148">
        <ele>252</ele>
        <time>2024-07-19T08:32:24Z</time>
      </trkpt>
      <trkpt lat="42.88145" lon="2.8148">
        <ele>252</ele>
        <time>2024-07-19T08:32:26Z</time>
      </trkpt>
      <trkpt lat="42.8814" lon="2.81477">
        <ele>252</ele>
        <time>2024-07-19T08:32:28Z</time>
      </trkpt>
      <trkpt lat="42.88132" lon="2.81474">
        <ele>253</ele>
        <time>2024-07-19T08:32:30Z</time>
      </trkpt>
      <trkpt lat="42.88125" lon="2.8147">
        <ele>253</ele>
        <time>2024-07-19T08:32:32Z</time>
      </trkpt>
      <trkpt lat="42.88117" lon="2.81465">
        <ele>253</ele>
        <time>2024-07-19T08:32:34Z</time>
      </trkpt>
      <trkpt lat="42.88108" lon="2.81461">
        <ele>253</ele>
        <time>2024-07-19T08:32:36Z</time>
      </trkpt>
      <trkpt lat="42.881" lon="2.81457">
        <ele>253</ele>
        <time>2024-07-19T08:32:38Z</time>
      </trkpt>
      <trkpt lat="42.88092" lon="2.81453">
        <ele>253</ele>
        <time>2024-07-19T08:32:40Z</time>
      </trkpt>
      <trkpt lat="42.88084" lon="2.81449">
        <ele>254</ele>
        <time>2024-07-19T08:32:42Z</time>
      </trkpt>
      <trkpt lat="42.88075" lon="2.81444">
        <ele>254</ele>
        <time>2024-07-19T08:32:44Z</time>
      </trkpt>
      <trkpt lat="42.88071" lon="2.81442">
        <ele>254</ele>
        <time>2024-07-19T08:32:45Z</time>
      </trkpt>
      <trkpt lat="42.88063" lon="2.81438">
        <ele>254</ele>
        <time>2024-07-19T08:32:47Z</time>
      </trkpt>
      <trkpt lat="42.88055" lon="2.81434">
        <ele>254</ele>
        <time>2024-07-19T08:32:49Z</time>
      </trkpt>
      <trkpt lat="42.88047" lon="2.8143">
        <ele>254</ele>
        <time>2024-07-19T08:32:51Z</time>
      </trkpt>
      <trkpt lat="42.8804" lon="2.81426">
        <ele>255</ele>
        <time>2024-07-19T08:32:53Z</time>
      </trkpt>
      <trkpt lat="42.88033" lon="2.81425">
        <ele>255</ele>
        <time>2024-07-19T08:32:55Z</time>
      </trkpt>
      <trkpt lat="42.88026" lon="2.81425">
        <ele>255</ele>
        <time>2024-07-19T08:32:57Z</time>
      </trkpt>
      <trkpt lat="42.88019" lon="2.81424">
        <ele>256</ele>
        <time>2024-07-19T08:32:59Z</time>
      </trkpt>
      <trkpt lat="42.88012" lon="2.81422">
        <ele>256</ele>
        <time>2024-07-19T08:33:01Z</time>
      </trkpt>
      <trkpt lat="42.88006" lon="2.81419">
        <ele>256</ele>
        <time>2024-07-19T08:33:03Z</time>
      </trkpt>
      <trkpt lat="42.87999" lon="2.81417">
        <ele>257</ele>
        <time>2024-07-19T08:33:05Z</time>
      </trkpt>
      <trkpt lat="42.87993" lon="2.81414">
        <ele>257</ele>
        <time>2024-07-19T08:33:07Z</time>
      </trkpt>
      <trkpt lat="42.87987" lon="2.81411">
        <ele>258</ele>
        <time>2024-07-19T08:33:09Z</time>
      </trkpt>
      <trkpt lat="42.87981" lon="2.81409">
        <ele>258</ele>
        <time>2024-07-19T08:33:11Z</time>
      </trkpt>
      <trkpt lat="42.87974" lon="2.81406">
        <ele>258</ele>
        <time>2024-07-19T08:33:13Z</time>
      </trkpt>
      <trkpt lat="42.87967" lon="2.81403">
        <ele>258</ele>
        <time>2024-07-19T08:33:15Z</time>
      </trkpt>
      <trkpt lat="42.8796" lon="2.81402">
        <ele>259</ele>
        <time>2024-07-19T08:33:17Z</time>
      </trkpt>
      <trkpt lat="42.87953" lon="2.81403">
        <ele>258</ele>
        <time>2024-07-19T08:33:19Z</time>
      </trkpt>
      <trkpt lat="42.87947" lon="2.81409">
        <ele>258</ele>
        <time>2024-07-19T08:33:21Z</time>
      </trkpt>
      <trkpt lat="42.87944" lon="2.81417">
        <ele>257</ele>
        <time>2024-07-19T08:33:23Z</time>
      </trkpt>
      <trkpt lat="42.8794" lon="2.81419">
        <ele>257</ele>
        <time>2024-07-19T08:33:26Z</time>
      </trkpt>
      <trkpt lat="42.87939" lon="2.81412">
        <ele>256</ele>
        <time>2024-07-19T08:33:37Z</time>
      </trkpt>
      <trkpt lat="42.8794" lon="2.81405">
        <ele>256</ele>
        <time>2024-07-19T08:33:40Z</time>
      </trkpt>
      <trkpt lat="42.87942" lon="2.81398">
        <ele>256</ele>
        <time>2024-07-19T08:33:43Z</time>
      </trkpt>
      <trkpt lat="42.87946" lon="2.81394">
        <ele>257</ele>
        <time>2024-07-19T08:33:46Z</time>
      </trkpt>
      <trkpt lat="42.8795" lon="2.81388">
        <ele>258</ele>
        <time>2024-07-19T08:33:49Z</time>
      </trkpt>
      <trkpt lat="42.87951" lon="2.81381">
        <ele>259</ele>
        <time>2024-07-19T08:33:52Z</time>
      </trkpt>
      <trkpt lat="42.87951" lon="2.81373">
        <ele>260</ele>
        <time>2024-07-19T08:33:55Z</time>
      </trkpt>
      <trkpt lat="42.87949" lon="2.81369">
        <ele>261</ele>
        <time>2024-07-19T08:33:57Z</time>
      </trkpt>
      <trkpt lat="42.87944" lon="2.81365">
        <ele>262</ele>
        <time>2024-07-19T08:33:59Z</time>
      </trkpt>
      <trkpt lat="42.87939" lon="2.81361">
        <ele>262</ele>
        <time>2024-07-19T08:34:01Z</time>
      </trkpt>
      <trkpt lat="42.87933" lon="2.81355">
        <ele>262</ele>
        <time>2024-07-19T08:34:03Z</time>
      </trkpt>
      <trkpt lat="42.87928" lon="2.81348">
        <ele>261</ele>
        <time>2024-07-19T08:34:05Z</time>
      </trkpt>
      <trkpt lat="42.8792" lon="2.81342">
        <ele>261</ele>
        <time>2024-07-19T08:34:07Z</time>
      </trkpt>
      <trkpt lat="42.87916" lon="2.81339">
        <ele>261</ele>
        <time>2024-07-19T08:34:09Z</time>
      </trkpt>
      <trkpt lat="42.87912" lon="2.81335">
        <ele>260</ele>
        <time>2024-07-19T08:34:11Z</time>
      </trkpt>
      <trkpt lat="42.87907" lon="2.8133">
        <ele>261</ele>
        <time>2024-07-19T08:34:13Z</time>
      </trkpt>
      <trkpt lat="42.87903" lon="2.81326">
        <ele>261</ele>
        <time>2024-07-19T08:34:15Z</time>
      </trkpt>
      <trkpt lat="42.87898" lon="2.81321">
        <ele>261</ele>
        <time>2024-07-19T08:34:17Z</time>
      </trkpt>
      <trkpt lat="42.87892" lon="2.81316">
        <ele>261</ele>
        <time>2024-07-19T08:34:19Z</time>
      </trkpt>
      <trkpt lat="42.87886" lon="2.81311">
        <ele>261</ele>
        <time>2024-07-19T08:34:21Z</time>
      </trkpt>
      <trkpt lat="42.8788" lon="2.81304">
        <ele>261</ele>
        <time>2024-07-19T08:34:23Z</time>
      </trkpt>
      <trkpt lat="42.87874" lon="2.81299">
        <ele>260</ele>
        <time>2024-07-19T08:34:25Z</time>
      </trkpt>
      <trkpt lat="42.87867" lon="2.81292">
        <ele>260</ele>
        <time>2024-07-19T08:34:27Z</time>
      </trkpt>
      <trkpt lat="42.87861" lon="2.81284">
        <ele>259</ele>
        <time>2024-07-19T08:34:29Z</time>
      </trkpt>
      <trkpt lat="42.87857" lon="2.81279">
        <ele>259</ele>
        <time>2024-07-19T08:34:30Z</time>
      </trkpt>
      <trkpt lat="42.87853" lon="2.81276">
        <ele>258</ele>
        <time>2024-07-19T08:34:31Z</time>
      </trkpt>
      <trkpt lat="42.87845" lon="2.8127">
        <ele>258</ele>
        <time>2024-07-19T08:34:33Z</time>
      </trkpt>
      <trkpt lat="42.8784" lon="2.81266">
        <ele>258</ele>
        <time>2024-07-19T08:34:35Z</time>
      </trkpt>
      <trkpt lat="42.87835" lon="2.81262">
        <ele>258</ele>
        <time>2024-07-19T08:34:37Z</time>
      </trkpt>
      <trkpt lat="42.8783" lon="2.81257">
        <ele>259</ele>
        <time>2024-07-19T08:34:39Z</time>
      </trkpt>
      <trkpt lat="42.87825" lon="2.81253">
        <ele>259</ele>
        <time>2024-07-19T08:34:41Z</time>
      </trkpt>
      <trkpt lat="42.8782" lon="2.81249">
        <ele>260</ele>
        <time>2024-07-19T08:34:43Z</time>
      </trkpt>
      <trkpt lat="42.87816" lon="2.81245">
        <ele>260</ele>
        <time>2024-07-19T08:34:45Z</time>
      </trkpt>
      <trkpt lat="42.87811" lon="2.8124">
        <ele>261</ele>
        <time>2024-07-19T08:34:47Z</time>
      </trkpt>
      <trkpt lat="42.87806" lon="2.81235">
        <ele>262</ele>
        <time>2024-07-19T08:34:49Z</time>
      </trkpt>
      <trkpt lat="42.87801" lon="2.8123">
        <ele>262</ele>
        <time>2024-07-19T08:34:51Z</time>
      </trkpt>
      <trkpt lat="42.87795" lon="2.81225">
        <ele>263</ele>
        <time>2024-07-19T08:34:53Z</time>
      </trkpt>
      <trkpt lat="42.87789" lon="2.8122">
        <ele>263</ele>
        <time>2024-07-19T08:34:55Z</time>
      </trkpt>
      <trkpt lat="42.87783" lon="2.81215">
        <ele>263</ele>
        <time>2024-07-19T08:34:57Z</time>
      </trkpt>
      <trkpt lat="42.87777" lon="2.81209">
        <ele>263</ele>
        <time>2024-07-19T08:34:59Z</time>
      </trkpt>
      <trkpt lat="42.87771" lon="2.81202">
        <ele>264</ele>
        <time>2024-07-19T08:35:01Z</time>
      </trkpt>
      <trkpt lat="42.87763" lon="2.81196">
        <ele>264</ele>
        <time>2024-07-19T08:35:03Z</time>
      </trkpt>
      <trkpt lat="42.8776" lon="2.81192">
        <ele>264</ele>
        <time>2024-07-19T08:35:04Z</time>
      </trkpt>
      <trkpt lat="42.87756" lon="2.81189">
        <ele>264</ele>
        <time>2024-07-19T08:35:05Z</time>
      </trkpt>
      <trkpt lat="42.87749" lon="2.81182">
        <ele>264</ele>
        <time>2024-07-19T08:35:07Z</time>
      </trkpt>
      <trkpt lat="42.87742" lon="2.81176">
        <ele>265</ele>
        <time>2024-07-19T08:35:09Z</time>
      </trkpt>
      <trkpt lat="42.87737" lon="2.81172">
        <ele>265</ele>
        <time>2024-07-19T08:35:11Z</time>
      </trkpt>
      <trkpt lat="42.87732" lon="2.81168">
        <ele>266</ele>
        <time>2024-07-19T08:35:13Z</time>
      </trkpt>
      <trkpt lat="42.87726" lon="2.81162">
        <ele>266</ele>
        <time>2024-07-19T08:35:15Z</time>
      </trkpt>
      <trkpt lat="42.87722" lon="2.81154">
        <ele>267</ele>
        <time>2024-07-19T08:35:17Z</time>
      </trkpt>
      <trkpt lat="42.87721" lon="2.81146">
        <ele>267</ele>
        <time>2024-07-19T08:35:19Z</time>
      </trkpt>
      <trkpt lat="42.8772" lon="2.81137">
        <ele>267</ele>
        <time>2024-07-19T08:35:21Z</time>
      </trkpt>
      <trkpt lat="42.87719" lon="2.81128">
        <ele>268</ele>
        <time>2024-07-19T08:35:23Z</time>
      </trkpt>
      <trkpt lat="42.87719" lon="2.81119">
        <ele>268</ele>
        <time>2024-07-19T08:35:25Z</time>
      </trkpt>
      <trkpt lat="42.87718" lon="2.81111">
        <ele>269</ele>
        <time>2024-07-19T08:35:27Z</time>
      </trkpt>
      <trkpt lat="42.87717" lon="2.81102">
        <ele>269</ele>
        <time>2024-07-19T08:35:29Z</time>
      </trkpt>
      <trkpt lat="42.87717" lon="2.81093">
        <ele>269</ele>
        <time>2024-07-19T08:35:31Z</time>
      </trkpt>
      <trkpt lat="42.87718" lon="2.81084">
        <ele>270</ele>
        <time>2024-07-19T08:35:33Z</time>
      </trkpt>
      <trkpt lat="42.87718" lon="2.81075">
        <ele>270</ele>
        <time>2024-07-19T08:35:35Z</time>
      </trkpt>
      <trkpt lat="42.87719" lon="2.81067">
        <ele>270</ele>
        <time>2024-07-19T08:35:37Z</time>
      </trkpt>
      <trkpt lat="42.87719" lon="2.81059">
        <ele>271</ele>
        <time>2024-07-19T08:35:39Z</time>
      </trkpt>
      <trkpt lat="42.87723" lon="2.81053">
        <ele>271</ele>
        <time>2024-07-19T08:35:41Z</time>
      </trkpt>
      <trkpt lat="42.87728" lon="2.8105">
        <ele>271</ele>
        <time>2024-07-19T08:35:43Z</time>
      </trkpt>
      <trkpt lat="42.87734" lon="2.81051">
        <ele>272</ele>
        <time>2024-07-19T08:35:45Z</time>
      </trkpt>
      <trkpt lat="42.87739" lon="2.81052">
        <ele>273</ele>
        <time>2024-07-19T08:35:47Z</time>
      </trkpt>
      <trkpt lat="42.87745" lon="2.81052">
        <ele>273</ele>
        <time>2024-07-19T08:35:49Z</time>
      </trkpt>
      <trkpt lat="42.8775" lon="2.81051">
        <ele>274</ele>
        <time>2024-07-19T08:35:51Z</time>
      </trkpt>
      <trkpt lat="42.87756" lon="2.8105">
        <ele>275</ele>
        <time>2024-07-19T08:35:53Z</time>
      </trkpt>
      <trkpt lat="42.87761" lon="2.81049">
        <ele>275</ele>
        <time>2024-07-19T08:35:55Z</time>
      </trkpt>
      <trkpt lat="42.87766" lon="2.81048">
        <ele>276</ele>
        <time>2024-07-19T08:35:57Z</time>
      </trkpt>
      <trkpt lat="42.87771" lon="2.81046">
        <ele>276</ele>
        <time>2024-07-19T08:35:59Z</time>
      </trkpt>
      <trkpt lat="42.87776" lon="2.81045">
        <ele>277</ele>
        <time>2024-07-19T08:36:01Z</time>
      </trkpt>
      <trkpt lat="42.87782" lon="2.81045">
        <ele>277</ele>
        <time>2024-07-19T08:36:03Z</time>
      </trkpt>
      <trkpt lat="42.87787" lon="2.81046">
        <ele>278</ele>
        <time>2024-07-19T08:36:05Z</time>
      </trkpt>
      <trkpt lat="42.87793" lon="2.81048">
        <ele>278</ele>
        <time>2024-07-19T08:36:07Z</time>
      </trkpt>
      <trkpt lat="42.878" lon="2.81051">
        <ele>278</ele>
        <time>2024-07-19T08:36:09Z</time>
      </trkpt>
      <trkpt lat="42.87806" lon="2.81054">
        <ele>279</ele>
        <time>2024-07-19T08:36:11Z</time>
      </trkpt>
      <trkpt lat="42.87812" lon="2.81056">
        <ele>279</ele>
        <time>2024-07-19T08:36:13Z</time>
      </trkpt>
      <trkpt lat="42.87819" lon="2.81058">
        <ele>279</ele>
        <time>2024-07-19T08:36:15Z</time>
      </trkpt>
      <trkpt lat="42.87824" lon="2.81059">
        <ele>280</ele>
        <time>2024-07-19T08:36:17Z</time>
      </trkpt>
      <trkpt lat="42.8783" lon="2.81059">
        <ele>280</ele>
        <time>2024-07-19T08:36:19Z</time>
      </trkpt>
      <trkpt lat="42.87837" lon="2.8106">
        <ele>280</ele>
        <time>2024-07-19T08:36:21Z</time>
      </trkpt>
      <trkpt lat="42.87842" lon="2.81059">
        <ele>280</ele>
        <time>2024-07-19T08:36:23Z</time>
      </trkpt>
      <trkpt lat="42.87848" lon="2.81057">
        <ele>281</ele>
        <time>2024-07-19T08:36:25Z</time>
      </trkpt>
      <trkpt lat="42.87854" lon="2.81056">
        <ele>281</ele>
        <time>2024-07-19T08:36:27Z</time>
      </trkpt>
      <trkpt lat="42.8786" lon="2.81054">
        <ele>281</ele>
        <time>2024-07-19T08:36:29Z</time>
      </trkpt>
      <trkpt lat="42.87865" lon="2.81052">
        <ele>282</ele>
        <time>2024-07-19T08:36:31Z</time>
      </trkpt>
      <trkpt lat="42.87871" lon="2.81051">
        <ele>282</ele>
        <time>2024-07-19T08:36:33Z</time>
      </trkpt>
      <trkpt lat="42.87877" lon="2.81049">
        <ele>283</ele>
        <time>2024-07-19T08:36:35Z</time>
      </trkpt>
      <trkpt lat="42.87882" lon="2.81047">
        <ele>283</ele>
        <time>2024-07-19T08:36:37Z</time>
      </trkpt>
      <trkpt lat="42.87888" lon="2.81045">
        <ele>283</ele>
        <time>2024-07-19T08:36:39Z</time>
      </trkpt>
      <trkpt lat="42.87894" lon="2.81043">
        <ele>284</ele>
        <time>2024-07-19T08:36:41Z</time>
      </trkpt>
      <trkpt lat="42.87901" lon="2.8104">
        <ele>284</ele>
        <time>2024-07-19T08:36:43Z</time>
      </trkpt>
      <trkpt lat="42.87907" lon="2.81037">
        <ele>284</ele>
        <time>2024-07-19T08:36:45Z</time>
      </trkpt>
      <trkpt lat="42.87912" lon="2.81035">
        <ele>285</ele>
        <time>2024-07-19T08:36:47Z</time>
      </trkpt>
      <trkpt lat="42.87918" lon="2.81032">
        <ele>285</ele>
        <time>2024-07-19T08:36:49Z</time>
      </trkpt>
      <trkpt lat="42.87923" lon="2.81028">
        <ele>286</ele>
        <time>2024-07-19T08:36:51Z</time>
      </trkpt>
      <trkpt lat="42.87928" lon="2.81023">
        <ele>286</ele>
        <time>2024-07-19T08:36:53Z</time>
      </trkpt>
      <trkpt lat="42.87934" lon="2.81016">
        <ele>286</ele>
        <time>2024-07-19T08:36:55Z</time>
      </trkpt>
      <trkpt lat="42.87939" lon="2.81008">
        <ele>286</ele>
        <time>2024-07-19T08:36:57Z</time>
      </trkpt>
      <trkpt lat="42.87943" lon="2.80999">
        <ele>286</ele>
        <time>2024-07-19T08:36:59Z</time>
      </trkpt>
      <trkpt lat="42.87946" lon="2.8099">
        <ele>286</ele>
        <time>2024-07-19T08:37:01Z</time>
      </trkpt>
      <trkpt lat="42.87949" lon="2.80981">
        <ele>286</ele>
        <time>2024-07-19T08:37:03Z</time>
      </trkpt>
      <trkpt lat="42.87953" lon="2.80972">
        <ele>286</ele>
        <time>2024-07-19T08:37:05Z</time>
      </trkpt>
      <trkpt lat="42.87957" lon="2.80964">
        <ele>286</ele>
        <time>2024-07-19T08:37:07Z</time>
      </trkpt>
      <trkpt lat="42.87959" lon="2.80957">
        <ele>287</ele>
        <time>2024-07-19T08:37:09Z</time>
      </trkpt>
      <trkpt lat="42.87962" lon="2.8095">
        <ele>287</ele>
        <time>2024-07-19T08:37:11Z</time>
      </trkpt>
      <trkpt lat="42.87965" lon="2.80943">
        <ele>288</ele>
        <time>2024-07-19T08:37:13Z</time>
      </trkpt>
      <trkpt lat="42.87968" lon="2.80936">
        <ele>289</ele>
        <time>2024-07-19T08:37:15Z</time>
      </trkpt>
      <trkpt lat="42.87971" lon="2.80929">
        <ele>289</ele>
        <time>2024-07-19T08:37:17Z</time>
      </trkpt>
      <trkpt lat="42.87973" lon="2.80922">
        <ele>290</ele>
        <time>2024-07-19T08:37:19Z</time>
      </trkpt>
      <trkpt lat="42.87976" lon="2.80915">
        <ele>290</ele>
        <time>2024-07-19T08:37:21Z</time>
      </trkpt>
      <trkpt lat="42.87979" lon="2.80908">
        <ele>291</ele>
        <time>2024-07-19T08:37:23Z</time>
      </trkpt>
      <trkpt lat="42.87981" lon="2.80901">
        <ele>291</ele>
        <time>2024-07-19T08:37:25Z</time>
      </trkpt>
      <trkpt lat="42.87983" lon="2.80894">
        <ele>292</ele>
        <time>2024-07-19T08:37:27Z</time>
      </trkpt>
      <trkpt lat="42.87985" lon="2.80886">
        <ele>292</ele>
        <time>2024-07-19T08:37:29Z</time>
      </trkpt>
      <trkpt lat="42.87986" lon="2.80878">
        <ele>292</ele>
        <time>2024-07-19T08:37:31Z</time>
      </trkpt>
      <trkpt lat="42.87989" lon="2.8087">
        <ele>292</ele>
        <time>2024-07-19T08:37:33Z</time>
      </trkpt>
      <trkpt lat="42.87991" lon="2.80862">
        <ele>292</ele>
        <time>2024-07-19T08:37:35Z</time>
      </trkpt>
      <trkpt lat="42.87993" lon="2.80852">
        <ele>292</ele>
        <time>2024-07-19T08:37:37Z</time>
      </trkpt>
      <trkpt lat="42.87997" lon="2.80843">
        <ele>292</ele>
        <time>2024-07-19T08:37:39Z</time>
      </trkpt>
      <trkpt lat="42.88004" lon="2.80836">
        <ele>292</ele>
        <time>2024-07-19T08:37:41Z</time>
      </trkpt>
      <trkpt lat="42.8801" lon="2.80831">
        <ele>292</ele>
        <time>2024-07-19T08:37:43Z</time>
      </trkpt>
      <trkpt lat="42.88016" lon="2.80826">
        <ele>292</ele>
        <time>2024-07-19T08:37:45Z</time>
      </trkpt>
      <trkpt lat="42.88022" lon="2.80821">
        <ele>293</ele>
        <time>2024-07-19T08:37:47Z</time>
      </trkpt>
      <trkpt lat="42.88027" lon="2.80817">
        <ele>293</ele>
        <time>2024-07-19T08:37:49Z</time>
      </trkpt>
      <trkpt lat="42.88033" lon="2.80814">
        <ele>293</ele>
        <time>2024-07-19T08:37:51Z</time>
      </trkpt>
      <trkpt lat="42.88038" lon="2.8081">
        <ele>294</ele>
        <time>2024-07-19T08:37:53Z</time>
      </trkpt>
      <trkpt lat="42.88042" lon="2.80807">
        <ele>295</ele>
        <time>2024-07-19T08:37:55Z</time>
      </trkpt>
      <trkpt lat="42.88045" lon="2.80802">
        <ele>295</ele>
        <time>2024-07-19T08:37:57Z</time>
      </trkpt>
      <trkpt lat="42.88048" lon="2.80797">
        <ele>296</ele>
        <time>2024-07-19T08:37:59Z</time>
      </trkpt>
      <trkpt lat="42.8805" lon="2.80789">
        <ele>297</ele>
        <time>2024-07-19T08:38:02Z</time>
      </trkpt>
      <trkpt lat="42.88051" lon="2.80782">
        <ele>298</ele>
        <time>2024-07-19T08:38:05Z</time>
      </trkpt>
      <trkpt lat="42.88051" lon="2.80774">
        <ele>299</ele>
        <time>2024-07-19T08:38:08Z</time>
      </trkpt>
      <trkpt lat="42.88051" lon="2.80766">
        <ele>300</ele>
        <time>2024-07-19T08:38:11Z</time>
      </trkpt>
      <trkpt lat="42.8805" lon="2.80759">
        <ele>301</ele>
        <time>2024-07-19T08:38:14Z</time>
      </trkpt>
      <trkpt lat="42.8805" lon="2.8075">
        <ele>302</ele>
        <time>2024-07-19T08:38:17Z</time>
      </trkpt>
      <trkpt lat="42.88051" lon="2.80743">
        <ele>303</ele>
        <time>2024-07-19T08:38:19Z</time>
      </trkpt>
      <trkpt lat="42.88053" lon="2.80735">
        <ele>303</ele>
        <time>2024-07-19T08:38:21Z</time>
      </trkpt>
      <trkpt lat="42.88054" lon="2.80728">
        <ele>304</ele>
        <time>2024-07-19T08:38:23Z</time>
      </trkpt>
      <trkpt lat="42.88056" lon="2.80721">
        <ele>304</ele>
        <time>2024-07-19T08:38:25Z</time>
      </trkpt>
      <trkpt lat="42.88058" lon="2.80715">
        <ele>304</ele>
        <time>2024-07-19T08:38:27Z</time>
      </trkpt>
      <trkpt lat="42.8806" lon="2.80709">
        <ele>304</ele>
        <time>2024-07-19T08:38:29Z</time>
      </trkpt>
      <trkpt lat="42.88063" lon="2.80703">
        <ele>305</ele>
        <time>2024-07-19T08:38:31Z</time>
      </trkpt>
      <trkpt lat="42.88068" lon="2.80697">
        <ele>306</ele>
        <time>2024-07-19T08:38:34Z</time>
      </trkpt>
      <trkpt lat="42.88073" lon="2.80692">
        <ele>306</ele>
        <time>2024-07-19T08:38:37Z</time>
      </trkpt>
      <trkpt lat="42.88079" lon="2.80687">
        <ele>307</ele>
        <time>2024-07-19T08:38:40Z</time>
      </trkpt>
      <trkpt lat="42.88085" lon="2.80686">
        <ele>308</ele>
        <time>2024-07-19T08:38:43Z</time>
      </trkpt>
      <trkpt lat="42.88092" lon="2.80686">
        <ele>309</ele>
        <time>2024-07-19T08:38:46Z</time>
      </trkpt>
      <trkpt lat="42.88097" lon="2.80687">
        <ele>310</ele>
        <time>2024-07-19T08:38:48Z</time>
      </trkpt>
      <trkpt lat="42.88102" lon="2.80689">
        <ele>311</ele>
        <time>2024-07-19T08:38:50Z</time>
      </trkpt>
      <trkpt lat="42.88107" lon="2.80692">
        <ele>311</ele>
        <time>2024-07-19T08:38:52Z</time>
      </trkpt>
      <trkpt lat="42.88113" lon="2.80695">
        <ele>312</ele>
        <time>2024-07-19T08:38:54Z</time>
      </trkpt>
      <trkpt lat="42.8812" lon="2.80699">
        <ele>311</ele>
        <time>2024-07-19T08:38:56Z</time>
      </trkpt>
      <trkpt lat="42.88127" lon="2.80704">
        <ele>311</ele>
        <time>2024-07-19T08:38:58Z</time>
      </trkpt>
      <trkpt lat="42.88131" lon="2.80706">
        <ele>311</ele>
        <time>2024-07-19T08:38:59Z</time>
      </trkpt>
      <trkpt lat="42.88136" lon="2.80709">
        <ele>310</ele>
        <time>2024-07-19T08:39:00Z</time>
      </trkpt>
      <trkpt lat="42.88141" lon="2.80713">
        <ele>309</ele>
        <time>2024-07-19T08:39:01Z</time>
      </trkpt>
      <trkpt lat="42.88145" lon="2.80717">
        <ele>309</ele>
        <time>2024-07-19T08:39:02Z</time>
      </trkpt>
      <trkpt lat="42.88149" lon="2.80723">
        <ele>308</ele>
        <time>2024-07-19T08:39:03Z</time>
      </trkpt>
      <trkpt lat="42.88153" lon="2.80728">
        <ele>307</ele>
        <time>2024-07-19T08:39:04Z</time>
      </trkpt>
      <trkpt lat="42.88157" lon="2.80733">
        <ele>307</ele>
        <time>2024-07-19T08:39:05Z</time>
      </trkpt>
      <trkpt lat="42.88161" lon="2.80739">
        <ele>306</ele>
        <time>2024-07-19T08:39:06Z</time>
      </trkpt>
      <trkpt lat="42.88166" lon="2.80744">
        <ele>306</ele>
        <time>2024-07-19T08:39:07Z</time>
      </trkpt>
      <trkpt lat="42.8817" lon="2.80749">
        <ele>306</ele>
        <time>2024-07-19T08:39:08Z</time>
      </trkpt>
      <trkpt lat="42.88175" lon="2.80753">
        <ele>305</ele>
        <time>2024-07-19T08:39:09Z</time>
      </trkpt>
      <trkpt lat="42.88181" lon="2.80756">
        <ele>305</ele>
        <time>2024-07-19T08:39:10Z</time>
      </trkpt>
      <trkpt lat="42.88186" lon="2.80759">
        <ele>305</ele>
        <time>2024-07-19T08:39:11Z</time>
      </trkpt>
      <trkpt lat="42.88191" lon="2.80761">
        <ele>305</ele>
        <time>2024-07-19T08:39:12Z</time>
      </trkpt>
      <trkpt lat="42.88195" lon="2.80763">
        <ele>304</ele>
        <time>2024-07-19T08:39:13Z</time>
      </trkpt>
      <trkpt lat="42.88203" lon="2.80768">
        <ele>304</ele>
        <time>2024-07-19T08:39:15Z</time>
      </trkpt>
      <trkpt lat="42.88211" lon="2.80771">
        <ele>304</ele>
        <time>2024-07-19T08:39:17Z</time>
      </trkpt>
      <trkpt lat="42.88216" lon="2.80774">
        <ele>304</ele>
        <time>2024-07-19T08:39:18Z</time>
      </trkpt>
      <trkpt lat="42.88221" lon="2.80778">
        <ele>304</ele>
        <time>2024-07-19T08:39:19Z</time>
      </trkpt>
      <trkpt lat="42.88225" lon="2.80782">
        <ele>303</ele>
        <time>2024-07-19T08:39:20Z</time>
      </trkpt>
      <trkpt lat="42.8823" lon="2.80787">
        <ele>303</ele>
        <time>2024-07-19T08:39:21Z</time>
      </trkpt>
      <trkpt lat="42.88234" lon="2.80793">
        <ele>302</ele>
        <time>2024-07-19T08:39:22Z</time>
      </trkpt>
      <trkpt lat="42.88238" lon="2.80798">
        <ele>302</ele>
        <time>2024-07-19T08:39:23Z</time>
      </trkpt>
      <trkpt lat="42.88242" lon="2.80804">
        <ele>302</ele>
        <time>2024-07-19T08:39:24Z</time>
      </trkpt>
      <trkpt lat="42.88246" lon="2.80809">
        <ele>301</ele>
        <time>2024-07-19T08:39:25Z</time>
      </trkpt>
      <trkpt lat="42.88249" lon="2.80814">
        <ele>301</ele>
        <time>2024-07-19T08:39:26Z</time>
      </trkpt>
      <trkpt lat="42.88254" lon="2.80823">
        <ele>301</ele>
        <time>2024-07-19T08:39:28Z</time>
      </trkpt>
      <trkpt lat="42.88259" lon="2.80831">
        <ele>301</ele>
        <time>2024-07-19T08:39:30Z</time>
      </trkpt>
      <trkpt lat="42.88263" lon="2.8084">
        <ele>301</ele>
        <time>2024-07-19T08:39:32Z</time>
      </trkpt>
      <trkpt lat="42.88267" lon="2.80849">
        <ele>302</ele>
        <time>2024-07-19T08:39:34Z</time>
      </trkpt>
      <trkpt lat="42.8827" lon="2.80857">
        <ele>302</ele>
        <time>2024-07-19T08:39:36Z</time>
      </trkpt>
      <trkpt lat="42.88275" lon="2.80862">
        <ele>302</ele>
        <time>2024-07-19T08:39:39Z</time>
      </trkpt>
      <trkpt lat="42.88279" lon="2.80864">
        <ele>303</ele>
        <time>2024-07-19T08:39:41Z</time>
      </trkpt>
      <trkpt lat="42.88284" lon="2.80866">
        <ele>304</ele>
        <time>2024-07-19T08:39:43Z</time>
      </trkpt>
      <trkpt lat="42.8829" lon="2.80865">
        <ele>304</ele>
        <time>2024-07-19T08:39:45Z</time>
      </trkpt>
      <trkpt lat="42.88295" lon="2.80862">
        <ele>304</ele>
        <time>2024-07-19T08:39:47Z</time>
      </trkpt>
      <trkpt lat="42.88301" lon="2.80857">
        <ele>304</ele>
        <time>2024-07-19T08:39:50Z</time>
      </trkpt>
      <trkpt lat="42.88304" lon="2.80853">
        <ele>305</ele>
        <time>2024-07-19T08:39:52Z</time>
      </trkpt>
      <trkpt lat="42.88307" lon="2.80848">
        <ele>305</ele>
        <time>2024-07-19T08:39:54Z</time>
      </trkpt>
      <trkpt lat="42.88311" lon="2.80841">
        <ele>305</ele>
        <time>2024-07-19T08:39:57Z</time>
      </trkpt>
      <trkpt lat="42.88315" lon="2.80834">
        <ele>306</ele>
        <time>2024-07-19T08:40:00Z</time>
      </trkpt>
      <trkpt lat="42.88318" lon="2.80826">
        <ele>307</ele>
        <time>2024-07-19T08:40:03Z</time>
      </trkpt>
      <trkpt lat="42.88322" lon="2.8082">
        <ele>307</ele>
        <time>2024-07-19T08:40:06Z</time>
      </trkpt>
      <trkpt lat="42.88326" lon="2.80815">
        <ele>308</ele>
        <time>2024-07-19T08:40:09Z</time>
      </trkpt>
      <trkpt lat="42.88328" lon="2.80809">
        <ele>309</ele>
        <time>2024-07-19T08:40:12Z</time>
      </trkpt>
      <trkpt lat="42.88331" lon="2.80804">
        <ele>310</ele>
        <time>2024-07-19T08:40:21Z</time>
      </trkpt>
      <trkpt lat="42.88333" lon="2.80798">
        <ele>312</ele>
        <time>2024-07-19T08:40:30Z</time>
      </trkpt>
      <trkpt lat="42.88335" lon="2.80792">
        <ele>313</ele>
        <time>2024-07-19T08:40:37Z</time>
      </trkpt>
      <trkpt lat="42.88338" lon="2.80786">
        <ele>314</ele>
        <time>2024-07-19T08:40:44Z</time>
      </trkpt>
      <trkpt lat="42.8834" lon="2.80781">
        <ele>315</ele>
        <time>2024-07-19T08:40:49Z</time>
      </trkpt>
      <trkpt lat="42.88341" lon="2.80775">
        <ele>317</ele>
        <time>2024-07-19T08:40:55Z</time>
      </trkpt>
      <trkpt lat="42.88342" lon="2.80768">
        <ele>317</ele>
        <time>2024-07-19T08:41:01Z</time>
      </trkpt>
      <trkpt lat="42.88342" lon="2.80767">
        <ele>318</ele>
        <time>2024-07-19T08:41:24Z</time>
      </trkpt>
      <trkpt lat="42.88342" lon="2.80767">
        <ele>319</ele>
        <time>2024-07-19T08:41:25Z</time>
      </trkpt>
      <trkpt lat="42.88342" lon="2.80767">
        <ele>320</ele>
        <time>2024-07-19T08:41:54Z</time>
      </trkpt>
      <trkpt lat="42.88342" lon="2.80767">
        <ele>320</ele>
        <time>2024-07-19T08:41:55Z</time>
      </trkpt>
      <trkpt lat="42.88353" lon="2.80746">
        <ele>320</ele>
        <time>2024-07-19T08:42:37Z</time>
      </trkpt>
      <trkpt lat="42.88355" lon="2.80741">
        <ele>320</ele>
        <time>2024-07-19T08:42:39Z</time>
      </trkpt>
      <trkpt lat="42.88359" lon="2.80735">
        <ele>319</ele>
        <time>2024-07-19T08:42:41Z</time>
      </trkpt>
      <trkpt lat="42.88361" lon="2.80729">
        <ele>319</ele>
        <time>2024-07-19T08:42:43Z</time>
      </trkpt>
      <trkpt lat="42.88363" lon="2.80723">
        <ele>319</ele>
        <time>2024-07-19T08:42:45Z</time>
      </trkpt>
      <trkpt lat="42.88366" lon="2.80716">
        <ele>319</ele>
        <time>2024-07-19T08:42:47Z</time>
      </trkpt>
      <trkpt lat="42.88368" lon="2.8071">
        <ele>319</ele>
        <time>2024-07-19T08:42:49Z</time>
      </trkpt>
      <trkpt lat="42.88368" lon="2.80704">
        <ele>320</ele>
        <time>2024-07-19T08:42:51Z</time>
      </trkpt>
      <trkpt lat="42.88369" lon="2.80697">
        <ele>320</ele>
        <time>2024-07-19T08:42:53Z</time>
      </trkpt>
      <trkpt lat="42.88374" lon="2.80692">
        <ele>320</ele>
        <time>2024-07-19T08:42:55Z</time>
      </trkpt>
      <trkpt lat="42.88377" lon="2.80687">
        <ele>320</ele>
        <time>2024-07-19T08:42:57Z</time>
      </trkpt>
      <trkpt lat="42.8838" lon="2.80681">
        <ele>321</ele>
        <time>2024-07-19T08:43:00Z</time>
      </trkpt>
      <trkpt lat="42.88383" lon="2.80674">
        <ele>321</ele>
        <time>2024-07-19T08:43:03Z</time>
      </trkpt>
      <trkpt lat="42.88385" lon="2.80666">
        <ele>322</ele>
        <time>2024-07-19T08:43:06Z</time>
      </trkpt>
      <trkpt lat="42.88388" lon="2.8066">
        <ele>323</ele>
        <time>2024-07-19T08:43:09Z</time>
      </trkpt>
      <trkpt lat="42.8839" lon="2.80654">
        <ele>324</ele>
        <time>2024-07-19T08:43:12Z</time>
      </trkpt>
      <trkpt lat="42.88392" lon="2.80648">
        <ele>325</ele>
        <time>2024-07-19T08:43:15Z</time>
      </trkpt>
      <trkpt lat="42.88395" lon="2.80641">
        <ele>325</ele>
        <time>2024-07-19T08:43:18Z</time>
      </trkpt>
      <trkpt lat="42.88397" lon="2.80635">
        <ele>326</ele>
        <time>2024-07-19T08:43:21Z</time>
      </trkpt>
      <trkpt lat="42.884" lon="2.8063">
        <ele>327</ele>
        <time>2024-07-19T08:43:24Z</time>
      </trkpt>
      <trkpt lat="42.88402" lon="2.80624">
        <ele>327</ele>
        <time>2024-07-19T08:43:27Z</time>
      </trkpt>
      <trkpt lat="42.88403" lon="2.80617">
        <ele>328</ele>
        <time>2024-07-19T08:43:30Z</time>
      </trkpt>
      <trkpt lat="42.88403" lon="2.8061">
        <ele>329</ele>
        <time>2024-07-19T08:43:33Z</time>
      </trkpt>
      <trkpt lat="42.88404" lon="2.80604">
        <ele>329</ele>
        <time>2024-07-19T08:43:36Z</time>
      </trkpt>
      <trkpt lat="42.88407" lon="2.80599">
        <ele>330</ele>
        <time>2024-07-19T08:43:39Z</time>
      </trkpt>
      <trkpt lat="42.88408" lon="2.80592">
        <ele>331</ele>
        <time>2024-07-19T08:43:42Z</time>
      </trkpt>
      <trkpt lat="42.88412" lon="2.80587">
        <ele>332</ele>
        <time>2024-07-19T08:43:45Z</time>
      </trkpt>
      <trkpt lat="42.88415" lon="2.8058">
        <ele>333</ele>
        <time>2024-07-19T08:43:49Z</time>
      </trkpt>
      <trkpt lat="42.88418" lon="2.80574">
        <ele>334</ele>
        <time>2024-07-19T08:44:04Z</time>
      </trkpt>
      <trkpt lat="42.88421" lon="2.80568">
        <ele>335</ele>
        <time>2024-07-19T08:44:08Z</time>
      </trkpt>
      <trkpt lat="42.88422" lon="2.80561">
        <ele>337</ele>
        <time>2024-07-19T08:44:12Z</time>
      </trkpt>
      <trkpt lat="42.88427" lon="2.80557">
        <ele>338</ele>
        <time>2024-07-19T08:44:21Z</time>
      </trkpt>
      <trkpt lat="42.88427" lon="2.80556">
        <ele>339</ele>
        <time>2024-07-19T08:44:39Z</time>
      </trkpt>
      <trkpt lat="42.88428" lon="2.80559">
        <ele>340</ele>
        <time>2024-07-19T08:44:40Z</time>
      </trkpt>
      <trkpt lat="42.88428" lon="2.80552">
        <ele>340</ele>
        <time>2024-07-19T08:44:59Z</time>
      </trkpt>
      <trkpt lat="42.8843" lon="2.80546">
        <ele>341</ele>
        <time>2024-07-19T08:45:10Z</time>
      </trkpt>
      <trkpt lat="42.8843" lon="2.80539">
        <ele>342</ele>
        <time>2024-07-19T08:45:24Z</time>
      </trkpt>
      <trkpt lat="42.88429" lon="2.80531">
        <ele>343</ele>
        <time>2024-07-19T08:45:33Z</time>
      </trkpt>
      <trkpt lat="42.88429" lon="2.80523">
        <ele>344</ele>
        <time>2024-07-19T08:45:38Z</time>
      </trkpt>
      <trkpt lat="42.88425" lon="2.80518">
        <ele>344</ele>
        <time>2024-07-19T08:45:49Z</time>
      </trkpt>
      <trkpt lat="42.88424" lon="2.80507">
        <ele>345</ele>
        <time>2024-07-19T08:46:04Z</time>
      </trkpt>
      <trkpt lat="42.88427" lon="2.80495">
        <ele>347</ele>
        <time>2024-07-19T08:46:22Z</time>
      </trkpt>
      <trkpt lat="42.88432" lon="2.80494">
        <ele>348</ele>
        <time>2024-07-19T08:46:28Z</time>
      </trkpt>
      <trkpt lat="42.88436" lon="2.80494">
        <ele>348</ele>
        <time>2024-07-19T08:46:34Z</time>
      </trkpt>
      <trkpt lat="42.8844" lon="2.80491">
        <ele>350</ele>
        <time>2024-07-19T08:46:51Z</time>
      </trkpt>
      <trkpt lat="42.88443" lon="2.80485">
        <ele>351</ele>
        <time>2024-07-19T08:46:58Z</time>
      </trkpt>
      <trkpt lat="42.88443" lon="2.80478">
        <ele>352</ele>
        <time>2024-07-19T08:47:07Z</time>
      </trkpt>
      <trkpt lat="42.88443" lon="2.80472">
        <ele>353</ele>
        <time>2024-07-19T08:47:11Z</time>
      </trkpt>
      <trkpt lat="42.88448" lon="2.80472">
        <ele>354</ele>
        <time>2024-07-19T08:47:19Z</time>
      </trkpt>
      <trkpt lat="42.88451" lon="2.80467">
        <ele>355</ele>
        <time>2024-07-19T08:47:29Z</time>
      </trkpt>
      <trkpt lat="42.8845" lon="2.80461">
        <ele>357</ele>
        <time>2024-07-19T08:47:40Z</time>
      </trkpt>
      <trkpt lat="42.8845" lon="2.80461">
        <ele>358</ele>
        <time>2024-07-19T08:47:54Z</time>
      </trkpt>
      <trkpt lat="42.88451" lon="2.80461">
        <ele>359</ele>
        <time>2024-07-19T08:47:55Z</time>
      </trkpt>
      <trkpt lat="42.88453" lon="2.80456">
        <ele>360</ele>
        <time>2024-07-19T08:48:22Z</time>
      </trkpt>
      <trkpt lat="42.88453" lon="2.80436">
        <ele>363</ele>
        <time>2024-07-19T08:48:48Z</time>
      </trkpt>
      <trkpt lat="42.88453" lon="2.8043">
        <ele>365</ele>
        <time>2024-07-19T08:48:56Z</time>
      </trkpt>
      <trkpt lat="42.88453" lon="2.80426">
        <ele>366</ele>
        <time>2024-07-19T08:49:25Z</time>
      </trkpt>
      <trkpt lat="42.88453" lon="2.80426">
        <ele>368</ele>
        <time>2024-07-19T08:49:25Z</time>
      </trkpt>
      <trkpt lat="42.8845" lon="2.80421">
        <ele>369</ele>
        <time>2024-07-19T08:49:47Z</time>
      </trkpt>
      <trkpt lat="42.88447" lon="2.80417">
        <ele>370</ele>
        <time>2024-07-19T08:49:59Z</time>
      </trkpt>
      <trkpt lat="42.88443" lon="2.80412">
        <ele>371</ele>
        <time>2024-07-19T08:50:06Z</time>
      </trkpt>
      <trkpt lat="42.8844" lon="2.80406">
        <ele>371</ele>
        <time>2024-07-19T08:50:13Z</time>
      </trkpt>
      <trkpt lat="42.88439" lon="2.804">
        <ele>373</ele>
        <time>2024-07-19T08:50:20Z</time>
      </trkpt>
      <trkpt lat="42.88436" lon="2.80395">
        <ele>374</ele>
        <time>2024-07-19T08:50:28Z</time>
      </trkpt>
      <trkpt lat="42.88435" lon="2.80392">
        <ele>376</ele>
        <time>2024-07-19T08:50:55Z</time>
      </trkpt>
      <trkpt lat="42.88434" lon="2.80392">
        <ele>376</ele>
        <time>2024-07-19T08:50:55Z</time>
      </trkpt>
      <trkpt lat="42.88427" lon="2.80377">
        <ele>379</ele>
        <time>2024-07-19T08:51:21Z</time>
      </trkpt>
      <trkpt lat="42.88428" lon="2.8037">
        <ele>380</ele>
        <time>2024-07-19T08:51:30Z</time>
      </trkpt>
      <trkpt lat="42.88428" lon="2.80368">
        <ele>382</ele>
        <time>2024-07-19T08:51:55Z</time>
      </trkpt>
      <trkpt lat="42.88429" lon="2.80369">
        <ele>382</ele>
        <time>2024-07-19T08:51:55Z</time>
      </trkpt>
      <trkpt lat="42.88426" lon="2.80364">
        <ele>383</ele>
        <time>2024-07-19T08:52:18Z</time>
      </trkpt>
      <trkpt lat="42.88425" lon="2.80357">
        <ele>384</ele>
        <time>2024-07-19T08:52:33Z</time>
      </trkpt>
      <trkpt lat="42.88426" lon="2.80357">
        <ele>385</ele>
        <time>2024-07-19T08:52:55Z</time>
      </trkpt>
      <trkpt lat="42.88426" lon="2.80357">
        <ele>386</ele>
        <time>2024-07-19T08:52:55Z</time>
      </trkpt>
      <trkpt lat="42.88427" lon="2.80353">
        <ele>388</ele>
        <time>2024-07-19T08:53:25Z</time>
      </trkpt>
      <trkpt lat="42.88427" lon="2.80352">
        <ele>389</ele>
        <time>2024-07-19T08:53:25Z</time>
      </trkpt>
      <trkpt lat="42.88389" lon="2.80334">
        <ele>399</ele>
        <time>2024-07-19T08:55:10Z</time>
      </trkpt>
      <trkpt lat="42.88385" lon="2.80335">
        <ele>400</ele>
        <time>2024-07-19T08:55:19Z</time>
      </trkpt>
      <trkpt lat="42.8838" lon="2.80332">
        <ele>401</ele>
        <time>2024-07-19T08:55:27Z</time>
      </trkpt>
      <trkpt lat="42.88379" lon="2.80326">
        <ele>402</ele>
        <time>2024-07-19T08:55:36Z</time>
      </trkpt>
      <trkpt lat="42.88374" lon="2.80324">
        <ele>403</ele>
        <time>2024-07-19T08:55:44Z</time>
      </trkpt>
      <trkpt lat="42.8837" lon="2.8032">
        <ele>404</ele>
        <time>2024-07-19T08:55:54Z</time>
      </trkpt>
      <trkpt lat="42.88368" lon="2.8032">
        <ele>405</ele>
        <time>2024-07-19T08:56:10Z</time>
      </trkpt>
      <trkpt lat="42.88368" lon="2.80321">
        <ele>406</ele>
        <time>2024-07-19T08:56:10Z</time>
      </trkpt>
      <trkpt lat="42.88363" lon="2.80321">
        <ele>406</ele>
        <time>2024-07-19T08:56:29Z</time>
      </trkpt>
      <trkpt lat="42.88359" lon="2.80321">
        <ele>406</ele>
        <time>2024-07-19T08:56:35Z</time>
      </trkpt>
      <trkpt lat="42.88358" lon="2.80315">
        <ele>406</ele>
        <time>2024-07-19T08:56:47Z</time>
      </trkpt>
      <trkpt lat="42.88361" lon="2.8031">
        <ele>407</ele>
        <time>2024-07-19T08:56:55Z</time>
      </trkpt>
      <trkpt lat="42.88366" lon="2.80309">
        <ele>407</ele>
        <time>2024-07-19T08:57:03Z</time>
      </trkpt>
      <trkpt lat="42.88371" lon="2.80309">
        <ele>408</ele>
        <time>2024-07-19T08:57:12Z</time>
      </trkpt>
      <trkpt lat="42.88376" lon="2.80307">
        <ele>409</ele>
        <time>2024-07-19T08:57:19Z</time>
      </trkpt>
      <trkpt lat="42.8842" lon="2.80298">
        <ele>411</ele>
        <time>2024-07-19T08:59:17Z</time>
      </trkpt>
      <trkpt lat="42.88425" lon="2.80299">
        <ele>412</ele>
        <time>2024-07-19T08:59:36Z</time>
      </trkpt>
      <trkpt lat="42.88429" lon="2.803">
        <ele>413</ele>
        <time>2024-07-19T08:59:55Z</time>
      </trkpt>
      <trkpt lat="42.88428" lon="2.80301">
        <ele>414</ele>
        <time>2024-07-19T08:59:56Z</time>
      </trkpt>
      <trkpt lat="42.88429" lon="2.803">
        <ele>414</ele>
        <time>2024-07-19T09:00:25Z</time>
      </trkpt>
      <trkpt lat="42.8843" lon="2.803">
        <ele>415</ele>
        <time>2024-07-19T09:00:26Z</time>
      </trkpt>
      <trkpt lat="42.88434" lon="2.80299">
        <ele>415</ele>
        <time>2024-07-19T09:00:47Z</time>
      </trkpt>
      <trkpt lat="42.88437" lon="2.80297">
        <ele>416</ele>
        <time>2024-07-19T09:01:10Z</time>
      </trkpt>
      <trkpt lat="42.88436" lon="2.80298">
        <ele>416</ele>
        <time>2024-07-19T09:01:11Z</time>
      </trkpt>
      <trkpt lat="42.8844" lon="2.80299">
        <ele>417</ele>
        <time>2024-07-19T09:01:25Z</time>
      </trkpt>
      <trkpt lat="42.88465" lon="2.80269">
        <ele>429</ele>
        <time>2024-07-19T09:05:59Z</time>
      </trkpt>
      <trkpt lat="42.88468" lon="2.80267">
        <ele>429</ele>
        <time>2024-07-19T09:06:25Z</time>
      </trkpt>
      <trkpt lat="42.88468" lon="2.80267">
        <ele>430</ele>
        <time>2024-07-19T09:06:26Z</time>
      </trkpt>
      <trkpt lat="42.88472" lon="2.80265">
        <ele>430</ele>
        <time>2024-07-19T09:06:55Z</time>
      </trkpt>
      <trkpt lat="42.88473" lon="2.80265">
        <ele>431</ele>
        <time>2024-07-19T09:06:56Z</time>
      </trkpt>
      <trkpt lat="42.88474" lon="2.80264">
        <ele>431</ele>
        <time>2024-07-19T09:07:25Z</time>
      </trkpt>
      <trkpt lat="42.88474" lon="2.80264">
        <ele>431</ele>
        <time>2024-07-19T09:07:26Z</time>
      </trkpt>
      <trkpt lat="42.88474" lon="2.80265">
        <ele>431</ele>
        <time>2024-07-19T09:07:55Z</time>
      </trkpt>
      <trkpt lat="42.88474" lon="2.80265">
        <ele>431</ele>
        <time>2024-07-19T09:07:56Z</time>
      </trkpt>
      <trkpt lat="42.88487" lon="2.8021">
        <ele>417</ele>
        <time>2024-07-19T09:17:15Z</time>
      </trkpt>
      <trkpt lat="42.88488" lon="2.80203">
        <ele>416</ele>
        <time>2024-07-19T09:17:22Z</time>
      </trkpt>
      <trkpt lat="42.8849" lon="2.80197">
        <ele>415</ele>
        <time>2024-07-19T09:17:31Z</time>
      </trkpt>
      <trkpt lat="42.88485" lon="2.80192">
        <ele>414</ele>
        <time>2024-07-19T09:17:53Z</time>
      </trkpt>
      <trkpt lat="42.88485" lon="2.80186">
        <ele>412</ele>
        <time>2024-07-19T09:17:58Z</time>
      </trkpt>
      <trkpt lat="42.88486" lon="2.80178">
        <ele>411</ele>
        <time>2024-07-19T09:18:01Z</time>
      </trkpt>
      <trkpt lat="42.88486" lon="2.80172">
        <ele>409</ele>
        <time>2024-07-19T09:18:03Z</time>
      </trkpt>
      <trkpt lat="42.88483" lon="2.80165">
        <ele>408</ele>
        <time>2024-07-19T09:18:05Z</time>
      </trkpt>
      <trkpt lat="42.8848" lon="2.80157">
        <ele>407</ele>
        <time>2024-07-19T09:18:07Z</time>
      </trkpt>
      <trkpt lat="42.88475" lon="2.80151">
        <ele>405</ele>
        <time>2024-07-19T09:18:09Z</time>
      </trkpt>
      <trkpt lat="42.88469" lon="2.80146">
        <ele>404</ele>
        <time>2024-07-19T09:18:15Z</time>
      </trkpt>
      <trkpt lat="42.88469" lon="2.8014">
        <ele>404</ele>
        <time>2024-07-19T09:18:21Z</time>
      </trkpt>
      <trkpt lat="42.88467" lon="2.80134">
        <ele>403</ele>
        <time>2024-07-19T09:18:34Z</time>
      </trkpt>
      <trkpt lat="42.88464" lon="2.80128">
        <ele>402</ele>
        <time>2024-07-19T09:18:37Z</time>
      </trkpt>
      <trkpt lat="42.88463" lon="2.80121">
        <ele>401</ele>
        <time>2024-07-19T09:18:41Z</time>
      </trkpt>
      <trkpt lat="42.88463" lon="2.80115">
        <ele>400</ele>
        <time>2024-07-19T09:18:45Z</time>
      </trkpt>
      <trkpt lat="42.8846" lon="2.80108">
        <ele>399</ele>
        <time>2024-07-19T09:18:49Z</time>
      </trkpt>
      <trkpt lat="42.88459" lon="2.80102">
        <ele>397</ele>
        <time>2024-07-19T09:18:51Z</time>
      </trkpt>
      <trkpt lat="42.88458" lon="2.80094">
        <ele>395</ele>
        <time>2024-07-19T09:18:54Z</time>
      </trkpt>
      <trkpt lat="42.88455" lon="2.80088">
        <ele>393</ele>
        <time>2024-07-19T09:18:58Z</time>
      </trkpt>
      <trkpt lat="42.88454" lon="2.80082">
        <ele>391</ele>
        <time>2024-07-19T09:19:11Z</time>
      </trkpt>
      <trkpt lat="42.88454" lon="2.80074">
        <ele>390</ele>
        <time>2024-07-19T09:19:14Z</time>
      </trkpt>
      <trkpt lat="42.88453" lon="2.80067">
        <ele>388</ele>
        <time>2024-07-19T09:19:17Z</time>
      </trkpt>
      <trkpt lat="42.88452" lon="2.80059">
        <ele>386</ele>
        <time>2024-07-19T09:19:20Z</time>
      </trkpt>
      <trkpt lat="42.88454" lon="2.8005">
        <ele>385</ele>
        <time>2024-07-19T09:19:23Z</time>
      </trkpt>
      <trkpt lat="42.88454" lon="2.80044">
        <ele>383</ele>
        <time>2024-07-19T09:19:25Z</time>
      </trkpt>
      <trkpt lat="42.88454" lon="2.80036">
        <ele>382</ele>
        <time>2024-07-19T09:19:27Z</time>
      </trkpt>
      <trkpt lat="42.88454" lon="2.80029">
        <ele>380</ele>
        <time>2024-07-19T09:19:29Z</time>
      </trkpt>
      <trkpt lat="42.88453" lon="2.80021">
        <ele>379</ele>
        <time>2024-07-19T09:19:31Z</time>
      </trkpt>
      <trkpt lat="42.8845" lon="2.80014">
        <ele>378</ele>
        <time>2024-07-19T09:19:33Z</time>
      </trkpt>
      <trkpt lat="42.88448" lon="2.80007">
        <ele>377</ele>
        <time>2024-07-19T09:19:35Z</time>
      </trkpt>
      <trkpt lat="42.88445" lon="2.8">
        <ele>376</ele>
        <time>2024-07-19T09:19:37Z</time>
      </trkpt>
      <trkpt lat="42.88444" lon="2.79994">
        <ele>375</ele>
        <time>2024-07-19T09:19:39Z</time>
      </trkpt>
      <trkpt lat="42.88444" lon="2.79986">
        <ele>374</ele>
        <time>2024-07-19T09:19:41Z</time>
      </trkpt>
      <trkpt lat="42.88442" lon="2.7998">
        <ele>374</ele>
        <time>2024-07-19T09:19:44Z</time>
      </trkpt>
      <trkpt lat="42.88445" lon="2.79973">
        <ele>373</ele>
        <time>2024-07-19T09:19:49Z</time>
      </trkpt>
      <trkpt lat="42.88446" lon="2.79965">
        <ele>372</ele>
        <time>2024-07-19T09:19:52Z</time>
      </trkpt>
      <trkpt lat="42.88445" lon="2.79959">
        <ele>371</ele>
        <time>2024-07-19T09:19:54Z</time>
      </trkpt>
      <trkpt lat="42.88445" lon="2.79951">
        <ele>370</ele>
        <time>2024-07-19T09:19:56Z</time>
      </trkpt>
      <trkpt lat="42.88443" lon="2.79945">
        <ele>368</ele>
        <time>2024-07-19T09:19:58Z</time>
      </trkpt>
      <trkpt lat="42.88443" lon="2.79939">
        <ele>367</ele>
        <time>2024-07-19T09:20:00Z</time>
      </trkpt>
      <trkpt lat="42.88443" lon="2.79931">
        <ele>366</ele>
        <time>2024-07-19T09:20:03Z</time>
      </trkpt>
      <trkpt lat="42.88441" lon="2.79923">
        <ele>365</ele>
        <time>2024-07-19T09:20:06Z</time>
      </trkpt>
      <trkpt lat="42.88445" lon="2.79917">
        <ele>364</ele>
        <time>2024-07-19T09:20:08Z</time>
      </trkpt>
      <trkpt lat="42.88447" lon="2.79909">
        <ele>363</ele>
        <time>2024-07-19T09:20:10Z</time>
      </trkpt>
      <trkpt lat="42.8845" lon="2.799">
        <ele>362</ele>
        <time>2024-07-19T09:20:12Z</time>
      </trkpt>
      <trkpt lat="42.88449" lon="2.79894">
        <ele>361</ele>
        <time>2024-07-19T09:20:14Z</time>
      </trkpt>
      <trkpt lat="42.88448" lon="2.79888">
        <ele>360</ele>
        <time>2024-07-19T09:20:16Z</time>
      </trkpt>
      <trkpt lat="42.88446" lon="2.79881">
        <ele>359</ele>
        <time>2024-07-19T09:20:18Z</time>
      </trkpt>
      <trkpt lat="42.88445" lon="2.79874">
        <ele>358</ele>
        <time>2024-07-19T09:20:20Z</time>
      </trkpt>
      <trkpt lat="42.88444" lon="2.79867">
        <ele>357</ele>
        <time>2024-07-19T09:20:22Z</time>
      </trkpt>
      <trkpt lat="42.88444" lon="2.7986">
        <ele>356</ele>
        <time>2024-07-19T09:20:24Z</time>
      </trkpt>
      <trkpt lat="42.88446" lon="2.79853">
        <ele>355</ele>
        <time>2024-07-19T09:20:27Z</time>
      </trkpt>
      <trkpt lat="42.88445" lon="2.79845">
        <ele>353</ele>
        <time>2024-07-19T09:20:31Z</time>
      </trkpt>
      <trkpt lat="42.88445" lon="2.79839">
        <ele>352</ele>
        <time>2024-07-19T09:20:33Z</time>
      </trkpt>
      <trkpt lat="42.88442" lon="2.79833">
        <ele>351</ele>
        <time>2024-07-19T09:20:35Z</time>
      </trkpt>
      <trkpt lat="42.88442" lon="2.79825">
        <ele>350</ele>
        <time>2024-07-19T09:20:37Z</time>
      </trkpt>
      <trkpt lat="42.88442" lon="2.79819">
        <ele>348</ele>
        <time>2024-07-19T09:20:39Z</time>
      </trkpt>
      <trkpt lat="42.88442" lon="2.79812">
        <ele>347</ele>
        <time>2024-07-19T09:20:41Z</time>
      </trkpt>
      <trkpt lat="42.88441" lon="2.79805">
        <ele>346</ele>
        <time>2024-07-19T09:20:43Z</time>
      </trkpt>
      <trkpt lat="42.88443" lon="2.79798">
        <ele>345</ele>
        <time>2024-07-19T09:20:45Z</time>
      </trkpt>
      <trkpt lat="42.88446" lon="2.7979">
        <ele>344</ele>
        <time>2024-07-19T09:20:48Z</time>
      </trkpt>
      <trkpt lat="42.88442" lon="2.79783">
        <ele>343</ele>
        <time>2024-07-19T09:20:51Z</time>
      </trkpt>
      <trkpt lat="42.88437" lon="2.7978">
        <ele>342</ele>
        <time>2024-07-19T09:20:55Z</time>
      </trkpt>
      <trkpt lat="42.88433" lon="2.79782">
        <ele>341</ele>
        <time>2024-07-19T09:20:58Z</time>
      </trkpt>
      <trkpt lat="42.88429" lon="2.79778">
        <ele>341</ele>
        <time>2024-07-19T09:21:06Z</time>
      </trkpt>
      <trkpt lat="42.88424" lon="2.79774">
        <ele>340</ele>
        <time>2024-07-19T09:21:09Z</time>
      </trkpt>
      <trkpt lat="42.88422" lon="2.79765">
        <ele>340</ele>
        <time>2024-07-19T09:21:12Z</time>
      </trkpt>
      <trkpt lat="42.88419" lon="2.79757">
        <ele>340</ele>
        <time>2024-07-19T09:21:15Z</time>
      </trkpt>
      <trkpt lat="42.88416" lon="2.7975">
        <ele>340</ele>
        <time>2024-07-19T09:21:17Z</time>
      </trkpt>
      <trkpt lat="42.88414" lon="2.79743">
        <ele>340</ele>
        <time>2024-07-19T09:21:19Z</time>
      </trkpt>
      <trkpt lat="42.88412" lon="2.79736">
        <ele>340</ele>
        <time>2024-07-19T09:21:21Z</time>
      </trkpt>
      <trkpt lat="42.88409" lon="2.7973">
        <ele>340</ele>
        <time>2024-07-19T09:21:23Z</time>
      </trkpt>
      <trkpt lat="42.88406" lon="2.79724">
        <ele>340</ele>
        <time>2024-07-19T09:21:25Z</time>
      </trkpt>
      <trkpt lat="42.88405" lon="2.79717">
        <ele>340</ele>
        <time>2024-07-19T09:21:27Z</time>
      </trkpt>
      <trkpt lat="42.88403" lon="2.7971">
        <ele>340</ele>
        <time>2024-07-19T09:21:29Z</time>
      </trkpt>
      <trkpt lat="42.88401" lon="2.79704">
        <ele>340</ele>
        <time>2024-07-19T09:21:31Z</time>
      </trkpt>
      <trkpt lat="42.88398" lon="2.79699">
        <ele>339</ele>
        <time>2024-07-19T09:21:33Z</time>
      </trkpt>
      <trkpt lat="42.88396" lon="2.79693">
        <ele>339</ele>
        <time>2024-07-19T09:21:35Z</time>
      </trkpt>
      <trkpt lat="42.88394" lon="2.79687">
        <ele>339</ele>
        <time>2024-07-19T09:21:37Z</time>
      </trkpt>
      <trkpt lat="42.88391" lon="2.79682">
        <ele>339</ele>
        <time>2024-07-19T09:21:39Z</time>
      </trkpt>
      <trkpt lat="42.8839" lon="2.79673">
        <ele>339</ele>
        <time>2024-07-19T09:21:42Z</time>
      </trkpt>
      <trkpt lat="42.88392" lon="2.79666">
        <ele>339</ele>
        <time>2024-07-19T09:21:44Z</time>
      </trkpt>
      <trkpt lat="42.88393" lon="2.79657">
        <ele>339</ele>
        <time>2024-07-19T09:21:46Z</time>
      </trkpt>
      <trkpt lat="42.88397" lon="2.79651">
        <ele>339</ele>
        <time>2024-07-19T09:21:48Z</time>
      </trkpt>
      <trkpt lat="42.88397" lon="2.79644">
        <ele>339</ele>
        <time>2024-07-19T09:21:50Z</time>
      </trkpt>
      <trkpt lat="42.884" lon="2.79638">
        <ele>339</ele>
        <time>2024-07-19T09:21:52Z</time>
      </trkpt>
      <trkpt lat="42.884" lon="2.79631">
        <ele>339</ele>
        <time>2024-07-19T09:21:54Z</time>
      </trkpt>
      <trkpt lat="42.88399" lon="2.79625">
        <ele>339</ele>
        <time>2024-07-19T09:21:56Z</time>
      </trkpt>
      <trkpt lat="42.88394" lon="2.79619">
        <ele>338</ele>
        <time>2024-07-19T09:22:12Z</time>
      </trkpt>
      <trkpt lat="42.88392" lon="2.79613">
        <ele>338</ele>
        <time>2024-07-19T09:22:14Z</time>
      </trkpt>
      <trkpt lat="42.8839" lon="2.79606">
        <ele>337</ele>
        <time>2024-07-19T09:22:16Z</time>
      </trkpt>
      <trkpt lat="42.88386" lon="2.79598">
        <ele>337</ele>
        <time>2024-07-19T09:22:18Z</time>
      </trkpt>
      <trkpt lat="42.88384" lon="2.79592">
        <ele>336</ele>
        <time>2024-07-19T09:22:21Z</time>
      </trkpt>
      <trkpt lat="42.88385" lon="2.79584">
        <ele>335</ele>
        <time>2024-07-19T09:22:24Z</time>
      </trkpt>
      <trkpt lat="42.88389" lon="2.79579">
        <ele>333</ele>
        <time>2024-07-19T09:22:27Z</time>
      </trkpt>
      <trkpt lat="42.8839" lon="2.79569">
        <ele>333</ele>
        <time>2024-07-19T09:22:29Z</time>
      </trkpt>
      <trkpt lat="42.88393" lon="2.79564">
        <ele>332</ele>
        <time>2024-07-19T09:22:31Z</time>
      </trkpt>
      <trkpt lat="42.88397" lon="2.7956">
        <ele>331</ele>
        <time>2024-07-19T09:22:33Z</time>
      </trkpt>
      <trkpt lat="42.88401" lon="2.79554">
        <ele>330</ele>
        <time>2024-07-19T09:22:36Z</time>
      </trkpt>
      <trkpt lat="42.88406" lon="2.79549">
        <ele>329</ele>
        <time>2024-07-19T09:22:39Z</time>
      </trkpt>
      <trkpt lat="42.88408" lon="2.79541">
        <ele>327</ele>
        <time>2024-07-19T09:22:42Z</time>
      </trkpt>
      <trkpt lat="42.88412" lon="2.79535">
        <ele>326</ele>
        <time>2024-07-19T09:22:45Z</time>
      </trkpt>
      <trkpt lat="42.88413" lon="2.79527">
        <ele>324</ele>
        <time>2024-07-19T09:22:48Z</time>
      </trkpt>
      <trkpt lat="42.88417" lon="2.79523">
        <ele>323</ele>
        <time>2024-07-19T09:23:00Z</time>
      </trkpt>
      <trkpt lat="42.88419" lon="2.79518">
        <ele>322</ele>
        <time>2024-07-19T09:23:10Z</time>
      </trkpt>
      <trkpt lat="42.8842" lon="2.79512">
        <ele>321</ele>
        <time>2024-07-19T09:23:20Z</time>
      </trkpt>
      <trkpt lat="42.88422" lon="2.79498">
        <ele>319</ele>
        <time>2024-07-19T09:23:33Z</time>
      </trkpt>
      <trkpt lat="42.88426" lon="2.79492">
        <ele>318</ele>
        <time>2024-07-19T09:23:35Z</time>
      </trkpt>
      <trkpt lat="42.88429" lon="2.79487">
        <ele>317</ele>
        <time>2024-07-19T09:23:37Z</time>
      </trkpt>
      <trkpt lat="42.88435" lon="2.79482">
        <ele>317</ele>
        <time>2024-07-19T09:23:40Z</time>
      </trkpt>
      <trkpt lat="42.88438" lon="2.79477">
        <ele>317</ele>
        <time>2024-07-19T09:23:42Z</time>
      </trkpt>
      <trkpt lat="42.88441" lon="2.79471">
        <ele>317</ele>
        <time>2024-07-19T09:23:44Z</time>
      </trkpt>
      <trkpt lat="42.88441" lon="2.79462">
        <ele>318</ele>
        <time>2024-07-19T09:23:47Z</time>
      </trkpt>
      <trkpt lat="42.88444" lon="2.79453">
        <ele>318</ele>
        <time>2024-07-19T09:23:50Z</time>
      </trkpt>
      <trkpt lat="42.88447" lon="2.79447">
        <ele>319</ele>
        <time>2024-07-19T09:23:52Z</time>
      </trkpt>
      <trkpt lat="42.88452" lon="2.79441">
        <ele>319</ele>
        <time>2024-07-19T09:23:54Z</time>
      </trkpt>
      <trkpt lat="42.88456" lon="2.79437">
        <ele>319</ele>
        <time>2024-07-19T09:23:56Z</time>
      </trkpt>
      <trkpt lat="42.88457" lon="2.7943">
        <ele>320</ele>
        <time>2024-07-19T09:23:59Z</time>
      </trkpt>
      <trkpt lat="42.88456" lon="2.79423">
        <ele>320</ele>
        <time>2024-07-19T09:24:02Z</time>
      </trkpt>
      <trkpt lat="42.88457" lon="2.79417">
        <ele>320</ele>
        <time>2024-07-19T09:24:04Z</time>
      </trkpt>
      <trkpt lat="42.88461" lon="2.79411">
        <ele>320</ele>
        <time>2024-07-19T09:24:06Z</time>
      </trkpt>
      <trkpt lat="42.88464" lon="2.79405">
        <ele>320</ele>
        <time>2024-07-19T09:24:08Z</time>
      </trkpt>
      <trkpt lat="42.88468" lon="2.79399">
        <ele>320</ele>
        <time>2024-07-19T09:24:10Z</time>
      </trkpt>
      <trkpt lat="42.88472" lon="2.79393">
        <ele>321</ele>
        <time>2024-07-19T09:24:12Z</time>
      </trkpt>
      <trkpt lat="42.88477" lon="2.79387">
        <ele>321</ele>
        <time>2024-07-19T09:24:14Z</time>
      </trkpt>
      <trkpt lat="42.88483" lon="2.79381">
        <ele>321</ele>
        <time>2024-07-19T09:24:16Z</time>
      </trkpt>
      <trkpt lat="42.8849" lon="2.79376">
        <ele>321</ele>
        <time>2024-07-19T09:24:18Z</time>
      </trkpt>
      <trkpt lat="42.88498" lon="2.79376">
        <ele>321</ele>
        <time>2024-07-19T09:24:20Z</time>
      </trkpt>
      <trkpt lat="42.88505" lon="2.79374">
        <ele>321</ele>
        <time>2024-07-19T09:24:22Z</time>
      </trkpt>
      <trkpt lat="42.8851" lon="2.79374">
        <ele>321</ele>
        <time>2024-07-19T09:24:24Z</time>
      </trkpt>
      <trkpt lat="42.88517" lon="2.79375">
        <ele>322</ele>
        <time>2024-07-19T09:24:26Z</time>
      </trkpt>
      <trkpt lat="42.88528" lon="2.79375">
        <ele>322</ele>
        <time>2024-07-19T09:24:28Z</time>
      </trkpt>
      <trkpt lat="42.88535" lon="2.79378">
        <ele>323</ele>
        <time>2024-07-19T09:24:30Z</time>
      </trkpt>
      <trkpt lat="42.8854" lon="2.79379">
        <ele>324</ele>
        <time>2024-07-19T09:24:32Z</time>
      </trkpt>
      <trkpt lat="42.88546" lon="2.7938">
        <ele>324</ele>
        <time>2024-07-19T09:24:34Z</time>
      </trkpt>
      <trkpt lat="42.88552" lon="2.79381">
        <ele>325</ele>
        <time>2024-07-19T09:24:36Z</time>
      </trkpt>
      <trkpt lat="42.88558" lon="2.79384">
        <ele>326</ele>
        <time>2024-07-19T09:24:38Z</time>
      </trkpt>
      <trkpt lat="42.88563" lon="2.79384">
        <ele>326</ele>
        <time>2024-07-19T09:24:40Z</time>
      </trkpt>
      <trkpt lat="42.88567" lon="2.79381">
        <ele>327</ele>
        <time>2024-07-19T09:24:42Z</time>
      </trkpt>
      <trkpt lat="42.8857" lon="2.79375">
        <ele>328</ele>
        <time>2024-07-19T09:24:44Z</time>
      </trkpt>
      <trkpt lat="42.88571" lon="2.79368">
        <ele>329</ele>
        <time>2024-07-19T09:24:46Z</time>
      </trkpt>
      <trkpt lat="42.88572" lon="2.7936">
        <ele>330</ele>
        <time>2024-07-19T09:24:48Z</time>
      </trkpt>
      <trkpt lat="42.88572" lon="2.79352">
        <ele>330</ele>
        <time>2024-07-19T09:24:50Z</time>
      </trkpt>
      <trkpt lat="42.88573" lon="2.79343">
        <ele>331</ele>
        <time>2024-07-19T09:24:52Z</time>
      </trkpt>
      <trkpt lat="42.88572" lon="2.79332">
        <ele>331</ele>
        <time>2024-07-19T09:24:54Z</time>
      </trkpt>
      <trkpt lat="42.8857" lon="2.79322">
        <ele>331</ele>
        <time>2024-07-19T09:24:56Z</time>
      </trkpt>
      <trkpt lat="42.8857" lon="2.79312">
        <ele>331</ele>
        <time>2024-07-19T09:24:58Z</time>
      </trkpt>
      <trkpt lat="42.88567" lon="2.79302">
        <ele>331</ele>
        <time>2024-07-19T09:25:00Z</time>
      </trkpt>
      <trkpt lat="42.88561" lon="2.79294">
        <ele>331</ele>
        <time>2024-07-19T09:25:02Z</time>
      </trkpt>
      <trkpt lat="42.88554" lon="2.79288">
        <ele>331</ele>
        <time>2024-07-19T09:25:04Z</time>
      </trkpt>
      <trkpt lat="42.88548" lon="2.79282">
        <ele>331</ele>
        <time>2024-07-19T09:25:06Z</time>
      </trkpt>
      <trkpt lat="42.8854" lon="2.79277">
        <ele>331</ele>
        <time>2024-07-19T09:25:08Z</time>
      </trkpt>
      <trkpt lat="42.88532" lon="2.79273">
        <ele>331</ele>
        <time>2024-07-19T09:25:10Z</time>
      </trkpt>
      <trkpt lat="42.88525" lon="2.79267">
        <ele>331</ele>
        <time>2024-07-19T09:25:12Z</time>
      </trkpt>
      <trkpt lat="42.88517" lon="2.79259">
        <ele>331</ele>
        <time>2024-07-19T09:25:14Z</time>
      </trkpt>
      <trkpt lat="42.88512" lon="2.7925">
        <ele>330</ele>
        <time>2024-07-19T09:25:16Z</time>
      </trkpt>
      <trkpt lat="42.88508" lon="2.7924">
        <ele>330</ele>
        <time>2024-07-19T09:25:18Z</time>
      </trkpt>
      <trkpt lat="42.88505" lon="2.79235">
        <ele>330</ele>
        <time>2024-07-19T09:25:19Z</time>
      </trkpt>
      <trkpt lat="42.88503" lon="2.79229">
        <ele>329</ele>
        <time>2024-07-19T09:25:20Z</time>
      </trkpt>
      <trkpt lat="42.88502" lon="2.79223">
        <ele>329</ele>
        <time>2024-07-19T09:25:21Z</time>
      </trkpt>
      <trkpt lat="42.88502" lon="2.79216">
        <ele>329</ele>
        <time>2024-07-19T09:25:22Z</time>
      </trkpt>
      <trkpt lat="42.88503" lon="2.79205">
        <ele>329</ele>
        <time>2024-07-19T09:25:24Z</time>
      </trkpt>
      <trkpt lat="42.88504" lon="2.79195">
        <ele>329</ele>
        <time>2024-07-19T09:25:26Z</time>
      </trkpt>
      <trkpt lat="42.88503" lon="2.79186">
        <ele>329</ele>
        <time>2024-07-19T09:25:28Z</time>
      </trkpt>
      <trkpt lat="42.88502" lon="2.79177">
        <ele>328</ele>
        <time>2024-07-19T09:25:30Z</time>
      </trkpt>
      <trkpt lat="42.88501" lon="2.79167">
        <ele>328</ele>
        <time>2024-07-19T09:25:32Z</time>
      </trkpt>
      <trkpt lat="42.88499" lon="2.79157">
        <ele>328</ele>
        <time>2024-07-19T09:25:34Z</time>
      </trkpt>
      <trkpt lat="42.88499" lon="2.79146">
        <ele>328</ele>
        <time>2024-07-19T09:25:36Z</time>
      </trkpt>
      <trkpt lat="42.885" lon="2.79134">
        <ele>327</ele>
        <time>2024-07-19T09:25:38Z</time>
      </trkpt>
      <trkpt lat="42.88501" lon="2.79128">
        <ele>327</ele>
        <time>2024-07-19T09:25:39Z</time>
      </trkpt>
      <trkpt lat="42.88502" lon="2.79122">
        <ele>327</ele>
        <time>2024-07-19T09:25:40Z</time>
      </trkpt>
      <trkpt lat="42.88504" lon="2.79115">
        <ele>326</ele>
        <time>2024-07-19T09:25:41Z</time>
      </trkpt>
      <trkpt lat="42.88505" lon="2.79108">
        <ele>326</ele>
        <time>2024-07-19T09:25:42Z</time>
      </trkpt>
      <trkpt lat="42.88506" lon="2.79101">
        <ele>326</ele>
        <time>2024-07-19T09:25:43Z</time>
      </trkpt>
      <trkpt lat="42.88507" lon="2.79094">
        <ele>326</ele>
        <time>2024-07-19T09:25:44Z</time>
      </trkpt>
      <trkpt lat="42.88508" lon="2.79087">
        <ele>326</ele>
        <time>2024-07-19T09:25:45Z</time>
      </trkpt>
      <trkpt lat="42.88508" lon="2.79079">
        <ele>325</ele>
        <time>2024-07-19T09:25:46Z</time>
      </trkpt>
      <trkpt lat="42.88509" lon="2.79072">
        <ele>325</ele>
        <time>2024-07-19T09:25:47Z</time>
      </trkpt>
      <trkpt lat="42.88511" lon="2.79065">
        <ele>325</ele>
        <time>2024-07-19T09:25:48Z</time>
      </trkpt>
      <trkpt lat="42.88512" lon="2.79058">
        <ele>325</ele>
        <time>2024-07-19T09:25:49Z</time>
      </trkpt>
      <trkpt lat="42.88513" lon="2.79051">
        <ele>325</ele>
        <time>2024-07-19T09:25:50Z</time>
      </trkpt>
      <trkpt lat="42.88513" lon="2.79045">
        <ele>325</ele>
        <time>2024-07-19T09:25:51Z</time>
      </trkpt>
      <trkpt lat="42.88514" lon="2.79038">
        <ele>326</ele>
        <time>2024-07-19T09:25:52Z</time>
      </trkpt>
      <trkpt lat="42.88515" lon="2.79031">
        <ele>326</ele>
        <time>2024-07-19T09:25:53Z</time>
      </trkpt>
      <trkpt lat="42.88516" lon="2.79024">
        <ele>326</ele>
        <time>2024-07-19T09:25:54Z</time>
      </trkpt>
      <trkpt lat="42.88517" lon="2.79018">
        <ele>326</ele>
        <time>2024-07-19T09:25:55Z</time>
      </trkpt>
      <trkpt lat="42.88518" lon="2.79012">
        <ele>326</ele>
        <time>2024-07-19T09:25:56Z</time>
      </trkpt>
      <trkpt lat="42.88518" lon="2.79005">
        <ele>326</ele>
        <time>2024-07-19T09:25:57Z</time>
      </trkpt>
      <trkpt lat="42.88518" lon="2.78999">
        <ele>326</ele>
        <time>2024-07-19T09:25:58Z</time>
      </trkpt>
      <trkpt lat="42.88519" lon="2.78992">
        <ele>326</ele>
        <time>2024-07-19T09:25:59Z</time>
      </trkpt>
      <trkpt lat="42.88519" lon="2.78985">
        <ele>326</ele>
        <time>2024-07-19T09:26:00Z</time>
      </trkpt>
      <trkpt lat="42.8852" lon="2.78979">
        <ele>326</ele>
        <time>2024-07-19T09:26:01Z</time>
      </trkpt>
      <trkpt lat="42.88522" lon="2.78973">
        <ele>326</ele>
        <time>2024-07-19T09:26:02Z</time>
      </trkpt>
      <trkpt lat="42.88523" lon="2.78967">
        <ele>326</ele>
        <time>2024-07-19T09:26:03Z</time>
      </trkpt>
      <trkpt lat="42.88524" lon="2.78961">
        <ele>326</ele>
        <time>2024-07-19T09:26:04Z</time>
      </trkpt>
      <trkpt lat="42.88525" lon="2.78955">
        <ele>326</ele>
        <time>2024-07-19T09:26:05Z</time>
      </trkpt>
      <trkpt lat="42.88528" lon="2.78943">
        <ele>326</ele>
        <time>2024-07-19T09:26:07Z</time>
      </trkpt>
      <trkpt lat="42.88529" lon="2.78937">
        <ele>326</ele>
        <time>2024-07-19T09:26:08Z</time>
      </trkpt>
      <trkpt lat="42.8853" lon="2.78931">
        <ele>326</ele>
        <time>2024-07-19T09:26:09Z</time>
      </trkpt>
      <trkpt lat="42.8853" lon="2.78924">
        <ele>326</ele>
        <time>2024-07-19T09:26:10Z</time>
      </trkpt>
      <trkpt lat="42.88529" lon="2.78917">
        <ele>326</ele>
        <time>2024-07-19T09:26:11Z</time>
      </trkpt>
      <trkpt lat="42.8853" lon="2.7891">
        <ele>325</ele>
        <time>2024-07-19T09:26:12Z</time>
      </trkpt>
      <trkpt lat="42.8853" lon="2.78902">
        <ele>325</ele>
        <time>2024-07-19T09:26:13Z</time>
      </trkpt>
      <trkpt lat="42.8853" lon="2.78895">
        <ele>325</ele>
        <time>2024-07-19T09:26:14Z</time>
      </trkpt>
      <trkpt lat="42.88531" lon="2.78887">
        <ele>325</ele>
        <time>2024-07-19T09:26:15Z</time>
      </trkpt>
      <trkpt lat="42.88532" lon="2.7888">
        <ele>325</ele>
        <time>2024-07-19T09:26:16Z</time>
      </trkpt>
      <trkpt lat="42.88533" lon="2.78873">
        <ele>324</ele>
        <time>2024-07-19T09:26:17Z</time>
      </trkpt>
      <trkpt lat="42.88535" lon="2.78866">
        <ele>324</ele>
        <time>2024-07-19T09:26:18Z</time>
      </trkpt>
      <trkpt lat="42.88538" lon="2.7886">
        <ele>324</ele>
        <time>2024-07-19T09:26:20Z</time>
      </trkpt>
      <trkpt lat="42.88543" lon="2.78857">
        <ele>324</ele>
        <time>2024-07-19T09:26:22Z</time>
      </trkpt>
      <trkpt lat="42.88549" lon="2.7885">
        <ele>325</ele>
        <time>2024-07-19T09:26:24Z</time>
      </trkpt>
      <trkpt lat="42.88554" lon="2.78842">
        <ele>325</ele>
        <time>2024-07-19T09:26:26Z</time>
      </trkpt>
      <trkpt lat="42.88557" lon="2.78833">
        <ele>325</ele>
        <time>2024-07-19T09:26:28Z</time>
      </trkpt>
      <trkpt lat="42.88559" lon="2.78822">
        <ele>325</ele>
        <time>2024-07-19T09:26:30Z</time>
      </trkpt>
      <trkpt lat="42.88561" lon="2.7881">
        <ele>325</ele>
        <time>2024-07-19T09:26:32Z</time>
      </trkpt>
      <trkpt lat="42.88564" lon="2.78799">
        <ele>325</ele>
        <time>2024-07-19T09:26:34Z</time>
      </trkpt>
      <trkpt lat="42.88566" lon="2.78789">
        <ele>325</ele>
        <time>2024-07-19T09:26:36Z</time>
      </trkpt>
      <trkpt lat="42.88569" lon="2.7878">
        <ele>326</ele>
        <time>2024-07-19T09:26:38Z</time>
      </trkpt>
      <trkpt lat="42.88572" lon="2.78771">
        <ele>326</ele>
        <time>2024-07-19T09:26:40Z</time>
      </trkpt>
      <trkpt lat="42.88575" lon="2.7876">
        <ele>326</ele>
        <time>2024-07-19T09:26:42Z</time>
      </trkpt>
      <trkpt lat="42.88578" lon="2.7875">
        <ele>326</ele>
        <time>2024-07-19T09:26:44Z</time>
      </trkpt>
      <trkpt lat="42.8858" lon="2.7874">
        <ele>326</ele>
        <time>2024-07-19T09:26:46Z</time>
      </trkpt>
      <trkpt lat="42.88583" lon="2.7873">
        <ele>326</ele>
        <time>2024-07-19T09:26:48Z</time>
      </trkpt>
      <trkpt lat="42.88584" lon="2.7872">
        <ele>326</ele>
        <time>2024-07-19T09:26:50Z</time>
      </trkpt>
      <trkpt lat="42.88584" lon="2.78709">
        <ele>326</ele>
        <time>2024-07-19T09:26:52Z</time>
      </trkpt>
      <trkpt lat="42.88583" lon="2.78699">
        <ele>326</ele>
        <time>2024-07-19T09:26:54Z</time>
      </trkpt>
      <trkpt lat="42.8858" lon="2.78689">
        <ele>326</ele>
        <time>2024-07-19T09:26:56Z</time>
      </trkpt>
      <trkpt lat="42.88578" lon="2.78679">
        <ele>326</ele>
        <time>2024-07-19T09:26:58Z</time>
      </trkpt>
      <trkpt lat="42.88577" lon="2.78668">
        <ele>326</ele>
        <time>2024-07-19T09:27:00Z</time>
      </trkpt>
      <trkpt lat="42.88576" lon="2.78659">
        <ele>326</ele>
        <time>2024-07-19T09:27:02Z</time>
      </trkpt>
      <trkpt lat="42.88574" lon="2.78649">
        <ele>326</ele>
        <time>2024-07-19T09:27:04Z</time>
      </trkpt>
      <trkpt lat="42.88571" lon="2.7864">
        <ele>326</ele>
        <time>2024-07-19T09:27:06Z</time>
      </trkpt>
      <trkpt lat="42.88565" lon="2.78632">
        <ele>325</ele>
        <time>2024-07-19T09:27:08Z</time>
      </trkpt>
      <trkpt lat="42.88561" lon="2.78629">
        <ele>325</ele>
        <time>2024-07-19T09:27:09Z</time>
      </trkpt>
      <trkpt lat="42.88557" lon="2.78625">
        <ele>325</ele>
        <time>2024-07-19T09:27:10Z</time>
      </trkpt>
      <trkpt lat="42.88554" lon="2.7862">
        <ele>325</ele>
        <time>2024-07-19T09:27:11Z</time>
      </trkpt>
      <trkpt lat="42.88553" lon="2.78613">
        <ele>324</ele>
        <time>2024-07-19T09:27:12Z</time>
      </trkpt>
      <trkpt lat="42.88553" lon="2.78606">
        <ele>324</ele>
        <time>2024-07-19T09:27:13Z</time>
      </trkpt>
      <trkpt lat="42.88553" lon="2.786">
        <ele>324</ele>
        <time>2024-07-19T09:27:14Z</time>
      </trkpt>
      <trkpt lat="42.88554" lon="2.78594">
        <ele>324</ele>
        <time>2024-07-19T09:27:15Z</time>
      </trkpt>
      <trkpt lat="42.88555" lon="2.78581">
        <ele>324</ele>
        <time>2024-07-19T09:27:17Z</time>
      </trkpt>
      <trkpt lat="42.88556" lon="2.78575">
        <ele>324</ele>
        <time>2024-07-19T09:27:18Z</time>
      </trkpt>
      <trkpt lat="42.88556" lon="2.78569">
        <ele>324</ele>
        <time>2024-07-19T09:27:19Z</time>
      </trkpt>
      <trkpt lat="42.88557" lon="2.78563">
        <ele>324</ele>
        <time>2024-07-19T09:27:20Z</time>
      </trkpt>
      <trkpt lat="42.88559" lon="2.78551">
        <ele>323</ele>
        <time>2024-07-19T09:27:22Z</time>
      </trkpt>
      <trkpt lat="42.88562" lon="2.7854">
        <ele>323</ele>
        <time>2024-07-19T09:27:24Z</time>
      </trkpt>
      <trkpt lat="42.88564" lon="2.78528">
        <ele>323</ele>
        <time>2024-07-19T09:27:26Z</time>
      </trkpt>
      <trkpt lat="42.88564" lon="2.78516">
        <ele>323</ele>
        <time>2024-07-19T09:27:28Z</time>
      </trkpt>
      <trkpt lat="42.88565" lon="2.7851">
        <ele>323</ele>
        <time>2024-07-19T09:27:29Z</time>
      </trkpt>
      <trkpt lat="42.88565" lon="2.78503">
        <ele>322</ele>
        <time>2024-07-19T09:27:30Z</time>
      </trkpt>
      <trkpt lat="42.88567" lon="2.7849">
        <ele>322</ele>
        <time>2024-07-19T09:27:32Z</time>
      </trkpt>
      <trkpt lat="42.88567" lon="2.78483">
        <ele>321</ele>
        <time>2024-07-19T09:27:33Z</time>
      </trkpt>
      <trkpt lat="42.88566" lon="2.78477">
        <ele>321</ele>
        <time>2024-07-19T09:27:34Z</time>
      </trkpt>
      <trkpt lat="42.88565" lon="2.7847">
        <ele>321</ele>
        <time>2024-07-19T09:27:35Z</time>
      </trkpt>
      <trkpt lat="42.88562" lon="2.78464">
        <ele>321</ele>
        <time>2024-07-19T09:27:36Z</time>
      </trkpt>
      <trkpt lat="42.88558" lon="2.78459">
        <ele>320</ele>
        <time>2024-07-19T09:27:37Z</time>
      </trkpt>
      <trkpt lat="42.88554" lon="2.78455">
        <ele>320</ele>
        <time>2024-07-19T09:27:38Z</time>
      </trkpt>
      <trkpt lat="42.88551" lon="2.78451">
        <ele>320</ele>
        <time>2024-07-19T09:27:39Z</time>
      </trkpt>
      <trkpt lat="42.88547" lon="2.78447">
        <ele>320</ele>
        <time>2024-07-19T09:27:40Z</time>
      </trkpt>
      <trkpt lat="42.88543" lon="2.78443">
        <ele>320</ele>
        <time>2024-07-19T09:27:41Z</time>
      </trkpt>
      <trkpt lat="42.88538" lon="2.7844">
        <ele>320</ele>
        <time>2024-07-19T09:27:42Z</time>
      </trkpt>
      <trkpt lat="42.88534" lon="2.78437">
        <ele>319</ele>
        <time>2024-07-19T09:27:43Z</time>
      </trkpt>
      <trkpt lat="42.8853" lon="2.78433">
        <ele>319</ele>
        <time>2024-07-19T09:27:44Z</time>
      </trkpt>
      <trkpt lat="42.88525" lon="2.7843">
        <ele>319</ele>
        <time>2024-07-19T09:27:45Z</time>
      </trkpt>
      <trkpt lat="42.8852" lon="2.78426">
        <ele>319</ele>
        <time>2024-07-19T09:27:46Z</time>
      </trkpt>
      <trkpt lat="42.88516" lon="2.78422">
        <ele>319</ele>
        <time>2024-07-19T09:27:47Z</time>
      </trkpt>
      <trkpt lat="42.88512" lon="2.78418">
        <ele>319</ele>
        <time>2024-07-19T09:27:48Z</time>
      </trkpt>
      <trkpt lat="42.88508" lon="2.78414">
        <ele>318</ele>
        <time>2024-07-19T09:27:49Z</time>
      </trkpt>
      <trkpt lat="42.88503" lon="2.78411">
        <ele>318</ele>
        <time>2024-07-19T09:27:50Z</time>
      </trkpt>
      <trkpt lat="42.88498" lon="2.78408">
        <ele>318</ele>
        <time>2024-07-19T09:27:51Z</time>
      </trkpt>
      <trkpt lat="42.88493" lon="2.78406">
        <ele>318</ele>
        <time>2024-07-19T09:27:52Z</time>
      </trkpt>
      <trkpt lat="42.88488" lon="2.78404">
        <ele>318</ele>
        <time>2024-07-19T09:27:53Z</time>
      </trkpt>
      <trkpt lat="42.88483" lon="2.78402">
        <ele>318</ele>
        <time>2024-07-19T09:27:54Z</time>
      </trkpt>
      <trkpt lat="42.88478" lon="2.78401">
        <ele>318</ele>
        <time>2024-07-19T09:27:55Z</time>
      </trkpt>
      <trkpt lat="42.88473" lon="2.78398">
        <ele>318</ele>
        <time>2024-07-19T09:27:56Z</time>
      </trkpt>
      <trkpt lat="42.88469" lon="2.78395">
        <ele>317</ele>
        <time>2024-07-19T09:27:57Z</time>
      </trkpt>
      <trkpt lat="42.88464" lon="2.78392">
        <ele>317</ele>
        <time>2024-07-19T09:27:58Z</time>
      </trkpt>
      <trkpt lat="42.88459" lon="2.78389">
        <ele>317</ele>
        <time>2024-07-19T09:27:59Z</time>
      </trkpt>
      <trkpt lat="42.88454" lon="2.78388">
        <ele>317</ele>
        <time>2024-07-19T09:28:00Z</time>
      </trkpt>
      <trkpt lat="42.8845" lon="2.78387">
        <ele>317</ele>
        <time>2024-07-19T09:28:01Z</time>
      </trkpt>
      <trkpt lat="42.88446" lon="2.78382">
        <ele>317</ele>
        <time>2024-07-19T09:28:02Z</time>
      </trkpt>
      <trkpt lat="42.88445" lon="2.78372">
        <ele>316</ele>
        <time>2024-07-19T09:28:04Z</time>
      </trkpt>
      <trkpt lat="42.88445" lon="2.78361">
        <ele>316</ele>
        <time>2024-07-19T09:28:06Z</time>
      </trkpt>
      <trkpt lat="42.88445" lon="2.78353">
        <ele>316</ele>
        <time>2024-07-19T09:28:08Z</time>
      </trkpt>
      <trkpt lat="42.88445" lon="2.78352">
        <ele>316</ele>
        <time>2024-07-19T09:28:29Z</time>
      </trkpt>
      <trkpt lat="42.88445" lon="2.78352">
        <ele>316</ele>
        <time>2024-07-19T09:28:30Z</time>
      </trkpt>
      <trkpt lat="42.88445" lon="2.78355">
        <ele>316</ele>
        <time>2024-07-19T09:28:59Z</time>
      </trkpt>
      <trkpt lat="42.88445" lon="2.78355">
        <ele>316</ele>
        <time>2024-07-19T09:29:00Z</time>
      </trkpt>
      <trkpt lat="42.88444" lon="2.78362">
        <ele>316</ele>
        <time>2024-07-19T09:29:08Z</time>
      </trkpt>
      <trkpt lat="42.88443" lon="2.78369">
        <ele>316</ele>
        <time>2024-07-19T09:29:11Z</time>
      </trkpt>
      <trkpt lat="42.88438" lon="2.78369">
        <ele>317</ele>
        <time>2024-07-19T09:29:13Z</time>
      </trkpt>
      <trkpt lat="42.88432" lon="2.78366">
        <ele>317</ele>
        <time>2024-07-19T09:29:15Z</time>
      </trkpt>
      <trkpt lat="42.88426" lon="2.78364">
        <ele>317</ele>
        <time>2024-07-19T09:29:17Z</time>
      </trkpt>
      <trkpt lat="42.88419" lon="2.78363">
        <ele>317</ele>
        <time>2024-07-19T09:29:19Z</time>
      </trkpt>
      <trkpt lat="42.88414" lon="2.78358">
        <ele>317</ele>
        <time>2024-07-19T09:29:21Z</time>
      </trkpt>
      <trkpt lat="42.8841" lon="2.78351">
        <ele>316</ele>
        <time>2024-07-19T09:29:23Z</time>
      </trkpt>
      <trkpt lat="42.88406" lon="2.78343">
        <ele>316</ele>
        <time>2024-07-19T09:29:25Z</time>
      </trkpt>
      <trkpt lat="42.88403" lon="2.78337">
        <ele>316</ele>
        <time>2024-07-19T09:29:27Z</time>
      </trkpt>
      <trkpt lat="42.88401" lon="2.78331">
        <ele>316</ele>
        <time>2024-07-19T09:29:29Z</time>
      </trkpt>
      <trkpt lat="42.88397" lon="2.78326">
        <ele>316</ele>
        <time>2024-07-19T09:29:32Z</time>
      </trkpt>
      <trkpt lat="42.88392" lon="2.78327">
        <ele>316</ele>
        <time>2024-07-19T09:29:34Z</time>
      </trkpt>
      <trkpt lat="42.88387" lon="2.7833">
        <ele>316</ele>
        <time>2024-07-19T09:29:36Z</time>
      </trkpt>
      <trkpt lat="42.88384" lon="2.78336">
        <ele>316</ele>
        <time>2024-07-19T09:29:38Z</time>
      </trkpt>
      <trkpt lat="42.88379" lon="2.78341">
        <ele>316</ele>
        <time>2024-07-19T09:29:41Z</time>
      </trkpt>
      <trkpt lat="42.88376" lon="2.78345">
        <ele>315</ele>
        <time>2024-07-19T09:29:43Z</time>
      </trkpt>
      <trkpt lat="42.88372" lon="2.78349">
        <ele>315</ele>
        <time>2024-07-19T09:29:45Z</time>
      </trkpt>
      <trkpt lat="42.88365" lon="2.78352">
        <ele>315</ele>
        <time>2024-07-19T09:29:48Z</time>
      </trkpt>
      <trkpt lat="42.8836" lon="2.78352">
        <ele>315</ele>
        <time>2024-07-19T09:29:50Z</time>
      </trkpt>
      <trkpt lat="42.88355" lon="2.78353">
        <ele>315</ele>
        <time>2024-07-19T09:29:52Z</time>
      </trkpt>
      <trkpt lat="42.8835" lon="2.78356">
        <ele>315</ele>
        <time>2024-07-19T09:29:54Z</time>
      </trkpt>
      <trkpt lat="42.88344" lon="2.78357">
        <ele>314</ele>
        <time>2024-07-19T09:29:56Z</time>
      </trkpt>
      <trkpt lat="42.88338" lon="2.78356">
        <ele>314</ele>
        <time>2024-07-19T09:29:58Z</time>
      </trkpt>
      <trkpt lat="42.88332" lon="2.78354">
        <ele>314</ele>
        <time>2024-07-19T09:30:00Z</time>
      </trkpt>
      <trkpt lat="42.88329" lon="2.78348">
        <ele>314</ele>
        <time>2024-07-19T09:30:02Z</time>
      </trkpt>
      <trkpt lat="42.88324" lon="2.78344">
        <ele>313</ele>
        <time>2024-07-19T09:30:04Z</time>
      </trkpt>
      <trkpt lat="42.88319" lon="2.7834">
        <ele>313</ele>
        <time>2024-07-19T09:30:06Z</time>
      </trkpt>
      <trkpt lat="42.8832" lon="2.78331">
        <ele>313</ele>
        <time>2024-07-19T09:30:09Z</time>
      </trkpt>
      <trkpt lat="42.88318" lon="2.78324">
        <ele>313</ele>
        <time>2024-07-19T09:30:12Z</time>
      </trkpt>
      <trkpt lat="42.88314" lon="2.78324">
        <ele>313</ele>
        <time>2024-07-19T09:30:14Z</time>
      </trkpt>
      <trkpt lat="42.88309" lon="2.78322">
        <ele>312</ele>
        <time>2024-07-19T09:30:16Z</time>
      </trkpt>
      <trkpt lat="42.88307" lon="2.78316">
        <ele>312</ele>
        <time>2024-07-19T09:30:18Z</time>
      </trkpt>
      <trkpt lat="42.88304" lon="2.78312">
        <ele>312</ele>
        <time>2024-07-19T09:30:20Z</time>
      </trkpt>
      <trkpt lat="42.88299" lon="2.78309">
        <ele>312</ele>
        <time>2024-07-19T09:30:22Z</time>
      </trkpt>
      <trkpt lat="42.88294" lon="2.78305">
        <ele>312</ele>
        <time>2024-07-19T09:30:24Z</time>
      </trkpt>
      <trkpt lat="42.8829" lon="2.78299">
        <ele>311</ele>
        <time>2024-07-19T09:30:26Z</time>
      </trkpt>
      <trkpt lat="42.88288" lon="2.7829">
        <ele>311</ele>
        <time>2024-07-19T09:30:28Z</time>
      </trkpt>
      <trkpt lat="42.88284" lon="2.78286">
        <ele>311</ele>
        <time>2024-07-19T09:30:30Z</time>
      </trkpt>
      <trkpt lat="42.8828" lon="2.78281">
        <ele>310</ele>
        <time>2024-07-19T09:30:32Z</time>
      </trkpt>
      <trkpt lat="42.88274" lon="2.7828">
        <ele>310</ele>
        <time>2024-07-19T09:30:34Z</time>
      </trkpt>
      <trkpt lat="42.88269" lon="2.78278">
        <ele>310</ele>
        <time>2024-07-19T09:30:36Z</time>
      </trkpt>
      <trkpt lat="42.88265" lon="2.78275">
        <ele>309</ele>
        <time>2024-07-19T09:30:38Z</time>
      </trkpt>
      <trkpt lat="42.8826" lon="2.78269">
        <ele>309</ele>
        <time>2024-07-19T09:30:41Z</time>
      </trkpt>
      <trkpt lat="42.88261" lon="2.78261">
        <ele>309</ele>
        <time>2024-07-19T09:30:44Z</time>
      </trkpt>
      <trkpt lat="42.88257" lon="2.78257">
        <ele>309</ele>
        <time>2024-07-19T09:30:46Z</time>
      </trkpt>
      <trkpt lat="42.88254" lon="2.78251">
        <ele>308</ele>
        <time>2024-07-19T09:30:48Z</time>
      </trkpt>
      <trkpt lat="42.8825" lon="2.78248">
        <ele>308</ele>
        <time>2024-07-19T09:30:50Z</time>
      </trkpt>
      <trkpt lat="42.88247" lon="2.78242">
        <ele>308</ele>
        <time>2024-07-19T09:30:52Z</time>
      </trkpt>
      <trkpt lat="42.88246" lon="2.78234">
        <ele>308</ele>
        <time>2024-07-19T09:30:54Z</time>
      </trkpt>
      <trkpt lat="42.88242" lon="2.78228">
        <ele>308</ele>
        <time>2024-07-19T09:30:56Z</time>
      </trkpt>
      <trkpt lat="42.88239" lon="2.78221">
        <ele>308</ele>
        <time>2024-07-19T09:30:58Z</time>
      </trkpt>
      <trkpt lat="42.88237" lon="2.78213">
        <ele>308</ele>
        <time>2024-07-19T09:31:00Z</time>
      </trkpt>
      <trkpt lat="42.88232" lon="2.78206">
        <ele>308</ele>
        <time>2024-07-19T09:31:02Z</time>
      </trkpt>
      <trkpt lat="42.88228" lon="2.78198">
        <ele>308</ele>
        <time>2024-07-19T09:31:04Z</time>
      </trkpt>
      <trkpt lat="42.88226" lon="2.7819">
        <ele>308</ele>
        <time>2024-07-19T09:31:06Z</time>
      </trkpt>
      <trkpt lat="42.88222" lon="2.78182">
        <ele>308</ele>
        <time>2024-07-19T09:31:08Z</time>
      </trkpt>
      <trkpt lat="42.88221" lon="2.78173">
        <ele>308</ele>
        <time>2024-07-19T09:31:10Z</time>
      </trkpt>
      <trkpt lat="42.88218" lon="2.78166">
        <ele>308</ele>
        <time>2024-07-19T09:31:12Z</time>
      </trkpt>
      <trkpt lat="42.88214" lon="2.78159">
        <ele>308</ele>
        <time>2024-07-19T09:31:14Z</time>
      </trkpt>
      <trkpt lat="42.88208" lon="2.78156">
        <ele>308</ele>
        <time>2024-07-19T09:31:16Z</time>
      </trkpt>
      <trkpt lat="42.88202" lon="2.78158">
        <ele>308</ele>
        <time>2024-07-19T09:31:18Z</time>
      </trkpt>
      <trkpt lat="42.88195" lon="2.78157">
        <ele>308</ele>
        <time>2024-07-19T09:31:20Z</time>
      </trkpt>
      <trkpt lat="42.8819" lon="2.78153">
        <ele>308</ele>
        <time>2024-07-19T09:31:22Z</time>
      </trkpt>
      <trkpt lat="42.88184" lon="2.78149">
        <ele>308</ele>
        <time>2024-07-19T09:31:24Z</time>
      </trkpt>
      <trkpt lat="42.88178" lon="2.78146">
        <ele>308</ele>
        <time>2024-07-19T09:31:26Z</time>
      </trkpt>
      <trkpt lat="42.88171" lon="2.78146">
        <ele>307</ele>
        <time>2024-07-19T09:31:28Z</time>
      </trkpt>
      <trkpt lat="42.88164" lon="2.78144">
        <ele>307</ele>
        <time>2024-07-19T09:31:30Z</time>
      </trkpt>
      <trkpt lat="42.88157" lon="2.78143">
        <ele>307</ele>
        <time>2024-07-19T09:31:32Z</time>
      </trkpt>
      <trkpt lat="42.8815" lon="2.7814">
        <ele>306</ele>
        <time>2024-07-19T09:31:34Z</time>
      </trkpt>
      <trkpt lat="42.88142" lon="2.78137">
        <ele>306</ele>
        <time>2024-07-19T09:31:36Z</time>
      </trkpt>
      <trkpt lat="42.88136" lon="2.78131">
        <ele>306</ele>
        <time>2024-07-19T09:31:38Z</time>
      </trkpt>
      <trkpt lat="42.88129" lon="2.78124">
        <ele>306</ele>
        <time>2024-07-19T09:31:40Z</time>
      </trkpt>
      <trkpt lat="42.88123" lon="2.78118">
        <ele>306</ele>
        <time>2024-07-19T09:31:42Z</time>
      </trkpt>
      <trkpt lat="42.88116" lon="2.78111">
        <ele>306</ele>
        <time>2024-07-19T09:31:44Z</time>
      </trkpt>
      <trkpt lat="42.8811" lon="2.78105">
        <ele>306</ele>
        <time>2024-07-19T09:31:46Z</time>
      </trkpt>
      <trkpt lat="42.88106" lon="2.78097">
        <ele>306</ele>
        <time>2024-07-19T09:31:48Z</time>
      </trkpt>
      <trkpt lat="42.881" lon="2.78091">
        <ele>306</ele>
        <time>2024-07-19T09:31:50Z</time>
      </trkpt>
      <trkpt lat="42.88093" lon="2.78088">
        <ele>306</ele>
        <time>2024-07-19T09:31:52Z</time>
      </trkpt>
      <trkpt lat="42.88087" lon="2.78083">
        <ele>306</ele>
        <time>2024-07-19T09:31:54Z</time>
      </trkpt>
      <trkpt lat="42.88082" lon="2.78076">
        <ele>306</ele>
        <time>2024-07-19T09:31:56Z</time>
      </trkpt>
      <trkpt lat="42.88078" lon="2.78072">
        <ele>305</ele>
        <time>2024-07-19T09:31:58Z</time>
      </trkpt>
      <trkpt lat="42.88073" lon="2.78066">
        <ele>305</ele>
        <time>2024-07-19T09:32:00Z</time>
      </trkpt>
      <trkpt lat="42.88068" lon="2.78061">
        <ele>306</ele>
        <time>2024-07-19T09:32:02Z</time>
      </trkpt>
      <trkpt lat="42.88062" lon="2.78055">
        <ele>306</ele>
        <time>2024-07-19T09:32:05Z</time>
      </trkpt>
      <trkpt lat="42.88059" lon="2.78048">
        <ele>305</ele>
        <time>2024-07-19T09:32:07Z</time>
      </trkpt>
      <trkpt lat="42.88057" lon="2.7804">
        <ele>305</ele>
        <time>2024-07-19T09:32:09Z</time>
      </trkpt>
      <trkpt lat="42.88056" lon="2.78034">
        <ele>305</ele>
        <time>2024-07-19T09:32:11Z</time>
      </trkpt>
      <trkpt lat="42.88053" lon="2.7803">
        <ele>305</ele>
        <time>2024-07-19T09:32:13Z</time>
      </trkpt>
      <trkpt lat="42.88048" lon="2.78027">
        <ele>305</ele>
        <time>2024-07-19T09:32:15Z</time>
      </trkpt>
      <trkpt lat="42.88045" lon="2.78023">
        <ele>305</ele>
        <time>2024-07-19T09:32:17Z</time>
      </trkpt>
      <trkpt lat="42.88041" lon="2.78019">
        <ele>305</ele>
        <time>2024-07-19T09:32:19Z</time>
      </trkpt>
      <trkpt lat="42.88036" lon="2.78017">
        <ele>305</ele>
        <time>2024-07-19T09:32:21Z</time>
      </trkpt>
      <trkpt lat="42.88031" lon="2.78014">
        <ele>305</ele>
        <time>2024-07-19T09:32:23Z</time>
      </trkpt>
      <trkpt lat="42.88026" lon="2.78011">
        <ele>305</ele>
        <time>2024-07-19T09:32:25Z</time>
      </trkpt>
      <trkpt lat="42.88022" lon="2.78007">
        <ele>305</ele>
        <time>2024-07-19T09:32:27Z</time>
      </trkpt>
      <trkpt lat="42.8802" lon="2.78001">
        <ele>305</ele>
        <time>2024-07-19T09:32:29Z</time>
      </trkpt>
      <trkpt lat="42.88017" lon="2.77992">
        <ele>305</ele>
        <time>2024-07-19T09:32:32Z</time>
      </trkpt>
      <trkpt lat="42.88015" lon="2.77986">
        <ele>305</ele>
        <time>2024-07-19T09:32:34Z</time>
      </trkpt>
      <trkpt lat="42.88013" lon="2.77979">
        <ele>305</ele>
        <time>2024-07-19T09:32:36Z</time>
      </trkpt>
      <trkpt lat="42.88009" lon="2.77974">
        <ele>305</ele>
        <time>2024-07-19T09:32:39Z</time>
      </trkpt>
      <trkpt lat="42.88003" lon="2.77972">
        <ele>304</ele>
        <time>2024-07-19T09:32:42Z</time>
      </trkpt>
      <trkpt lat="42.88001" lon="2.77966">
        <ele>304</ele>
        <time>2024-07-19T09:32:44Z</time>
      </trkpt>
      <trkpt lat="42.87997" lon="2.7796">
        <ele>304</ele>
        <time>2024-07-19T09:32:46Z</time>
      </trkpt>
      <trkpt lat="42.87995" lon="2.77952">
        <ele>304</ele>
        <time>2024-07-19T09:32:48Z</time>
      </trkpt>
      <trkpt lat="42.87994" lon="2.77945">
        <ele>304</ele>
        <time>2024-07-19T09:32:50Z</time>
      </trkpt>
      <trkpt lat="42.87991" lon="2.77938">
        <ele>304</ele>
        <time>2024-07-19T09:32:52Z</time>
      </trkpt>
      <trkpt lat="42.8799" lon="2.7793">
        <ele>304</ele>
        <time>2024-07-19T09:32:54Z</time>
      </trkpt>
      <trkpt lat="42.87992" lon="2.77922">
        <ele>304</ele>
        <time>2024-07-19T09:32:56Z</time>
      </trkpt>
      <trkpt lat="42.87993" lon="2.77914">
        <ele>304</ele>
        <time>2024-07-19T09:32:58Z</time>
      </trkpt>
      <trkpt lat="42.87995" lon="2.77906">
        <ele>304</ele>
        <time>2024-07-19T09:33:00Z</time>
      </trkpt>
      <trkpt lat="42.87999" lon="2.77899">
        <ele>303</ele>
        <time>2024-07-19T09:33:02Z</time>
      </trkpt>
      <trkpt lat="42.88004" lon="2.77894">
        <ele>303</ele>
        <time>2024-07-19T09:33:04Z</time>
      </trkpt>
      <trkpt lat="42.88009" lon="2.7789">
        <ele>303</ele>
        <time>2024-07-19T09:33:06Z</time>
      </trkpt>
      <trkpt lat="42.88013" lon="2.77882">
        <ele>303</ele>
        <time>2024-07-19T09:33:08Z</time>
      </trkpt>
      <trkpt lat="42.88017" lon="2.77875">
        <ele>303</ele>
        <time>2024-07-19T09:33:10Z</time>
      </trkpt>
      <trkpt lat="42.8802" lon="2.77867">
        <ele>302</ele>
        <time>2024-07-19T09:33:12Z</time>
      </trkpt>
      <trkpt lat="42.88022" lon="2.7786">
        <ele>301</ele>
        <time>2024-07-19T09:33:14Z</time>
      </trkpt>
      <trkpt lat="42.88026" lon="2.77854">
        <ele>301</ele>
        <time>2024-07-19T09:33:16Z</time>
      </trkpt>
      <trkpt lat="42.8803" lon="2.77847">
        <ele>300</ele>
        <time>2024-07-19T09:33:18Z</time>
      </trkpt>
      <trkpt lat="42.88037" lon="2.77844">
        <ele>300</ele>
        <time>2024-07-19T09:33:20Z</time>
      </trkpt>
      <trkpt lat="42.88042" lon="2.77841">
        <ele>299</ele>
        <time>2024-07-19T09:33:22Z</time>
      </trkpt>
      <trkpt lat="42.88047" lon="2.77839">
        <ele>299</ele>
        <time>2024-07-19T09:33:24Z</time>
      </trkpt>
      <trkpt lat="42.88051" lon="2.77832">
        <ele>299</ele>
        <time>2024-07-19T09:33:26Z</time>
      </trkpt>
      <trkpt lat="42.88055" lon="2.77825">
        <ele>298</ele>
        <time>2024-07-19T09:33:28Z</time>
      </trkpt>
      <trkpt lat="42.8806" lon="2.77819">
        <ele>297</ele>
        <time>2024-07-19T09:33:30Z</time>
      </trkpt>
      <trkpt lat="42.88065" lon="2.77816">
        <ele>296</ele>
        <time>2024-07-19T09:33:32Z</time>
      </trkpt>
      <trkpt lat="42.88069" lon="2.77814">
        <ele>295</ele>
        <time>2024-07-19T09:33:34Z</time>
      </trkpt>
      <trkpt lat="42.88073" lon="2.7781">
        <ele>294</ele>
        <time>2024-07-19T09:33:36Z</time>
      </trkpt>
      <trkpt lat="42.88077" lon="2.77805">
        <ele>292</ele>
        <time>2024-07-19T09:33:39Z</time>
      </trkpt>
      <trkpt lat="42.88082" lon="2.77808">
        <ele>291</ele>
        <time>2024-07-19T09:33:41Z</time>
      </trkpt>
      <trkpt lat="42.88086" lon="2.77815">
        <ele>289</ele>
        <time>2024-07-19T09:33:43Z</time>
      </trkpt>
      <trkpt lat="42.88091" lon="2.77823">
        <ele>288</ele>
        <time>2024-07-19T09:33:45Z</time>
      </trkpt>
      <trkpt lat="42.88094" lon="2.77828">
        <ele>286</ele>
        <time>2024-07-19T09:33:48Z</time>
      </trkpt>
      <trkpt lat="42.88096" lon="2.77834">
        <ele>285</ele>
        <time>2024-07-19T09:33:51Z</time>
      </trkpt>
      <trkpt lat="42.88099" lon="2.77839">
        <ele>284</ele>
        <time>2024-07-19T09:33:53Z</time>
      </trkpt>
      <trkpt lat="42.88104" lon="2.77842">
        <ele>282</ele>
        <time>2024-07-19T09:33:55Z</time>
      </trkpt>
      <trkpt lat="42.88111" lon="2.77842">
        <ele>281</ele>
        <time>2024-07-19T09:33:57Z</time>
      </trkpt>
      <trkpt lat="42.88115" lon="2.77844">
        <ele>280</ele>
        <time>2024-07-19T09:33:59Z</time>
      </trkpt>
      <trkpt lat="42.8812" lon="2.77842">
        <ele>280</ele>
        <time>2024-07-19T09:34:02Z</time>
      </trkpt>
      <trkpt lat="42.88126" lon="2.77837">
        <ele>280</ele>
        <time>2024-07-19T09:34:05Z</time>
      </trkpt>
      <trkpt lat="42.88126" lon="2.77828">
        <ele>279</ele>
        <time>2024-07-19T09:34:08Z</time>
      </trkpt>
      <trkpt lat="42.88125" lon="2.77822">
        <ele>279</ele>
        <time>2024-07-19T09:34:10Z</time>
      </trkpt>
      <trkpt lat="42.88122" lon="2.77815">
        <ele>279</ele>
        <time>2024-07-19T09:34:12Z</time>
      </trkpt>
      <trkpt lat="42.8812" lon="2.77807">
        <ele>278</ele>
        <time>2024-07-19T09:34:14Z</time>
      </trkpt>
      <trkpt lat="42.88117" lon="2.77801">
        <ele>278</ele>
        <time>2024-07-19T09:34:16Z</time>
      </trkpt>
      <trkpt lat="42.88114" lon="2.77794">
        <ele>277</ele>
        <time>2024-07-19T09:34:18Z</time>
      </trkpt>
      <trkpt lat="42.88114" lon="2.77787">
        <ele>277</ele>
        <time>2024-07-19T09:34:20Z</time>
      </trkpt>
      <trkpt lat="42.88115" lon="2.7778">
        <ele>277</ele>
        <time>2024-07-19T09:34:22Z</time>
      </trkpt>
      <trkpt lat="42.88115" lon="2.77773">
        <ele>277</ele>
        <time>2024-07-19T09:34:25Z</time>
      </trkpt>
      <trkpt lat="42.88115" lon="2.77766">
        <ele>276</ele>
        <time>2024-07-19T09:34:28Z</time>
      </trkpt>
      <trkpt lat="42.88117" lon="2.77757">
        <ele>276</ele>
        <time>2024-07-19T09:34:31Z</time>
      </trkpt>
      <trkpt lat="42.88118" lon="2.77751">
        <ele>276</ele>
        <time>2024-07-19T09:34:33Z</time>
      </trkpt>
      <trkpt lat="42.88122" lon="2.77743">
        <ele>276</ele>
        <time>2024-07-19T09:34:36Z</time>
      </trkpt>
      <trkpt lat="42.88124" lon="2.77738">
        <ele>276</ele>
        <time>2024-07-19T09:34:38Z</time>
      </trkpt>
      <trkpt lat="42.88126" lon="2.77732">
        <ele>275</ele>
        <time>2024-07-19T09:34:40Z</time>
      </trkpt>
      <trkpt lat="42.88129" lon="2.77727">
        <ele>275</ele>
        <time>2024-07-19T09:34:42Z</time>
      </trkpt>
      <trkpt lat="42.88131" lon="2.77721">
        <ele>275</ele>
        <time>2024-07-19T09:34:44Z</time>
      </trkpt>
      <trkpt lat="42.88134" lon="2.77715">
        <ele>275</ele>
        <time>2024-07-19T09:34:46Z</time>
      </trkpt>
      <trkpt lat="42.88134" lon="2.77709">
        <ele>275</ele>
        <time>2024-07-19T09:34:48Z</time>
      </trkpt>
      <trkpt lat="42.88134" lon="2.77702">
        <ele>275</ele>
        <time>2024-07-19T09:34:50Z</time>
      </trkpt>
      <trkpt lat="42.88132" lon="2.77695">
        <ele>275</ele>
        <time>2024-07-19T09:34:53Z</time>
      </trkpt>
      <trkpt lat="42.8813" lon="2.77688">
        <ele>275</ele>
        <time>2024-07-19T09:34:55Z</time>
      </trkpt>
      <trkpt lat="42.88125" lon="2.77681">
        <ele>275</ele>
        <time>2024-07-19T09:34:57Z</time>
      </trkpt>
      <trkpt lat="42.8812" lon="2.7768">
        <ele>275</ele>
        <time>2024-07-19T09:34:59Z</time>
      </trkpt>
      <trkpt lat="42.88114" lon="2.77679">
        <ele>275</ele>
        <time>2024-07-19T09:35:01Z</time>
      </trkpt>
      <trkpt lat="42.88108" lon="2.77678">
        <ele>275</ele>
        <time>2024-07-19T09:35:04Z</time>
      </trkpt>
      <trkpt lat="42.88102" lon="2.77676">
        <ele>275</ele>
        <time>2024-07-19T09:35:07Z</time>
      </trkpt>
      <trkpt lat="42.88097" lon="2.77676">
        <ele>275</ele>
        <time>2024-07-19T09:35:09Z</time>
      </trkpt>
      <trkpt lat="42.88092" lon="2.77676">
        <ele>275</ele>
        <time>2024-07-19T09:35:11Z</time>
      </trkpt>
      <trkpt lat="42.88088" lon="2.77673">
        <ele>275</ele>
        <time>2024-07-19T09:35:13Z</time>
      </trkpt>
      <trkpt lat="42.88083" lon="2.77672">
        <ele>275</ele>
        <time>2024-07-19T09:35:15Z</time>
      </trkpt>
      <trkpt lat="42.88077" lon="2.77672">
        <ele>275</ele>
        <time>2024-07-19T09:35:17Z</time>
      </trkpt>
      <trkpt lat="42.88071" lon="2.77671">
        <ele>275</ele>
        <time>2024-07-19T09:35:19Z</time>
      </trkpt>
      <trkpt lat="42.88065" lon="2.7767">
        <ele>275</ele>
        <time>2024-07-19T09:35:21Z</time>
      </trkpt>
      <trkpt lat="42.88059" lon="2.7767">
        <ele>275</ele>
        <time>2024-07-19T09:35:23Z</time>
      </trkpt>
      <trkpt lat="42.88053" lon="2.77669">
        <ele>275</ele>
        <time>2024-07-19T09:35:25Z</time>
      </trkpt>
      <trkpt lat="42.88047" lon="2.77668">
        <ele>275</ele>
        <time>2024-07-19T09:35:27Z</time>
      </trkpt>
      <trkpt lat="42.88043" lon="2.77663">
        <ele>275</ele>
        <time>2024-07-19T09:35:29Z</time>
      </trkpt>
      <trkpt lat="42.88038" lon="2.7766">
        <ele>275</ele>
        <time>2024-07-19T09:35:31Z</time>
      </trkpt>
      <trkpt lat="42.88033" lon="2.7766">
        <ele>275</ele>
        <time>2024-07-19T09:35:33Z</time>
      </trkpt>
      <trkpt lat="42.88027" lon="2.77661">
        <ele>275</ele>
        <time>2024-07-19T09:35:35Z</time>
      </trkpt>
      <trkpt lat="42.88022" lon="2.77659">
        <ele>275</ele>
        <time>2024-07-19T09:35:37Z</time>
      </trkpt>
      <trkpt lat="42.88017" lon="2.77658">
        <ele>274</ele>
        <time>2024-07-19T09:35:39Z</time>
      </trkpt>
      <trkpt lat="42.88013" lon="2.7766">
        <ele>274</ele>
        <time>2024-07-19T09:35:41Z</time>
      </trkpt>
      <trkpt lat="42.88007" lon="2.77661">
        <ele>273</ele>
        <time>2024-07-19T09:35:43Z</time>
      </trkpt>
      <trkpt lat="42.88002" lon="2.77662">
        <ele>273</ele>
        <time>2024-07-19T09:35:45Z</time>
      </trkpt>
      <trkpt lat="42.87997" lon="2.77663">
        <ele>272</ele>
        <time>2024-07-19T09:35:47Z</time>
      </trkpt>
      <trkpt lat="42.87993" lon="2.77663">
        <ele>272</ele>
        <time>2024-07-19T09:35:49Z</time>
      </trkpt>
      <trkpt lat="42.87987" lon="2.77666">
        <ele>272</ele>
        <time>2024-07-19T09:35:51Z</time>
      </trkpt>
      <trkpt lat="42.87982" lon="2.77667">
        <ele>272</ele>
        <time>2024-07-19T09:35:53Z</time>
      </trkpt>
      <trkpt lat="42.87977" lon="2.77668">
        <ele>272</ele>
        <time>2024-07-19T09:35:56Z</time>
      </trkpt>
      <trkpt lat="42.8797" lon="2.7767">
        <ele>272</ele>
        <time>2024-07-19T09:35:59Z</time>
      </trkpt>
      <trkpt lat="42.87964" lon="2.77671">
        <ele>272</ele>
        <time>2024-07-19T09:36:02Z</time>
      </trkpt>
      <trkpt lat="42.87959" lon="2.7767">
        <ele>272</ele>
        <time>2024-07-19T09:36:05Z</time>
      </trkpt>
      <trkpt lat="42.87953" lon="2.77669">
        <ele>272</ele>
        <time>2024-07-19T09:36:08Z</time>
      </trkpt>
      <trkpt lat="42.87948" lon="2.77668">
        <ele>272</ele>
        <time>2024-07-19T09:36:11Z</time>
      </trkpt>
      <trkpt lat="42.87941" lon="2.77669">
        <ele>273</ele>
        <time>2024-07-19T09:36:15Z</time>
      </trkpt>
      <trkpt lat="42.87937" lon="2.7767">
        <ele>273</ele>
        <time>2024-07-19T09:36:18Z</time>
      </trkpt>
      <trkpt lat="42.87932" lon="2.77669">
        <ele>274</ele>
        <time>2024-07-19T09:36:21Z</time>
      </trkpt>
      <trkpt lat="42.87927" lon="2.77666">
        <ele>274</ele>
        <time>2024-07-19T09:36:24Z</time>
      </trkpt>
      <trkpt lat="42.87926" lon="2.77662">
        <ele>275</ele>
        <time>2024-07-19T09:36:44Z</time>
      </trkpt>
      <trkpt lat="42.87926" lon="2.77662">
        <ele>275</ele>
        <time>2024-07-19T09:36:45Z</time>
      </trkpt>
      <trkpt lat="42.87922" lon="2.77661">
        <ele>275</ele>
        <time>2024-07-19T09:37:14Z</time>
      </trkpt>
      <trkpt lat="42.87917" lon="2.77658">
        <ele>276</ele>
        <time>2024-07-19T09:37:17Z</time>
      </trkpt>
      <trkpt lat="42.87911" lon="2.77653">
        <ele>276</ele>
        <time>2024-07-19T09:37:20Z</time>
      </trkpt>
      <trkpt lat="42.87906" lon="2.77651">
        <ele>276</ele>
        <time>2024-07-19T09:37:22Z</time>
      </trkpt>
      <trkpt lat="42.87902" lon="2.77648">
        <ele>277</ele>
        <time>2024-07-19T09:37:24Z</time>
      </trkpt>
      <trkpt lat="42.87898" lon="2.77644">
        <ele>277</ele>
        <time>2024-07-19T09:37:26Z</time>
      </trkpt>
      <trkpt lat="42.87893" lon="2.7764">
        <ele>277</ele>
        <time>2024-07-19T09:37:29Z</time>
      </trkpt>
      <trkpt lat="42.87888" lon="2.77637">
        <ele>278</ele>
        <time>2024-07-19T09:37:32Z</time>
      </trkpt>
      <trkpt lat="42.87884" lon="2.77633">
        <ele>278</ele>
        <time>2024-07-19T09:37:35Z</time>
      </trkpt>
      <trkpt lat="42.8788" lon="2.77631">
        <ele>278</ele>
        <time>2024-07-19T09:37:38Z</time>
      </trkpt>
      <trkpt lat="42.87874" lon="2.77629">
        <ele>279</ele>
        <time>2024-07-19T09:37:41Z</time>
      </trkpt>
      <trkpt lat="42.87869" lon="2.77629">
        <ele>279</ele>
        <time>2024-07-19T09:37:44Z</time>
      </trkpt>
      <trkpt lat="42.87864" lon="2.77627">
        <ele>280</ele>
        <time>2024-07-19T09:37:47Z</time>
      </trkpt>
      <trkpt lat="42.8786" lon="2.77625">
        <ele>280</ele>
        <time>2024-07-19T09:37:50Z</time>
      </trkpt>
      <trkpt lat="42.87855" lon="2.77624">
        <ele>281</ele>
        <time>2024-07-19T09:37:53Z</time>
      </trkpt>
      <trkpt lat="42.87851" lon="2.77621">
        <ele>282</ele>
        <time>2024-07-19T09:37:56Z</time>
      </trkpt>
      <trkpt lat="42.87846" lon="2.77618">
        <ele>282</ele>
        <time>2024-07-19T09:37:59Z</time>
      </trkpt>
      <trkpt lat="42.8784" lon="2.77616">
        <ele>283</ele>
        <time>2024-07-19T09:38:03Z</time>
      </trkpt>
      <trkpt lat="42.87835" lon="2.77613">
        <ele>284</ele>
        <time>2024-07-19T09:38:07Z</time>
      </trkpt>
      <trkpt lat="42.8783" lon="2.77609">
        <ele>285</ele>
        <time>2024-07-19T09:38:11Z</time>
      </trkpt>
      <trkpt lat="42.87825" lon="2.77606">
        <ele>286</ele>
        <time>2024-07-19T09:38:14Z</time>
      </trkpt>
      <trkpt lat="42.87821" lon="2.77601">
        <ele>287</ele>
        <time>2024-07-19T09:38:18Z</time>
      </trkpt>
      <trkpt lat="42.87818" lon="2.77595">
        <ele>288</ele>
        <time>2024-07-19T09:38:29Z</time>
      </trkpt>
      <trkpt lat="42.87816" lon="2.7759">
        <ele>289</ele>
        <time>2024-07-19T09:38:41Z</time>
      </trkpt>
      <trkpt lat="42.87819" lon="2.77587">
        <ele>290</ele>
        <time>2024-07-19T09:38:59Z</time>
      </trkpt>
      <trkpt lat="42.87819" lon="2.77587">
        <ele>290</ele>
        <time>2024-07-19T09:39:00Z</time>
      </trkpt>
      <trkpt lat="42.87824" lon="2.77587">
        <ele>290</ele>
        <time>2024-07-19T09:39:05Z</time>
      </trkpt>
      <trkpt lat="42.87829" lon="2.77583">
        <ele>290</ele>
        <time>2024-07-19T09:39:09Z</time>
      </trkpt>
      <trkpt lat="42.87832" lon="2.77578">
        <ele>290</ele>
        <time>2024-07-19T09:39:12Z</time>
      </trkpt>
      <trkpt lat="42.87835" lon="2.77573">
        <ele>291</ele>
        <time>2024-07-19T09:39:15Z</time>
      </trkpt>
      <trkpt lat="42.87835" lon="2.77566">
        <ele>292</ele>
        <time>2024-07-19T09:39:19Z</time>
      </trkpt>
      <trkpt lat="42.87829" lon="2.77566">
        <ele>292</ele>
        <time>2024-07-19T09:39:22Z</time>
      </trkpt>
      <trkpt lat="42.87825" lon="2.77564">
        <ele>293</ele>
        <time>2024-07-19T09:39:25Z</time>
      </trkpt>
      <trkpt lat="42.8782" lon="2.77563">
        <ele>294</ele>
        <time>2024-07-19T09:39:28Z</time>
      </trkpt>
      <trkpt lat="42.87816" lon="2.7756">
        <ele>294</ele>
        <time>2024-07-19T09:39:31Z</time>
      </trkpt>
      <trkpt lat="42.87812" lon="2.77556">
        <ele>295</ele>
        <time>2024-07-19T09:39:34Z</time>
      </trkpt>
      <trkpt lat="42.87808" lon="2.77552">
        <ele>296</ele>
        <time>2024-07-19T09:39:37Z</time>
      </trkpt>
      <trkpt lat="42.87804" lon="2.77547">
        <ele>296</ele>
        <time>2024-07-19T09:39:40Z</time>
      </trkpt>
      <trkpt lat="42.878" lon="2.77543">
        <ele>297</ele>
        <time>2024-07-19T09:39:43Z</time>
      </trkpt>
      <trkpt lat="42.87794" lon="2.77539">
        <ele>297</ele>
        <time>2024-07-19T09:39:46Z</time>
      </trkpt>
      <trkpt lat="42.8779" lon="2.77536">
        <ele>298</ele>
        <time>2024-07-19T09:39:48Z</time>
      </trkpt>
      <trkpt lat="42.87786" lon="2.77533">
        <ele>298</ele>
        <time>2024-07-19T09:39:50Z</time>
      </trkpt>
      <trkpt lat="42.87782" lon="2.7753">
        <ele>299</ele>
        <time>2024-07-19T09:39:52Z</time>
      </trkpt>
      <trkpt lat="42.87778" lon="2.77526">
        <ele>299</ele>
        <time>2024-07-19T09:39:54Z</time>
      </trkpt>
      <trkpt lat="42.87775" lon="2.77519">
        <ele>299</ele>
        <time>2024-07-19T09:39:57Z</time>
      </trkpt>
      <trkpt lat="42.87771" lon="2.77514">
        <ele>300</ele>
        <time>2024-07-19T09:40:00Z</time>
      </trkpt>
      <trkpt lat="42.87767" lon="2.77509">
        <ele>300</ele>
        <time>2024-07-19T09:40:02Z</time>
      </trkpt>
      <trkpt lat="42.87763" lon="2.77504">
        <ele>300</ele>
        <time>2024-07-19T09:40:05Z</time>
      </trkpt>
      <trkpt lat="42.87759" lon="2.77496">
        <ele>301</ele>
        <time>2024-07-19T09:40:08Z</time>
      </trkpt>
      <trkpt lat="42.87753" lon="2.77487">
        <ele>301</ele>
        <time>2024-07-19T09:40:12Z</time>
      </trkpt>
      <trkpt lat="42.87751" lon="2.7748">
        <ele>302</ele>
        <time>2024-07-19T09:40:14Z</time>
      </trkpt>
      <trkpt lat="42.87751" lon="2.77473">
        <ele>302</ele>
        <time>2024-07-19T09:40:16Z</time>
      </trkpt>
      <trkpt lat="42.87748" lon="2.77465">
        <ele>302</ele>
        <time>2024-07-19T09:40:18Z</time>
      </trkpt>
      <trkpt lat="42.87743" lon="2.77458">
        <ele>302</ele>
        <time>2024-07-19T09:40:20Z</time>
      </trkpt>
      <trkpt lat="42.87739" lon="2.77451">
        <ele>302</ele>
        <time>2024-07-19T09:40:22Z</time>
      </trkpt>
      <trkpt lat="42.87736" lon="2.77441">
        <ele>302</ele>
        <time>2024-07-19T09:40:24Z</time>
      </trkpt>
      <trkpt lat="42.87732" lon="2.77432">
        <ele>301</ele>
        <time>2024-07-19T09:40:26Z</time>
      </trkpt>
      <trkpt lat="42.87727" lon="2.77425">
        <ele>301</ele>
        <time>2024-07-19T09:40:28Z</time>
      </trkpt>
      <trkpt lat="42.8772" lon="2.77423">
        <ele>301</ele>
        <time>2024-07-19T09:40:30Z</time>
      </trkpt>
      <trkpt lat="42.87712" lon="2.77423">
        <ele>301</ele>
        <time>2024-07-19T09:40:32Z</time>
      </trkpt>
      <trkpt lat="42.87703" lon="2.77423">
        <ele>301</ele>
        <time>2024-07-19T09:40:34Z</time>
      </trkpt>
      <trkpt lat="42.87695" lon="2.77427">
        <ele>300</ele>
        <time>2024-07-19T09:40:36Z</time>
      </trkpt>
      <trkpt lat="42.87688" lon="2.77434">
        <ele>300</ele>
        <time>2024-07-19T09:40:38Z</time>
      </trkpt>
      <trkpt lat="42.87681" lon="2.77441">
        <ele>300</ele>
        <time>2024-07-19T09:40:40Z</time>
      </trkpt>
      <trkpt lat="42.87674" lon="2.77446">
        <ele>300</ele>
        <time>2024-07-19T09:40:42Z</time>
      </trkpt>
      <trkpt lat="42.87667" lon="2.77448">
        <ele>301</ele>
        <time>2024-07-19T09:40:44Z</time>
      </trkpt>
      <trkpt lat="42.87659" lon="2.77448">
        <ele>301</ele>
        <time>2024-07-19T09:40:46Z</time>
      </trkpt>
      <trkpt lat="42.87651" lon="2.77447">
        <ele>301</ele>
        <time>2024-07-19T09:40:48Z</time>
      </trkpt>
      <trkpt lat="42.87643" lon="2.77447">
        <ele>301</ele>
        <time>2024-07-19T09:40:50Z</time>
      </trkpt>
      <trkpt lat="42.87635" lon="2.77449">
        <ele>301</ele>
        <time>2024-07-19T09:40:52Z</time>
      </trkpt>
      <trkpt lat="42.87627" lon="2.77447">
        <ele>301</ele>
        <time>2024-07-19T09:40:54Z</time>
      </trkpt>
      <trkpt lat="42.8762" lon="2.77441">
        <ele>301</ele>
        <time>2024-07-19T09:40:56Z</time>
      </trkpt>
      <trkpt lat="42.87617" lon="2.77436">
        <ele>301</ele>
        <time>2024-07-19T09:40:57Z</time>
      </trkpt>
      <trkpt lat="42.87615" lon="2.77431">
        <ele>301</ele>
        <time>2024-07-19T09:40:58Z</time>
      </trkpt>
      <trkpt lat="42.87614" lon="2.77424">
        <ele>301</ele>
        <time>2024-07-19T09:40:59Z</time>
      </trkpt>
      <trkpt lat="42.87613" lon="2.77418">
        <ele>301</ele>
        <time>2024-07-19T09:41:00Z</time>
      </trkpt>
      <trkpt lat="42.87611" lon="2.77412">
        <ele>300</ele>
        <time>2024-07-19T09:41:01Z</time>
      </trkpt>
      <trkpt lat="42.87611" lon="2.77405">
        <ele>300</ele>
        <time>2024-07-19T09:41:02Z</time>
      </trkpt>
      <trkpt lat="42.87611" lon="2.77399">
        <ele>300</ele>
        <time>2024-07-19T09:41:03Z</time>
      </trkpt>
      <trkpt lat="42.87611" lon="2.77392">
        <ele>300</ele>
        <time>2024-07-19T09:41:04Z</time>
      </trkpt>
      <trkpt lat="42.87611" lon="2.77386">
        <ele>300</ele>
        <time>2024-07-19T09:41:05Z</time>
      </trkpt>
      <trkpt lat="42.8761" lon="2.77379">
        <ele>300</ele>
        <time>2024-07-19T09:41:06Z</time>
      </trkpt>
      <trkpt lat="42.87609" lon="2.77373">
        <ele>300</ele>
        <time>2024-07-19T09:41:07Z</time>
      </trkpt>
      <trkpt lat="42.87607" lon="2.77367">
        <ele>300</ele>
        <time>2024-07-19T09:41:08Z</time>
      </trkpt>
      <trkpt lat="42.87604" lon="2.77362">
        <ele>300</ele>
        <time>2024-07-19T09:41:09Z</time>
      </trkpt>
      <trkpt lat="42.876" lon="2.7736">
        <ele>300</ele>
        <time>2024-07-19T09:41:10Z</time>
      </trkpt>
      <trkpt lat="42.87591" lon="2.77359">
        <ele>300</ele>
        <time>2024-07-19T09:41:12Z</time>
      </trkpt>
      <trkpt lat="42.87587" lon="2.77358">
        <ele>300</ele>
        <time>2024-07-19T09:41:13Z</time>
      </trkpt>
      <trkpt lat="42.87582" lon="2.77357">
        <ele>300</ele>
        <time>2024-07-19T09:41:14Z</time>
      </trkpt>
      <trkpt lat="42.87574" lon="2.77353">
        <ele>300</ele>
        <time>2024-07-19T09:41:16Z</time>
      </trkpt>
      <trkpt lat="42.87568" lon="2.77346">
        <ele>301</ele>
        <time>2024-07-19T09:41:18Z</time>
      </trkpt>
      <trkpt lat="42.87562" lon="2.77339">
        <ele>301</ele>
        <time>2024-07-19T09:41:20Z</time>
      </trkpt>
      <trkpt lat="42.87555" lon="2.77333">
        <ele>301</ele>
        <time>2024-07-19T09:41:22Z</time>
      </trkpt>
      <trkpt lat="42.87552" lon="2.77328">
        <ele>302</ele>
        <time>2024-07-19T09:41:23Z</time>
      </trkpt>
      <trkpt lat="42.87549" lon="2.77323">
        <ele>302</ele>
        <time>2024-07-19T09:41:24Z</time>
      </trkpt>
      <trkpt lat="42.87547" lon="2.77317">
        <ele>302</ele>
        <time>2024-07-19T09:41:25Z</time>
      </trkpt>
      <trkpt lat="42.87544" lon="2.77311">
        <ele>302</ele>
        <time>2024-07-19T09:41:26Z</time>
      </trkpt>
      <trkpt lat="42.87541" lon="2.77306">
        <ele>302</ele>
        <time>2024-07-19T09:41:27Z</time>
      </trkpt>
      <trkpt lat="42.87537" lon="2.77302">
        <ele>302</ele>
        <time>2024-07-19T09:41:28Z</time>
      </trkpt>
      <trkpt lat="42.87534" lon="2.77298">
        <ele>302</ele>
        <time>2024-07-19T09:41:29Z</time>
      </trkpt>
      <trkpt lat="42.8753" lon="2.77295">
        <ele>302</ele>
        <time>2024-07-19T09:41:30Z</time>
      </trkpt>
      <trkpt lat="42.87526" lon="2.7729">
        <ele>302</ele>
        <time>2024-07-19T09:41:31Z</time>
      </trkpt>
      <trkpt lat="42.87523" lon="2.77286">
        <ele>302</ele>
        <time>2024-07-19T09:41:32Z</time>
      </trkpt>
      <trkpt lat="42.8752" lon="2.77281">
        <ele>302</ele>
        <time>2024-07-19T09:41:33Z</time>
      </trkpt>
      <trkpt lat="42.87518" lon="2.77275">
        <ele>302</ele>
        <time>2024-07-19T09:41:34Z</time>
      </trkpt>
      <trkpt lat="42.87515" lon="2.7727">
        <ele>302</ele>
        <time>2024-07-19T09:41:35Z</time>
      </trkpt>
      <trkpt lat="42.87513" lon="2.77264">
        <ele>302</ele>
        <time>2024-07-19T09:41:36Z</time>
      </trkpt>
      <trkpt lat="42.8751" lon="2.77259">
        <ele>302</ele>
        <time>2024-07-19T09:41:37Z</time>
      </trkpt>
      <trkpt lat="42.87508" lon="2.77253">
        <ele>302</ele>
        <time>2024-07-19T09:41:38Z</time>
      </trkpt>
      <trkpt lat="42.87505" lon="2.77247">
        <ele>302</ele>
        <time>2024-07-19T09:41:39Z</time>
      </trkpt>
      <trkpt lat="42.87503" lon="2.77242">
        <ele>302</ele>
        <time>2024-07-19T09:41:40Z</time>
      </trkpt>
      <trkpt lat="42.875" lon="2.77236">
        <ele>302</ele>
        <time>2024-07-19T09:41:41Z</time>
      </trkpt>
      <trkpt lat="42.87499" lon="2.77229">
        <ele>302</ele>
        <time>2024-07-19T09:41:42Z</time>
      </trkpt>
      <trkpt lat="42.87499" lon="2.77222">
        <ele>302</ele>
        <time>2024-07-19T09:41:43Z</time>
      </trkpt>
      <trkpt lat="42.87498" lon="2.77216">
        <ele>302</ele>
        <time>2024-07-19T09:41:44Z</time>
      </trkpt>
      <trkpt lat="42.87497" lon="2.77209">
        <ele>302</ele>
        <time>2024-07-19T09:41:45Z</time>
      </trkpt>
      <trkpt lat="42.87496" lon="2.77202">
        <ele>302</ele>
        <time>2024-07-19T09:41:46Z</time>
      </trkpt>
      <trkpt lat="42.87494" lon="2.77196">
        <ele>302</ele>
        <time>2024-07-19T09:41:47Z</time>
      </trkpt>
      <trkpt lat="42.87491" lon="2.7719">
        <ele>302</ele>
        <time>2024-07-19T09:41:48Z</time>
      </trkpt>
      <trkpt lat="42.87489" lon="2.77184">
        <ele>302</ele>
        <time>2024-07-19T09:41:49Z</time>
      </trkpt>
      <trkpt lat="42.87486" lon="2.77179">
        <ele>301</ele>
        <time>2024-07-19T09:41:50Z</time>
      </trkpt>
      <trkpt lat="42.87483" lon="2.77173">
        <ele>301</ele>
        <time>2024-07-19T09:41:51Z</time>
      </trkpt>
      <trkpt lat="42.87481" lon="2.77167">
        <ele>301</ele>
        <time>2024-07-19T09:41:52Z</time>
      </trkpt>
      <trkpt lat="42.87479" lon="2.77161">
        <ele>301</ele>
        <time>2024-07-19T09:41:53Z</time>
      </trkpt>
      <trkpt lat="42.87478" lon="2.77155">
        <ele>301</ele>
        <time>2024-07-19T09:41:54Z</time>
      </trkpt>
      <trkpt lat="42.87478" lon="2.77148">
        <ele>301</ele>
        <time>2024-07-19T09:41:55Z</time>
      </trkpt>
      <trkpt lat="42.87477" lon="2.77141">
        <ele>301</ele>
        <time>2024-07-19T09:41:56Z</time>
      </trkpt>
      <trkpt lat="42.87477" lon="2.77134">
        <ele>301</ele>
        <time>2024-07-19T09:41:57Z</time>
      </trkpt>
      <trkpt lat="42.87476" lon="2.77127">
        <ele>301</ele>
        <time>2024-07-19T09:41:58Z</time>
      </trkpt>
      <trkpt lat="42.87474" lon="2.77121">
        <ele>300</ele>
        <time>2024-07-19T09:41:59Z</time>
      </trkpt>
      <trkpt lat="42.87472" lon="2.77115">
        <ele>300</ele>
        <time>2024-07-19T09:42:00Z</time>
      </trkpt>
      <trkpt lat="42.87469" lon="2.77109">
        <ele>300</ele>
        <time>2024-07-19T09:42:01Z</time>
      </trkpt>
      <trkpt lat="42.87466" lon="2.77103">
        <ele>300</ele>
        <time>2024-07-19T09:42:02Z</time>
      </trkpt>
      <trkpt lat="42.87464" lon="2.77096">
        <ele>300</ele>
        <time>2024-07-19T09:42:03Z</time>
      </trkpt>
      <trkpt lat="42.87462" lon="2.7709">
        <ele>300</ele>
        <time>2024-07-19T09:42:04Z</time>
      </trkpt>
      <trkpt lat="42.87461" lon="2.77083">
        <ele>300</ele>
        <time>2024-07-19T09:42:05Z</time>
      </trkpt>
      <trkpt lat="42.87458" lon="2.77077">
        <ele>300</ele>
        <time>2024-07-19T09:42:06Z</time>
      </trkpt>
      <trkpt lat="42.87455" lon="2.77071">
        <ele>300</ele>
        <time>2024-07-19T09:42:07Z</time>
      </trkpt>
      <trkpt lat="42.87451" lon="2.77066">
        <ele>300</ele>
        <time>2024-07-19T09:42:08Z</time>
      </trkpt>
      <trkpt lat="42.87448" lon="2.77061">
        <ele>300</ele>
        <time>2024-07-19T09:42:09Z</time>
      </trkpt>
      <trkpt lat="42.87444" lon="2.77056">
        <ele>300</ele>
        <time>2024-07-19T09:42:10Z</time>
      </trkpt>
      <trkpt lat="42.8744" lon="2.77051">
        <ele>300</ele>
        <time>2024-07-19T09:42:11Z</time>
      </trkpt>
      <trkpt lat="42.87436" lon="2.77045">
        <ele>300</ele>
        <time>2024-07-19T09:42:12Z</time>
      </trkpt>
      <trkpt lat="42.87434" lon="2.77038">
        <ele>300</ele>
        <time>2024-07-19T09:42:13Z</time>
      </trkpt>
      <trkpt lat="42.87432" lon="2.77031">
        <ele>300</ele>
        <time>2024-07-19T09:42:14Z</time>
      </trkpt>
      <trkpt lat="42.87431" lon="2.77024">
        <ele>299</ele>
        <time>2024-07-19T09:42:15Z</time>
      </trkpt>
      <trkpt lat="42.87429" lon="2.77017">
        <ele>299</ele>
        <time>2024-07-19T09:42:16Z</time>
      </trkpt>
      <trkpt lat="42.87426" lon="2.77011">
        <ele>299</ele>
        <time>2024-07-19T09:42:17Z</time>
      </trkpt>
      <trkpt lat="42.87423" lon="2.77004">
        <ele>299</ele>
        <time>2024-07-19T09:42:18Z</time>
      </trkpt>
      <trkpt lat="42.87421" lon="2.76998">
        <ele>299</ele>
        <time>2024-07-19T09:42:19Z</time>
      </trkpt>
      <trkpt lat="42.87419" lon="2.76991">
        <ele>299</ele>
        <time>2024-07-19T09:42:20Z</time>
      </trkpt>
      <trkpt lat="42.87417" lon="2.76985">
        <ele>300</ele>
        <time>2024-07-19T09:42:21Z</time>
      </trkpt>
      <trkpt lat="42.87414" lon="2.76978">
        <ele>300</ele>
        <time>2024-07-19T09:42:22Z</time>
      </trkpt>
      <trkpt lat="42.87413" lon="2.76972">
        <ele>300</ele>
        <time>2024-07-19T09:42:23Z</time>
      </trkpt>
      <trkpt lat="42.87412" lon="2.76965">
        <ele>300</ele>
        <time>2024-07-19T09:42:24Z</time>
      </trkpt>
      <trkpt lat="42.87412" lon="2.76958">
        <ele>300</ele>
        <time>2024-07-19T09:42:25Z</time>
      </trkpt>
      <trkpt lat="42.87414" lon="2.76952">
        <ele>300</ele>
        <time>2024-07-19T09:42:26Z</time>
      </trkpt>
      <trkpt lat="42.87417" lon="2.76947">
        <ele>300</ele>
        <time>2024-07-19T09:42:27Z</time>
      </trkpt>
      <trkpt lat="42.8742" lon="2.76942">
        <ele>300</ele>
        <time>2024-07-19T09:42:28Z</time>
      </trkpt>
      <trkpt lat="42.87424" lon="2.76939">
        <ele>300</ele>
        <time>2024-07-19T09:42:29Z</time>
      </trkpt>
      <trkpt lat="42.87428" lon="2.76935">
        <ele>300</ele>
        <time>2024-07-19T09:42:30Z</time>
      </trkpt>
      <trkpt lat="42.87432" lon="2.7693">
        <ele>300</ele>
        <time>2024-07-19T09:42:31Z</time>
      </trkpt>
      <trkpt lat="42.87435" lon="2.76925">
        <ele>300</ele>
        <time>2024-07-19T09:42:32Z</time>
      </trkpt>
      <trkpt lat="42.87438" lon="2.76919">
        <ele>299</ele>
        <time>2024-07-19T09:42:33Z</time>
      </trkpt>
      <trkpt lat="42.87441" lon="2.76913">
        <ele>299</ele>
        <time>2024-07-19T09:42:34Z</time>
      </trkpt>
      <trkpt lat="42.87444" lon="2.76907">
        <ele>299</ele>
        <time>2024-07-19T09:42:35Z</time>
      </trkpt>
      <trkpt lat="42.87447" lon="2.76901">
        <ele>299</ele>
        <time>2024-07-19T09:42:36Z</time>
      </trkpt>
      <trkpt lat="42.87448" lon="2.76895">
        <ele>299</ele>
        <time>2024-07-19T09:42:37Z</time>
      </trkpt>
      <trkpt lat="42.87448" lon="2.76888">
        <ele>299</ele>
        <time>2024-07-19T09:42:38Z</time>
      </trkpt>
      <trkpt lat="42.87445" lon="2.76876">
        <ele>299</ele>
        <time>2024-07-19T09:42:40Z</time>
      </trkpt>
      <trkpt lat="42.87442" lon="2.76872">
        <ele>300</ele>
        <time>2024-07-19T09:42:41Z</time>
      </trkpt>
      <trkpt lat="42.87439" lon="2.76867">
        <ele>300</ele>
        <time>2024-07-19T09:42:42Z</time>
      </trkpt>
      <trkpt lat="42.87435" lon="2.76863">
        <ele>300</ele>
        <time>2024-07-19T09:42:43Z</time>
      </trkpt>
      <trkpt lat="42.8743" lon="2.76859">
        <ele>299</ele>
        <time>2024-07-19T09:42:44Z</time>
      </trkpt>
      <trkpt lat="42.87426" lon="2.76854">
        <ele>299</ele>
        <time>2024-07-19T09:42:45Z</time>
      </trkpt>
      <trkpt lat="42.87424" lon="2.76847">
        <ele>299</ele>
        <time>2024-07-19T09:42:46Z</time>
      </trkpt>
      <trkpt lat="42.8742" lon="2.76841">
        <ele>299</ele>
        <time>2024-07-19T09:42:47Z</time>
      </trkpt>
      <trkpt lat="42.87417" lon="2.76834">
        <ele>299</ele>
        <time>2024-07-19T09:42:48Z</time>
      </trkpt>
      <trkpt lat="42.87414" lon="2.76828">
        <ele>299</ele>
        <time>2024-07-19T09:42:49Z</time>
      </trkpt>
      <trkpt lat="42.87411" lon="2.76823">
        <ele>298</ele>
        <time>2024-07-19T09:42:50Z</time>
      </trkpt>
      <trkpt lat="42.87408" lon="2.76816">
        <ele>298</ele>
        <time>2024-07-19T09:42:51Z</time>
      </trkpt>
      <trkpt lat="42.87404" lon="2.76811">
        <ele>298</ele>
        <time>2024-07-19T09:42:52Z</time>
      </trkpt>
      <trkpt lat="42.87401" lon="2.76805">
        <ele>298</ele>
        <time>2024-07-19T09:42:53Z</time>
      </trkpt>
      <trkpt lat="42.87397" lon="2.768">
        <ele>298</ele>
        <time>2024-07-19T09:42:54Z</time>
      </trkpt>
      <trkpt lat="42.87393" lon="2.76796">
        <ele>298</ele>
        <time>2024-07-19T09:42:55Z</time>
      </trkpt>
      <trkpt lat="42.87388" lon="2.76792">
        <ele>297</ele>
        <time>2024-07-19T09:42:56Z</time>
      </trkpt>
      <trkpt lat="42.87383" lon="2.76789">
        <ele>297</ele>
        <time>2024-07-19T09:42:57Z</time>
      </trkpt>
      <trkpt lat="42.87379" lon="2.76785">
        <ele>297</ele>
        <time>2024-07-19T09:42:58Z</time>
      </trkpt>
      <trkpt lat="42.87373" lon="2.76782">
        <ele>297</ele>
        <time>2024-07-19T09:42:59Z</time>
      </trkpt>
      <trkpt lat="42.87368" lon="2.76779">
        <ele>296</ele>
        <time>2024-07-19T09:43:00Z</time>
      </trkpt>
      <trkpt lat="42.87362" lon="2.76777">
        <ele>296</ele>
        <time>2024-07-19T09:43:01Z</time>
      </trkpt>
      <trkpt lat="42.87357" lon="2.76777">
        <ele>296</ele>
        <time>2024-07-19T09:43:02Z</time>
      </trkpt>
      <trkpt lat="42.87351" lon="2.76774">
        <ele>296</ele>
        <time>2024-07-19T09:43:03Z</time>
      </trkpt>
      <trkpt lat="42.87346" lon="2.7677">
        <ele>296</ele>
        <time>2024-07-19T09:43:04Z</time>
      </trkpt>
      <trkpt lat="42.87341" lon="2.76765">
        <ele>295</ele>
        <time>2024-07-19T09:43:05Z</time>
      </trkpt>
      <trkpt lat="42.87336" lon="2.76761">
        <ele>295</ele>
        <time>2024-07-19T09:43:06Z</time>
      </trkpt>
      <trkpt lat="42.8733" lon="2.76758">
        <ele>295</ele>
        <time>2024-07-19T09:43:07Z</time>
      </trkpt>
      <trkpt lat="42.87325" lon="2.76754">
        <ele>295</ele>
        <time>2024-07-19T09:43:08Z</time>
      </trkpt>
      <trkpt lat="42.87321" lon="2.76749">
        <ele>296</ele>
        <time>2024-07-19T09:43:09Z</time>
      </trkpt>
      <trkpt lat="42.87317" lon="2.76744">
        <ele>296</ele>
        <time>2024-07-19T09:43:10Z</time>
      </trkpt>
      <trkpt lat="42.87312" lon="2.76741">
        <ele>296</ele>
        <time>2024-07-19T09:43:11Z</time>
      </trkpt>
      <trkpt lat="42.87307" lon="2.76739">
        <ele>296</ele>
        <time>2024-07-19T09:43:12Z</time>
      </trkpt>
      <trkpt lat="42.87302" lon="2.76738">
        <ele>297</ele>
        <time>2024-07-19T09:43:13Z</time>
      </trkpt>
      <trkpt lat="42.87298" lon="2.76735">
        <ele>297</ele>
        <time>2024-07-19T09:43:14Z</time>
      </trkpt>
      <trkpt lat="42.87291" lon="2.7673">
        <ele>297</ele>
        <time>2024-07-19T09:43:16Z</time>
      </trkpt>
      <trkpt lat="42.87285" lon="2.76722">
        <ele>297</ele>
        <time>2024-07-19T09:43:18Z</time>
      </trkpt>
      <trkpt lat="42.87279" lon="2.76716">
        <ele>298</ele>
        <time>2024-07-19T09:43:20Z</time>
      </trkpt>
      <trkpt lat="42.87273" lon="2.76708">
        <ele>298</ele>
        <time>2024-07-19T09:43:22Z</time>
      </trkpt>
      <trkpt lat="42.87265" lon="2.76703">
        <ele>298</ele>
        <time>2024-07-19T09:43:24Z</time>
      </trkpt>
      <trkpt lat="42.8726" lon="2.767">
        <ele>299</ele>
        <time>2024-07-19T09:43:25Z</time>
      </trkpt>
      <trkpt lat="42.87256" lon="2.76696">
        <ele>299</ele>
        <time>2024-07-19T09:43:26Z</time>
      </trkpt>
      <trkpt lat="42.87252" lon="2.76694">
        <ele>299</ele>
        <time>2024-07-19T09:43:27Z</time>
      </trkpt>
      <trkpt lat="42.87248" lon="2.76691">
        <ele>299</ele>
        <time>2024-07-19T09:43:28Z</time>
      </trkpt>
      <trkpt lat="42.87244" lon="2.76688">
        <ele>299</ele>
        <time>2024-07-19T09:43:29Z</time>
      </trkpt>
      <trkpt lat="42.87239" lon="2.76686">
        <ele>299</ele>
        <time>2024-07-19T09:43:30Z</time>
      </trkpt>
      <trkpt lat="42.87235" lon="2.76683">
        <ele>299</ele>
        <time>2024-07-19T09:43:31Z</time>
      </trkpt>
      <trkpt lat="42.8723" lon="2.76682">
        <ele>299</ele>
        <time>2024-07-19T09:43:32Z</time>
      </trkpt>
      <trkpt lat="42.87225" lon="2.76681">
        <ele>299</ele>
        <time>2024-07-19T09:43:33Z</time>
      </trkpt>
      <trkpt lat="42.8722" lon="2.7668">
        <ele>299</ele>
        <time>2024-07-19T09:43:34Z</time>
      </trkpt>
      <trkpt lat="42.87215" lon="2.76679">
        <ele>299</ele>
        <time>2024-07-19T09:43:35Z</time>
      </trkpt>
      <trkpt lat="42.8721" lon="2.76678">
        <ele>299</ele>
        <time>2024-07-19T09:43:36Z</time>
      </trkpt>
      <trkpt lat="42.87205" lon="2.76677">
        <ele>299</ele>
        <time>2024-07-19T09:43:37Z</time>
      </trkpt>
      <trkpt lat="42.87199" lon="2.76676">
        <ele>299</ele>
        <time>2024-07-19T09:43:38Z</time>
      </trkpt>
      <trkpt lat="42.87194" lon="2.76676">
        <ele>299</ele>
        <time>2024-07-19T09:43:39Z</time>
      </trkpt>
      <trkpt lat="42.87189" lon="2.76676">
        <ele>299</ele>
        <time>2024-07-19T09:43:40Z</time>
      </trkpt>
      <trkpt lat="42.87184" lon="2.76677">
        <ele>299</ele>
        <time>2024-07-19T09:43:41Z</time>
      </trkpt>
      <trkpt lat="42.87179" lon="2.7668">
        <ele>298</ele>
        <time>2024-07-19T09:43:42Z</time>
      </trkpt>
      <trkpt lat="42.87175" lon="2.76684">
        <ele>298</ele>
        <time>2024-07-19T09:43:43Z</time>
      </trkpt>
      <trkpt lat="42.8717" lon="2.76686">
        <ele>298</ele>
        <time>2024-07-19T09:43:44Z</time>
      </trkpt>
      <trkpt lat="42.87166" lon="2.76689">
        <ele>298</ele>
        <time>2024-07-19T09:43:45Z</time>
      </trkpt>
      <trkpt lat="42.87159" lon="2.76695">
        <ele>299</ele>
        <time>2024-07-19T09:43:47Z</time>
      </trkpt>
      <trkpt lat="42.87156" lon="2.76698">
        <ele>299</ele>
        <time>2024-07-19T09:43:48Z</time>
      </trkpt>
      <trkpt lat="42.87152" lon="2.76702">
        <ele>299</ele>
        <time>2024-07-19T09:43:49Z</time>
      </trkpt>
      <trkpt lat="42.87149" lon="2.76708">
        <ele>299</ele>
        <time>2024-07-19T09:43:50Z</time>
      </trkpt>
      <trkpt lat="42.87146" lon="2.76713">
        <ele>299</ele>
        <time>2024-07-19T09:43:51Z</time>
      </trkpt>
      <trkpt lat="42.87142" lon="2.76718">
        <ele>299</ele>
        <time>2024-07-19T09:43:52Z</time>
      </trkpt>
      <trkpt lat="42.87139" lon="2.76723">
        <ele>299</ele>
        <time>2024-07-19T09:43:53Z</time>
      </trkpt>
      <trkpt lat="42.87135" lon="2.76729">
        <ele>299</ele>
        <time>2024-07-19T09:43:54Z</time>
      </trkpt>
      <trkpt lat="42.87132" lon="2.76734">
        <ele>299</ele>
        <time>2024-07-19T09:43:55Z</time>
      </trkpt>
      <trkpt lat="42.87129" lon="2.7674">
        <ele>299</ele>
        <time>2024-07-19T09:43:56Z</time>
      </trkpt>
      <trkpt lat="42.87126" lon="2.76745">
        <ele>299</ele>
        <time>2024-07-19T09:43:57Z</time>
      </trkpt>
      <trkpt lat="42.87122" lon="2.76751">
        <ele>299</ele>
        <time>2024-07-19T09:43:58Z</time>
      </trkpt>
      <trkpt lat="42.87119" lon="2.76757">
        <ele>299</ele>
        <time>2024-07-19T09:43:59Z</time>
      </trkpt>
      <trkpt lat="42.87116" lon="2.76763">
        <ele>299</ele>
        <time>2024-07-19T09:44:00Z</time>
      </trkpt>
      <trkpt lat="42.87113" lon="2.76769">
        <ele>299</ele>
        <time>2024-07-19T09:44:01Z</time>
      </trkpt>
      <trkpt lat="42.87109" lon="2.76775">
        <ele>299</ele>
        <time>2024-07-19T09:44:02Z</time>
      </trkpt>
      <trkpt lat="42.87106" lon="2.7678">
        <ele>299</ele>
        <time>2024-07-19T09:44:03Z</time>
      </trkpt>
      <trkpt lat="42.87102" lon="2.76787">
        <ele>299</ele>
        <time>2024-07-19T09:44:04Z</time>
      </trkpt>
      <trkpt lat="42.87099" lon="2.76792">
        <ele>299</ele>
        <time>2024-07-19T09:44:05Z</time>
      </trkpt>
      <trkpt lat="42.87095" lon="2.76798">
        <ele>299</ele>
        <time>2024-07-19T09:44:06Z</time>
      </trkpt>
      <trkpt lat="42.87091" lon="2.76803">
        <ele>299</ele>
        <time>2024-07-19T09:44:07Z</time>
      </trkpt>
      <trkpt lat="42.87088" lon="2.76809">
        <ele>299</ele>
        <time>2024-07-19T09:44:08Z</time>
      </trkpt>
      <trkpt lat="42.87085" lon="2.76815">
        <ele>299</ele>
        <time>2024-07-19T09:44:09Z</time>
      </trkpt>
      <trkpt lat="42.87081" lon="2.7682">
        <ele>299</ele>
        <time>2024-07-19T09:44:10Z</time>
      </trkpt>
      <trkpt lat="42.87078" lon="2.76826">
        <ele>299</ele>
        <time>2024-07-19T09:44:11Z</time>
      </trkpt>
      <trkpt lat="42.87074" lon="2.76832">
        <ele>299</ele>
        <time>2024-07-19T09:44:12Z</time>
      </trkpt>
      <trkpt lat="42.87071" lon="2.76837">
        <ele>299</ele>
        <time>2024-07-19T09:44:13Z</time>
      </trkpt>
      <trkpt lat="42.87068" lon="2.76843">
        <ele>299</ele>
        <time>2024-07-19T09:44:14Z</time>
      </trkpt>
      <trkpt lat="42.87065" lon="2.76848">
        <ele>299</ele>
        <time>2024-07-19T09:44:15Z</time>
      </trkpt>
      <trkpt lat="42.87062" lon="2.76853">
        <ele>299</ele>
        <time>2024-07-19T09:44:16Z</time>
      </trkpt>
      <trkpt lat="42.87059" lon="2.76859">
        <ele>299</ele>
        <time>2024-07-19T09:44:17Z</time>
      </trkpt>
      <trkpt lat="42.87056" lon="2.76864">
        <ele>299</ele>
        <time>2024-07-19T09:44:18Z</time>
      </trkpt>
      <trkpt lat="42.87053" lon="2.76868">
        <ele>299</ele>
        <time>2024-07-19T09:44:19Z</time>
      </trkpt>
      <trkpt lat="42.87046" lon="2.76871">
        <ele>299</ele>
        <time>2024-07-19T09:44:21Z</time>
      </trkpt>
      <trkpt lat="42.87042" lon="2.76869">
        <ele>299</ele>
        <time>2024-07-19T09:44:23Z</time>
      </trkpt>
      <trkpt lat="42.87039" lon="2.76864">
        <ele>299</ele>
        <time>2024-07-19T09:44:26Z</time>
      </trkpt>
      <trkpt lat="42.87036" lon="2.76857">
        <ele>299</ele>
        <time>2024-07-19T09:44:28Z</time>
      </trkpt>
      <trkpt lat="42.87032" lon="2.7685">
        <ele>299</ele>
        <time>2024-07-19T09:44:30Z</time>
      </trkpt>
      <trkpt lat="42.87026" lon="2.76846">
        <ele>299</ele>
        <time>2024-07-19T09:44:32Z</time>
      </trkpt>
      <trkpt lat="42.87018" lon="2.76845">
        <ele>299</ele>
        <time>2024-07-19T09:44:34Z</time>
      </trkpt>
      <trkpt lat="42.8701" lon="2.76842">
        <ele>299</ele>
        <time>2024-07-19T09:44:36Z</time>
      </trkpt>
      <trkpt lat="42.87003" lon="2.76837">
        <ele>299</ele>
        <time>2024-07-19T09:44:38Z</time>
      </trkpt>
      <trkpt lat="42.86998" lon="2.76829">
        <ele>299</ele>
        <time>2024-07-19T09:44:40Z</time>
      </trkpt>
      <trkpt lat="42.86994" lon="2.7682">
        <ele>299</ele>
        <time>2024-07-19T09:44:42Z</time>
      </trkpt>
      <trkpt lat="42.86993" lon="2.7681">
        <ele>299</ele>
        <time>2024-07-19T09:44:44Z</time>
      </trkpt>
      <trkpt lat="42.86993" lon="2.76798">
        <ele>299</ele>
        <time>2024-07-19T09:44:46Z</time>
      </trkpt>
      <trkpt lat="42.86992" lon="2.76787">
        <ele>299</ele>
        <time>2024-07-19T09:44:48Z</time>
      </trkpt>
      <trkpt lat="42.86989" lon="2.76777">
        <ele>300</ele>
        <time>2024-07-19T09:44:50Z</time>
      </trkpt>
      <trkpt lat="42.86987" lon="2.76767">
        <ele>300</ele>
        <time>2024-07-19T09:44:52Z</time>
      </trkpt>
      <trkpt lat="42.86987" lon="2.76756">
        <ele>300</ele>
        <time>2024-07-19T09:44:54Z</time>
      </trkpt>
      <trkpt lat="42.86988" lon="2.76745">
        <ele>301</ele>
        <time>2024-07-19T09:44:56Z</time>
      </trkpt>
      <trkpt lat="42.86989" lon="2.76734">
        <ele>301</ele>
        <time>2024-07-19T09:44:58Z</time>
      </trkpt>
      <trkpt lat="42.86991" lon="2.76722">
        <ele>301</ele>
        <time>2024-07-19T09:45:00Z</time>
      </trkpt>
      <trkpt lat="42.86993" lon="2.7671">
        <ele>301</ele>
        <time>2024-07-19T09:45:02Z</time>
      </trkpt>
      <trkpt lat="42.86994" lon="2.76699">
        <ele>301</ele>
        <time>2024-07-19T09:45:04Z</time>
      </trkpt>
      <trkpt lat="42.86994" lon="2.76688">
        <ele>301</ele>
        <time>2024-07-19T09:45:06Z</time>
      </trkpt>
      <trkpt lat="42.86995" lon="2.76677">
        <ele>301</ele>
        <time>2024-07-19T09:45:08Z</time>
      </trkpt>
      <trkpt lat="42.86999" lon="2.76668">
        <ele>301</ele>
        <time>2024-07-19T09:45:10Z</time>
      </trkpt>
      <trkpt lat="42.87005" lon="2.7666">
        <ele>301</ele>
        <time>2024-07-19T09:45:12Z</time>
      </trkpt>
      <trkpt lat="42.87009" lon="2.76651">
        <ele>301</ele>
        <time>2024-07-19T09:45:14Z</time>
      </trkpt>
      <trkpt lat="42.87012" lon="2.7664">
        <ele>301</ele>
        <time>2024-07-19T09:45:16Z</time>
      </trkpt>
      <trkpt lat="42.87014" lon="2.7663">
        <ele>301</ele>
        <time>2024-07-19T09:45:18Z</time>
      </trkpt>
      <trkpt lat="42.87015" lon="2.76619">
        <ele>301</ele>
        <time>2024-07-19T09:45:20Z</time>
      </trkpt>
      <trkpt lat="42.87016" lon="2.76609">
        <ele>301</ele>
        <time>2024-07-19T09:45:22Z</time>
      </trkpt>
      <trkpt lat="42.87017" lon="2.76598">
        <ele>301</ele>
        <time>2024-07-19T09:45:24Z</time>
      </trkpt>
      <trkpt lat="42.87019" lon="2.76588">
        <ele>301</ele>
        <time>2024-07-19T09:45:26Z</time>
      </trkpt>
      <trkpt lat="42.87021" lon="2.76578">
        <ele>301</ele>
        <time>2024-07-19T09:45:28Z</time>
      </trkpt>
      <trkpt lat="42.87022" lon="2.76567">
        <ele>301</ele>
        <time>2024-07-19T09:45:30Z</time>
      </trkpt>
      <trkpt lat="42.87022" lon="2.76556">
        <ele>301</ele>
        <time>2024-07-19T09:45:32Z</time>
      </trkpt>
      <trkpt lat="42.87023" lon="2.76545">
        <ele>302</ele>
        <time>2024-07-19T09:45:34Z</time>
      </trkpt>
      <trkpt lat="42.87024" lon="2.76535">
        <ele>302</ele>
        <time>2024-07-19T09:45:36Z</time>
      </trkpt>
      <trkpt lat="42.87025" lon="2.76525">
        <ele>302</ele>
        <time>2024-07-19T09:45:38Z</time>
      </trkpt>
      <trkpt lat="42.87026" lon="2.76516">
        <ele>303</ele>
        <time>2024-07-19T09:45:40Z</time>
      </trkpt>
      <trkpt lat="42.87027" lon="2.76506">
        <ele>303</ele>
        <time>2024-07-19T09:45:42Z</time>
      </trkpt>
      <trkpt lat="42.87029" lon="2.76495">
        <ele>303</ele>
        <time>2024-07-19T09:45:44Z</time>
      </trkpt>
      <trkpt lat="42.8703" lon="2.76486">
        <ele>303</ele>
        <time>2024-07-19T09:45:46Z</time>
      </trkpt>
      <trkpt lat="42.87032" lon="2.76467">
        <ele>303</ele>
        <time>2024-07-19T09:45:50Z</time>
      </trkpt>
      <trkpt lat="42.87034" lon="2.76457">
        <ele>303</ele>
        <time>2024-07-19T09:45:52Z</time>
      </trkpt>
      <trkpt lat="42.87035" lon="2.76448">
        <ele>303</ele>
        <time>2024-07-19T09:45:54Z</time>
      </trkpt>
      <trkpt lat="42.87037" lon="2.76439">
        <ele>303</ele>
        <time>2024-07-19T09:45:56Z</time>
      </trkpt>
      <trkpt lat="42.87038" lon="2.7643">
        <ele>303</ele>
        <time>2024-07-19T09:45:58Z</time>
      </trkpt>
      <trkpt lat="42.87038" lon="2.7642">
        <ele>303</ele>
        <time>2024-07-19T09:46:00Z</time>
      </trkpt>
      <trkpt lat="42.87039" lon="2.76411">
        <ele>302</ele>
        <time>2024-07-19T09:46:02Z</time>
      </trkpt>
      <trkpt lat="42.8704" lon="2.76403">
        <ele>302</ele>
        <time>2024-07-19T09:46:04Z</time>
      </trkpt>
      <trkpt lat="42.8704" lon="2.76394">
        <ele>302</ele>
        <time>2024-07-19T09:46:06Z</time>
      </trkpt>
      <trkpt lat="42.8704" lon="2.76384">
        <ele>302</ele>
        <time>2024-07-19T09:46:08Z</time>
      </trkpt>
      <trkpt lat="42.8704" lon="2.76375">
        <ele>301</ele>
        <time>2024-07-19T09:46:10Z</time>
      </trkpt>
      <trkpt lat="42.8704" lon="2.76366">
        <ele>301</ele>
        <time>2024-07-19T09:46:12Z</time>
      </trkpt>
      <trkpt lat="42.8704" lon="2.76357">
        <ele>301</ele>
        <time>2024-07-19T09:46:14Z</time>
      </trkpt>
      <trkpt lat="42.87037" lon="2.76348">
        <ele>301</ele>
        <time>2024-07-19T09:46:16Z</time>
      </trkpt>
      <trkpt lat="42.87034" lon="2.7634">
        <ele>301</ele>
        <time>2024-07-19T09:46:18Z</time>
      </trkpt>
      <trkpt lat="42.8703" lon="2.76332">
        <ele>301</ele>
        <time>2024-07-19T09:46:20Z</time>
      </trkpt>
      <trkpt lat="42.87026" lon="2.76325">
        <ele>301</ele>
        <time>2024-07-19T09:46:22Z</time>
      </trkpt>
      <trkpt lat="42.87022" lon="2.7632">
        <ele>301</ele>
        <time>2024-07-19T09:46:24Z</time>
      </trkpt>
      <trkpt lat="42.87016" lon="2.76318">
        <ele>301</ele>
        <time>2024-07-19T09:46:26Z</time>
      </trkpt>
      <trkpt lat="42.87009" lon="2.76314">
        <ele>301</ele>
        <time>2024-07-19T09:46:28Z</time>
      </trkpt>
      <trkpt lat="42.87004" lon="2.76309">
        <ele>301</ele>
        <time>2024-07-19T09:46:30Z</time>
      </trkpt>
      <trkpt lat="42.86998" lon="2.76305">
        <ele>301</ele>
        <time>2024-07-19T09:46:32Z</time>
      </trkpt>
      <trkpt lat="42.86991" lon="2.76301">
        <ele>301</ele>
        <time>2024-07-19T09:46:34Z</time>
      </trkpt>
      <trkpt lat="42.86984" lon="2.76298">
        <ele>301</ele>
        <time>2024-07-19T09:46:36Z</time>
      </trkpt>
      <trkpt lat="42.86976" lon="2.76297">
        <ele>301</ele>
        <time>2024-07-19T09:46:38Z</time>
      </trkpt>
      <trkpt lat="42.86968" lon="2.76298">
        <ele>300</ele>
        <time>2024-07-19T09:46:40Z</time>
      </trkpt>
      <trkpt lat="42.8696" lon="2.76298">
        <ele>300</ele>
        <time>2024-07-19T09:46:42Z</time>
      </trkpt>
      <trkpt lat="42.86951" lon="2.76298">
        <ele>300</ele>
        <time>2024-07-19T09:46:44Z</time>
      </trkpt>
      <trkpt lat="42.86944" lon="2.76297">
        <ele>300</ele>
        <time>2024-07-19T09:46:46Z</time>
      </trkpt>
      <trkpt lat="42.86936" lon="2.76298">
        <ele>300</ele>
        <time>2024-07-19T09:46:48Z</time>
      </trkpt>
      <trkpt lat="42.86928" lon="2.76299">
        <ele>300</ele>
        <time>2024-07-19T09:46:50Z</time>
      </trkpt>
      <trkpt lat="42.8692" lon="2.763">
        <ele>300</ele>
        <time>2024-07-19T09:46:52Z</time>
      </trkpt>
      <trkpt lat="42.86913" lon="2.76304">
        <ele>300</ele>
        <time>2024-07-19T09:46:54Z</time>
      </trkpt>
      <trkpt lat="42.86907" lon="2.76309">
        <ele>300</ele>
        <time>2024-07-19T09:46:56Z</time>
      </trkpt>
      <trkpt lat="42.869" lon="2.76313">
        <ele>300</ele>
        <time>2024-07-19T09:46:58Z</time>
      </trkpt>
      <trkpt lat="42.86892" lon="2.76317">
        <ele>300</ele>
        <time>2024-07-19T09:47:00Z</time>
      </trkpt>
      <trkpt lat="42.86885" lon="2.76322">
        <ele>300</ele>
        <time>2024-07-19T09:47:02Z</time>
      </trkpt>
      <trkpt lat="42.86878" lon="2.76327">
        <ele>300</ele>
        <time>2024-07-19T09:47:04Z</time>
      </trkpt>
      <trkpt lat="42.86871" lon="2.76332">
        <ele>301</ele>
        <time>2024-07-19T09:47:06Z</time>
      </trkpt>
      <trkpt lat="42.86864" lon="2.76336">
        <ele>301</ele>
        <time>2024-07-19T09:47:08Z</time>
      </trkpt>
      <trkpt lat="42.86856" lon="2.76339">
        <ele>301</ele>
        <time>2024-07-19T09:47:10Z</time>
      </trkpt>
      <trkpt lat="42.86849" lon="2.76344">
        <ele>301</ele>
        <time>2024-07-19T09:47:12Z</time>
      </trkpt>
      <trkpt lat="42.86841" lon="2.7635">
        <ele>301</ele>
        <time>2024-07-19T09:47:14Z</time>
      </trkpt>
      <trkpt lat="42.86837" lon="2.76353">
        <ele>301</ele>
        <time>2024-07-19T09:47:15Z</time>
      </trkpt>
      <trkpt lat="42.86834" lon="2.76357">
        <ele>301</ele>
        <time>2024-07-19T09:47:16Z</time>
      </trkpt>
      <trkpt lat="42.8683" lon="2.76361">
        <ele>301</ele>
        <time>2024-07-19T09:47:17Z</time>
      </trkpt>
      <trkpt lat="42.86826" lon="2.76364">
        <ele>300</ele>
        <time>2024-07-19T09:47:18Z</time>
      </trkpt>
      <trkpt lat="42.86822" lon="2.76368">
        <ele>300</ele>
        <time>2024-07-19T09:47:19Z</time>
      </trkpt>
      <trkpt lat="42.86818" lon="2.76372">
        <ele>300</ele>
        <time>2024-07-19T09:47:20Z</time>
      </trkpt>
      <trkpt lat="42.86815" lon="2.76377">
        <ele>300</ele>
        <time>2024-07-19T09:47:21Z</time>
      </trkpt>
      <trkpt lat="42.86811" lon="2.76382">
        <ele>300</ele>
        <time>2024-07-19T09:47:22Z</time>
      </trkpt>
      <trkpt lat="42.86808" lon="2.76387">
        <ele>300</ele>
        <time>2024-07-19T09:47:23Z</time>
      </trkpt>
      <trkpt lat="42.86804" lon="2.76391">
        <ele>300</ele>
        <time>2024-07-19T09:47:24Z</time>
      </trkpt>
      <trkpt lat="42.868" lon="2.76395">
        <ele>300</ele>
        <time>2024-07-19T09:47:25Z</time>
      </trkpt>
      <trkpt lat="42.86796" lon="2.76398">
        <ele>300</ele>
        <time>2024-07-19T09:47:26Z</time>
      </trkpt>
      <trkpt lat="42.86792" lon="2.76402">
        <ele>300</ele>
        <time>2024-07-19T09:47:27Z</time>
      </trkpt>
      <trkpt lat="42.86788" lon="2.76406">
        <ele>300</ele>
        <time>2024-07-19T09:47:28Z</time>
      </trkpt>
      <trkpt lat="42.86784" lon="2.76409">
        <ele>300</ele>
        <time>2024-07-19T09:47:29Z</time>
      </trkpt>
      <trkpt lat="42.8678" lon="2.76413">
        <ele>300</ele>
        <time>2024-07-19T09:47:30Z</time>
      </trkpt>
      <trkpt lat="42.86777" lon="2.76418">
        <ele>300</ele>
        <time>2024-07-19T09:47:31Z</time>
      </trkpt>
      <trkpt lat="42.86774" lon="2.76424">
        <ele>300</ele>
        <time>2024-07-19T09:47:32Z</time>
      </trkpt>
      <trkpt lat="42.8677" lon="2.76435">
        <ele>300</ele>
        <time>2024-07-19T09:47:34Z</time>
      </trkpt>
      <trkpt lat="42.86768" lon="2.76441">
        <ele>299</ele>
        <time>2024-07-19T09:47:35Z</time>
      </trkpt>
      <trkpt lat="42.86765" lon="2.76446">
        <ele>299</ele>
        <time>2024-07-19T09:47:37Z</time>
      </trkpt>
      <trkpt lat="42.86768" lon="2.7644">
        <ele>299</ele>
        <time>2024-07-19T09:47:57Z</time>
      </trkpt>
      <trkpt lat="42.86771" lon="2.76433">
        <ele>299</ele>
        <time>2024-07-19T09:47:59Z</time>
      </trkpt>
      <trkpt lat="42.86774" lon="2.76426">
        <ele>299</ele>
        <time>2024-07-19T09:48:01Z</time>
      </trkpt>
      <trkpt lat="42.86775" lon="2.76418">
        <ele>299</ele>
        <time>2024-07-19T09:48:04Z</time>
      </trkpt>
      <trkpt lat="42.86769" lon="2.76423">
        <ele>299</ele>
        <time>2024-07-19T09:48:07Z</time>
      </trkpt>
      <trkpt lat="42.86764" lon="2.76424">
        <ele>299</ele>
        <time>2024-07-19T09:48:09Z</time>
      </trkpt>
      <trkpt lat="42.86759" lon="2.76426">
        <ele>299</ele>
        <time>2024-07-19T09:48:11Z</time>
      </trkpt>
      <trkpt lat="42.86754" lon="2.7643">
        <ele>299</ele>
        <time>2024-07-19T09:48:13Z</time>
      </trkpt>
      <trkpt lat="42.86748" lon="2.76432">
        <ele>299</ele>
        <time>2024-07-19T09:48:15Z</time>
      </trkpt>
      <trkpt lat="42.86741" lon="2.76433">
        <ele>299</ele>
        <time>2024-07-19T09:48:17Z</time>
      </trkpt>
      <trkpt lat="42.86735" lon="2.76435">
        <ele>299</ele>
        <time>2024-07-19T09:48:19Z</time>
      </trkpt>
      <trkpt lat="42.86729" lon="2.7644">
        <ele>299</ele>
        <time>2024-07-19T09:48:21Z</time>
      </trkpt>
      <trkpt lat="42.86722" lon="2.76443">
        <ele>299</ele>
        <time>2024-07-19T09:48:23Z</time>
      </trkpt>
      <trkpt lat="42.86716" lon="2.76447">
        <ele>299</ele>
        <time>2024-07-19T09:48:25Z</time>
      </trkpt>
      <trkpt lat="42.8671" lon="2.7645">
        <ele>299</ele>
        <time>2024-07-19T09:48:27Z</time>
      </trkpt>
      <trkpt lat="42.86703" lon="2.76454">
        <ele>299</ele>
        <time>2024-07-19T09:48:29Z</time>
      </trkpt>
      <trkpt lat="42.86697" lon="2.76458">
        <ele>299</ele>
        <time>2024-07-19T09:48:31Z</time>
      </trkpt>
      <trkpt lat="42.8669" lon="2.76461">
        <ele>299</ele>
        <time>2024-07-19T09:48:33Z</time>
      </trkpt>
      <trkpt lat="42.86685" lon="2.76467">
        <ele>299</ele>
        <time>2024-07-19T09:48:35Z</time>
      </trkpt>
      <trkpt lat="42.8668" lon="2.76474">
        <ele>299</ele>
        <time>2024-07-19T09:48:37Z</time>
      </trkpt>
      <trkpt lat="42.86673" lon="2.76479">
        <ele>299</ele>
        <time>2024-07-19T09:48:39Z</time>
      </trkpt>
      <trkpt lat="42.86666" lon="2.76482">
        <ele>299</ele>
        <time>2024-07-19T09:48:41Z</time>
      </trkpt>
      <trkpt lat="42.8666" lon="2.76487">
        <ele>299</ele>
        <time>2024-07-19T09:48:43Z</time>
      </trkpt>
      <trkpt lat="42.86655" lon="2.76493">
        <ele>299</ele>
        <time>2024-07-19T09:48:45Z</time>
      </trkpt>
      <trkpt lat="42.86649" lon="2.76499">
        <ele>299</ele>
        <time>2024-07-19T09:48:47Z</time>
      </trkpt>
      <trkpt lat="42.86643" lon="2.76505">
        <ele>299</ele>
        <time>2024-07-19T09:48:49Z</time>
      </trkpt>
      <trkpt lat="42.86637" lon="2.7651">
        <ele>299</ele>
        <time>2024-07-19T09:48:51Z</time>
      </trkpt>
      <trkpt lat="42.86631" lon="2.76516">
        <ele>299</ele>
        <time>2024-07-19T09:48:53Z</time>
      </trkpt>
      <trkpt lat="42.86625" lon="2.76521">
        <ele>299</ele>
        <time>2024-07-19T09:48:55Z</time>
      </trkpt>
      <trkpt lat="42.86618" lon="2.76526">
        <ele>299</ele>
        <time>2024-07-19T09:48:57Z</time>
      </trkpt>
      <trkpt lat="42.86614" lon="2.76532">
        <ele>299</ele>
        <time>2024-07-19T09:48:59Z</time>
      </trkpt>
      <trkpt lat="42.86608" lon="2.76537">
        <ele>299</ele>
        <time>2024-07-19T09:49:01Z</time>
      </trkpt>
      <trkpt lat="42.86603" lon="2.76542">
        <ele>299</ele>
        <time>2024-07-19T09:49:03Z</time>
      </trkpt>
      <trkpt lat="42.866" lon="2.76547">
        <ele>299</ele>
        <time>2024-07-19T09:49:05Z</time>
      </trkpt>
      <trkpt lat="42.86593" lon="2.76549">
        <ele>299</ele>
        <time>2024-07-19T09:49:07Z</time>
      </trkpt>
      <trkpt lat="42.86588" lon="2.76553">
        <ele>299</ele>
        <time>2024-07-19T09:49:09Z</time>
      </trkpt>
      <trkpt lat="42.86585" lon="2.7656">
        <ele>299</ele>
        <time>2024-07-19T09:49:11Z</time>
      </trkpt>
      <trkpt lat="42.86579" lon="2.76565">
        <ele>299</ele>
        <time>2024-07-19T09:49:13Z</time>
      </trkpt>
      <trkpt lat="42.86575" lon="2.76572">
        <ele>299</ele>
        <time>2024-07-19T09:49:15Z</time>
      </trkpt>
      <trkpt lat="42.86569" lon="2.76578">
        <ele>299</ele>
        <time>2024-07-19T09:49:17Z</time>
      </trkpt>
      <trkpt lat="42.86563" lon="2.76581">
        <ele>299</ele>
        <time>2024-07-19T09:49:19Z</time>
      </trkpt>
      <trkpt lat="42.86557" lon="2.76582">
        <ele>300</ele>
        <time>2024-07-19T09:49:21Z</time>
      </trkpt>
      <trkpt lat="42.86551" lon="2.7658">
        <ele>300</ele>
        <time>2024-07-19T09:49:24Z</time>
      </trkpt>
      <trkpt lat="42.86546" lon="2.76582">
        <ele>299</ele>
        <time>2024-07-19T09:49:27Z</time>
      </trkpt>
      <trkpt lat="42.8654" lon="2.7658">
        <ele>299</ele>
        <time>2024-07-19T09:49:30Z</time>
      </trkpt>
      <trkpt lat="42.86533" lon="2.7658">
        <ele>299</ele>
        <time>2024-07-19T09:49:32Z</time>
      </trkpt>
      <trkpt lat="42.86527" lon="2.76582">
        <ele>299</ele>
        <time>2024-07-19T09:49:34Z</time>
      </trkpt>
      <trkpt lat="42.86521" lon="2.76585">
        <ele>299</ele>
        <time>2024-07-19T09:49:36Z</time>
      </trkpt>
      <trkpt lat="42.86515" lon="2.7659">
        <ele>298</ele>
        <time>2024-07-19T09:49:38Z</time>
      </trkpt>
      <trkpt lat="42.86509" lon="2.76598">
        <ele>298</ele>
        <time>2024-07-19T09:49:40Z</time>
      </trkpt>
      <trkpt lat="42.86502" lon="2.76601">
        <ele>297</ele>
        <time>2024-07-19T09:49:42Z</time>
      </trkpt>
      <trkpt lat="42.86495" lon="2.76604">
        <ele>297</ele>
        <time>2024-07-19T09:49:44Z</time>
      </trkpt>
      <trkpt lat="42.86491" lon="2.76609">
        <ele>297</ele>
        <time>2024-07-19T09:49:46Z</time>
      </trkpt>
      <trkpt lat="42.86486" lon="2.76616">
        <ele>296</ele>
        <time>2024-07-19T09:49:49Z</time>
      </trkpt>
      <trkpt lat="42.8648" lon="2.7662">
        <ele>296</ele>
        <time>2024-07-19T09:49:51Z</time>
      </trkpt>
      <trkpt lat="42.86474" lon="2.76624">
        <ele>296</ele>
        <time>2024-07-19T09:49:53Z</time>
      </trkpt>
      <trkpt lat="42.86469" lon="2.76626">
        <ele>296</ele>
        <time>2024-07-19T09:49:55Z</time>
      </trkpt>
      <trkpt lat="42.86465" lon="2.76632">
        <ele>296</ele>
        <time>2024-07-19T09:49:57Z</time>
      </trkpt>
      <trkpt lat="42.86459" lon="2.76637">
        <ele>296</ele>
        <time>2024-07-19T09:49:59Z</time>
      </trkpt>
      <trkpt lat="42.86454" lon="2.76642">
        <ele>296</ele>
        <time>2024-07-19T09:50:01Z</time>
      </trkpt>
      <trkpt lat="42.86449" lon="2.76647">
        <ele>296</ele>
        <time>2024-07-19T09:50:03Z</time>
      </trkpt>
      <trkpt lat="42.86444" lon="2.76652">
        <ele>296</ele>
        <time>2024-07-19T09:50:05Z</time>
      </trkpt>
      <trkpt lat="42.8644" lon="2.76655">
        <ele>295</ele>
        <time>2024-07-19T09:50:07Z</time>
      </trkpt>
      <trkpt lat="42.86434" lon="2.76659">
        <ele>295</ele>
        <time>2024-07-19T09:50:09Z</time>
      </trkpt>
      <trkpt lat="42.86428" lon="2.76664">
        <ele>295</ele>
        <time>2024-07-19T09:50:11Z</time>
      </trkpt>
      <trkpt lat="42.86422" lon="2.76666">
        <ele>295</ele>
        <time>2024-07-19T09:50:13Z</time>
      </trkpt>
      <trkpt lat="42.86415" lon="2.7667">
        <ele>295</ele>
        <time>2024-07-19T09:50:15Z</time>
      </trkpt>
      <trkpt lat="42.86408" lon="2.76673">
        <ele>295</ele>
        <time>2024-07-19T09:50:17Z</time>
      </trkpt>
      <trkpt lat="42.86401" lon="2.76677">
        <ele>294</ele>
        <time>2024-07-19T09:50:19Z</time>
      </trkpt>
      <trkpt lat="42.86395" lon="2.76682">
        <ele>294</ele>
        <time>2024-07-19T09:50:21Z</time>
      </trkpt>
      <trkpt lat="42.86389" lon="2.76684">
        <ele>294</ele>
        <time>2024-07-19T09:50:23Z</time>
      </trkpt>
      <trkpt lat="42.86382" lon="2.76687">
        <ele>294</ele>
        <time>2024-07-19T09:50:25Z</time>
      </trkpt>
      <trkpt lat="42.86375" lon="2.76689">
        <ele>294</ele>
        <time>2024-07-19T09:50:27Z</time>
      </trkpt>
      <trkpt lat="42.8637" lon="2.76693">
        <ele>294</ele>
        <time>2024-07-19T09:50:29Z</time>
      </trkpt>
      <trkpt lat="42.86363" lon="2.76696">
        <ele>294</ele>
        <time>2024-07-19T09:50:31Z</time>
      </trkpt>
      <trkpt lat="42.86357" lon="2.76699">
        <ele>294</ele>
        <time>2024-07-19T09:50:33Z</time>
      </trkpt>
      <trkpt lat="42.8635" lon="2.76703">
        <ele>293</ele>
        <time>2024-07-19T09:50:35Z</time>
      </trkpt>
      <trkpt lat="42.86344" lon="2.76706">
        <ele>293</ele>
        <time>2024-07-19T09:50:37Z</time>
      </trkpt>
      <trkpt lat="42.86337" lon="2.76709">
        <ele>293</ele>
        <time>2024-07-19T09:50:39Z</time>
      </trkpt>
      <trkpt lat="42.86329" lon="2.76712">
        <ele>293</ele>
        <time>2024-07-19T09:50:41Z</time>
      </trkpt>
      <trkpt lat="42.86324" lon="2.76714">
        <ele>293</ele>
        <time>2024-07-19T09:50:42Z</time>
      </trkpt>
      <trkpt lat="42.8632" lon="2.76716">
        <ele>293</ele>
        <time>2024-07-19T09:50:43Z</time>
      </trkpt>
      <trkpt lat="42.86315" lon="2.76718">
        <ele>292</ele>
        <time>2024-07-19T09:50:44Z</time>
      </trkpt>
      <trkpt lat="42.86311" lon="2.7672">
        <ele>292</ele>
        <time>2024-07-19T09:50:45Z</time>
      </trkpt>
      <trkpt lat="42.86306" lon="2.76723">
        <ele>292</ele>
        <time>2024-07-19T09:50:46Z</time>
      </trkpt>
      <trkpt lat="42.86301" lon="2.76726">
        <ele>292</ele>
        <time>2024-07-19T09:50:47Z</time>
      </trkpt>
      <trkpt lat="42.86297" lon="2.76728">
        <ele>292</ele>
        <time>2024-07-19T09:50:48Z</time>
      </trkpt>
      <trkpt lat="42.86292" lon="2.76729">
        <ele>291</ele>
        <time>2024-07-19T09:50:49Z</time>
      </trkpt>
      <trkpt lat="42.86287" lon="2.76732">
        <ele>291</ele>
        <time>2024-07-19T09:50:50Z</time>
      </trkpt>
      <trkpt lat="42.86283" lon="2.76735">
        <ele>291</ele>
        <time>2024-07-19T09:50:51Z</time>
      </trkpt>
      <trkpt lat="42.86279" lon="2.76738">
        <ele>291</ele>
        <time>2024-07-19T09:50:52Z</time>
      </trkpt>
      <trkpt lat="42.86275" lon="2.76743">
        <ele>291</ele>
        <time>2024-07-19T09:50:53Z</time>
      </trkpt>
      <trkpt lat="42.86272" lon="2.76748">
        <ele>291</ele>
        <time>2024-07-19T09:50:54Z</time>
      </trkpt>
      <trkpt lat="42.8627" lon="2.76753">
        <ele>291</ele>
        <time>2024-07-19T09:50:55Z</time>
      </trkpt>
      <trkpt lat="42.86266" lon="2.76764">
        <ele>291</ele>
        <time>2024-07-19T09:50:57Z</time>
      </trkpt>
      <trkpt lat="42.86263" lon="2.76775">
        <ele>291</ele>
        <time>2024-07-19T09:50:59Z</time>
      </trkpt>
      <trkpt lat="42.86261" lon="2.76784">
        <ele>291</ele>
        <time>2024-07-19T09:51:01Z</time>
      </trkpt>
      <trkpt lat="42.86258" lon="2.76792">
        <ele>291</ele>
        <time>2024-07-19T09:51:03Z</time>
      </trkpt>
      <trkpt lat="42.86257" lon="2.768">
        <ele>291</ele>
        <time>2024-07-19T09:51:05Z</time>
      </trkpt>
      <trkpt lat="42.86256" lon="2.76808">
        <ele>291</ele>
        <time>2024-07-19T09:51:07Z</time>
      </trkpt>
      <trkpt lat="42.86254" lon="2.76815">
        <ele>291</ele>
        <time>2024-07-19T09:51:09Z</time>
      </trkpt>
      <trkpt lat="42.86251" lon="2.76822">
        <ele>291</ele>
        <time>2024-07-19T09:51:11Z</time>
      </trkpt>
      <trkpt lat="42.86251" lon="2.76823">
        <ele>291</ele>
        <time>2024-07-19T09:51:29Z</time>
      </trkpt>
      <trkpt lat="42.86251" lon="2.76823">
        <ele>291</ele>
        <time>2024-07-19T09:51:30Z</time>
      </trkpt>
      <trkpt lat="42.86248" lon="2.76831">
        <ele>291</ele>
        <time>2024-07-19T09:51:36Z</time>
      </trkpt>
      <trkpt lat="42.86245" lon="2.76838">
        <ele>291</ele>
        <time>2024-07-19T09:51:38Z</time>
      </trkpt>
      <trkpt lat="42.86242" lon="2.76844">
        <ele>291</ele>
        <time>2024-07-19T09:51:40Z</time>
      </trkpt>
      <trkpt lat="42.86239" lon="2.76851">
        <ele>291</ele>
        <time>2024-07-19T09:51:42Z</time>
      </trkpt>
      <trkpt lat="42.86235" lon="2.76859">
        <ele>291</ele>
        <time>2024-07-19T09:51:44Z</time>
      </trkpt>
      <trkpt lat="42.86231" lon="2.76866">
        <ele>291</ele>
        <time>2024-07-19T09:51:46Z</time>
      </trkpt>
      <trkpt lat="42.86229" lon="2.76876">
        <ele>290</ele>
        <time>2024-07-19T09:51:48Z</time>
      </trkpt>
      <trkpt lat="42.86227" lon="2.76885">
        <ele>290</ele>
        <time>2024-07-19T09:51:50Z</time>
      </trkpt>
      <trkpt lat="42.86222" lon="2.76894">
        <ele>290</ele>
        <time>2024-07-19T09:51:52Z</time>
      </trkpt>
      <trkpt lat="42.86216" lon="2.76901">
        <ele>290</ele>
        <time>2024-07-19T09:51:54Z</time>
      </trkpt>
      <trkpt lat="42.86209" lon="2.76907">
        <ele>290</ele>
        <time>2024-07-19T09:51:56Z</time>
      </trkpt>
      <trkpt lat="42.86203" lon="2.76914">
        <ele>289</ele>
        <time>2024-07-19T09:51:58Z</time>
      </trkpt>
      <trkpt lat="42.86196" lon="2.76919">
        <ele>289</ele>
        <time>2024-07-19T09:52:00Z</time>
      </trkpt>
      <trkpt lat="42.86189" lon="2.76923">
        <ele>289</ele>
        <time>2024-07-19T09:52:02Z</time>
      </trkpt>
      <trkpt lat="42.86181" lon="2.76924">
        <ele>289</ele>
        <time>2024-07-19T09:52:04Z</time>
      </trkpt>
      <trkpt lat="42.86174" lon="2.76923">
        <ele>289</ele>
        <time>2024-07-19T09:52:06Z</time>
      </trkpt>
      <trkpt lat="42.86172" lon="2.76921">
        <ele>289</ele>
        <time>2024-07-19T09:52:29Z</time>
      </trkpt>
      <trkpt lat="42.86172" lon="2.76921">
        <ele>289</ele>
        <time>2024-07-19T09:52:30Z</time>
      </trkpt>
      <trkpt lat="42.86168" lon="2.76921">
        <ele>289</ele>
        <time>2024-07-19T09:52:33Z</time>
      </trkpt>
      <trkpt lat="42.86161" lon="2.76919">
        <ele>289</ele>
        <time>2024-07-19T09:52:35Z</time>
      </trkpt>
      <trkpt lat="42.86153" lon="2.76918">
        <ele>290</ele>
        <time>2024-07-19T09:52:37Z</time>
      </trkpt>
      <trkpt lat="42.86145" lon="2.76917">
        <ele>289</ele>
        <time>2024-07-19T09:52:39Z</time>
      </trkpt>
      <trkpt lat="42.86137" lon="2.76917">
        <ele>289</ele>
        <time>2024-07-19T09:52:41Z</time>
      </trkpt>
      <trkpt lat="42.86129" lon="2.76917">
        <ele>289</ele>
        <time>2024-07-19T09:52:43Z</time>
      </trkpt>
      <trkpt lat="42.8612" lon="2.76914">
        <ele>289</ele>
        <time>2024-07-19T09:52:45Z</time>
      </trkpt>
      <trkpt lat="42.86112" lon="2.76908">
        <ele>289</ele>
        <time>2024-07-19T09:52:47Z</time>
      </trkpt>
      <trkpt lat="42.8611" lon="2.76902">
        <ele>289</ele>
        <time>2024-07-19T09:52:48Z</time>
      </trkpt>
      <trkpt lat="42.86106" lon="2.76898">
        <ele>288</ele>
        <time>2024-07-19T09:52:49Z</time>
      </trkpt>
      <trkpt lat="42.86102" lon="2.76894">
        <ele>288</ele>
        <time>2024-07-19T09:52:50Z</time>
      </trkpt>
      <trkpt lat="42.86098" lon="2.76889">
        <ele>288</ele>
        <time>2024-07-19T09:52:51Z</time>
      </trkpt>
      <trkpt lat="42.86095" lon="2.76884">
        <ele>288</ele>
        <time>2024-07-19T09:52:52Z</time>
      </trkpt>
      <trkpt lat="42.86091" lon="2.76879">
        <ele>288</ele>
        <time>2024-07-19T09:52:53Z</time>
      </trkpt>
      <trkpt lat="42.86087" lon="2.76875">
        <ele>287</ele>
        <time>2024-07-19T09:52:54Z</time>
      </trkpt>
      <trkpt lat="42.86083" lon="2.76871">
        <ele>287</ele>
        <time>2024-07-19T09:52:55Z</time>
      </trkpt>
      <trkpt lat="42.86079" lon="2.76866">
        <ele>287</ele>
        <time>2024-07-19T09:52:56Z</time>
      </trkpt>
      <trkpt lat="42.86075" lon="2.76861">
        <ele>287</ele>
        <time>2024-07-19T09:52:57Z</time>
      </trkpt>
      <trkpt lat="42.86071" lon="2.76855">
        <ele>286</ele>
        <time>2024-07-19T09:52:58Z</time>
      </trkpt>
      <trkpt lat="42.86068" lon="2.76849">
        <ele>286</ele>
        <time>2024-07-19T09:52:59Z</time>
      </trkpt>
      <trkpt lat="42.86065" lon="2.76842">
        <ele>285</ele>
        <time>2024-07-19T09:53:00Z</time>
      </trkpt>
      <trkpt lat="42.86063" lon="2.76834">
        <ele>285</ele>
        <time>2024-07-19T09:53:01Z</time>
      </trkpt>
      <trkpt lat="42.86061" lon="2.76826">
        <ele>285</ele>
        <time>2024-07-19T09:53:02Z</time>
      </trkpt>
      <trkpt lat="42.86059" lon="2.76819">
        <ele>284</ele>
        <time>2024-07-19T09:53:03Z</time>
      </trkpt>
      <trkpt lat="42.86058" lon="2.7681">
        <ele>284</ele>
        <time>2024-07-19T09:53:04Z</time>
      </trkpt>
      <trkpt lat="42.86057" lon="2.76802">
        <ele>283</ele>
        <time>2024-07-19T09:53:05Z</time>
      </trkpt>
      <trkpt lat="42.86055" lon="2.76794">
        <ele>283</ele>
        <time>2024-07-19T09:53:06Z</time>
      </trkpt>
      <trkpt lat="42.86055" lon="2.76786">
        <ele>283</ele>
        <time>2024-07-19T09:53:07Z</time>
      </trkpt>
      <trkpt lat="42.86054" lon="2.76778">
        <ele>282</ele>
        <time>2024-07-19T09:53:08Z</time>
      </trkpt>
      <trkpt lat="42.86052" lon="2.76769">
        <ele>282</ele>
        <time>2024-07-19T09:53:09Z</time>
      </trkpt>
      <trkpt lat="42.86049" lon="2.76762">
        <ele>281</ele>
        <time>2024-07-19T09:53:10Z</time>
      </trkpt>
      <trkpt lat="42.86046" lon="2.76755">
        <ele>281</ele>
        <time>2024-07-19T09:53:11Z</time>
      </trkpt>
      <trkpt lat="42.86044" lon="2.76749">
        <ele>281</ele>
        <time>2024-07-19T09:53:12Z</time>
      </trkpt>
      <trkpt lat="42.8604" lon="2.76743">
        <ele>280</ele>
        <time>2024-07-19T09:53:14Z</time>
      </trkpt>
      <trkpt lat="42.86038" lon="2.76736">
        <ele>280</ele>
        <time>2024-07-19T09:53:25Z</time>
      </trkpt>
      <trkpt lat="42.86036" lon="2.76728">
        <ele>279</ele>
        <time>2024-07-19T09:53:27Z</time>
      </trkpt>
      <trkpt lat="42.86033" lon="2.76717">
        <ele>279</ele>
        <time>2024-07-19T09:53:29Z</time>
      </trkpt>
      <trkpt lat="42.86029" lon="2.76706">
        <ele>278</ele>
        <time>2024-07-19T09:53:31Z</time>
      </trkpt>
      <trkpt lat="42.86026" lon="2.76695">
        <ele>278</ele>
        <time>2024-07-19T09:53:33Z</time>
      </trkpt>
      <trkpt lat="42.86022" lon="2.76684">
        <ele>278</ele>
        <time>2024-07-19T09:53:35Z</time>
      </trkpt>
      <trkpt lat="42.8602" lon="2.76674">
        <ele>278</ele>
        <time>2024-07-19T09:53:37Z</time>
      </trkpt>
      <trkpt lat="42.86018" lon="2.76665">
        <ele>278</ele>
        <time>2024-07-19T09:53:39Z</time>
      </trkpt>
      <trkpt lat="42.86016" lon="2.76654">
        <ele>278</ele>
        <time>2024-07-19T09:53:41Z</time>
      </trkpt>
      <trkpt lat="42.86015" lon="2.76644">
        <ele>279</ele>
        <time>2024-07-19T09:53:43Z</time>
      </trkpt>
      <trkpt lat="42.86011" lon="2.76636">
        <ele>279</ele>
        <time>2024-07-19T09:53:45Z</time>
      </trkpt>
      <trkpt lat="42.86007" lon="2.7663">
        <ele>279</ele>
        <time>2024-07-19T09:53:47Z</time>
      </trkpt>
      <trkpt lat="42.86003" lon="2.76626">
        <ele>279</ele>
        <time>2024-07-19T09:53:49Z</time>
      </trkpt>
      <trkpt lat="42.85997" lon="2.76623">
        <ele>280</ele>
        <time>2024-07-19T09:53:51Z</time>
      </trkpt>
      <trkpt lat="42.85992" lon="2.76621">
        <ele>280</ele>
        <time>2024-07-19T09:53:53Z</time>
      </trkpt>
      <trkpt lat="42.85986" lon="2.7662">
        <ele>280</ele>
        <time>2024-07-19T09:53:55Z</time>
      </trkpt>
      <trkpt lat="42.8598" lon="2.76619">
        <ele>281</ele>
        <time>2024-07-19T09:53:57Z</time>
      </trkpt>
      <trkpt lat="42.85973" lon="2.76618">
        <ele>281</ele>
        <time>2024-07-19T09:53:59Z</time>
      </trkpt>
      <trkpt lat="42.85966" lon="2.76617">
        <ele>281</ele>
        <time>2024-07-19T09:54:01Z</time>
      </trkpt>
      <trkpt lat="42.85959" lon="2.76618">
        <ele>281</ele>
        <time>2024-07-19T09:54:03Z</time>
      </trkpt>
      <trkpt lat="42.85951" lon="2.7662">
        <ele>281</ele>
        <time>2024-07-19T09:54:05Z</time>
      </trkpt>
      <trkpt lat="42.85944" lon="2.76626">
        <ele>281</ele>
        <time>2024-07-19T09:54:07Z</time>
      </trkpt>
      <trkpt lat="42.85936" lon="2.76632">
        <ele>281</ele>
        <time>2024-07-19T09:54:09Z</time>
      </trkpt>
      <trkpt lat="42.8593" lon="2.76637">
        <ele>281</ele>
        <time>2024-07-19T09:54:11Z</time>
      </trkpt>
      <trkpt lat="42.85923" lon="2.76642">
        <ele>281</ele>
        <time>2024-07-19T09:54:13Z</time>
      </trkpt>
      <trkpt lat="42.85915" lon="2.76647">
        <ele>282</ele>
        <time>2024-07-19T09:54:15Z</time>
      </trkpt>
      <trkpt lat="42.85909" lon="2.76652">
        <ele>282</ele>
        <time>2024-07-19T09:54:17Z</time>
      </trkpt>
      <trkpt lat="42.85903" lon="2.76656">
        <ele>282</ele>
        <time>2024-07-19T09:54:19Z</time>
      </trkpt>
      <trkpt lat="42.85897" lon="2.76661">
        <ele>282</ele>
        <time>2024-07-19T09:54:21Z</time>
      </trkpt>
      <trkpt lat="42.85892" lon="2.76666">
        <ele>282</ele>
        <time>2024-07-19T09:54:23Z</time>
      </trkpt>
      <trkpt lat="42.85888" lon="2.7667">
        <ele>283</ele>
        <time>2024-07-19T09:54:25Z</time>
      </trkpt>
      <trkpt lat="42.85884" lon="2.76674">
        <ele>283</ele>
        <time>2024-07-19T09:54:27Z</time>
      </trkpt>
      <trkpt lat="42.85881" lon="2.76679">
        <ele>283</ele>
        <time>2024-07-19T09:54:29Z</time>
      </trkpt>
      <trkpt lat="42.85881" lon="2.76679">
        <ele>284</ele>
        <time>2024-07-19T09:54:44Z</time>
      </trkpt>
      <trkpt lat="42.8588" lon="2.76678">
        <ele>284</ele>
        <time>2024-07-19T09:54:45Z</time>
      </trkpt>
      <trkpt lat="42.85877" lon="2.76684">
        <ele>284</ele>
        <time>2024-07-19T09:55:04Z</time>
      </trkpt>
      <trkpt lat="42.85873" lon="2.76688">
        <ele>285</ele>
        <time>2024-07-19T09:55:06Z</time>
      </trkpt>
      <trkpt lat="42.85867" lon="2.76693">
        <ele>285</ele>
        <time>2024-07-19T09:55:08Z</time>
      </trkpt>
      <trkpt lat="42.85861" lon="2.76698">
        <ele>285</ele>
        <time>2024-07-19T09:55:10Z</time>
      </trkpt>
      <trkpt lat="42.85856" lon="2.76704">
        <ele>285</ele>
        <time>2024-07-19T09:55:12Z</time>
      </trkpt>
      <trkpt lat="42.8585" lon="2.76708">
        <ele>286</ele>
        <time>2024-07-19T09:55:14Z</time>
      </trkpt>
      <trkpt lat="42.85843" lon="2.76709">
        <ele>286</ele>
        <time>2024-07-19T09:55:16Z</time>
      </trkpt>
      <trkpt lat="42.85836" lon="2.76709">
        <ele>286</ele>
        <time>2024-07-19T09:55:18Z</time>
      </trkpt>
      <trkpt lat="42.8583" lon="2.76707">
        <ele>287</ele>
        <time>2024-07-19T09:55:20Z</time>
      </trkpt>
      <trkpt lat="42.85824" lon="2.76706">
        <ele>287</ele>
        <time>2024-07-19T09:55:22Z</time>
      </trkpt>
      <trkpt lat="42.85818" lon="2.76705">
        <ele>288</ele>
        <time>2024-07-19T09:55:24Z</time>
      </trkpt>
      <trkpt lat="42.85812" lon="2.76704">
        <ele>288</ele>
        <time>2024-07-19T09:55:26Z</time>
      </trkpt>
      <trkpt lat="42.85807" lon="2.76699">
        <ele>289</ele>
        <time>2024-07-19T09:55:28Z</time>
      </trkpt>
      <trkpt lat="42.85803" lon="2.76694">
        <ele>289</ele>
        <time>2024-07-19T09:55:30Z</time>
      </trkpt>
      <trkpt lat="42.85799" lon="2.76689">
        <ele>290</ele>
        <time>2024-07-19T09:55:32Z</time>
      </trkpt>
      <trkpt lat="42.85795" lon="2.76683">
        <ele>290</ele>
        <time>2024-07-19T09:55:34Z</time>
      </trkpt>
      <trkpt lat="42.8579" lon="2.76678">
        <ele>291</ele>
        <time>2024-07-19T09:55:36Z</time>
      </trkpt>
      <trkpt lat="42.85786" lon="2.76673">
        <ele>291</ele>
        <time>2024-07-19T09:55:38Z</time>
      </trkpt>
      <trkpt lat="42.85783" lon="2.76667">
        <ele>292</ele>
        <time>2024-07-19T09:55:40Z</time>
      </trkpt>
      <trkpt lat="42.85778" lon="2.76661">
        <ele>292</ele>
        <time>2024-07-19T09:55:42Z</time>
      </trkpt>
      <trkpt lat="42.85774" lon="2.76656">
        <ele>293</ele>
        <time>2024-07-19T09:55:44Z</time>
      </trkpt>
      <trkpt lat="42.85769" lon="2.76652">
        <ele>294</ele>
        <time>2024-07-19T09:55:46Z</time>
      </trkpt>
      <trkpt lat="42.85764" lon="2.76649">
        <ele>294</ele>
        <time>2024-07-19T09:55:48Z</time>
      </trkpt>
      <trkpt lat="42.85759" lon="2.76646">
        <ele>295</ele>
        <time>2024-07-19T09:55:50Z</time>
      </trkpt>
      <trkpt lat="42.85754" lon="2.76642">
        <ele>295</ele>
        <time>2024-07-19T09:55:52Z</time>
      </trkpt>
      <trkpt lat="42.85749" lon="2.76638">
        <ele>296</ele>
        <time>2024-07-19T09:55:54Z</time>
      </trkpt>
      <trkpt lat="42.85744" lon="2.76633">
        <ele>296</ele>
        <time>2024-07-19T09:55:56Z</time>
      </trkpt>
      <trkpt lat="42.85739" lon="2.76628">
        <ele>297</ele>
        <time>2024-07-19T09:55:58Z</time>
      </trkpt>
      <trkpt lat="42.85735" lon="2.76621">
        <ele>297</ele>
        <time>2024-07-19T09:56:00Z</time>
      </trkpt>
      <trkpt lat="42.8573" lon="2.76613">
        <ele>298</ele>
        <time>2024-07-19T09:56:02Z</time>
      </trkpt>
      <trkpt lat="42.85727" lon="2.76605">
        <ele>298</ele>
        <time>2024-07-19T09:56:04Z</time>
      </trkpt>
      <trkpt lat="42.85723" lon="2.76597">
        <ele>299</ele>
        <time>2024-07-19T09:56:06Z</time>
      </trkpt>
      <trkpt lat="42.8572" lon="2.76589">
        <ele>299</ele>
        <time>2024-07-19T09:56:08Z</time>
      </trkpt>
      <trkpt lat="42.85716" lon="2.76581">
        <ele>299</ele>
        <time>2024-07-19T09:56:10Z</time>
      </trkpt>
      <trkpt lat="42.85713" lon="2.76573">
        <ele>299</ele>
        <time>2024-07-19T09:56:12Z</time>
      </trkpt>
      <trkpt lat="42.8571" lon="2.76565">
        <ele>300</ele>
        <time>2024-07-19T09:56:14Z</time>
      </trkpt>
      <trkpt lat="42.85707" lon="2.76556">
        <ele>300</ele>
        <time>2024-07-19T09:56:16Z</time>
      </trkpt>
      <trkpt lat="42.85704" lon="2.76545">
        <ele>300</ele>
        <time>2024-07-19T09:56:18Z</time>
      </trkpt>
      <trkpt lat="42.85703" lon="2.76535">
        <ele>300</ele>
        <time>2024-07-19T09:56:20Z</time>
      </trkpt>
      <trkpt lat="42.85699" lon="2.76525">
        <ele>300</ele>
        <time>2024-07-19T09:56:22Z</time>
      </trkpt>
      <trkpt lat="42.85696" lon="2.76515">
        <ele>300</ele>
        <time>2024-07-19T09:56:24Z</time>
      </trkpt>
      <trkpt lat="42.85692" lon="2.76506">
        <ele>300</ele>
        <time>2024-07-19T09:56:26Z</time>
      </trkpt>
      <trkpt lat="42.85688" lon="2.76498">
        <ele>300</ele>
        <time>2024-07-19T09:56:28Z</time>
      </trkpt>
      <trkpt lat="42.85684" lon="2.76488">
        <ele>300</ele>
        <time>2024-07-19T09:56:30Z</time>
      </trkpt>
      <trkpt lat="42.8568" lon="2.76478">
        <ele>300</ele>
        <time>2024-07-19T09:56:32Z</time>
      </trkpt>
      <trkpt lat="42.85678" lon="2.76467">
        <ele>299</ele>
        <time>2024-07-19T09:56:34Z</time>
      </trkpt>
      <trkpt lat="42.85679" lon="2.76454">
        <ele>299</ele>
        <time>2024-07-19T09:56:36Z</time>
      </trkpt>
      <trkpt lat="42.8568" lon="2.76447">
        <ele>298</ele>
        <time>2024-07-19T09:56:37Z</time>
      </trkpt>
      <trkpt lat="42.8568" lon="2.76436">
        <ele>298</ele>
        <time>2024-07-19T09:56:39Z</time>
      </trkpt>
      <trkpt lat="42.85679" lon="2.76429">
        <ele>297</ele>
        <time>2024-07-19T09:56:41Z</time>
      </trkpt>
      <trkpt lat="42.8568" lon="2.76422">
        <ele>297</ele>
        <time>2024-07-19T09:56:54Z</time>
      </trkpt>
      <trkpt lat="42.85681" lon="2.76412">
        <ele>297</ele>
        <time>2024-07-19T09:56:56Z</time>
      </trkpt>
      <trkpt lat="42.85681" lon="2.76401">
        <ele>296</ele>
        <time>2024-07-19T09:56:58Z</time>
      </trkpt>
      <trkpt lat="42.85681" lon="2.76395">
        <ele>296</ele>
        <time>2024-07-19T09:56:59Z</time>
      </trkpt>
      <trkpt lat="42.85681" lon="2.76388">
        <ele>295</ele>
        <time>2024-07-19T09:57:00Z</time>
      </trkpt>
      <trkpt lat="42.8568" lon="2.76382">
        <ele>295</ele>
        <time>2024-07-19T09:57:01Z</time>
      </trkpt>
      <trkpt lat="42.85679" lon="2.76375">
        <ele>295</ele>
        <time>2024-07-19T09:57:02Z</time>
      </trkpt>
      <trkpt lat="42.85678" lon="2.76368">
        <ele>294</ele>
        <time>2024-07-19T09:57:03Z</time>
      </trkpt>
      <trkpt lat="42.85677" lon="2.76361">
        <ele>294</ele>
        <time>2024-07-19T09:57:04Z</time>
      </trkpt>
      <trkpt lat="42.85675" lon="2.76355">
        <ele>293</ele>
        <time>2024-07-19T09:57:05Z</time>
      </trkpt>
      <trkpt lat="42.85672" lon="2.76348">
        <ele>293</ele>
        <time>2024-07-19T09:57:06Z</time>
      </trkpt>
      <trkpt lat="42.85669" lon="2.76341">
        <ele>292</ele>
        <time>2024-07-19T09:57:07Z</time>
      </trkpt>
      <trkpt lat="42.85666" lon="2.76333">
        <ele>291</ele>
        <time>2024-07-19T09:57:08Z</time>
      </trkpt>
      <trkpt lat="42.85663" lon="2.76326">
        <ele>291</ele>
        <time>2024-07-19T09:57:09Z</time>
      </trkpt>
      <trkpt lat="42.85659" lon="2.76319">
        <ele>290</ele>
        <time>2024-07-19T09:57:10Z</time>
      </trkpt>
      <trkpt lat="42.85654" lon="2.76313">
        <ele>289</ele>
        <time>2024-07-19T09:57:11Z</time>
      </trkpt>
      <trkpt lat="42.85648" lon="2.76307">
        <ele>289</ele>
        <time>2024-07-19T09:57:12Z</time>
      </trkpt>
      <trkpt lat="42.85643" lon="2.763">
        <ele>288</ele>
        <time>2024-07-19T09:57:13Z</time>
      </trkpt>
      <trkpt lat="42.85639" lon="2.76294">
        <ele>288</ele>
        <time>2024-07-19T09:57:14Z</time>
      </trkpt>
      <trkpt lat="42.85635" lon="2.76287">
        <ele>288</ele>
        <time>2024-07-19T09:57:15Z</time>
      </trkpt>
      <trkpt lat="42.85631" lon="2.76281">
        <ele>287</ele>
        <time>2024-07-19T09:57:16Z</time>
      </trkpt>
      <trkpt lat="42.85627" lon="2.76276">
        <ele>287</ele>
        <time>2024-07-19T09:57:17Z</time>
      </trkpt>
      <trkpt lat="42.85624" lon="2.76271">
        <ele>287</ele>
        <time>2024-07-19T09:57:18Z</time>
      </trkpt>
      <trkpt lat="42.85621" lon="2.76266">
        <ele>288</ele>
        <time>2024-07-19T09:57:19Z</time>
      </trkpt>
      <trkpt lat="42.85618" lon="2.76261">
        <ele>288</ele>
        <time>2024-07-19T09:57:20Z</time>
      </trkpt>
      <trkpt lat="42.85615" lon="2.76256">
        <ele>288</ele>
        <time>2024-07-19T09:57:21Z</time>
      </trkpt>
      <trkpt lat="42.85611" lon="2.76251">
        <ele>288</ele>
        <time>2024-07-19T09:57:22Z</time>
      </trkpt>
      <trkpt lat="42.85608" lon="2.76247">
        <ele>288</ele>
        <time>2024-07-19T09:57:23Z</time>
      </trkpt>
      <trkpt lat="42.85604" lon="2.76243">
        <ele>288</ele>
        <time>2024-07-19T09:57:24Z</time>
      </trkpt>
      <trkpt lat="42.856" lon="2.7624">
        <ele>289</ele>
        <time>2024-07-19T09:57:25Z</time>
      </trkpt>
      <trkpt lat="42.85593" lon="2.76233">
        <ele>289</ele>
        <time>2024-07-19T09:57:27Z</time>
      </trkpt>
      <trkpt lat="42.85587" lon="2.76225">
        <ele>289</ele>
        <time>2024-07-19T09:57:29Z</time>
      </trkpt>
      <trkpt lat="42.8558" lon="2.76219">
        <ele>290</ele>
        <time>2024-07-19T09:57:31Z</time>
      </trkpt>
      <trkpt lat="42.85574" lon="2.76213">
        <ele>290</ele>
        <time>2024-07-19T09:57:33Z</time>
      </trkpt>
      <trkpt lat="42.85568" lon="2.76207">
        <ele>291</ele>
        <time>2024-07-19T09:57:35Z</time>
      </trkpt>
      <trkpt lat="42.85561" lon="2.76203">
        <ele>291</ele>
        <time>2024-07-19T09:57:37Z</time>
      </trkpt>
      <trkpt lat="42.85553" lon="2.762">
        <ele>292</ele>
        <time>2024-07-19T09:57:39Z</time>
      </trkpt>
      <trkpt lat="42.85546" lon="2.76196">
        <ele>292</ele>
        <time>2024-07-19T09:57:41Z</time>
      </trkpt>
      <trkpt lat="42.8554" lon="2.76191">
        <ele>293</ele>
        <time>2024-07-19T09:57:43Z</time>
      </trkpt>
      <trkpt lat="42.85533" lon="2.76184">
        <ele>294</ele>
        <time>2024-07-19T09:57:45Z</time>
      </trkpt>
      <trkpt lat="42.85527" lon="2.76175">
        <ele>294</ele>
        <time>2024-07-19T09:57:47Z</time>
      </trkpt>
      <trkpt lat="42.85523" lon="2.76171">
        <ele>294</ele>
        <time>2024-07-19T09:57:48Z</time>
      </trkpt>
      <trkpt lat="42.8552" lon="2.76167">
        <ele>294</ele>
        <time>2024-07-19T09:57:49Z</time>
      </trkpt>
      <trkpt lat="42.85516" lon="2.76164">
        <ele>294</ele>
        <time>2024-07-19T09:57:50Z</time>
      </trkpt>
      <trkpt lat="42.85511" lon="2.7616">
        <ele>294</ele>
        <time>2024-07-19T09:57:51Z</time>
      </trkpt>
      <trkpt lat="42.85507" lon="2.76157">
        <ele>294</ele>
        <time>2024-07-19T09:57:52Z</time>
      </trkpt>
      <trkpt lat="42.85503" lon="2.76153">
        <ele>294</ele>
        <time>2024-07-19T09:57:53Z</time>
      </trkpt>
      <trkpt lat="42.855" lon="2.76149">
        <ele>294</ele>
        <time>2024-07-19T09:57:54Z</time>
      </trkpt>
      <trkpt lat="42.85492" lon="2.76141">
        <ele>294</ele>
        <time>2024-07-19T09:57:56Z</time>
      </trkpt>
      <trkpt lat="42.85489" lon="2.76138">
        <ele>295</ele>
        <time>2024-07-19T09:57:57Z</time>
      </trkpt>
      <trkpt lat="42.85484" lon="2.76136">
        <ele>295</ele>
        <time>2024-07-19T09:57:58Z</time>
      </trkpt>
      <trkpt lat="42.85476" lon="2.76131">
        <ele>295</ele>
        <time>2024-07-19T09:58:00Z</time>
      </trkpt>
      <trkpt lat="42.85468" lon="2.76126">
        <ele>295</ele>
        <time>2024-07-19T09:58:02Z</time>
      </trkpt>
      <trkpt lat="42.8546" lon="2.76121">
        <ele>295</ele>
        <time>2024-07-19T09:58:04Z</time>
      </trkpt>
      <trkpt lat="42.85456" lon="2.76117">
        <ele>295</ele>
        <time>2024-07-19T09:58:05Z</time>
      </trkpt>
      <trkpt lat="42.85453" lon="2.76113">
        <ele>295</ele>
        <time>2024-07-19T09:58:06Z</time>
      </trkpt>
      <trkpt lat="42.8545" lon="2.76108">
        <ele>295</ele>
        <time>2024-07-19T09:58:07Z</time>
      </trkpt>
      <trkpt lat="42.85446" lon="2.76103">
        <ele>295</ele>
        <time>2024-07-19T09:58:08Z</time>
      </trkpt>
      <trkpt lat="42.85442" lon="2.76099">
        <ele>295</ele>
        <time>2024-07-19T09:58:09Z</time>
      </trkpt>
      <trkpt lat="42.85437" lon="2.76095">
        <ele>295</ele>
        <time>2024-07-19T09:58:10Z</time>
      </trkpt>
      <trkpt lat="42.85432" lon="2.76094">
        <ele>294</ele>
        <time>2024-07-19T09:58:11Z</time>
      </trkpt>
      <trkpt lat="42.85426" lon="2.76093">
        <ele>294</ele>
        <time>2024-07-19T09:58:12Z</time>
      </trkpt>
      <trkpt lat="42.85421" lon="2.76094">
        <ele>294</ele>
        <time>2024-07-19T09:58:13Z</time>
      </trkpt>
      <trkpt lat="42.85417" lon="2.76096">
        <ele>293</ele>
        <time>2024-07-19T09:58:14Z</time>
      </trkpt>
      <trkpt lat="42.85412" lon="2.76098">
        <ele>293</ele>
        <time>2024-07-19T09:58:15Z</time>
      </trkpt>
      <trkpt lat="42.85407" lon="2.761">
        <ele>292</ele>
        <time>2024-07-19T09:58:16Z</time>
      </trkpt>
      <trkpt lat="42.85405" lon="2.76106">
        <ele>292</ele>
        <time>2024-07-19T09:58:17Z</time>
      </trkpt>
      <trkpt lat="42.85403" lon="2.76113">
        <ele>292</ele>
        <time>2024-07-19T09:58:18Z</time>
      </trkpt>
      <trkpt lat="42.85402" lon="2.7612">
        <ele>291</ele>
        <time>2024-07-19T09:58:19Z</time>
      </trkpt>
      <trkpt lat="42.85402" lon="2.76127">
        <ele>291</ele>
        <time>2024-07-19T09:58:20Z</time>
      </trkpt>
      <trkpt lat="42.85402" lon="2.76134">
        <ele>291</ele>
        <time>2024-07-19T09:58:21Z</time>
      </trkpt>
      <trkpt lat="42.85402" lon="2.76141">
        <ele>291</ele>
        <time>2024-07-19T09:58:22Z</time>
      </trkpt>
      <trkpt lat="42.85403" lon="2.76148">
        <ele>291</ele>
        <time>2024-07-19T09:58:23Z</time>
      </trkpt>
      <trkpt lat="42.85403" lon="2.76155">
        <ele>291</ele>
        <time>2024-07-19T09:58:24Z</time>
      </trkpt>
      <trkpt lat="42.85403" lon="2.76163">
        <ele>291</ele>
        <time>2024-07-19T09:58:25Z</time>
      </trkpt>
      <trkpt lat="42.85403" lon="2.76169">
        <ele>290</ele>
        <time>2024-07-19T09:58:26Z</time>
      </trkpt>
      <trkpt lat="42.85403" lon="2.76176">
        <ele>290</ele>
        <time>2024-07-19T09:58:27Z</time>
      </trkpt>
      <trkpt lat="42.85402" lon="2.76183">
        <ele>289</ele>
        <time>2024-07-19T09:58:28Z</time>
      </trkpt>
      <trkpt lat="42.85399" lon="2.76189">
        <ele>289</ele>
        <time>2024-07-19T09:58:29Z</time>
      </trkpt>
      <trkpt lat="42.85396" lon="2.76195">
        <ele>288</ele>
        <time>2024-07-19T09:58:30Z</time>
      </trkpt>
      <trkpt lat="42.85392" lon="2.76199">
        <ele>288</ele>
        <time>2024-07-19T09:58:31Z</time>
      </trkpt>
      <trkpt lat="42.85388" lon="2.76204">
        <ele>287</ele>
        <time>2024-07-19T09:58:32Z</time>
      </trkpt>
      <trkpt lat="42.85383" lon="2.76206">
        <ele>287</ele>
        <time>2024-07-19T09:58:33Z</time>
      </trkpt>
      <trkpt lat="42.85377" lon="2.76208">
        <ele>286</ele>
        <time>2024-07-19T09:58:34Z</time>
      </trkpt>
      <trkpt lat="42.85372" lon="2.76207">
        <ele>286</ele>
        <time>2024-07-19T09:58:35Z</time>
      </trkpt>
      <trkpt lat="42.85368" lon="2.76205">
        <ele>286</ele>
        <time>2024-07-19T09:58:36Z</time>
      </trkpt>
      <trkpt lat="42.85362" lon="2.76204">
        <ele>286</ele>
        <time>2024-07-19T09:58:37Z</time>
      </trkpt>
      <trkpt lat="42.85357" lon="2.76203">
        <ele>285</ele>
        <time>2024-07-19T09:58:38Z</time>
      </trkpt>
      <trkpt lat="42.85352" lon="2.76201">
        <ele>285</ele>
        <time>2024-07-19T09:58:39Z</time>
      </trkpt>
      <trkpt lat="42.85347" lon="2.76197">
        <ele>285</ele>
        <time>2024-07-19T09:58:40Z</time>
      </trkpt>
      <trkpt lat="42.85342" lon="2.76193">
        <ele>284</ele>
        <time>2024-07-19T09:58:41Z</time>
      </trkpt>
      <trkpt lat="42.85337" lon="2.76189">
        <ele>284</ele>
        <time>2024-07-19T09:58:42Z</time>
      </trkpt>
      <trkpt lat="42.85332" lon="2.76185">
        <ele>283</ele>
        <time>2024-07-19T09:58:43Z</time>
      </trkpt>
      <trkpt lat="42.85326" lon="2.7618">
        <ele>283</ele>
        <time>2024-07-19T09:58:44Z</time>
      </trkpt>
      <trkpt lat="42.85321" lon="2.76175">
        <ele>283</ele>
        <time>2024-07-19T09:58:45Z</time>
      </trkpt>
      <trkpt lat="42.85316" lon="2.76169">
        <ele>282</ele>
        <time>2024-07-19T09:58:46Z</time>
      </trkpt>
      <trkpt lat="42.85311" lon="2.76164">
        <ele>282</ele>
        <time>2024-07-19T09:58:47Z</time>
      </trkpt>
      <trkpt lat="42.85305" lon="2.76158">
        <ele>281</ele>
        <time>2024-07-19T09:58:48Z</time>
      </trkpt>
      <trkpt lat="42.85299" lon="2.76153">
        <ele>281</ele>
        <time>2024-07-19T09:58:49Z</time>
      </trkpt>
      <trkpt lat="42.85294" lon="2.76147">
        <ele>280</ele>
        <time>2024-07-19T09:58:50Z</time>
      </trkpt>
      <trkpt lat="42.85289" lon="2.76142">
        <ele>279</ele>
        <time>2024-07-19T09:58:51Z</time>
      </trkpt>
      <trkpt lat="42.85285" lon="2.76137">
        <ele>279</ele>
        <time>2024-07-19T09:58:52Z</time>
      </trkpt>
      <trkpt lat="42.8528" lon="2.76133">
        <ele>278</ele>
        <time>2024-07-19T09:58:53Z</time>
      </trkpt>
      <trkpt lat="42.85275" lon="2.76131">
        <ele>278</ele>
        <time>2024-07-19T09:58:54Z</time>
      </trkpt>
      <trkpt lat="42.8527" lon="2.76128">
        <ele>277</ele>
        <time>2024-07-19T09:58:55Z</time>
      </trkpt>
      <trkpt lat="42.85264" lon="2.76126">
        <ele>277</ele>
        <time>2024-07-19T09:58:56Z</time>
      </trkpt>
      <trkpt lat="42.85259" lon="2.76123">
        <ele>277</ele>
        <time>2024-07-19T09:58:57Z</time>
      </trkpt>
      <trkpt lat="42.85254" lon="2.76121">
        <ele>276</ele>
        <time>2024-07-19T09:58:58Z</time>
      </trkpt>
      <trkpt lat="42.85249" lon="2.76119">
        <ele>276</ele>
        <time>2024-07-19T09:58:59Z</time>
      </trkpt>
      <trkpt lat="42.85245" lon="2.76118">
        <ele>276</ele>
        <time>2024-07-19T09:59:00Z</time>
      </trkpt>
      <trkpt lat="42.8524" lon="2.76123">
        <ele>275</ele>
        <time>2024-07-19T09:59:02Z</time>
      </trkpt>
      <trkpt lat="42.85238" lon="2.76132">
        <ele>275</ele>
        <time>2024-07-19T09:59:04Z</time>
      </trkpt>
      <trkpt lat="42.85236" lon="2.76143">
        <ele>275</ele>
        <time>2024-07-19T09:59:06Z</time>
      </trkpt>
      <trkpt lat="42.85233" lon="2.76154">
        <ele>275</ele>
        <time>2024-07-19T09:59:08Z</time>
      </trkpt>
      <trkpt lat="42.85231" lon="2.76166">
        <ele>275</ele>
        <time>2024-07-19T09:59:10Z</time>
      </trkpt>
      <trkpt lat="42.85229" lon="2.76172">
        <ele>275</ele>
        <time>2024-07-19T09:59:11Z</time>
      </trkpt>
      <trkpt lat="42.85228" lon="2.76179">
        <ele>276</ele>
        <time>2024-07-19T09:59:12Z</time>
      </trkpt>
      <trkpt lat="42.85226" lon="2.76185">
        <ele>276</ele>
        <time>2024-07-19T09:59:13Z</time>
      </trkpt>
      <trkpt lat="42.85225" lon="2.76191">
        <ele>276</ele>
        <time>2024-07-19T09:59:14Z</time>
      </trkpt>
      <trkpt lat="42.85224" lon="2.76198">
        <ele>276</ele>
        <time>2024-07-19T09:59:15Z</time>
      </trkpt>
      <trkpt lat="42.85223" lon="2.76204">
        <ele>276</ele>
        <time>2024-07-19T09:59:16Z</time>
      </trkpt>
      <trkpt lat="42.85221" lon="2.7621">
        <ele>276</ele>
        <time>2024-07-19T09:59:17Z</time>
      </trkpt>
      <trkpt lat="42.8522" lon="2.76216">
        <ele>276</ele>
        <time>2024-07-19T09:59:18Z</time>
      </trkpt>
      <trkpt lat="42.85218" lon="2.76222">
        <ele>276</ele>
        <time>2024-07-19T09:59:19Z</time>
      </trkpt>
      <trkpt lat="42.85217" lon="2.76229">
        <ele>276</ele>
        <time>2024-07-19T09:59:20Z</time>
      </trkpt>
      <trkpt lat="42.85215" lon="2.76235">
        <ele>276</ele>
        <time>2024-07-19T09:59:21Z</time>
      </trkpt>
      <trkpt lat="42.85214" lon="2.76242">
        <ele>276</ele>
        <time>2024-07-19T09:59:22Z</time>
      </trkpt>
      <trkpt lat="42.85213" lon="2.76248">
        <ele>276</ele>
        <time>2024-07-19T09:59:23Z</time>
      </trkpt>
      <trkpt lat="42.85212" lon="2.76254">
        <ele>275</ele>
        <time>2024-07-19T09:59:24Z</time>
      </trkpt>
      <trkpt lat="42.8521" lon="2.7626">
        <ele>275</ele>
        <time>2024-07-19T09:59:25Z</time>
      </trkpt>
      <trkpt lat="42.85209" lon="2.76266">
        <ele>275</ele>
        <time>2024-07-19T09:59:26Z</time>
      </trkpt>
      <trkpt lat="42.85206" lon="2.76275">
        <ele>275</ele>
        <time>2024-07-19T09:59:28Z</time>
      </trkpt>
      <trkpt lat="42.85201" lon="2.76276">
        <ele>274</ele>
        <time>2024-07-19T09:59:30Z</time>
      </trkpt>
      <trkpt lat="42.85197" lon="2.76271">
        <ele>273</ele>
        <time>2024-07-19T09:59:32Z</time>
      </trkpt>
      <trkpt lat="42.85191" lon="2.76267">
        <ele>273</ele>
        <time>2024-07-19T09:59:34Z</time>
      </trkpt>
      <trkpt lat="42.85185" lon="2.76263">
        <ele>273</ele>
        <time>2024-07-19T09:59:36Z</time>
      </trkpt>
      <trkpt lat="42.85178" lon="2.76259">
        <ele>272</ele>
        <time>2024-07-19T09:59:38Z</time>
      </trkpt>
      <trkpt lat="42.85172" lon="2.76255">
        <ele>272</ele>
        <time>2024-07-19T09:59:40Z</time>
      </trkpt>
      <trkpt lat="42.85165" lon="2.76252">
        <ele>272</ele>
        <time>2024-07-19T09:59:42Z</time>
      </trkpt>
      <trkpt lat="42.85159" lon="2.76256">
        <ele>272</ele>
        <time>2024-07-19T09:59:44Z</time>
      </trkpt>
      <trkpt lat="42.85156" lon="2.76265">
        <ele>272</ele>
        <time>2024-07-19T09:59:46Z</time>
      </trkpt>
      <trkpt lat="42.85155" lon="2.76277">
        <ele>272</ele>
        <time>2024-07-19T09:59:48Z</time>
      </trkpt>
      <trkpt lat="42.85153" lon="2.76288">
        <ele>271</ele>
        <time>2024-07-19T09:59:50Z</time>
      </trkpt>
      <trkpt lat="42.85151" lon="2.76299">
        <ele>271</ele>
        <time>2024-07-19T09:59:52Z</time>
      </trkpt>
      <trkpt lat="42.85149" lon="2.7631">
        <ele>271</ele>
        <time>2024-07-19T09:59:54Z</time>
      </trkpt>
      <trkpt lat="42.85146" lon="2.76322">
        <ele>270</ele>
        <time>2024-07-19T09:59:56Z</time>
      </trkpt>
      <trkpt lat="42.85145" lon="2.76329">
        <ele>270</ele>
        <time>2024-07-19T09:59:57Z</time>
      </trkpt>
      <trkpt lat="42.85143" lon="2.76335">
        <ele>269</ele>
        <time>2024-07-19T09:59:58Z</time>
      </trkpt>
      <trkpt lat="42.85141" lon="2.76341">
        <ele>269</ele>
        <time>2024-07-19T09:59:59Z</time>
      </trkpt>
      <trkpt lat="42.8514" lon="2.76348">
        <ele>268</ele>
        <time>2024-07-19T10:00:00Z</time>
      </trkpt>
      <trkpt lat="42.8514" lon="2.76355">
        <ele>268</ele>
        <time>2024-07-19T10:00:01Z</time>
      </trkpt>
      <trkpt lat="42.85139" lon="2.76361">
        <ele>267</ele>
        <time>2024-07-19T10:00:02Z</time>
      </trkpt>
      <trkpt lat="42.85138" lon="2.76368">
        <ele>267</ele>
        <time>2024-07-19T10:00:03Z</time>
      </trkpt>
      <trkpt lat="42.85136" lon="2.76375">
        <ele>267</ele>
        <time>2024-07-19T10:00:04Z</time>
      </trkpt>
      <trkpt lat="42.85136" lon="2.76382">
        <ele>266</ele>
        <time>2024-07-19T10:00:05Z</time>
      </trkpt>
      <trkpt lat="42.85136" lon="2.7639">
        <ele>265</ele>
        <time>2024-07-19T10:00:06Z</time>
      </trkpt>
      <trkpt lat="42.85136" lon="2.76397">
        <ele>265</ele>
        <time>2024-07-19T10:00:07Z</time>
      </trkpt>
      <trkpt lat="42.85136" lon="2.76404">
        <ele>264</ele>
        <time>2024-07-19T10:00:08Z</time>
      </trkpt>
      <trkpt lat="42.85135" lon="2.76411">
        <ele>264</ele>
        <time>2024-07-19T10:00:09Z</time>
      </trkpt>
      <trkpt lat="42.85133" lon="2.76419">
        <ele>263</ele>
        <time>2024-07-19T10:00:10Z</time>
      </trkpt>
      <trkpt lat="42.85132" lon="2.76425">
        <ele>263</ele>
        <time>2024-07-19T10:00:11Z</time>
      </trkpt>
      <trkpt lat="42.85129" lon="2.76432">
        <ele>263</ele>
        <time>2024-07-19T10:00:12Z</time>
      </trkpt>
      <trkpt lat="42.85128" lon="2.76439">
        <ele>262</ele>
        <time>2024-07-19T10:00:13Z</time>
      </trkpt>
      <trkpt lat="42.85128" lon="2.76445">
        <ele>262</ele>
        <time>2024-07-19T10:00:14Z</time>
      </trkpt>
      <trkpt lat="42.85128" lon="2.76452">
        <ele>262</ele>
        <time>2024-07-19T10:00:15Z</time>
      </trkpt>
      <trkpt lat="42.85129" lon="2.76458">
        <ele>262</ele>
        <time>2024-07-19T10:00:16Z</time>
      </trkpt>
      <trkpt lat="42.8513" lon="2.76464">
        <ele>262</ele>
        <time>2024-07-19T10:00:17Z</time>
      </trkpt>
      <trkpt lat="42.85131" lon="2.76471">
        <ele>262</ele>
        <time>2024-07-19T10:00:18Z</time>
      </trkpt>
      <trkpt lat="42.85133" lon="2.76476">
        <ele>262</ele>
        <time>2024-07-19T10:00:19Z</time>
      </trkpt>
      <trkpt lat="42.85136" lon="2.76487">
        <ele>262</ele>
        <time>2024-07-19T10:00:21Z</time>
      </trkpt>
      <trkpt lat="42.85138" lon="2.76495">
        <ele>263</ele>
        <time>2024-07-19T10:00:23Z</time>
      </trkpt>
      <trkpt lat="42.85139" lon="2.76501">
        <ele>263</ele>
        <time>2024-07-19T10:00:25Z</time>
      </trkpt>
      <trkpt lat="42.8514" lon="2.76508">
        <ele>263</ele>
        <time>2024-07-19T10:00:27Z</time>
      </trkpt>
      <trkpt lat="42.85141" lon="2.76515">
        <ele>263</ele>
        <time>2024-07-19T10:00:29Z</time>
      </trkpt>
      <trkpt lat="42.85142" lon="2.76524">
        <ele>264</ele>
        <time>2024-07-19T10:00:31Z</time>
      </trkpt>
      <trkpt lat="42.85143" lon="2.76531">
        <ele>264</ele>
        <time>2024-07-19T10:00:33Z</time>
      </trkpt>
      <trkpt lat="42.85144" lon="2.76539">
        <ele>264</ele>
        <time>2024-07-19T10:00:35Z</time>
      </trkpt>
      <trkpt lat="42.85146" lon="2.76546">
        <ele>264</ele>
        <time>2024-07-19T10:00:37Z</time>
      </trkpt>
      <trkpt lat="42.85146" lon="2.76554">
        <ele>264</ele>
        <time>2024-07-19T10:00:39Z</time>
      </trkpt>
      <trkpt lat="42.85147" lon="2.76561">
        <ele>264</ele>
        <time>2024-07-19T10:00:41Z</time>
      </trkpt>
      <trkpt lat="42.85148" lon="2.76568">
        <ele>264</ele>
        <time>2024-07-19T10:00:43Z</time>
      </trkpt>
      <trkpt lat="42.85149" lon="2.76576">
        <ele>265</ele>
        <time>2024-07-19T10:00:45Z</time>
      </trkpt>
      <trkpt lat="42.8515" lon="2.76583">
        <ele>265</ele>
        <time>2024-07-19T10:00:47Z</time>
      </trkpt>
      <trkpt lat="42.85152" lon="2.76591">
        <ele>265</ele>
        <time>2024-07-19T10:00:49Z</time>
      </trkpt>
      <trkpt lat="42.85154" lon="2.76599">
        <ele>265</ele>
        <time>2024-07-19T10:00:51Z</time>
      </trkpt>
      <trkpt lat="42.85156" lon="2.76608">
        <ele>265</ele>
        <time>2024-07-19T10:00:53Z</time>
      </trkpt>
      <trkpt lat="42.85158" lon="2.76618">
        <ele>265</ele>
        <time>2024-07-19T10:00:55Z</time>
      </trkpt>
      <trkpt lat="42.8516" lon="2.76627">
        <ele>265</ele>
        <time>2024-07-19T10:00:57Z</time>
      </trkpt>
      <trkpt lat="42.85163" lon="2.76637">
        <ele>265</ele>
        <time>2024-07-19T10:00:59Z</time>
      </trkpt>
      <trkpt lat="42.85165" lon="2.76646">
        <ele>265</ele>
        <time>2024-07-19T10:01:01Z</time>
      </trkpt>
      <trkpt lat="42.85168" lon="2.76656">
        <ele>265</ele>
        <time>2024-07-19T10:01:03Z</time>
      </trkpt>
      <trkpt lat="42.8517" lon="2.76665">
        <ele>265</ele>
        <time>2024-07-19T10:01:05Z</time>
      </trkpt>
      <trkpt lat="42.85173" lon="2.76673">
        <ele>265</ele>
        <time>2024-07-19T10:01:07Z</time>
      </trkpt>
      <trkpt lat="42.85175" lon="2.76682">
        <ele>264</ele>
        <time>2024-07-19T10:01:09Z</time>
      </trkpt>
      <trkpt lat="42.85177" lon="2.76692">
        <ele>264</ele>
        <time>2024-07-19T10:01:11Z</time>
      </trkpt>
      <trkpt lat="42.85179" lon="2.767">
        <ele>264</ele>
        <time>2024-07-19T10:01:13Z</time>
      </trkpt>
      <trkpt lat="42.85181" lon="2.7671">
        <ele>263</ele>
        <time>2024-07-19T10:01:15Z</time>
      </trkpt>
      <trkpt lat="42.85184" lon="2.76719">
        <ele>263</ele>
        <time>2024-07-19T10:01:17Z</time>
      </trkpt>
      <trkpt lat="42.85186" lon="2.76728">
        <ele>263</ele>
        <time>2024-07-19T10:01:19Z</time>
      </trkpt>
      <trkpt lat="42.85189" lon="2.76737">
        <ele>262</ele>
        <time>2024-07-19T10:01:21Z</time>
      </trkpt>
      <trkpt lat="42.85193" lon="2.76745">
        <ele>262</ele>
        <time>2024-07-19T10:01:23Z</time>
      </trkpt>
      <trkpt lat="42.85196" lon="2.76753">
        <ele>261</ele>
        <time>2024-07-19T10:01:25Z</time>
      </trkpt>
      <trkpt lat="42.852" lon="2.76761">
        <ele>261</ele>
        <time>2024-07-19T10:01:27Z</time>
      </trkpt>
      <trkpt lat="42.85202" lon="2.76769">
        <ele>260</ele>
        <time>2024-07-19T10:01:29Z</time>
      </trkpt>
      <trkpt lat="42.852" lon="2.76776">
        <ele>260</ele>
        <time>2024-07-19T10:01:31Z</time>
      </trkpt>
      <trkpt lat="42.85195" lon="2.76782">
        <ele>259</ele>
        <time>2024-07-19T10:01:33Z</time>
      </trkpt>
      <trkpt lat="42.85193" lon="2.76789">
        <ele>258</ele>
        <time>2024-07-19T10:01:35Z</time>
      </trkpt>
      <trkpt lat="42.85191" lon="2.76796">
        <ele>257</ele>
        <time>2024-07-19T10:01:37Z</time>
      </trkpt>
      <trkpt lat="42.85192" lon="2.76803">
        <ele>256</ele>
        <time>2024-07-19T10:01:39Z</time>
      </trkpt>
      <trkpt lat="42.85196" lon="2.76808">
        <ele>255</ele>
        <time>2024-07-19T10:01:41Z</time>
      </trkpt>
      <trkpt lat="42.85199" lon="2.76814">
        <ele>254</ele>
        <time>2024-07-19T10:01:43Z</time>
      </trkpt>
      <trkpt lat="42.85201" lon="2.76821">
        <ele>253</ele>
        <time>2024-07-19T10:01:45Z</time>
      </trkpt>
      <trkpt lat="42.85201" lon="2.76828">
        <ele>252</ele>
        <time>2024-07-19T10:01:47Z</time>
      </trkpt>
      <trkpt lat="42.85202" lon="2.76834">
        <ele>251</ele>
        <time>2024-07-19T10:01:49Z</time>
      </trkpt>
      <trkpt lat="42.85203" lon="2.76842">
        <ele>250</ele>
        <time>2024-07-19T10:01:51Z</time>
      </trkpt>
      <trkpt lat="42.85202" lon="2.7685">
        <ele>250</ele>
        <time>2024-07-19T10:01:53Z</time>
      </trkpt>
      <trkpt lat="42.85203" lon="2.76859">
        <ele>249</ele>
        <time>2024-07-19T10:01:55Z</time>
      </trkpt>
      <trkpt lat="42.85203" lon="2.76868">
        <ele>248</ele>
        <time>2024-07-19T10:01:57Z</time>
      </trkpt>
      <trkpt lat="42.85202" lon="2.76878">
        <ele>247</ele>
        <time>2024-07-19T10:01:59Z</time>
      </trkpt>
      <trkpt lat="42.85202" lon="2.76886">
        <ele>246</ele>
        <time>2024-07-19T10:02:01Z</time>
      </trkpt>
      <trkpt lat="42.85202" lon="2.76894">
        <ele>244</ele>
        <time>2024-07-19T10:02:03Z</time>
      </trkpt>
      <trkpt lat="42.85205" lon="2.76902">
        <ele>243</ele>
        <time>2024-07-19T10:02:05Z</time>
      </trkpt>
      <trkpt lat="42.85204" lon="2.7691">
        <ele>242</ele>
        <time>2024-07-19T10:02:07Z</time>
      </trkpt>
      <trkpt lat="42.85204" lon="2.7692">
        <ele>241</ele>
        <time>2024-07-19T10:02:09Z</time>
      </trkpt>
      <trkpt lat="42.85204" lon="2.76931">
        <ele>239</ele>
        <time>2024-07-19T10:02:11Z</time>
      </trkpt>
      <trkpt lat="42.85206" lon="2.76936">
        <ele>238</ele>
        <time>2024-07-19T10:02:12Z</time>
      </trkpt>
      <trkpt lat="42.85207" lon="2.76943">
        <ele>237</ele>
        <time>2024-07-19T10:02:13Z</time>
      </trkpt>
      <trkpt lat="42.85209" lon="2.7695">
        <ele>236</ele>
        <time>2024-07-19T10:02:14Z</time>
      </trkpt>
      <trkpt lat="42.8521" lon="2.76956">
        <ele>236</ele>
        <time>2024-07-19T10:02:15Z</time>
      </trkpt>
      <trkpt lat="42.85211" lon="2.76963">
        <ele>235</ele>
        <time>2024-07-19T10:02:16Z</time>
      </trkpt>
      <trkpt lat="42.85213" lon="2.7697">
        <ele>235</ele>
        <time>2024-07-19T10:02:17Z</time>
      </trkpt>
      <trkpt lat="42.85214" lon="2.76978">
        <ele>234</ele>
        <time>2024-07-19T10:02:18Z</time>
      </trkpt>
      <trkpt lat="42.85214" lon="2.76985">
        <ele>233</ele>
        <time>2024-07-19T10:02:19Z</time>
      </trkpt>
      <trkpt lat="42.85215" lon="2.76992">
        <ele>233</ele>
        <time>2024-07-19T10:02:20Z</time>
      </trkpt>
      <trkpt lat="42.85216" lon="2.76999">
        <ele>232</ele>
        <time>2024-07-19T10:02:21Z</time>
      </trkpt>
      <trkpt lat="42.85217" lon="2.77005">
        <ele>231</ele>
        <time>2024-07-19T10:02:22Z</time>
      </trkpt>
      <trkpt lat="42.85219" lon="2.77012">
        <ele>231</ele>
        <time>2024-07-19T10:02:24Z</time>
      </trkpt>
      <trkpt lat="42.85214" lon="2.77015">
        <ele>230</ele>
        <time>2024-07-19T10:02:28Z</time>
      </trkpt>
      <trkpt lat="42.85211" lon="2.77009">
        <ele>229</ele>
        <time>2024-07-19T10:02:30Z</time>
      </trkpt>
      <trkpt lat="42.85206" lon="2.77003">
        <ele>228</ele>
        <time>2024-07-19T10:02:32Z</time>
      </trkpt>
      <trkpt lat="42.85203" lon="2.76996">
        <ele>227</ele>
        <time>2024-07-19T10:02:34Z</time>
      </trkpt>
      <trkpt lat="42.85199" lon="2.76989">
        <ele>226</ele>
        <time>2024-07-19T10:02:36Z</time>
      </trkpt>
      <trkpt lat="42.85194" lon="2.76984">
        <ele>225</ele>
        <time>2024-07-19T10:02:38Z</time>
      </trkpt>
      <trkpt lat="42.8519" lon="2.76979">
        <ele>223</ele>
        <time>2024-07-19T10:02:40Z</time>
      </trkpt>
      <trkpt lat="42.85186" lon="2.76974">
        <ele>222</ele>
        <time>2024-07-19T10:02:43Z</time>
      </trkpt>
      <trkpt lat="42.85185" lon="2.76981">
        <ele>221</ele>
        <time>2024-07-19T10:02:45Z</time>
      </trkpt>
      <trkpt lat="42.85185" lon="2.7699">
        <ele>219</ele>
        <time>2024-07-19T10:02:47Z</time>
      </trkpt>
      <trkpt lat="42.85186" lon="2.77001">
        <ele>218</ele>
        <time>2024-07-19T10:02:49Z</time>
      </trkpt>
      <trkpt lat="42.85188" lon="2.77011">
        <ele>217</ele>
        <time>2024-07-19T10:02:51Z</time>
      </trkpt>
      <trkpt lat="42.8519" lon="2.77021">
        <ele>216</ele>
        <time>2024-07-19T10:02:53Z</time>
      </trkpt>
      <trkpt lat="42.85189" lon="2.77028">
        <ele>215</ele>
        <time>2024-07-19T10:02:55Z</time>
      </trkpt>
      <trkpt lat="42.85184" lon="2.77024">
        <ele>213</ele>
        <time>2024-07-19T10:02:58Z</time>
      </trkpt>
      <trkpt lat="42.85179" lon="2.77016">
        <ele>212</ele>
        <time>2024-07-19T10:03:00Z</time>
      </trkpt>
      <trkpt lat="42.85173" lon="2.77007">
        <ele>211</ele>
        <time>2024-07-19T10:03:02Z</time>
      </trkpt>
      <trkpt lat="42.85168" lon="2.76999">
        <ele>210</ele>
        <time>2024-07-19T10:03:04Z</time>
      </trkpt>
      <trkpt lat="42.85163" lon="2.76993">
        <ele>209</ele>
        <time>2024-07-19T10:03:06Z</time>
      </trkpt>
      <trkpt lat="42.85159" lon="2.76989">
        <ele>208</ele>
        <time>2024-07-19T10:03:08Z</time>
      </trkpt>
      <trkpt lat="42.85152" lon="2.76992">
        <ele>207</ele>
        <time>2024-07-19T10:03:10Z</time>
      </trkpt>
      <trkpt lat="42.85153" lon="2.76998">
        <ele>206</ele>
        <time>2024-07-19T10:03:13Z</time>
      </trkpt>
      <trkpt lat="42.85152" lon="2.77005">
        <ele>205</ele>
        <time>2024-07-19T10:03:15Z</time>
      </trkpt>
      <trkpt lat="42.85154" lon="2.77011">
        <ele>204</ele>
        <time>2024-07-19T10:03:17Z</time>
      </trkpt>
      <trkpt lat="42.85156" lon="2.77018">
        <ele>203</ele>
        <time>2024-07-19T10:03:19Z</time>
      </trkpt>
      <trkpt lat="42.85158" lon="2.77029">
        <ele>203</ele>
        <time>2024-07-19T10:03:21Z</time>
      </trkpt>
      <trkpt lat="42.85159" lon="2.77035">
        <ele>202</ele>
        <time>2024-07-19T10:03:22Z</time>
      </trkpt>
      <trkpt lat="42.85159" lon="2.77041">
        <ele>202</ele>
        <time>2024-07-19T10:03:23Z</time>
      </trkpt>
      <trkpt lat="42.8516" lon="2.77051">
        <ele>201</ele>
        <time>2024-07-19T10:03:25Z</time>
      </trkpt>
      <trkpt lat="42.85162" lon="2.7706">
        <ele>200</ele>
        <time>2024-07-19T10:03:27Z</time>
      </trkpt>
      <trkpt lat="42.85162" lon="2.77068">
        <ele>199</ele>
        <time>2024-07-19T10:03:29Z</time>
      </trkpt>
      <trkpt lat="42.85164" lon="2.77078">
        <ele>198</ele>
        <time>2024-07-19T10:03:31Z</time>
      </trkpt>
      <trkpt lat="42.85167" lon="2.77086">
        <ele>196</ele>
        <time>2024-07-19T10:03:33Z</time>
      </trkpt>
      <trkpt lat="42.85169" lon="2.77094">
        <ele>195</ele>
        <time>2024-07-19T10:03:35Z</time>
      </trkpt>
      <trkpt lat="42.85167" lon="2.77102">
        <ele>194</ele>
        <time>2024-07-19T10:03:37Z</time>
      </trkpt>
      <trkpt lat="42.85167" lon="2.7711">
        <ele>193</ele>
        <time>2024-07-19T10:03:40Z</time>
      </trkpt>
      <trkpt lat="42.85167" lon="2.77117">
        <ele>190</ele>
        <time>2024-07-19T10:03:43Z</time>
      </trkpt>
      <trkpt lat="42.85165" lon="2.77124">
        <ele>186</ele>
        <time>2024-07-19T10:03:47Z</time>
      </trkpt>
      <trkpt lat="42.85164" lon="2.77131">
        <ele>182</ele>
        <time>2024-07-19T10:03:50Z</time>
      </trkpt>
      <trkpt lat="42.85163" lon="2.77138">
        <ele>179</ele>
        <time>2024-07-19T10:03:53Z</time>
      </trkpt>
      <trkpt lat="42.85165" lon="2.77147">
        <ele>177</ele>
        <time>2024-07-19T10:03:56Z</time>
      </trkpt>
      <trkpt lat="42.85167" lon="2.77153">
        <ele>177</ele>
        <time>2024-07-19T10:03:58Z</time>
      </trkpt>
      <trkpt lat="42.85169" lon="2.77159">
        <ele>177</ele>
        <time>2024-07-19T10:04:00Z</time>
      </trkpt>
      <trkpt lat="42.85172" lon="2.77165">
        <ele>179</ele>
        <time>2024-07-19T10:04:02Z</time>
      </trkpt>
      <trkpt lat="42.85175" lon="2.7717">
        <ele>179</ele>
        <time>2024-07-19T10:04:04Z</time>
      </trkpt>
      <trkpt lat="42.85178" lon="2.77177">
        <ele>180</ele>
        <time>2024-07-19T10:04:06Z</time>
      </trkpt>
      <trkpt lat="42.8518" lon="2.77183">
        <ele>181</ele>
        <time>2024-07-19T10:04:08Z</time>
      </trkpt>
      <trkpt lat="42.85182" lon="2.77192">
        <ele>182</ele>
        <time>2024-07-19T10:04:11Z</time>
      </trkpt>
      <trkpt lat="42.8518" lon="2.772">
        <ele>182</ele>
        <time>2024-07-19T10:04:14Z</time>
      </trkpt>
      <trkpt lat="42.85178" lon="2.77207">
        <ele>181</ele>
        <time>2024-07-19T10:04:17Z</time>
      </trkpt>
      <trkpt lat="42.85172" lon="2.77196">
        <ele>180</ele>
        <time>2024-07-19T10:04:18Z</time>
      </trkpt>
      <trkpt lat="42.85167" lon="2.77196">
        <ele>179</ele>
        <time>2024-07-19T10:04:19Z</time>
      </trkpt>
      <trkpt lat="42.85162" lon="2.77195">
        <ele>177</ele>
        <time>2024-07-19T10:04:20Z</time>
      </trkpt>
      <trkpt lat="42.85157" lon="2.77194">
        <ele>175</ele>
        <time>2024-07-19T10:04:22Z</time>
      </trkpt>
      <trkpt lat="42.85154" lon="2.77204">
        <ele>174</ele>
        <time>2024-07-19T10:04:24Z</time>
      </trkpt>
      <trkpt lat="42.85151" lon="2.77216">
        <ele>174</ele>
        <time>2024-07-19T10:04:26Z</time>
      </trkpt>
      <trkpt lat="42.85145" lon="2.77225">
        <ele>173</ele>
        <time>2024-07-19T10:04:28Z</time>
      </trkpt>
      <trkpt lat="42.85143" lon="2.77231">
        <ele>172</ele>
        <time>2024-07-19T10:04:29Z</time>
      </trkpt>
      <trkpt lat="42.85143" lon="2.77238">
        <ele>171</ele>
        <time>2024-07-19T10:04:30Z</time>
      </trkpt>
      <trkpt lat="42.85142" lon="2.77246">
        <ele>170</ele>
        <time>2024-07-19T10:04:31Z</time>
      </trkpt>
      <trkpt lat="42.85141" lon="2.77255">
        <ele>169</ele>
        <time>2024-07-19T10:04:32Z</time>
      </trkpt>
      <trkpt lat="42.8514" lon="2.77264">
        <ele>168</ele>
        <time>2024-07-19T10:04:33Z</time>
      </trkpt>
      <trkpt lat="42.8514" lon="2.77272">
        <ele>167</ele>
        <time>2024-07-19T10:04:34Z</time>
      </trkpt>
      <trkpt lat="42.85139" lon="2.7728">
        <ele>167</ele>
        <time>2024-07-19T10:04:35Z</time>
      </trkpt>
      <trkpt lat="42.85138" lon="2.77287">
        <ele>166</ele>
        <time>2024-07-19T10:04:36Z</time>
      </trkpt>
      <trkpt lat="42.85136" lon="2.77294">
        <ele>165</ele>
        <time>2024-07-19T10:04:37Z</time>
      </trkpt>
      <trkpt lat="42.85136" lon="2.77301">
        <ele>165</ele>
        <time>2024-07-19T10:04:38Z</time>
      </trkpt>
      <trkpt lat="42.85134" lon="2.77309">
        <ele>164</ele>
        <time>2024-07-19T10:04:39Z</time>
      </trkpt>
      <trkpt lat="42.85132" lon="2.77317">
        <ele>163</ele>
        <time>2024-07-19T10:04:40Z</time>
      </trkpt>
      <trkpt lat="42.8513" lon="2.77325">
        <ele>163</ele>
        <time>2024-07-19T10:04:41Z</time>
      </trkpt>
      <trkpt lat="42.85128" lon="2.77335">
        <ele>162</ele>
        <time>2024-07-19T10:04:42Z</time>
      </trkpt>
      <trkpt lat="42.85126" lon="2.77345">
        <ele>162</ele>
        <time>2024-07-19T10:04:43Z</time>
      </trkpt>
      <trkpt lat="42.85123" lon="2.77356">
        <ele>161</ele>
        <time>2024-07-19T10:04:44Z</time>
      </trkpt>
      <trkpt lat="42.85121" lon="2.77367">
        <ele>160</ele>
        <time>2024-07-19T10:04:45Z</time>
      </trkpt>
      <trkpt lat="42.85118" lon="2.77378">
        <ele>160</ele>
        <time>2024-07-19T10:04:46Z</time>
      </trkpt>
      <trkpt lat="42.85116" lon="2.77389">
        <ele>159</ele>
        <time>2024-07-19T10:04:47Z</time>
      </trkpt>
      <trkpt lat="42.85114" lon="2.77401">
        <ele>159</ele>
        <time>2024-07-19T10:04:48Z</time>
      </trkpt>
      <trkpt lat="42.85111" lon="2.77413">
        <ele>158</ele>
        <time>2024-07-19T10:04:49Z</time>
      </trkpt>
      <trkpt lat="42.85108" lon="2.77425">
        <ele>157</ele>
        <time>2024-07-19T10:04:50Z</time>
      </trkpt>
      <trkpt lat="42.85105" lon="2.77437">
        <ele>157</ele>
        <time>2024-07-19T10:04:51Z</time>
      </trkpt>
      <trkpt lat="42.85101" lon="2.77448">
        <ele>156</ele>
        <time>2024-07-19T10:04:52Z</time>
      </trkpt>
      <trkpt lat="42.85098" lon="2.7746">
        <ele>156</ele>
        <time>2024-07-19T10:04:53Z</time>
      </trkpt>
      <trkpt lat="42.85094" lon="2.77471">
        <ele>156</ele>
        <time>2024-07-19T10:04:54Z</time>
      </trkpt>
      <trkpt lat="42.85089" lon="2.77482">
        <ele>155</ele>
        <time>2024-07-19T10:04:55Z</time>
      </trkpt>
      <trkpt lat="42.85085" lon="2.77493">
        <ele>155</ele>
        <time>2024-07-19T10:04:56Z</time>
      </trkpt>
      <trkpt lat="42.85081" lon="2.77504">
        <ele>154</ele>
        <time>2024-07-19T10:04:57Z</time>
      </trkpt>
      <trkpt lat="42.85077" lon="2.77515">
        <ele>154</ele>
        <time>2024-07-19T10:04:58Z</time>
      </trkpt>
      <trkpt lat="42.85072" lon="2.77526">
        <ele>154</ele>
        <time>2024-07-19T10:04:59Z</time>
      </trkpt>
      <trkpt lat="42.85068" lon="2.77536">
        <ele>153</ele>
        <time>2024-07-19T10:05:00Z</time>
      </trkpt>
      <trkpt lat="42.85063" lon="2.77546">
        <ele>153</ele>
        <time>2024-07-19T10:05:01Z</time>
      </trkpt>
      <trkpt lat="42.85059" lon="2.77557">
        <ele>152</ele>
        <time>2024-07-19T10:05:02Z</time>
      </trkpt>
      <trkpt lat="42.85054" lon="2.77568">
        <ele>152</ele>
        <time>2024-07-19T10:05:03Z</time>
      </trkpt>
      <trkpt lat="42.8505" lon="2.77579">
        <ele>151</ele>
        <time>2024-07-19T10:05:04Z</time>
      </trkpt>
      <trkpt lat="42.85045" lon="2.77589">
        <ele>151</ele>
        <time>2024-07-19T10:05:05Z</time>
      </trkpt>
      <trkpt lat="42.85041" lon="2.776">
        <ele>150</ele>
        <time>2024-07-19T10:05:06Z</time>
      </trkpt>
      <trkpt lat="42.85036" lon="2.77611">
        <ele>150</ele>
        <time>2024-07-19T10:05:07Z</time>
      </trkpt>
      <trkpt lat="42.85032" lon="2.77622">
        <ele>150</ele>
        <time>2024-07-19T10:05:08Z</time>
      </trkpt>
      <trkpt lat="42.85027" lon="2.77632">
        <ele>149</ele>
        <time>2024-07-19T10:05:09Z</time>
      </trkpt>
      <trkpt lat="42.85014" lon="2.77646">
        <ele>149</ele>
        <time>2024-07-19T10:05:11Z</time>
      </trkpt>
      <trkpt lat="42.85008" lon="2.77652">
        <ele>149</ele>
        <time>2024-07-19T10:05:12Z</time>
      </trkpt>
      <trkpt lat="42.85002" lon="2.77656">
        <ele>149</ele>
        <time>2024-07-19T10:05:13Z</time>
      </trkpt>
      <trkpt lat="42.84996" lon="2.7766">
        <ele>149</ele>
        <time>2024-07-19T10:05:14Z</time>
      </trkpt>
      <trkpt lat="42.84991" lon="2.77663">
        <ele>150</ele>
        <time>2024-07-19T10:05:15Z</time>
      </trkpt>
      <trkpt lat="42.84986" lon="2.77666">
        <ele>150</ele>
        <time>2024-07-19T10:05:16Z</time>
      </trkpt>
      <trkpt lat="42.84981" lon="2.77668">
        <ele>150</ele>
        <time>2024-07-19T10:05:17Z</time>
      </trkpt>
      <trkpt lat="42.84974" lon="2.7767">
        <ele>150</ele>
        <time>2024-07-19T10:05:19Z</time>
      </trkpt>
      <trkpt lat="42.84967" lon="2.77673">
        <ele>150</ele>
        <time>2024-07-19T10:05:21Z</time>
      </trkpt>
      <trkpt lat="42.84964" lon="2.77671">
        <ele>150</ele>
        <time>2024-07-19T10:05:44Z</time>
      </trkpt>
      <trkpt lat="42.84964" lon="2.7767">
        <ele>150</ele>
        <time>2024-07-19T10:05:45Z</time>
      </trkpt>
      <trkpt lat="42.84964" lon="2.7767">
        <ele>151</ele>
        <time>2024-07-19T10:06:14Z</time>
      </trkpt>
      <trkpt lat="42.84964" lon="2.7767">
        <ele>151</ele>
        <time>2024-07-19T10:06:15Z</time>
      </trkpt>
      <trkpt lat="42.8496" lon="2.77674">
        <ele>152</ele>
        <time>2024-07-19T10:06:38Z</time>
      </trkpt>
      <trkpt lat="42.84955" lon="2.77676">
        <ele>152</ele>
        <time>2024-07-19T10:06:41Z</time>
      </trkpt>
      <trkpt lat="42.8495" lon="2.77678">
        <ele>152</ele>
        <time>2024-07-19T10:06:43Z</time>
      </trkpt>
      <trkpt lat="42.84946" lon="2.77681">
        <ele>152</ele>
        <time>2024-07-19T10:06:45Z</time>
      </trkpt>
      <trkpt lat="42.84941" lon="2.77684">
        <ele>152</ele>
        <time>2024-07-19T10:06:47Z</time>
      </trkpt>
      <trkpt lat="42.84936" lon="2.77687">
        <ele>152</ele>
        <time>2024-07-19T10:06:49Z</time>
      </trkpt>
      <trkpt lat="42.84932" lon="2.7769">
        <ele>152</ele>
        <time>2024-07-19T10:06:51Z</time>
      </trkpt>
      <trkpt lat="42.84926" lon="2.77693">
        <ele>152</ele>
        <time>2024-07-19T10:06:54Z</time>
      </trkpt>
      <trkpt lat="42.84921" lon="2.77695">
        <ele>152</ele>
        <time>2024-07-19T10:06:56Z</time>
      </trkpt>
      <trkpt lat="42.84915" lon="2.77699">
        <ele>152</ele>
        <time>2024-07-19T10:06:58Z</time>
      </trkpt>
      <trkpt lat="42.8491" lon="2.77704">
        <ele>152</ele>
        <time>2024-07-19T10:07:00Z</time>
      </trkpt>
      <trkpt lat="42.84905" lon="2.7771">
        <ele>152</ele>
        <time>2024-07-19T10:07:02Z</time>
      </trkpt>
      <trkpt lat="42.84901" lon="2.77717">
        <ele>152</ele>
        <time>2024-07-19T10:07:04Z</time>
      </trkpt>
      <trkpt lat="42.84897" lon="2.77724">
        <ele>152</ele>
        <time>2024-07-19T10:07:06Z</time>
      </trkpt>
      <trkpt lat="42.84894" lon="2.77729">
        <ele>152</ele>
        <time>2024-07-19T10:07:08Z</time>
      </trkpt>
      <trkpt lat="42.84891" lon="2.77735">
        <ele>152</ele>
        <time>2024-07-19T10:07:10Z</time>
      </trkpt>
      <trkpt lat="42.84888" lon="2.77742">
        <ele>152</ele>
        <time>2024-07-19T10:07:13Z</time>
      </trkpt>
      <trkpt lat="42.84887" lon="2.77751">
        <ele>153</ele>
        <time>2024-07-19T10:07:16Z</time>
      </trkpt>
      <trkpt lat="42.84884" lon="2.77756">
        <ele>153</ele>
        <time>2024-07-19T10:07:18Z</time>
      </trkpt>
      <trkpt lat="42.84881" lon="2.77762">
        <ele>153</ele>
        <time>2024-07-19T10:07:20Z</time>
      </trkpt>
      <trkpt lat="42.84877" lon="2.77768">
        <ele>153</ele>
        <time>2024-07-19T10:07:22Z</time>
      </trkpt>
      <trkpt lat="42.84874" lon="2.77774">
        <ele>154</ele>
        <time>2024-07-19T10:07:24Z</time>
      </trkpt>
      <trkpt lat="42.8487" lon="2.7778">
        <ele>154</ele>
        <time>2024-07-19T10:07:26Z</time>
      </trkpt>
      <trkpt lat="42.84868" lon="2.77785">
        <ele>154</ele>
        <time>2024-07-19T10:07:28Z</time>
      </trkpt>
      <trkpt lat="42.84864" lon="2.77792">
        <ele>154</ele>
        <time>2024-07-19T10:07:31Z</time>
      </trkpt>
      <trkpt lat="42.84859" lon="2.77798">
        <ele>154</ele>
        <time>2024-07-19T10:07:33Z</time>
      </trkpt>
      <trkpt lat="42.84855" lon="2.77807">
        <ele>155</ele>
        <time>2024-07-19T10:07:35Z</time>
      </trkpt>
      <trkpt lat="42.84852" lon="2.77817">
        <ele>155</ele>
        <time>2024-07-19T10:07:37Z</time>
      </trkpt>
      <trkpt lat="42.84848" lon="2.77827">
        <ele>155</ele>
        <time>2024-07-19T10:07:39Z</time>
      </trkpt>
      <trkpt lat="42.84845" lon="2.77837">
        <ele>155</ele>
        <time>2024-07-19T10:07:41Z</time>
      </trkpt>
      <trkpt lat="42.8484" lon="2.77846">
        <ele>156</ele>
        <time>2024-07-19T10:07:43Z</time>
      </trkpt>
      <trkpt lat="42.84835" lon="2.77853">
        <ele>156</ele>
        <time>2024-07-19T10:07:45Z</time>
      </trkpt>
      <trkpt lat="42.84829" lon="2.77861">
        <ele>156</ele>
        <time>2024-07-19T10:07:47Z</time>
      </trkpt>
      <trkpt lat="42.84824" lon="2.7787">
        <ele>156</ele>
        <time>2024-07-19T10:07:49Z</time>
      </trkpt>
      <trkpt lat="42.8482" lon="2.77875">
        <ele>156</ele>
        <time>2024-07-19T10:07:50Z</time>
      </trkpt>
      <trkpt lat="42.84817" lon="2.7788">
        <ele>156</ele>
        <time>2024-07-19T10:07:51Z</time>
      </trkpt>
      <trkpt lat="42.84813" lon="2.77885">
        <ele>156</ele>
        <time>2024-07-19T10:07:52Z</time>
      </trkpt>
      <trkpt lat="42.8481" lon="2.7789">
        <ele>156</ele>
        <time>2024-07-19T10:07:53Z</time>
      </trkpt>
      <trkpt lat="42.84806" lon="2.77895">
        <ele>155</ele>
        <time>2024-07-19T10:07:54Z</time>
      </trkpt>
      <trkpt lat="42.84802" lon="2.779">
        <ele>155</ele>
        <time>2024-07-19T10:07:55Z</time>
      </trkpt>
      <trkpt lat="42.84798" lon="2.77906">
        <ele>155</ele>
        <time>2024-07-19T10:07:56Z</time>
      </trkpt>
      <trkpt lat="42.84794" lon="2.77911">
        <ele>155</ele>
        <time>2024-07-19T10:07:57Z</time>
      </trkpt>
      <trkpt lat="42.8479" lon="2.77917">
        <ele>155</ele>
        <time>2024-07-19T10:07:58Z</time>
      </trkpt>
      <trkpt lat="42.84786" lon="2.77923">
        <ele>154</ele>
        <time>2024-07-19T10:07:59Z</time>
      </trkpt>
      <trkpt lat="42.84783" lon="2.77929">
        <ele>154</ele>
        <time>2024-07-19T10:08:00Z</time>
      </trkpt>
      <trkpt lat="42.84779" lon="2.77935">
        <ele>155</ele>
        <time>2024-07-19T10:08:01Z</time>
      </trkpt>
      <trkpt lat="42.84777" lon="2.77941">
        <ele>155</ele>
        <time>2024-07-19T10:08:02Z</time>
      </trkpt>
      <trkpt lat="42.84775" lon="2.77948">
        <ele>155</ele>
        <time>2024-07-19T10:08:03Z</time>
      </trkpt>
      <trkpt lat="42.84773" lon="2.77954">
        <ele>155</ele>
        <time>2024-07-19T10:08:04Z</time>
      </trkpt>
      <trkpt lat="42.84772" lon="2.7796">
        <ele>156</ele>
        <time>2024-07-19T10:08:05Z</time>
      </trkpt>
      <trkpt lat="42.84771" lon="2.77966">
        <ele>156</ele>
        <time>2024-07-19T10:08:06Z</time>
      </trkpt>
      <trkpt lat="42.8477" lon="2.77972">
        <ele>156</ele>
        <time>2024-07-19T10:08:07Z</time>
      </trkpt>
      <trkpt lat="42.8477" lon="2.77979">
        <ele>156</ele>
        <time>2024-07-19T10:08:08Z</time>
      </trkpt>
      <trkpt lat="42.84769" lon="2.77986">
        <ele>156</ele>
        <time>2024-07-19T10:08:09Z</time>
      </trkpt>
      <trkpt lat="42.84769" lon="2.77992">
        <ele>157</ele>
        <time>2024-07-19T10:08:10Z</time>
      </trkpt>
      <trkpt lat="42.8477" lon="2.77999">
        <ele>157</ele>
        <time>2024-07-19T10:08:11Z</time>
      </trkpt>
      <trkpt lat="42.84771" lon="2.78005">
        <ele>157</ele>
        <time>2024-07-19T10:08:12Z</time>
      </trkpt>
      <trkpt lat="42.84772" lon="2.78012">
        <ele>158</ele>
        <time>2024-07-19T10:08:13Z</time>
      </trkpt>
      <trkpt lat="42.84773" lon="2.78018">
        <ele>158</ele>
        <time>2024-07-19T10:08:14Z</time>
      </trkpt>
      <trkpt lat="42.84775" lon="2.78024">
        <ele>158</ele>
        <time>2024-07-19T10:08:15Z</time>
      </trkpt>
      <trkpt lat="42.84776" lon="2.78031">
        <ele>158</ele>
        <time>2024-07-19T10:08:16Z</time>
      </trkpt>
      <trkpt lat="42.84777" lon="2.78037">
        <ele>158</ele>
        <time>2024-07-19T10:08:17Z</time>
      </trkpt>
      <trkpt lat="42.84778" lon="2.78044">
        <ele>158</ele>
        <time>2024-07-19T10:08:18Z</time>
      </trkpt>
      <trkpt lat="42.84779" lon="2.7805">
        <ele>158</ele>
        <time>2024-07-19T10:08:19Z</time>
      </trkpt>
      <trkpt lat="42.8478" lon="2.78056">
        <ele>159</ele>
        <time>2024-07-19T10:08:20Z</time>
      </trkpt>
      <trkpt lat="42.84782" lon="2.78061">
        <ele>159</ele>
        <time>2024-07-19T10:08:21Z</time>
      </trkpt>
      <trkpt lat="42.84784" lon="2.78073">
        <ele>159</ele>
        <time>2024-07-19T10:08:23Z</time>
      </trkpt>
      <trkpt lat="42.84787" lon="2.78084">
        <ele>159</ele>
        <time>2024-07-19T10:08:25Z</time>
      </trkpt>
      <trkpt lat="42.84791" lon="2.78094">
        <ele>160</ele>
        <time>2024-07-19T10:08:27Z</time>
      </trkpt>
      <trkpt lat="42.84795" lon="2.78105">
        <ele>160</ele>
        <time>2024-07-19T10:08:29Z</time>
      </trkpt>
      <trkpt lat="42.84799" lon="2.78115">
        <ele>161</ele>
        <time>2024-07-19T10:08:31Z</time>
      </trkpt>
      <trkpt lat="42.84803" lon="2.78126">
        <ele>161</ele>
        <time>2024-07-19T10:08:33Z</time>
      </trkpt>
      <trkpt lat="42.84806" lon="2.78131">
        <ele>161</ele>
        <time>2024-07-19T10:08:34Z</time>
      </trkpt>
      <trkpt lat="42.84808" lon="2.78137">
        <ele>161</ele>
        <time>2024-07-19T10:08:35Z</time>
      </trkpt>
      <trkpt lat="42.84811" lon="2.78143">
        <ele>162</ele>
        <time>2024-07-19T10:08:36Z</time>
      </trkpt>
      <trkpt lat="42.84813" lon="2.78149">
        <ele>162</ele>
        <time>2024-07-19T10:08:37Z</time>
      </trkpt>
      <trkpt lat="42.84816" lon="2.78155">
        <ele>162</ele>
        <time>2024-07-19T10:08:38Z</time>
      </trkpt>
      <trkpt lat="42.84819" lon="2.78161">
        <ele>162</ele>
        <time>2024-07-19T10:08:39Z</time>
      </trkpt>
      <trkpt lat="42.84821" lon="2.78167">
        <ele>162</ele>
        <time>2024-07-19T10:08:40Z</time>
      </trkpt>
      <trkpt lat="42.84824" lon="2.78174">
        <ele>162</ele>
        <time>2024-07-19T10:08:41Z</time>
      </trkpt>
      <trkpt lat="42.84826" lon="2.7818">
        <ele>162</ele>
        <time>2024-07-19T10:08:42Z</time>
      </trkpt>
      <trkpt lat="42.84829" lon="2.78186">
        <ele>162</ele>
        <time>2024-07-19T10:08:43Z</time>
      </trkpt>
      <trkpt lat="42.84832" lon="2.78193">
        <ele>162</ele>
        <time>2024-07-19T10:08:44Z</time>
      </trkpt>
      <trkpt lat="42.84835" lon="2.78199">
        <ele>162</ele>
        <time>2024-07-19T10:08:45Z</time>
      </trkpt>
      <trkpt lat="42.84837" lon="2.78205">
        <ele>162</ele>
        <time>2024-07-19T10:08:46Z</time>
      </trkpt>
      <trkpt lat="42.8484" lon="2.78211">
        <ele>162</ele>
        <time>2024-07-19T10:08:47Z</time>
      </trkpt>
      <trkpt lat="42.84843" lon="2.78217">
        <ele>162</ele>
        <time>2024-07-19T10:08:48Z</time>
      </trkpt>
      <trkpt lat="42.84845" lon="2.78223">
        <ele>162</ele>
        <time>2024-07-19T10:08:49Z</time>
      </trkpt>
      <trkpt lat="42.84848" lon="2.78229">
        <ele>162</ele>
        <time>2024-07-19T10:08:50Z</time>
      </trkpt>
      <trkpt lat="42.8485" lon="2.78235">
        <ele>162</ele>
        <time>2024-07-19T10:08:51Z</time>
      </trkpt>
      <trkpt lat="42.84853" lon="2.7824">
        <ele>162</ele>
        <time>2024-07-19T10:08:52Z</time>
      </trkpt>
      <trkpt lat="42.84856" lon="2.78246">
        <ele>162</ele>
        <time>2024-07-19T10:08:53Z</time>
      </trkpt>
      <trkpt lat="42.84858" lon="2.78251">
        <ele>162</ele>
        <time>2024-07-19T10:08:54Z</time>
      </trkpt>
      <trkpt lat="42.84861" lon="2.78256">
        <ele>163</ele>
        <time>2024-07-19T10:08:55Z</time>
      </trkpt>
      <trkpt lat="42.84868" lon="2.78265">
        <ele>163</ele>
        <time>2024-07-19T10:08:57Z</time>
      </trkpt>
      <trkpt lat="42.84874" lon="2.78272">
        <ele>163</ele>
        <time>2024-07-19T10:08:59Z</time>
      </trkpt>
      <trkpt lat="42.84882" lon="2.78279">
        <ele>163</ele>
        <time>2024-07-19T10:09:01Z</time>
      </trkpt>
      <trkpt lat="42.84885" lon="2.78283">
        <ele>163</ele>
        <time>2024-07-19T10:09:02Z</time>
      </trkpt>
      <trkpt lat="42.84893" lon="2.78289">
        <ele>164</ele>
        <time>2024-07-19T10:09:04Z</time>
      </trkpt>
      <trkpt lat="42.84901" lon="2.78296">
        <ele>164</ele>
        <time>2024-07-19T10:09:06Z</time>
      </trkpt>
      <trkpt lat="42.84909" lon="2.78302">
        <ele>164</ele>
        <time>2024-07-19T10:09:08Z</time>
      </trkpt>
      <trkpt lat="42.84916" lon="2.78308">
        <ele>165</ele>
        <time>2024-07-19T10:09:10Z</time>
      </trkpt>
      <trkpt lat="42.84923" lon="2.78314">
        <ele>165</ele>
        <time>2024-07-19T10:09:12Z</time>
      </trkpt>
      <trkpt lat="42.8493" lon="2.78321">
        <ele>165</ele>
        <time>2024-07-19T10:09:14Z</time>
      </trkpt>
      <trkpt lat="42.84937" lon="2.78327">
        <ele>166</ele>
        <time>2024-07-19T10:09:16Z</time>
      </trkpt>
      <trkpt lat="42.84942" lon="2.78335">
        <ele>166</ele>
        <time>2024-07-19T10:09:18Z</time>
      </trkpt>
      <trkpt lat="42.84942" lon="2.78341">
        <ele>166</ele>
        <time>2024-07-19T10:09:19Z</time>
      </trkpt>
      <trkpt lat="42.84942" lon="2.78348">
        <ele>166</ele>
        <time>2024-07-19T10:09:20Z</time>
      </trkpt>
      <trkpt lat="42.84942" lon="2.78355">
        <ele>166</ele>
        <time>2024-07-19T10:09:21Z</time>
      </trkpt>
      <trkpt lat="42.84942" lon="2.78363">
        <ele>166</ele>
        <time>2024-07-19T10:09:22Z</time>
      </trkpt>
      <trkpt lat="42.84941" lon="2.78371">
        <ele>166</ele>
        <time>2024-07-19T10:09:23Z</time>
      </trkpt>
      <trkpt lat="42.8494" lon="2.78379">
        <ele>166</ele>
        <time>2024-07-19T10:09:24Z</time>
      </trkpt>
      <trkpt lat="42.8494" lon="2.78387">
        <ele>165</ele>
        <time>2024-07-19T10:09:25Z</time>
      </trkpt>
      <trkpt lat="42.84939" lon="2.78396">
        <ele>165</ele>
        <time>2024-07-19T10:09:26Z</time>
      </trkpt>
      <trkpt lat="42.84939" lon="2.78405">
        <ele>165</ele>
        <time>2024-07-19T10:09:27Z</time>
      </trkpt>
      <trkpt lat="42.84938" lon="2.78414">
        <ele>165</ele>
        <time>2024-07-19T10:09:28Z</time>
      </trkpt>
      <trkpt lat="42.84938" lon="2.78422">
        <ele>165</ele>
        <time>2024-07-19T10:09:29Z</time>
      </trkpt>
      <trkpt lat="42.84937" lon="2.78431">
        <ele>165</ele>
        <time>2024-07-19T10:09:30Z</time>
      </trkpt>
      <trkpt lat="42.84937" lon="2.78439">
        <ele>165</ele>
        <time>2024-07-19T10:09:31Z</time>
      </trkpt>
      <trkpt lat="42.84936" lon="2.78448">
        <ele>165</ele>
        <time>2024-07-19T10:09:32Z</time>
      </trkpt>
      <trkpt lat="42.84936" lon="2.78457">
        <ele>165</ele>
        <time>2024-07-19T10:09:33Z</time>
      </trkpt>
      <trkpt lat="42.84935" lon="2.78466">
        <ele>165</ele>
        <time>2024-07-19T10:09:34Z</time>
      </trkpt>
      <trkpt lat="42.84934" lon="2.78474">
        <ele>165</ele>
        <time>2024-07-19T10:09:35Z</time>
      </trkpt>
      <trkpt lat="42.84934" lon="2.78483">
        <ele>165</ele>
        <time>2024-07-19T10:09:36Z</time>
      </trkpt>
      <trkpt lat="42.84934" lon="2.78492">
        <ele>165</ele>
        <time>2024-07-19T10:09:37Z</time>
      </trkpt>
      <trkpt lat="42.84934" lon="2.785">
        <ele>165</ele>
        <time>2024-07-19T10:09:38Z</time>
      </trkpt>
      <trkpt lat="42.84936" lon="2.78509">
        <ele>165</ele>
        <time>2024-07-19T10:09:39Z</time>
      </trkpt>
      <trkpt lat="42.84938" lon="2.78517">
        <ele>164</ele>
        <time>2024-07-19T10:09:40Z</time>
      </trkpt>
      <trkpt lat="42.84942" lon="2.78524">
        <ele>164</ele>
        <time>2024-07-19T10:09:41Z</time>
      </trkpt>
      <trkpt lat="42.84944" lon="2.78532">
        <ele>164</ele>
        <time>2024-07-19T10:09:42Z</time>
      </trkpt>
      <trkpt lat="42.84946" lon="2.7854">
        <ele>164</ele>
        <time>2024-07-19T10:09:43Z</time>
      </trkpt>
      <trkpt lat="42.84948" lon="2.78548">
        <ele>164</ele>
        <time>2024-07-19T10:09:44Z</time>
      </trkpt>
      <trkpt lat="42.84949" lon="2.78555">
        <ele>164</ele>
        <time>2024-07-19T10:09:45Z</time>
      </trkpt>
      <trkpt lat="42.8495" lon="2.78563">
        <ele>164</ele>
        <time>2024-07-19T10:09:46Z</time>
      </trkpt>
      <trkpt lat="42.84951" lon="2.7857">
        <ele>164</ele>
        <time>2024-07-19T10:09:47Z</time>
      </trkpt>
      <trkpt lat="42.84951" lon="2.78577">
        <ele>164</ele>
        <time>2024-07-19T10:09:48Z</time>
      </trkpt>
      <trkpt lat="42.84953" lon="2.78584">
        <ele>165</ele>
        <time>2024-07-19T10:09:49Z</time>
      </trkpt>
      <trkpt lat="42.84954" lon="2.78591">
        <ele>165</ele>
        <time>2024-07-19T10:09:50Z</time>
      </trkpt>
      <trkpt lat="42.84955" lon="2.78597">
        <ele>165</ele>
        <time>2024-07-19T10:09:51Z</time>
      </trkpt>
      <trkpt lat="42.84956" lon="2.78604">
        <ele>165</ele>
        <time>2024-07-19T10:09:52Z</time>
      </trkpt>
      <trkpt lat="42.84957" lon="2.7861">
        <ele>165</ele>
        <time>2024-07-19T10:09:53Z</time>
      </trkpt>
      <trkpt lat="42.84959" lon="2.78621">
        <ele>165</ele>
        <time>2024-07-19T10:09:55Z</time>
      </trkpt>
      <trkpt lat="42.84961" lon="2.78631">
        <ele>166</ele>
        <time>2024-07-19T10:09:57Z</time>
      </trkpt>
      <trkpt lat="42.84962" lon="2.78641">
        <ele>166</ele>
        <time>2024-07-19T10:09:59Z</time>
      </trkpt>
      <trkpt lat="42.84966" lon="2.78664">
        <ele>167</ele>
        <time>2024-07-19T10:10:03Z</time>
      </trkpt>
      <trkpt lat="42.84968" lon="2.78675">
        <ele>168</ele>
        <time>2024-07-19T10:10:05Z</time>
      </trkpt>
      <trkpt lat="42.84972" lon="2.78687">
        <ele>169</ele>
        <time>2024-07-19T10:10:07Z</time>
      </trkpt>
      <trkpt lat="42.84975" lon="2.78698">
        <ele>169</ele>
        <time>2024-07-19T10:10:09Z</time>
      </trkpt>
      <trkpt lat="42.84978" lon="2.78709">
        <ele>170</ele>
        <time>2024-07-19T10:10:11Z</time>
      </trkpt>
      <trkpt lat="42.84981" lon="2.7872">
        <ele>170</ele>
        <time>2024-07-19T10:10:13Z</time>
      </trkpt>
      <trkpt lat="42.84983" lon="2.78731">
        <ele>171</ele>
        <time>2024-07-19T10:10:15Z</time>
      </trkpt>
      <trkpt lat="42.84986" lon="2.78742">
        <ele>171</ele>
        <time>2024-07-19T10:10:17Z</time>
      </trkpt>
      <trkpt lat="42.84987" lon="2.78754">
        <ele>172</ele>
        <time>2024-07-19T10:10:19Z</time>
      </trkpt>
      <trkpt lat="42.84988" lon="2.7876">
        <ele>172</ele>
        <time>2024-07-19T10:10:20Z</time>
      </trkpt>
      <trkpt lat="42.8499" lon="2.78766">
        <ele>173</ele>
        <time>2024-07-19T10:10:21Z</time>
      </trkpt>
      <trkpt lat="42.84991" lon="2.78772">
        <ele>173</ele>
        <time>2024-07-19T10:10:22Z</time>
      </trkpt>
      <trkpt lat="42.84993" lon="2.78784">
        <ele>173</ele>
        <time>2024-07-19T10:10:24Z</time>
      </trkpt>
      <trkpt lat="42.84995" lon="2.78795">
        <ele>174</ele>
        <time>2024-07-19T10:10:26Z</time>
      </trkpt>
      <trkpt lat="42.84996" lon="2.78807">
        <ele>174</ele>
        <time>2024-07-19T10:10:28Z</time>
      </trkpt>
      <trkpt lat="42.84997" lon="2.78819">
        <ele>175</ele>
        <time>2024-07-19T10:10:30Z</time>
      </trkpt>
      <trkpt lat="42.84997" lon="2.78826">
        <ele>175</ele>
        <time>2024-07-19T10:10:31Z</time>
      </trkpt>
      <trkpt lat="42.84997" lon="2.78832">
        <ele>175</ele>
        <time>2024-07-19T10:10:32Z</time>
      </trkpt>
      <trkpt lat="42.84997" lon="2.78839">
        <ele>176</ele>
        <time>2024-07-19T10:10:33Z</time>
      </trkpt>
      <trkpt lat="42.84997" lon="2.78846">
        <ele>176</ele>
        <time>2024-07-19T10:10:34Z</time>
      </trkpt>
      <trkpt lat="42.84997" lon="2.78853">
        <ele>176</ele>
        <time>2024-07-19T10:10:35Z</time>
      </trkpt>
      <trkpt lat="42.84997" lon="2.7886">
        <ele>176</ele>
        <time>2024-07-19T10:10:36Z</time>
      </trkpt>
      <trkpt lat="42.84997" lon="2.78867">
        <ele>177</ele>
        <time>2024-07-19T10:10:37Z</time>
      </trkpt>
      <trkpt lat="42.84997" lon="2.78874">
        <ele>177</ele>
        <time>2024-07-19T10:10:38Z</time>
      </trkpt>
      <trkpt lat="42.84998" lon="2.78881">
        <ele>177</ele>
        <time>2024-07-19T10:10:39Z</time>
      </trkpt>
      <trkpt lat="42.84999" lon="2.78888">
        <ele>177</ele>
        <time>2024-07-19T10:10:40Z</time>
      </trkpt>
      <trkpt lat="42.84999" lon="2.78895">
        <ele>177</ele>
        <time>2024-07-19T10:10:41Z</time>
      </trkpt>
      <trkpt lat="42.85" lon="2.78902">
        <ele>178</ele>
        <time>2024-07-19T10:10:42Z</time>
      </trkpt>
      <trkpt lat="42.85001" lon="2.78909">
        <ele>178</ele>
        <time>2024-07-19T10:10:43Z</time>
      </trkpt>
      <trkpt lat="42.85002" lon="2.78916">
        <ele>178</ele>
        <time>2024-07-19T10:10:44Z</time>
      </trkpt>
      <trkpt lat="42.85002" lon="2.78923">
        <ele>178</ele>
        <time>2024-07-19T10:10:45Z</time>
      </trkpt>
      <trkpt lat="42.85003" lon="2.78929">
        <ele>178</ele>
        <time>2024-07-19T10:10:46Z</time>
      </trkpt>
      <trkpt lat="42.85004" lon="2.78936">
        <ele>178</ele>
        <time>2024-07-19T10:10:47Z</time>
      </trkpt>
      <trkpt lat="42.85004" lon="2.78942">
        <ele>178</ele>
        <time>2024-07-19T10:10:48Z</time>
      </trkpt>
      <trkpt lat="42.85005" lon="2.78949">
        <ele>178</ele>
        <time>2024-07-19T10:10:49Z</time>
      </trkpt>
      <trkpt lat="42.85005" lon="2.78955">
        <ele>179</ele>
        <time>2024-07-19T10:10:50Z</time>
      </trkpt>
      <trkpt lat="42.85006" lon="2.78961">
        <ele>179</ele>
        <time>2024-07-19T10:10:51Z</time>
      </trkpt>
      <trkpt lat="42.85006" lon="2.78968">
        <ele>179</ele>
        <time>2024-07-19T10:10:52Z</time>
      </trkpt>
      <trkpt lat="42.85007" lon="2.78974">
        <ele>179</ele>
        <time>2024-07-19T10:10:53Z</time>
      </trkpt>
      <trkpt lat="42.85008" lon="2.78981">
        <ele>180</ele>
        <time>2024-07-19T10:10:54Z</time>
      </trkpt>
      <trkpt lat="42.85009" lon="2.78987">
        <ele>180</ele>
        <time>2024-07-19T10:10:55Z</time>
      </trkpt>
      <trkpt lat="42.85012" lon="2.78993">
        <ele>180</ele>
        <time>2024-07-19T10:10:56Z</time>
      </trkpt>
      <trkpt lat="42.85014" lon="2.79">
        <ele>180</ele>
        <time>2024-07-19T10:10:57Z</time>
      </trkpt>
      <trkpt lat="42.85016" lon="2.79006">
        <ele>180</ele>
        <time>2024-07-19T10:10:58Z</time>
      </trkpt>
      <trkpt lat="42.85017" lon="2.79012">
        <ele>180</ele>
        <time>2024-07-19T10:10:59Z</time>
      </trkpt>
      <trkpt lat="42.85019" lon="2.79019">
        <ele>180</ele>
        <time>2024-07-19T10:11:00Z</time>
      </trkpt>
      <trkpt lat="42.85021" lon="2.79025">
        <ele>181</ele>
        <time>2024-07-19T10:11:01Z</time>
      </trkpt>
      <trkpt lat="42.85022" lon="2.79032">
        <ele>181</ele>
        <time>2024-07-19T10:11:02Z</time>
      </trkpt>
      <trkpt lat="42.85023" lon="2.79038">
        <ele>181</ele>
        <time>2024-07-19T10:11:03Z</time>
      </trkpt>
      <trkpt lat="42.85025" lon="2.79045">
        <ele>181</ele>
        <time>2024-07-19T10:11:04Z</time>
      </trkpt>
      <trkpt lat="42.85025" lon="2.79052">
        <ele>181</ele>
        <time>2024-07-19T10:11:05Z</time>
      </trkpt>
      <trkpt lat="42.85026" lon="2.79059">
        <ele>182</ele>
        <time>2024-07-19T10:11:06Z</time>
      </trkpt>
      <trkpt lat="42.85027" lon="2.79066">
        <ele>182</ele>
        <time>2024-07-19T10:11:07Z</time>
      </trkpt>
      <trkpt lat="42.85028" lon="2.79073">
        <ele>182</ele>
        <time>2024-07-19T10:11:08Z</time>
      </trkpt>
      <trkpt lat="42.85028" lon="2.79079">
        <ele>182</ele>
        <time>2024-07-19T10:11:09Z</time>
      </trkpt>
      <trkpt lat="42.85029" lon="2.79086">
        <ele>182</ele>
        <time>2024-07-19T10:11:10Z</time>
      </trkpt>
      <trkpt lat="42.85029" lon="2.79093">
        <ele>182</ele>
        <time>2024-07-19T10:11:11Z</time>
      </trkpt>
      <trkpt lat="42.8503" lon="2.791">
        <ele>183</ele>
        <time>2024-07-19T10:11:12Z</time>
      </trkpt>
      <trkpt lat="42.8503" lon="2.79107">
        <ele>183</ele>
        <time>2024-07-19T10:11:13Z</time>
      </trkpt>
      <trkpt lat="42.85031" lon="2.79114">
        <ele>183</ele>
        <time>2024-07-19T10:11:14Z</time>
      </trkpt>
      <trkpt lat="42.85032" lon="2.79121">
        <ele>183</ele>
        <time>2024-07-19T10:11:15Z</time>
      </trkpt>
      <trkpt lat="42.85032" lon="2.79128">
        <ele>183</ele>
        <time>2024-07-19T10:11:16Z</time>
      </trkpt>
      <trkpt lat="42.85033" lon="2.79134">
        <ele>183</ele>
        <time>2024-07-19T10:11:17Z</time>
      </trkpt>
      <trkpt lat="42.85034" lon="2.79141">
        <ele>183</ele>
        <time>2024-07-19T10:11:18Z</time>
      </trkpt>
      <trkpt lat="42.85035" lon="2.79148">
        <ele>184</ele>
        <time>2024-07-19T10:11:19Z</time>
      </trkpt>
      <trkpt lat="42.85036" lon="2.79155">
        <ele>184</ele>
        <time>2024-07-19T10:11:20Z</time>
      </trkpt>
      <trkpt lat="42.85037" lon="2.79161">
        <ele>184</ele>
        <time>2024-07-19T10:11:21Z</time>
      </trkpt>
      <trkpt lat="42.85037" lon="2.79168">
        <ele>184</ele>
        <time>2024-07-19T10:11:22Z</time>
      </trkpt>
      <trkpt lat="42.85038" lon="2.79179">
        <ele>185</ele>
        <time>2024-07-19T10:11:24Z</time>
      </trkpt>
      <trkpt lat="42.8504" lon="2.7919">
        <ele>185</ele>
        <time>2024-07-19T10:11:26Z</time>
      </trkpt>
      <trkpt lat="42.85042" lon="2.79201">
        <ele>186</ele>
        <time>2024-07-19T10:11:28Z</time>
      </trkpt>
      <trkpt lat="42.85043" lon="2.79213">
        <ele>186</ele>
        <time>2024-07-19T10:11:30Z</time>
      </trkpt>
      <trkpt lat="42.85044" lon="2.79223">
        <ele>187</ele>
        <time>2024-07-19T10:11:32Z</time>
      </trkpt>
      <trkpt lat="42.85044" lon="2.79233">
        <ele>187</ele>
        <time>2024-07-19T10:11:34Z</time>
      </trkpt>
      <trkpt lat="42.85043" lon="2.79242">
        <ele>188</ele>
        <time>2024-07-19T10:11:36Z</time>
      </trkpt>
      <trkpt lat="42.85042" lon="2.79252">
        <ele>189</ele>
        <time>2024-07-19T10:11:38Z</time>
      </trkpt>
      <trkpt lat="42.85042" lon="2.7926">
        <ele>190</ele>
        <time>2024-07-19T10:11:40Z</time>
      </trkpt>
      <trkpt lat="42.85041" lon="2.79269">
        <ele>190</ele>
        <time>2024-07-19T10:11:42Z</time>
      </trkpt>
      <trkpt lat="42.8504" lon="2.79277">
        <ele>191</ele>
        <time>2024-07-19T10:11:44Z</time>
      </trkpt>
      <trkpt lat="42.85039" lon="2.79285">
        <ele>192</ele>
        <time>2024-07-19T10:11:46Z</time>
      </trkpt>
      <trkpt lat="42.85038" lon="2.79293">
        <ele>193</ele>
        <time>2024-07-19T10:11:48Z</time>
      </trkpt>
      <trkpt lat="42.85037" lon="2.793">
        <ele>194</ele>
        <time>2024-07-19T10:11:50Z</time>
      </trkpt>
      <trkpt lat="42.85035" lon="2.79307">
        <ele>195</ele>
        <time>2024-07-19T10:11:52Z</time>
      </trkpt>
      <trkpt lat="42.85034" lon="2.79315">
        <ele>195</ele>
        <time>2024-07-19T10:11:54Z</time>
      </trkpt>
      <trkpt lat="42.85033" lon="2.79323">
        <ele>196</ele>
        <time>2024-07-19T10:11:56Z</time>
      </trkpt>
      <trkpt lat="42.85032" lon="2.79331">
        <ele>197</ele>
        <time>2024-07-19T10:11:58Z</time>
      </trkpt>
      <trkpt lat="42.85031" lon="2.79338">
        <ele>197</ele>
        <time>2024-07-19T10:12:00Z</time>
      </trkpt>
      <trkpt lat="42.8503" lon="2.79345">
        <ele>198</ele>
        <time>2024-07-19T10:12:02Z</time>
      </trkpt>
      <trkpt lat="42.85027" lon="2.79353">
        <ele>199</ele>
        <time>2024-07-19T10:12:04Z</time>
      </trkpt>
      <trkpt lat="42.85024" lon="2.79361">
        <ele>199</ele>
        <time>2024-07-19T10:12:06Z</time>
      </trkpt>
      <trkpt lat="42.85021" lon="2.79369">
        <ele>200</ele>
        <time>2024-07-19T10:12:08Z</time>
      </trkpt>
      <trkpt lat="42.85018" lon="2.79376">
        <ele>200</ele>
        <time>2024-07-19T10:12:10Z</time>
      </trkpt>
      <trkpt lat="42.85016" lon="2.79383">
        <ele>201</ele>
        <time>2024-07-19T10:12:12Z</time>
      </trkpt>
      <trkpt lat="42.85012" lon="2.79391">
        <ele>202</ele>
        <time>2024-07-19T10:12:14Z</time>
      </trkpt>
      <trkpt lat="42.8501" lon="2.79398">
        <ele>202</ele>
        <time>2024-07-19T10:12:16Z</time>
      </trkpt>
      <trkpt lat="42.85007" lon="2.79404">
        <ele>203</ele>
        <time>2024-07-19T10:12:18Z</time>
      </trkpt>
      <trkpt lat="42.85004" lon="2.7941">
        <ele>203</ele>
        <time>2024-07-19T10:12:20Z</time>
      </trkpt>
      <trkpt lat="42.85001" lon="2.79417">
        <ele>204</ele>
        <time>2024-07-19T10:12:22Z</time>
      </trkpt>
      <trkpt lat="42.84998" lon="2.79424">
        <ele>204</ele>
        <time>2024-07-19T10:12:24Z</time>
      </trkpt>
      <trkpt lat="42.84995" lon="2.79431">
        <ele>205</ele>
        <time>2024-07-19T10:12:26Z</time>
      </trkpt>
      <trkpt lat="42.84992" lon="2.79437">
        <ele>206</ele>
        <time>2024-07-19T10:12:28Z</time>
      </trkpt>
      <trkpt lat="42.84988" lon="2.79443">
        <ele>206</ele>
        <time>2024-07-19T10:12:30Z</time>
      </trkpt>
      <trkpt lat="42.84985" lon="2.79449">
        <ele>207</ele>
        <time>2024-07-19T10:12:32Z</time>
      </trkpt>
      <trkpt lat="42.84983" lon="2.79456">
        <ele>207</ele>
        <time>2024-07-19T10:12:34Z</time>
      </trkpt>
      <trkpt lat="42.8498" lon="2.79462">
        <ele>208</ele>
        <time>2024-07-19T10:12:36Z</time>
      </trkpt>
      <trkpt lat="42.84978" lon="2.79467">
        <ele>209</ele>
        <time>2024-07-19T10:12:38Z</time>
      </trkpt>
      <trkpt lat="42.84974" lon="2.79472">
        <ele>209</ele>
        <time>2024-07-19T10:12:40Z</time>
      </trkpt>
      <trkpt lat="42.84972" lon="2.79477">
        <ele>210</ele>
        <time>2024-07-19T10:12:42Z</time>
      </trkpt>
      <trkpt lat="42.84969" lon="2.79484">
        <ele>211</ele>
        <time>2024-07-19T10:12:45Z</time>
      </trkpt>
      <trkpt lat="42.84965" lon="2.79491">
        <ele>211</ele>
        <time>2024-07-19T10:12:48Z</time>
      </trkpt>
      <trkpt lat="42.84961" lon="2.79497">
        <ele>212</ele>
        <time>2024-07-19T10:12:51Z</time>
      </trkpt>
      <trkpt lat="42.84957" lon="2.79504">
        <ele>213</ele>
        <time>2024-07-19T10:12:54Z</time>
      </trkpt>
      <trkpt lat="42.84953" lon="2.7951">
        <ele>214</ele>
        <time>2024-07-19T10:12:57Z</time>
      </trkpt>
      <trkpt lat="42.84952" lon="2.79517">
        <ele>215</ele>
        <time>2024-07-19T10:13:00Z</time>
      </trkpt>
      <trkpt lat="42.8495" lon="2.79524">
        <ele>216</ele>
        <time>2024-07-19T10:13:03Z</time>
      </trkpt>
      <trkpt lat="42.84946" lon="2.7953">
        <ele>216</ele>
        <time>2024-07-19T10:13:06Z</time>
      </trkpt>
      <trkpt lat="42.84943" lon="2.79537">
        <ele>217</ele>
        <time>2024-07-19T10:13:09Z</time>
      </trkpt>
      <trkpt lat="42.8494" lon="2.79542">
        <ele>218</ele>
        <time>2024-07-19T10:13:12Z</time>
      </trkpt>
      <trkpt lat="42.84937" lon="2.79548">
        <ele>219</ele>
        <time>2024-07-19T10:13:15Z</time>
      </trkpt>
      <trkpt lat="42.84934" lon="2.79553">
        <ele>219</ele>
        <time>2024-07-19T10:13:18Z</time>
      </trkpt>
      <trkpt lat="42.84933" lon="2.79559">
        <ele>220</ele>
        <time>2024-07-19T10:13:21Z</time>
      </trkpt>
      <trkpt lat="42.84929" lon="2.79564">
        <ele>220</ele>
        <time>2024-07-19T10:13:24Z</time>
      </trkpt>
      <trkpt lat="42.84926" lon="2.79571">
        <ele>221</ele>
        <time>2024-07-19T10:13:28Z</time>
      </trkpt>
      <trkpt lat="42.84924" lon="2.79577">
        <ele>222</ele>
        <time>2024-07-19T10:13:31Z</time>
      </trkpt>
      <trkpt lat="42.84922" lon="2.79584">
        <ele>222</ele>
        <time>2024-07-19T10:13:35Z</time>
      </trkpt>
      <trkpt lat="42.8492" lon="2.7959">
        <ele>223</ele>
        <time>2024-07-19T10:13:38Z</time>
      </trkpt>
      <trkpt lat="42.8492" lon="2.79592">
        <ele>225</ele>
        <time>2024-07-19T10:13:59Z</time>
      </trkpt>
      <trkpt lat="42.8492" lon="2.79592">
        <ele>226</ele>
        <time>2024-07-19T10:14:00Z</time>
      </trkpt>
      <trkpt lat="42.84923" lon="2.796">
        <ele>228</ele>
        <time>2024-07-19T10:14:11Z</time>
      </trkpt>
      <trkpt lat="42.84926" lon="2.79604">
        <ele>230</ele>
        <time>2024-07-19T10:14:14Z</time>
      </trkpt>
      <trkpt lat="42.84929" lon="2.79612">
        <ele>232</ele>
        <time>2024-07-19T10:14:18Z</time>
      </trkpt>
      <trkpt lat="42.84928" lon="2.79618">
        <ele>233</ele>
        <time>2024-07-19T10:14:21Z</time>
      </trkpt>
      <trkpt lat="42.84929" lon="2.79625">
        <ele>234</ele>
        <time>2024-07-19T10:14:25Z</time>
      </trkpt>
      <trkpt lat="42.84929" lon="2.79633">
        <ele>236</ele>
        <time>2024-07-19T10:14:29Z</time>
      </trkpt>
      <trkpt lat="42.8493" lon="2.79641">
        <ele>237</ele>
        <time>2024-07-19T10:14:33Z</time>
      </trkpt>
      <trkpt lat="42.84929" lon="2.79647">
        <ele>238</ele>
        <time>2024-07-19T10:14:37Z</time>
      </trkpt>
      <trkpt lat="42.84928" lon="2.79655">
        <ele>239</ele>
        <time>2024-07-19T10:14:41Z</time>
      </trkpt>
      <trkpt lat="42.84932" lon="2.79669">
        <ele>242</ele>
        <time>2024-07-19T10:14:49Z</time>
      </trkpt>
      <trkpt lat="42.84934" lon="2.79677">
        <ele>243</ele>
        <time>2024-07-19T10:14:53Z</time>
      </trkpt>
      <trkpt lat="42.84937" lon="2.79683">
        <ele>244</ele>
        <time>2024-07-19T10:14:56Z</time>
      </trkpt>
      <trkpt lat="42.84942" lon="2.79688">
        <ele>245</ele>
        <time>2024-07-19T10:14:59Z</time>
      </trkpt>
      <trkpt lat="42.84946" lon="2.79692">
        <ele>246</ele>
        <time>2024-07-19T10:15:02Z</time>
      </trkpt>
      <trkpt lat="42.84952" lon="2.79696">
        <ele>247</ele>
        <time>2024-07-19T10:15:05Z</time>
      </trkpt>
      <trkpt lat="42.84956" lon="2.79699">
        <ele>248</ele>
        <time>2024-07-19T10:15:08Z</time>
      </trkpt>
      <trkpt lat="42.84961" lon="2.79701">
        <ele>248</ele>
        <time>2024-07-19T10:15:11Z</time>
      </trkpt>
      <trkpt lat="42.84966" lon="2.79704">
        <ele>249</ele>
        <time>2024-07-19T10:15:14Z</time>
      </trkpt>
      <trkpt lat="42.84971" lon="2.79708">
        <ele>250</ele>
        <time>2024-07-19T10:15:17Z</time>
      </trkpt>
      <trkpt lat="42.84975" lon="2.79711">
        <ele>251</ele>
        <time>2024-07-19T10:15:20Z</time>
      </trkpt>
      <trkpt lat="42.84979" lon="2.79716">
        <ele>252</ele>
        <time>2024-07-19T10:15:23Z</time>
      </trkpt>
      <trkpt lat="42.84982" lon="2.79721">
        <ele>253</ele>
        <time>2024-07-19T10:15:26Z</time>
      </trkpt>
      <trkpt lat="42.84985" lon="2.79726">
        <ele>254</ele>
        <time>2024-07-19T10:15:30Z</time>
      </trkpt>
      <trkpt lat="42.84984" lon="2.79733">
        <ele>256</ele>
        <time>2024-07-19T10:15:37Z</time>
      </trkpt>
      <trkpt lat="42.84985" lon="2.79739">
        <ele>257</ele>
        <time>2024-07-19T10:15:48Z</time>
      </trkpt>
      <trkpt lat="42.84982" lon="2.79744">
        <ele>258</ele>
        <time>2024-07-19T10:15:53Z</time>
      </trkpt>
      <trkpt lat="42.84978" lon="2.79747">
        <ele>259</ele>
        <time>2024-07-19T10:15:55Z</time>
      </trkpt>
      <trkpt lat="42.84973" lon="2.79748">
        <ele>260</ele>
        <time>2024-07-19T10:15:57Z</time>
      </trkpt>
      <trkpt lat="42.84967" lon="2.79747">
        <ele>260</ele>
        <time>2024-07-19T10:15:59Z</time>
      </trkpt>
      <trkpt lat="42.84962" lon="2.79745">
        <ele>260</ele>
        <time>2024-07-19T10:16:01Z</time>
      </trkpt>
      <trkpt lat="42.84956" lon="2.79743">
        <ele>261</ele>
        <time>2024-07-19T10:16:03Z</time>
      </trkpt>
      <trkpt lat="42.8495" lon="2.7974">
        <ele>261</ele>
        <time>2024-07-19T10:16:05Z</time>
      </trkpt>
      <trkpt lat="42.84943" lon="2.79737">
        <ele>261</ele>
        <time>2024-07-19T10:16:07Z</time>
      </trkpt>
      <trkpt lat="42.84938" lon="2.79734">
        <ele>261</ele>
        <time>2024-07-19T10:16:09Z</time>
      </trkpt>
      <trkpt lat="42.84931" lon="2.7973">
        <ele>261</ele>
        <time>2024-07-19T10:16:11Z</time>
      </trkpt>
      <trkpt lat="42.84925" lon="2.79727">
        <ele>261</ele>
        <time>2024-07-19T10:16:13Z</time>
      </trkpt>
      <trkpt lat="42.84919" lon="2.79723">
        <ele>261</ele>
        <time>2024-07-19T10:16:15Z</time>
      </trkpt>
      <trkpt lat="42.84912" lon="2.79718">
        <ele>261</ele>
        <time>2024-07-19T10:16:17Z</time>
      </trkpt>
      <trkpt lat="42.84905" lon="2.79712">
        <ele>261</ele>
        <time>2024-07-19T10:16:19Z</time>
      </trkpt>
      <trkpt lat="42.84901" lon="2.79708">
        <ele>262</ele>
        <time>2024-07-19T10:16:20Z</time>
      </trkpt>
      <trkpt lat="42.84895" lon="2.797">
        <ele>262</ele>
        <time>2024-07-19T10:16:22Z</time>
      </trkpt>
      <trkpt lat="42.84889" lon="2.79691">
        <ele>262</ele>
        <time>2024-07-19T10:16:24Z</time>
      </trkpt>
      <trkpt lat="42.84883" lon="2.79682">
        <ele>262</ele>
        <time>2024-07-19T10:16:26Z</time>
      </trkpt>
      <trkpt lat="42.84877" lon="2.79674">
        <ele>262</ele>
        <time>2024-07-19T10:16:28Z</time>
      </trkpt>
      <trkpt lat="42.84871" lon="2.79665">
        <ele>262</ele>
        <time>2024-07-19T10:16:30Z</time>
      </trkpt>
      <trkpt lat="42.84865" lon="2.79657">
        <ele>262</ele>
        <time>2024-07-19T10:16:32Z</time>
      </trkpt>
      <trkpt lat="42.84859" lon="2.79649">
        <ele>263</ele>
        <time>2024-07-19T10:16:34Z</time>
      </trkpt>
      <trkpt lat="42.84853" lon="2.79641">
        <ele>263</ele>
        <time>2024-07-19T10:16:36Z</time>
      </trkpt>
      <trkpt lat="42.84845" lon="2.79635">
        <ele>263</ele>
        <time>2024-07-19T10:16:38Z</time>
      </trkpt>
      <trkpt lat="42.84837" lon="2.7963">
        <ele>263</ele>
        <time>2024-07-19T10:16:40Z</time>
      </trkpt>
      <trkpt lat="42.84832" lon="2.79629">
        <ele>263</ele>
        <time>2024-07-19T10:16:41Z</time>
      </trkpt>
      <trkpt lat="42.84827" lon="2.79629">
        <ele>263</ele>
        <time>2024-07-19T10:16:42Z</time>
      </trkpt>
      <trkpt lat="42.84822" lon="2.79628">
        <ele>264</ele>
        <time>2024-07-19T10:16:43Z</time>
      </trkpt>
      <trkpt lat="42.84817" lon="2.7963">
        <ele>264</ele>
        <time>2024-07-19T10:16:44Z</time>
      </trkpt>
      <trkpt lat="42.84812" lon="2.79632">
        <ele>264</ele>
        <time>2024-07-19T10:16:45Z</time>
      </trkpt>
      <trkpt lat="42.84807" lon="2.79636">
        <ele>264</ele>
        <time>2024-07-19T10:16:46Z</time>
      </trkpt>
      <trkpt lat="42.84802" lon="2.79639">
        <ele>264</ele>
        <time>2024-07-19T10:16:47Z</time>
      </trkpt>
      <trkpt lat="42.84798" lon="2.79644">
        <ele>264</ele>
        <time>2024-07-19T10:16:48Z</time>
      </trkpt>
      <trkpt lat="42.84793" lon="2.79648">
        <ele>264</ele>
        <time>2024-07-19T10:16:49Z</time>
      </trkpt>
      <trkpt lat="42.84789" lon="2.79652">
        <ele>264</ele>
        <time>2024-07-19T10:16:50Z</time>
      </trkpt>
      <trkpt lat="42.84784" lon="2.79657">
        <ele>264</ele>
        <time>2024-07-19T10:16:51Z</time>
      </trkpt>
      <trkpt lat="42.8478" lon="2.79663">
        <ele>265</ele>
        <time>2024-07-19T10:16:52Z</time>
      </trkpt>
      <trkpt lat="42.84775" lon="2.79668">
        <ele>265</ele>
        <time>2024-07-19T10:16:53Z</time>
      </trkpt>
      <trkpt lat="42.84771" lon="2.79674">
        <ele>265</ele>
        <time>2024-07-19T10:16:54Z</time>
      </trkpt>
      <trkpt lat="42.84767" lon="2.79679">
        <ele>265</ele>
        <time>2024-07-19T10:16:55Z</time>
      </trkpt>
      <trkpt lat="42.84763" lon="2.79685">
        <ele>265</ele>
        <time>2024-07-19T10:16:56Z</time>
      </trkpt>
      <trkpt lat="42.84759" lon="2.79691">
        <ele>265</ele>
        <time>2024-07-19T10:16:57Z</time>
      </trkpt>
      <trkpt lat="42.84755" lon="2.79697">
        <ele>265</ele>
        <time>2024-07-19T10:16:58Z</time>
      </trkpt>
      <trkpt lat="42.84753" lon="2.79704">
        <ele>265</ele>
        <time>2024-07-19T10:16:59Z</time>
      </trkpt>
      <trkpt lat="42.84755" lon="2.79711">
        <ele>265</ele>
        <time>2024-07-19T10:17:00Z</time>
      </trkpt>
      <trkpt lat="42.84758" lon="2.79716">
        <ele>265</ele>
        <time>2024-07-19T10:17:01Z</time>
      </trkpt>
      <trkpt lat="42.84766" lon="2.79721">
        <ele>266</ele>
        <time>2024-07-19T10:17:03Z</time>
      </trkpt>
      <trkpt lat="42.84774" lon="2.79722">
        <ele>266</ele>
        <time>2024-07-19T10:17:05Z</time>
      </trkpt>
      <trkpt lat="42.84784" lon="2.79721">
        <ele>267</ele>
        <time>2024-07-19T10:17:07Z</time>
      </trkpt>
      <trkpt lat="42.84788" lon="2.79721">
        <ele>267</ele>
        <time>2024-07-19T10:17:08Z</time>
      </trkpt>
      <trkpt lat="42.84793" lon="2.79721">
        <ele>267</ele>
        <time>2024-07-19T10:17:09Z</time>
      </trkpt>
      <trkpt lat="42.84798" lon="2.79721">
        <ele>268</ele>
        <time>2024-07-19T10:17:10Z</time>
      </trkpt>
      <trkpt lat="42.84803" lon="2.79722">
        <ele>268</ele>
        <time>2024-07-19T10:17:11Z</time>
      </trkpt>
      <trkpt lat="42.84807" lon="2.79724">
        <ele>268</ele>
        <time>2024-07-19T10:17:12Z</time>
      </trkpt>
      <trkpt lat="42.84811" lon="2.79727">
        <ele>268</ele>
        <time>2024-07-19T10:17:13Z</time>
      </trkpt>
      <trkpt lat="42.84815" lon="2.79732">
        <ele>268</ele>
        <time>2024-07-19T10:17:14Z</time>
      </trkpt>
      <trkpt lat="42.84819" lon="2.79736">
        <ele>269</ele>
        <time>2024-07-19T10:17:15Z</time>
      </trkpt>
      <trkpt lat="42.84822" lon="2.79742">
        <ele>269</ele>
        <time>2024-07-19T10:17:16Z</time>
      </trkpt>
      <trkpt lat="42.84825" lon="2.79747">
        <ele>269</ele>
        <time>2024-07-19T10:17:17Z</time>
      </trkpt>
      <trkpt lat="42.84828" lon="2.79753">
        <ele>269</ele>
        <time>2024-07-19T10:17:18Z</time>
      </trkpt>
      <trkpt lat="42.84831" lon="2.79759">
        <ele>269</ele>
        <time>2024-07-19T10:17:19Z</time>
      </trkpt>
      <trkpt lat="42.84834" lon="2.79765">
        <ele>270</ele>
        <time>2024-07-19T10:17:20Z</time>
      </trkpt>
      <trkpt lat="42.84837" lon="2.7977">
        <ele>270</ele>
        <time>2024-07-19T10:17:21Z</time>
      </trkpt>
      <trkpt lat="42.8484" lon="2.79776">
        <ele>270</ele>
        <time>2024-07-19T10:17:22Z</time>
      </trkpt>
      <trkpt lat="42.84843" lon="2.79782">
        <ele>270</ele>
        <time>2024-07-19T10:17:23Z</time>
      </trkpt>
      <trkpt lat="42.84846" lon="2.79788">
        <ele>270</ele>
        <time>2024-07-19T10:17:24Z</time>
      </trkpt>
      <trkpt lat="42.84849" lon="2.79793">
        <ele>270</ele>
        <time>2024-07-19T10:17:25Z</time>
      </trkpt>
      <trkpt lat="42.84852" lon="2.79799">
        <ele>270</ele>
        <time>2024-07-19T10:17:26Z</time>
      </trkpt>
      <trkpt lat="42.84855" lon="2.79805">
        <ele>271</ele>
        <time>2024-07-19T10:17:27Z</time>
      </trkpt>
      <trkpt lat="42.84858" lon="2.7981">
        <ele>271</ele>
        <time>2024-07-19T10:17:28Z</time>
      </trkpt>
      <trkpt lat="42.84861" lon="2.79816">
        <ele>271</ele>
        <time>2024-07-19T10:17:29Z</time>
      </trkpt>
      <trkpt lat="42.84864" lon="2.79821">
        <ele>271</ele>
        <time>2024-07-19T10:17:30Z</time>
      </trkpt>
      <trkpt lat="42.84867" lon="2.79827">
        <ele>271</ele>
        <time>2024-07-19T10:17:31Z</time>
      </trkpt>
      <trkpt lat="42.84869" lon="2.79833">
        <ele>272</ele>
        <time>2024-07-19T10:17:32Z</time>
      </trkpt>
      <trkpt lat="42.84872" lon="2.79839">
        <ele>272</ele>
        <time>2024-07-19T10:17:33Z</time>
      </trkpt>
      <trkpt lat="42.84876" lon="2.79845">
        <ele>272</ele>
        <time>2024-07-19T10:17:34Z</time>
      </trkpt>
      <trkpt lat="42.84878" lon="2.79851">
        <ele>272</ele>
        <time>2024-07-19T10:17:35Z</time>
      </trkpt>
      <trkpt lat="42.84881" lon="2.79857">
        <ele>272</ele>
        <time>2024-07-19T10:17:36Z</time>
      </trkpt>
      <trkpt lat="42.84884" lon="2.79863">
        <ele>272</ele>
        <time>2024-07-19T10:17:37Z</time>
      </trkpt>
      <trkpt lat="42.84888" lon="2.79869">
        <ele>273</ele>
        <time>2024-07-19T10:17:38Z</time>
      </trkpt>
      <trkpt lat="42.8489" lon="2.79876">
        <ele>273</ele>
        <time>2024-07-19T10:17:39Z</time>
      </trkpt>
      <trkpt lat="42.84893" lon="2.79883">
        <ele>273</ele>
        <time>2024-07-19T10:17:40Z</time>
      </trkpt>
      <trkpt lat="42.84897" lon="2.79889">
        <ele>273</ele>
        <time>2024-07-19T10:17:41Z</time>
      </trkpt>
      <trkpt lat="42.849" lon="2.79895">
        <ele>273</ele>
        <time>2024-07-19T10:17:42Z</time>
      </trkpt>
      <trkpt lat="42.84903" lon="2.79902">
        <ele>273</ele>
        <time>2024-07-19T10:17:43Z</time>
      </trkpt>
      <trkpt lat="42.84907" lon="2.79908">
        <ele>274</ele>
        <time>2024-07-19T10:17:44Z</time>
      </trkpt>
      <trkpt lat="42.8491" lon="2.79915">
        <ele>274</ele>
        <time>2024-07-19T10:17:45Z</time>
      </trkpt>
      <trkpt lat="42.84913" lon="2.79922">
        <ele>274</ele>
        <time>2024-07-19T10:17:46Z</time>
      </trkpt>
      <trkpt lat="42.84915" lon="2.79929">
        <ele>274</ele>
        <time>2024-07-19T10:17:47Z</time>
      </trkpt>
      <trkpt lat="42.84918" lon="2.79936">
        <ele>275</ele>
        <time>2024-07-19T10:17:48Z</time>
      </trkpt>
      <trkpt lat="42.8492" lon="2.79943">
        <ele>275</ele>
        <time>2024-07-19T10:17:49Z</time>
      </trkpt>
      <trkpt lat="42.84922" lon="2.7995">
        <ele>275</ele>
        <time>2024-07-19T10:17:50Z</time>
      </trkpt>
      <trkpt lat="42.84924" lon="2.79958">
        <ele>275</ele>
        <time>2024-07-19T10:17:51Z</time>
      </trkpt>
      <trkpt lat="42.84927" lon="2.79965">
        <ele>275</ele>
        <time>2024-07-19T10:17:52Z</time>
      </trkpt>
      <trkpt lat="42.84929" lon="2.79973">
        <ele>276</ele>
        <time>2024-07-19T10:17:53Z</time>
      </trkpt>
      <trkpt lat="42.8493" lon="2.79981">
        <ele>276</ele>
        <time>2024-07-19T10:17:54Z</time>
      </trkpt>
      <trkpt lat="42.84932" lon="2.79989">
        <ele>276</ele>
        <time>2024-07-19T10:17:55Z</time>
      </trkpt>
      <trkpt lat="42.84934" lon="2.79996">
        <ele>276</ele>
        <time>2024-07-19T10:17:56Z</time>
      </trkpt>
      <trkpt lat="42.84935" lon="2.80004">
        <ele>276</ele>
        <time>2024-07-19T10:17:57Z</time>
      </trkpt>
      <trkpt lat="42.84937" lon="2.80012">
        <ele>277</ele>
        <time>2024-07-19T10:17:58Z</time>
      </trkpt>
      <trkpt lat="42.84938" lon="2.8002">
        <ele>277</ele>
        <time>2024-07-19T10:17:59Z</time>
      </trkpt>
      <trkpt lat="42.84939" lon="2.80028">
        <ele>277</ele>
        <time>2024-07-19T10:18:00Z</time>
      </trkpt>
      <trkpt lat="42.84939" lon="2.80036">
        <ele>277</ele>
        <time>2024-07-19T10:18:01Z</time>
      </trkpt>
      <trkpt lat="42.8494" lon="2.80044">
        <ele>277</ele>
        <time>2024-07-19T10:18:02Z</time>
      </trkpt>
      <trkpt lat="42.8494" lon="2.80052">
        <ele>277</ele>
        <time>2024-07-19T10:18:03Z</time>
      </trkpt>
      <trkpt lat="42.84941" lon="2.8006">
        <ele>278</ele>
        <time>2024-07-19T10:18:04Z</time>
      </trkpt>
      <trkpt lat="42.84942" lon="2.80068">
        <ele>278</ele>
        <time>2024-07-19T10:18:05Z</time>
      </trkpt>
      <trkpt lat="42.84941" lon="2.80076">
        <ele>278</ele>
        <time>2024-07-19T10:18:06Z</time>
      </trkpt>
      <trkpt lat="42.84941" lon="2.80084">
        <ele>278</ele>
        <time>2024-07-19T10:18:07Z</time>
      </trkpt>
      <trkpt lat="42.84942" lon="2.80092">
        <ele>278</ele>
        <time>2024-07-19T10:18:08Z</time>
      </trkpt>
      <trkpt lat="42.84942" lon="2.801">
        <ele>279</ele>
        <time>2024-07-19T10:18:09Z</time>
      </trkpt>
      <trkpt lat="42.84942" lon="2.80108">
        <ele>279</ele>
        <time>2024-07-19T10:18:10Z</time>
      </trkpt>
      <trkpt lat="42.84943" lon="2.80116">
        <ele>279</ele>
        <time>2024-07-19T10:18:11Z</time>
      </trkpt>
      <trkpt lat="42.84943" lon="2.80123">
        <ele>279</ele>
        <time>2024-07-19T10:18:12Z</time>
      </trkpt>
      <trkpt lat="42.84943" lon="2.80131">
        <ele>279</ele>
        <time>2024-07-19T10:18:13Z</time>
      </trkpt>
      <trkpt lat="42.84944" lon="2.80139">
        <ele>280</ele>
        <time>2024-07-19T10:18:14Z</time>
      </trkpt>
      <trkpt lat="42.84944" lon="2.80147">
        <ele>280</ele>
        <time>2024-07-19T10:18:15Z</time>
      </trkpt>
      <trkpt lat="42.84945" lon="2.80155">
        <ele>280</ele>
        <time>2024-07-19T10:18:16Z</time>
      </trkpt>
      <trkpt lat="42.84945" lon="2.80162">
        <ele>280</ele>
        <time>2024-07-19T10:18:17Z</time>
      </trkpt>
      <trkpt lat="42.84945" lon="2.8017">
        <ele>281</ele>
        <time>2024-07-19T10:18:18Z</time>
      </trkpt>
      <trkpt lat="42.84944" lon="2.80177">
        <ele>281</ele>
        <time>2024-07-19T10:18:19Z</time>
      </trkpt>
      <trkpt lat="42.84944" lon="2.80185">
        <ele>281</ele>
        <time>2024-07-19T10:18:20Z</time>
      </trkpt>
      <trkpt lat="42.84944" lon="2.80192">
        <ele>281</ele>
        <time>2024-07-19T10:18:21Z</time>
      </trkpt>
      <trkpt lat="42.84943" lon="2.802">
        <ele>282</ele>
        <time>2024-07-19T10:18:22Z</time>
      </trkpt>
      <trkpt lat="42.84943" lon="2.80207">
        <ele>282</ele>
        <time>2024-07-19T10:18:23Z</time>
      </trkpt>
      <trkpt lat="42.84942" lon="2.80215">
        <ele>282</ele>
        <time>2024-07-19T10:18:24Z</time>
      </trkpt>
      <trkpt lat="42.84941" lon="2.80222">
        <ele>282</ele>
        <time>2024-07-19T10:18:25Z</time>
      </trkpt>
      <trkpt lat="42.8494" lon="2.8023">
        <ele>283</ele>
        <time>2024-07-19T10:18:26Z</time>
      </trkpt>
      <trkpt lat="42.84939" lon="2.80238">
        <ele>283</ele>
        <time>2024-07-19T10:18:27Z</time>
      </trkpt>
      <trkpt lat="42.84938" lon="2.80246">
        <ele>283</ele>
        <time>2024-07-19T10:18:28Z</time>
      </trkpt>
      <trkpt lat="42.84937" lon="2.80253">
        <ele>283</ele>
        <time>2024-07-19T10:18:29Z</time>
      </trkpt>
      <trkpt lat="42.84934" lon="2.80261">
        <ele>283</ele>
        <time>2024-07-19T10:18:30Z</time>
      </trkpt>
      <trkpt lat="42.84932" lon="2.80268">
        <ele>283</ele>
        <time>2024-07-19T10:18:31Z</time>
      </trkpt>
      <trkpt lat="42.84929" lon="2.80276">
        <ele>284</ele>
        <time>2024-07-19T10:18:32Z</time>
      </trkpt>
      <trkpt lat="42.84927" lon="2.80283">
        <ele>284</ele>
        <time>2024-07-19T10:18:33Z</time>
      </trkpt>
      <trkpt lat="42.84924" lon="2.8029">
        <ele>284</ele>
        <time>2024-07-19T10:18:34Z</time>
      </trkpt>
      <trkpt lat="42.84922" lon="2.80297">
        <ele>285</ele>
        <time>2024-07-19T10:18:35Z</time>
      </trkpt>
      <trkpt lat="42.84919" lon="2.80304">
        <ele>285</ele>
        <time>2024-07-19T10:18:36Z</time>
      </trkpt>
      <trkpt lat="42.84917" lon="2.80311">
        <ele>285</ele>
        <time>2024-07-19T10:18:37Z</time>
      </trkpt>
      <trkpt lat="42.84916" lon="2.80319">
        <ele>285</ele>
        <time>2024-07-19T10:18:38Z</time>
      </trkpt>
      <trkpt lat="42.84914" lon="2.80326">
        <ele>285</ele>
        <time>2024-07-19T10:18:39Z</time>
      </trkpt>
      <trkpt lat="42.84912" lon="2.80334">
        <ele>285</ele>
        <time>2024-07-19T10:18:40Z</time>
      </trkpt>
      <trkpt lat="42.84911" lon="2.80342">
        <ele>286</ele>
        <time>2024-07-19T10:18:41Z</time>
      </trkpt>
      <trkpt lat="42.8491" lon="2.80349">
        <ele>286</ele>
        <time>2024-07-19T10:18:42Z</time>
      </trkpt>
      <trkpt lat="42.84909" lon="2.80356">
        <ele>286</ele>
        <time>2024-07-19T10:18:43Z</time>
      </trkpt>
      <trkpt lat="42.84908" lon="2.80364">
        <ele>286</ele>
        <time>2024-07-19T10:18:44Z</time>
      </trkpt>
      <trkpt lat="42.84907" lon="2.80372">
        <ele>286</ele>
        <time>2024-07-19T10:18:45Z</time>
      </trkpt>
      <trkpt lat="42.84906" lon="2.80379">
        <ele>286</ele>
        <time>2024-07-19T10:18:46Z</time>
      </trkpt>
      <trkpt lat="42.84905" lon="2.80387">
        <ele>287</ele>
        <time>2024-07-19T10:18:47Z</time>
      </trkpt>
      <trkpt lat="42.84905" lon="2.80394">
        <ele>287</ele>
        <time>2024-07-19T10:18:48Z</time>
      </trkpt>
      <trkpt lat="42.84905" lon="2.80402">
        <ele>287</ele>
        <time>2024-07-19T10:18:49Z</time>
      </trkpt>
      <trkpt lat="42.84904" lon="2.8041">
        <ele>287</ele>
        <time>2024-07-19T10:18:50Z</time>
      </trkpt>
      <trkpt lat="42.84903" lon="2.80418">
        <ele>287</ele>
        <time>2024-07-19T10:18:51Z</time>
      </trkpt>
      <trkpt lat="42.84903" lon="2.80425">
        <ele>288</ele>
        <time>2024-07-19T10:18:52Z</time>
      </trkpt>
      <trkpt lat="42.84902" lon="2.80433">
        <ele>288</ele>
        <time>2024-07-19T10:18:53Z</time>
      </trkpt>
      <trkpt lat="42.84902" lon="2.8044">
        <ele>288</ele>
        <time>2024-07-19T10:18:54Z</time>
      </trkpt>
      <trkpt lat="42.84901" lon="2.80447">
        <ele>288</ele>
        <time>2024-07-19T10:18:55Z</time>
      </trkpt>
      <trkpt lat="42.84901" lon="2.80455">
        <ele>288</ele>
        <time>2024-07-19T10:18:56Z</time>
      </trkpt>
      <trkpt lat="42.849" lon="2.80462">
        <ele>289</ele>
        <time>2024-07-19T10:18:57Z</time>
      </trkpt>
      <trkpt lat="42.84899" lon="2.80469">
        <ele>289</ele>
        <time>2024-07-19T10:18:58Z</time>
      </trkpt>
      <trkpt lat="42.84898" lon="2.80477">
        <ele>289</ele>
        <time>2024-07-19T10:18:59Z</time>
      </trkpt>
      <trkpt lat="42.84897" lon="2.80484">
        <ele>289</ele>
        <time>2024-07-19T10:19:00Z</time>
      </trkpt>
      <trkpt lat="42.84897" lon="2.80491">
        <ele>289</ele>
        <time>2024-07-19T10:19:01Z</time>
      </trkpt>
      <trkpt lat="42.84896" lon="2.80499">
        <ele>289</ele>
        <time>2024-07-19T10:19:02Z</time>
      </trkpt>
      <trkpt lat="42.84896" lon="2.80506">
        <ele>290</ele>
        <time>2024-07-19T10:19:03Z</time>
      </trkpt>
      <trkpt lat="42.84895" lon="2.80514">
        <ele>290</ele>
        <time>2024-07-19T10:19:04Z</time>
      </trkpt>
      <trkpt lat="42.84895" lon="2.80521">
        <ele>290</ele>
        <time>2024-07-19T10:19:05Z</time>
      </trkpt>
      <trkpt lat="42.84894" lon="2.80528">
        <ele>290</ele>
        <time>2024-07-19T10:19:06Z</time>
      </trkpt>
      <trkpt lat="42.84893" lon="2.80535">
        <ele>291</ele>
        <time>2024-07-19T10:19:07Z</time>
      </trkpt>
      <trkpt lat="42.84892" lon="2.80542">
        <ele>291</ele>
        <time>2024-07-19T10:19:08Z</time>
      </trkpt>
      <trkpt lat="42.84892" lon="2.80549">
        <ele>291</ele>
        <time>2024-07-19T10:19:09Z</time>
      </trkpt>
      <trkpt lat="42.84891" lon="2.80556">
        <ele>291</ele>
        <time>2024-07-19T10:19:10Z</time>
      </trkpt>
      <trkpt lat="42.8489" lon="2.80563">
        <ele>292</ele>
        <time>2024-07-19T10:19:11Z</time>
      </trkpt>
      <trkpt lat="42.8489" lon="2.80571">
        <ele>292</ele>
        <time>2024-07-19T10:19:12Z</time>
      </trkpt>
      <trkpt lat="42.84891" lon="2.80578">
        <ele>292</ele>
        <time>2024-07-19T10:19:13Z</time>
      </trkpt>
      <trkpt lat="42.84891" lon="2.80587">
        <ele>291</ele>
        <time>2024-07-19T10:19:14Z</time>
      </trkpt>
      <trkpt lat="42.84892" lon="2.80595">
        <ele>291</ele>
        <time>2024-07-19T10:19:15Z</time>
      </trkpt>
      <trkpt lat="42.84893" lon="2.80603">
        <ele>291</ele>
        <time>2024-07-19T10:19:16Z</time>
      </trkpt>
      <trkpt lat="42.84894" lon="2.80612">
        <ele>291</ele>
        <time>2024-07-19T10:19:17Z</time>
      </trkpt>
      <trkpt lat="42.84896" lon="2.8062">
        <ele>291</ele>
        <time>2024-07-19T10:19:18Z</time>
      </trkpt>
      <trkpt lat="42.84897" lon="2.80628">
        <ele>291</ele>
        <time>2024-07-19T10:19:19Z</time>
      </trkpt>
      <trkpt lat="42.84899" lon="2.80636">
        <ele>291</ele>
        <time>2024-07-19T10:19:20Z</time>
      </trkpt>
      <trkpt lat="42.84902" lon="2.80644">
        <ele>291</ele>
        <time>2024-07-19T10:19:21Z</time>
      </trkpt>
      <trkpt lat="42.84905" lon="2.80651">
        <ele>291</ele>
        <time>2024-07-19T10:19:22Z</time>
      </trkpt>
      <trkpt lat="42.84909" lon="2.80657">
        <ele>291</ele>
        <time>2024-07-19T10:19:23Z</time>
      </trkpt>
      <trkpt lat="42.84915" lon="2.80662">
        <ele>291</ele>
        <time>2024-07-19T10:19:24Z</time>
      </trkpt>
      <trkpt lat="42.8492" lon="2.80666">
        <ele>291</ele>
        <time>2024-07-19T10:19:25Z</time>
      </trkpt>
      <trkpt lat="42.84931" lon="2.80676">
        <ele>290</ele>
        <time>2024-07-19T10:19:27Z</time>
      </trkpt>
      <trkpt lat="42.84936" lon="2.80682">
        <ele>290</ele>
        <time>2024-07-19T10:19:28Z</time>
      </trkpt>
      <trkpt lat="42.84939" lon="2.80691">
        <ele>290</ele>
        <time>2024-07-19T10:19:29Z</time>
      </trkpt>
      <trkpt lat="42.84942" lon="2.80699">
        <ele>290</ele>
        <time>2024-07-19T10:19:30Z</time>
      </trkpt>
      <trkpt lat="42.84943" lon="2.80707">
        <ele>290</ele>
        <time>2024-07-19T10:19:31Z</time>
      </trkpt>
      <trkpt lat="42.84944" lon="2.80716">
        <ele>289</ele>
        <time>2024-07-19T10:19:32Z</time>
      </trkpt>
      <trkpt lat="42.84943" lon="2.80724">
        <ele>290</ele>
        <time>2024-07-19T10:19:33Z</time>
      </trkpt>
      <trkpt lat="42.84942" lon="2.80732">
        <ele>290</ele>
        <time>2024-07-19T10:19:34Z</time>
      </trkpt>
      <trkpt lat="42.8494" lon="2.8074">
        <ele>290</ele>
        <time>2024-07-19T10:19:35Z</time>
      </trkpt>
      <trkpt lat="42.84938" lon="2.80748">
        <ele>290</ele>
        <time>2024-07-19T10:19:36Z</time>
      </trkpt>
      <trkpt lat="42.84937" lon="2.80757">
        <ele>290</ele>
        <time>2024-07-19T10:19:37Z</time>
      </trkpt>
      <trkpt lat="42.84936" lon="2.80766">
        <ele>290</ele>
        <time>2024-07-19T10:19:38Z</time>
      </trkpt>
      <trkpt lat="42.84935" lon="2.80775">
        <ele>290</ele>
        <time>2024-07-19T10:19:39Z</time>
      </trkpt>
      <trkpt lat="42.84933" lon="2.80784">
        <ele>290</ele>
        <time>2024-07-19T10:19:40Z</time>
      </trkpt>
      <trkpt lat="42.84932" lon="2.80793">
        <ele>290</ele>
        <time>2024-07-19T10:19:41Z</time>
      </trkpt>
      <trkpt lat="42.84931" lon="2.80802">
        <ele>290</ele>
        <time>2024-07-19T10:19:42Z</time>
      </trkpt>
      <trkpt lat="42.84929" lon="2.8081">
        <ele>289</ele>
        <time>2024-07-19T10:19:43Z</time>
      </trkpt>
      <trkpt lat="42.84928" lon="2.80819">
        <ele>289</ele>
        <time>2024-07-19T10:19:44Z</time>
      </trkpt>
      <trkpt lat="42.84925" lon="2.80827">
        <ele>289</ele>
        <time>2024-07-19T10:19:45Z</time>
      </trkpt>
      <trkpt lat="42.84922" lon="2.80835">
        <ele>289</ele>
        <time>2024-07-19T10:19:46Z</time>
      </trkpt>
      <trkpt lat="42.8492" lon="2.80843">
        <ele>289</ele>
        <time>2024-07-19T10:19:47Z</time>
      </trkpt>
      <trkpt lat="42.84917" lon="2.80851">
        <ele>289</ele>
        <time>2024-07-19T10:19:48Z</time>
      </trkpt>
      <trkpt lat="42.84915" lon="2.80859">
        <ele>288</ele>
        <time>2024-07-19T10:19:49Z</time>
      </trkpt>
      <trkpt lat="42.84913" lon="2.80867">
        <ele>288</ele>
        <time>2024-07-19T10:19:50Z</time>
      </trkpt>
      <trkpt lat="42.84911" lon="2.80876">
        <ele>288</ele>
        <time>2024-07-19T10:19:51Z</time>
      </trkpt>
      <trkpt lat="42.8491" lon="2.80884">
        <ele>288</ele>
        <time>2024-07-19T10:19:52Z</time>
      </trkpt>
      <trkpt lat="42.84909" lon="2.80893">
        <ele>287</ele>
        <time>2024-07-19T10:19:53Z</time>
      </trkpt>
      <trkpt lat="42.84908" lon="2.80902">
        <ele>287</ele>
        <time>2024-07-19T10:19:54Z</time>
      </trkpt>
      <trkpt lat="42.84907" lon="2.8091">
        <ele>287</ele>
        <time>2024-07-19T10:19:55Z</time>
      </trkpt>
      <trkpt lat="42.84906" lon="2.80919">
        <ele>287</ele>
        <time>2024-07-19T10:19:56Z</time>
      </trkpt>
      <trkpt lat="42.84905" lon="2.80928">
        <ele>287</ele>
        <time>2024-07-19T10:19:57Z</time>
      </trkpt>
      <trkpt lat="42.84904" lon="2.80937">
        <ele>286</ele>
        <time>2024-07-19T10:19:58Z</time>
      </trkpt>
      <trkpt lat="42.84903" lon="2.80946">
        <ele>286</ele>
        <time>2024-07-19T10:19:59Z</time>
      </trkpt>
      <trkpt lat="42.84902" lon="2.80954">
        <ele>286</ele>
        <time>2024-07-19T10:20:00Z</time>
      </trkpt>
      <trkpt lat="42.84901" lon="2.80963">
        <ele>286</ele>
        <time>2024-07-19T10:20:01Z</time>
      </trkpt>
      <trkpt lat="42.849" lon="2.80973">
        <ele>285</ele>
        <time>2024-07-19T10:20:02Z</time>
      </trkpt>
      <trkpt lat="42.84898" lon="2.80982">
        <ele>285</ele>
        <time>2024-07-19T10:20:03Z</time>
      </trkpt>
      <trkpt lat="42.84897" lon="2.80992">
        <ele>284</ele>
        <time>2024-07-19T10:20:04Z</time>
      </trkpt>
      <trkpt lat="42.84896" lon="2.81002">
        <ele>284</ele>
        <time>2024-07-19T10:20:05Z</time>
      </trkpt>
      <trkpt lat="42.84895" lon="2.81012">
        <ele>283</ele>
        <time>2024-07-19T10:20:06Z</time>
      </trkpt>
      <trkpt lat="42.84894" lon="2.81023">
        <ele>283</ele>
        <time>2024-07-19T10:20:07Z</time>
      </trkpt>
      <trkpt lat="42.84893" lon="2.81033">
        <ele>282</ele>
        <time>2024-07-19T10:20:08Z</time>
      </trkpt>
      <trkpt lat="42.84894" lon="2.81043">
        <ele>282</ele>
        <time>2024-07-19T10:20:09Z</time>
      </trkpt>
      <trkpt lat="42.84896" lon="2.81053">
        <ele>282</ele>
        <time>2024-07-19T10:20:10Z</time>
      </trkpt>
      <trkpt lat="42.84899" lon="2.81062">
        <ele>282</ele>
        <time>2024-07-19T10:20:11Z</time>
      </trkpt>
      <trkpt lat="42.84902" lon="2.8107">
        <ele>282</ele>
        <time>2024-07-19T10:20:12Z</time>
      </trkpt>
      <trkpt lat="42.84905" lon="2.81078">
        <ele>282</ele>
        <time>2024-07-19T10:20:13Z</time>
      </trkpt>
      <trkpt lat="42.84909" lon="2.81086">
        <ele>282</ele>
        <time>2024-07-19T10:20:14Z</time>
      </trkpt>
      <trkpt lat="42.84912" lon="2.81093">
        <ele>282</ele>
        <time>2024-07-19T10:20:15Z</time>
      </trkpt>
      <trkpt lat="42.84915" lon="2.81101">
        <ele>282</ele>
        <time>2024-07-19T10:20:16Z</time>
      </trkpt>
      <trkpt lat="42.84918" lon="2.81109">
        <ele>282</ele>
        <time>2024-07-19T10:20:17Z</time>
      </trkpt>
      <trkpt lat="42.84921" lon="2.81117">
        <ele>282</ele>
        <time>2024-07-19T10:20:18Z</time>
      </trkpt>
      <trkpt lat="42.84923" lon="2.81125">
        <ele>281</ele>
        <time>2024-07-19T10:20:19Z</time>
      </trkpt>
      <trkpt lat="42.84925" lon="2.81134">
        <ele>281</ele>
        <time>2024-07-19T10:20:20Z</time>
      </trkpt>
      <trkpt lat="42.84927" lon="2.81143">
        <ele>281</ele>
        <time>2024-07-19T10:20:21Z</time>
      </trkpt>
      <trkpt lat="42.84929" lon="2.81152">
        <ele>281</ele>
        <time>2024-07-19T10:20:22Z</time>
      </trkpt>
      <trkpt lat="42.84932" lon="2.81161">
        <ele>280</ele>
        <time>2024-07-19T10:20:23Z</time>
      </trkpt>
      <trkpt lat="42.84934" lon="2.81169">
        <ele>280</ele>
        <time>2024-07-19T10:20:24Z</time>
      </trkpt>
      <trkpt lat="42.84935" lon="2.81177">
        <ele>280</ele>
        <time>2024-07-19T10:20:25Z</time>
      </trkpt>
      <trkpt lat="42.84938" lon="2.81185">
        <ele>280</ele>
        <time>2024-07-19T10:20:26Z</time>
      </trkpt>
      <trkpt lat="42.8494" lon="2.81193">
        <ele>280</ele>
        <time>2024-07-19T10:20:27Z</time>
      </trkpt>
      <trkpt lat="42.84943" lon="2.81201">
        <ele>280</ele>
        <time>2024-07-19T10:20:28Z</time>
      </trkpt>
      <trkpt lat="42.84947" lon="2.81209">
        <ele>280</ele>
        <time>2024-07-19T10:20:29Z</time>
      </trkpt>
      <trkpt lat="42.8495" lon="2.81216">
        <ele>280</ele>
        <time>2024-07-19T10:20:30Z</time>
      </trkpt>
      <trkpt lat="42.84955" lon="2.81222">
        <ele>280</ele>
        <time>2024-07-19T10:20:31Z</time>
      </trkpt>
      <trkpt lat="42.84961" lon="2.81226">
        <ele>280</ele>
        <time>2024-07-19T10:20:32Z</time>
      </trkpt>
      <trkpt lat="42.84967" lon="2.8123">
        <ele>280</ele>
        <time>2024-07-19T10:20:33Z</time>
      </trkpt>
      <trkpt lat="42.84973" lon="2.81232">
        <ele>280</ele>
        <time>2024-07-19T10:20:34Z</time>
      </trkpt>
      <trkpt lat="42.84979" lon="2.81234">
        <ele>280</ele>
        <time>2024-07-19T10:20:35Z</time>
      </trkpt>
      <trkpt lat="42.84985" lon="2.81236">
        <ele>280</ele>
        <time>2024-07-19T10:20:36Z</time>
      </trkpt>
      <trkpt lat="42.84992" lon="2.8124">
        <ele>279</ele>
        <time>2024-07-19T10:20:37Z</time>
      </trkpt>
      <trkpt lat="42.84998" lon="2.81244">
        <ele>279</ele>
        <time>2024-07-19T10:20:38Z</time>
      </trkpt>
      <trkpt lat="42.85002" lon="2.81251">
        <ele>279</ele>
        <time>2024-07-19T10:20:39Z</time>
      </trkpt>
      <trkpt lat="42.85006" lon="2.81259">
        <ele>279</ele>
        <time>2024-07-19T10:20:40Z</time>
      </trkpt>
      <trkpt lat="42.85009" lon="2.81267">
        <ele>278</ele>
        <time>2024-07-19T10:20:41Z</time>
      </trkpt>
      <trkpt lat="42.85012" lon="2.81276">
        <ele>278</ele>
        <time>2024-07-19T10:20:42Z</time>
      </trkpt>
      <trkpt lat="42.85014" lon="2.81285">
        <ele>278</ele>
        <time>2024-07-19T10:20:43Z</time>
      </trkpt>
      <trkpt lat="42.85016" lon="2.81294">
        <ele>278</ele>
        <time>2024-07-19T10:20:44Z</time>
      </trkpt>
      <trkpt lat="42.85019" lon="2.81304">
        <ele>277</ele>
        <time>2024-07-19T10:20:45Z</time>
      </trkpt>
      <trkpt lat="42.8502" lon="2.81313">
        <ele>277</ele>
        <time>2024-07-19T10:20:46Z</time>
      </trkpt>
      <trkpt lat="42.85022" lon="2.81322">
        <ele>277</ele>
        <time>2024-07-19T10:20:47Z</time>
      </trkpt>
      <trkpt lat="42.85024" lon="2.81332">
        <ele>277</ele>
        <time>2024-07-19T10:20:48Z</time>
      </trkpt>
      <trkpt lat="42.85026" lon="2.81341">
        <ele>276</ele>
        <time>2024-07-19T10:20:49Z</time>
      </trkpt>
      <trkpt lat="42.85028" lon="2.8135">
        <ele>276</ele>
        <time>2024-07-19T10:20:50Z</time>
      </trkpt>
      <trkpt lat="42.85029" lon="2.81359">
        <ele>276</ele>
        <time>2024-07-19T10:20:51Z</time>
      </trkpt>
      <trkpt lat="42.8503" lon="2.81368">
        <ele>276</ele>
        <time>2024-07-19T10:20:52Z</time>
      </trkpt>
      <trkpt lat="42.85032" lon="2.81378">
        <ele>275</ele>
        <time>2024-07-19T10:20:53Z</time>
      </trkpt>
      <trkpt lat="42.85033" lon="2.81386">
        <ele>275</ele>
        <time>2024-07-19T10:20:54Z</time>
      </trkpt>
      <trkpt lat="42.85036" lon="2.81395">
        <ele>275</ele>
        <time>2024-07-19T10:20:55Z</time>
      </trkpt>
      <trkpt lat="42.85038" lon="2.81403">
        <ele>275</ele>
        <time>2024-07-19T10:20:56Z</time>
      </trkpt>
      <trkpt lat="42.85042" lon="2.8141">
        <ele>275</ele>
        <time>2024-07-19T10:20:57Z</time>
      </trkpt>
      <trkpt lat="42.85046" lon="2.81417">
        <ele>275</ele>
        <time>2024-07-19T10:20:58Z</time>
      </trkpt>
      <trkpt lat="42.8505" lon="2.81424">
        <ele>275</ele>
        <time>2024-07-19T10:20:59Z</time>
      </trkpt>
      <trkpt lat="42.85054" lon="2.81431">
        <ele>275</ele>
        <time>2024-07-19T10:21:00Z</time>
      </trkpt>
      <trkpt lat="42.85059" lon="2.81438">
        <ele>275</ele>
        <time>2024-07-19T10:21:01Z</time>
      </trkpt>
      <trkpt lat="42.85062" lon="2.81446">
        <ele>274</ele>
        <time>2024-07-19T10:21:02Z</time>
      </trkpt>
      <trkpt lat="42.85066" lon="2.81454">
        <ele>274</ele>
        <time>2024-07-19T10:21:03Z</time>
      </trkpt>
      <trkpt lat="42.85068" lon="2.81463">
        <ele>274</ele>
        <time>2024-07-19T10:21:04Z</time>
      </trkpt>
      <trkpt lat="42.85069" lon="2.81473">
        <ele>274</ele>
        <time>2024-07-19T10:21:05Z</time>
      </trkpt>
      <trkpt lat="42.8507" lon="2.81482">
        <ele>274</ele>
        <time>2024-07-19T10:21:06Z</time>
      </trkpt>
      <trkpt lat="42.85071" lon="2.81491">
        <ele>273</ele>
        <time>2024-07-19T10:21:07Z</time>
      </trkpt>
      <trkpt lat="42.85072" lon="2.81501">
        <ele>273</ele>
        <time>2024-07-19T10:21:08Z</time>
      </trkpt>
      <trkpt lat="42.85072" lon="2.8151">
        <ele>273</ele>
        <time>2024-07-19T10:21:09Z</time>
      </trkpt>
      <trkpt lat="42.85073" lon="2.8152">
        <ele>273</ele>
        <time>2024-07-19T10:21:10Z</time>
      </trkpt>
      <trkpt lat="42.85074" lon="2.8153">
        <ele>273</ele>
        <time>2024-07-19T10:21:11Z</time>
      </trkpt>
      <trkpt lat="42.85075" lon="2.81539">
        <ele>272</ele>
        <time>2024-07-19T10:21:12Z</time>
      </trkpt>
      <trkpt lat="42.85076" lon="2.81549">
        <ele>272</ele>
        <time>2024-07-19T10:21:13Z</time>
      </trkpt>
      <trkpt lat="42.85078" lon="2.81559">
        <ele>272</ele>
        <time>2024-07-19T10:21:14Z</time>
      </trkpt>
      <trkpt lat="42.8508" lon="2.81568">
        <ele>272</ele>
        <time>2024-07-19T10:21:15Z</time>
      </trkpt>
      <trkpt lat="42.85083" lon="2.81577">
        <ele>272</ele>
        <time>2024-07-19T10:21:16Z</time>
      </trkpt>
      <trkpt lat="42.85087" lon="2.81586">
        <ele>271</ele>
        <time>2024-07-19T10:21:17Z</time>
      </trkpt>
      <trkpt lat="42.85091" lon="2.81594">
        <ele>271</ele>
        <time>2024-07-19T10:21:18Z</time>
      </trkpt>
      <trkpt lat="42.85095" lon="2.81603">
        <ele>271</ele>
        <time>2024-07-19T10:21:19Z</time>
      </trkpt>
      <trkpt lat="42.85097" lon="2.81613">
        <ele>271</ele>
        <time>2024-07-19T10:21:20Z</time>
      </trkpt>
      <trkpt lat="42.85099" lon="2.81622">
        <ele>271</ele>
        <time>2024-07-19T10:21:21Z</time>
      </trkpt>
      <trkpt lat="42.85101" lon="2.81632">
        <ele>270</ele>
        <time>2024-07-19T10:21:22Z</time>
      </trkpt>
      <trkpt lat="42.85102" lon="2.81642">
        <ele>270</ele>
        <time>2024-07-19T10:21:23Z</time>
      </trkpt>
      <trkpt lat="42.85103" lon="2.81651">
        <ele>270</ele>
        <time>2024-07-19T10:21:24Z</time>
      </trkpt>
      <trkpt lat="42.85105" lon="2.81661">
        <ele>270</ele>
        <time>2024-07-19T10:21:25Z</time>
      </trkpt>
      <trkpt lat="42.85106" lon="2.8167">
        <ele>270</ele>
        <time>2024-07-19T10:21:26Z</time>
      </trkpt>
      <trkpt lat="42.85107" lon="2.81679">
        <ele>270</ele>
        <time>2024-07-19T10:21:27Z</time>
      </trkpt>
      <trkpt lat="42.85109" lon="2.81697">
        <ele>270</ele>
        <time>2024-07-19T10:21:29Z</time>
      </trkpt>
      <trkpt lat="42.85111" lon="2.81706">
        <ele>269</ele>
        <time>2024-07-19T10:21:30Z</time>
      </trkpt>
      <trkpt lat="42.85112" lon="2.81715">
        <ele>269</ele>
        <time>2024-07-19T10:21:31Z</time>
      </trkpt>
      <trkpt lat="42.85113" lon="2.81724">
        <ele>269</ele>
        <time>2024-07-19T10:21:32Z</time>
      </trkpt>
      <trkpt lat="42.85114" lon="2.81733">
        <ele>269</ele>
        <time>2024-07-19T10:21:33Z</time>
      </trkpt>
      <trkpt lat="42.85115" lon="2.81742">
        <ele>269</ele>
        <time>2024-07-19T10:21:34Z</time>
      </trkpt>
      <trkpt lat="42.85116" lon="2.81751">
        <ele>269</ele>
        <time>2024-07-19T10:21:35Z</time>
      </trkpt>
      <trkpt lat="42.85117" lon="2.8176">
        <ele>268</ele>
        <time>2024-07-19T10:21:36Z</time>
      </trkpt>
      <trkpt lat="42.85119" lon="2.81769">
        <ele>268</ele>
        <time>2024-07-19T10:21:37Z</time>
      </trkpt>
      <trkpt lat="42.85119" lon="2.81779">
        <ele>268</ele>
        <time>2024-07-19T10:21:38Z</time>
      </trkpt>
      <trkpt lat="42.8512" lon="2.81788">
        <ele>268</ele>
        <time>2024-07-19T10:21:39Z</time>
      </trkpt>
      <trkpt lat="42.8512" lon="2.81798">
        <ele>268</ele>
        <time>2024-07-19T10:21:40Z</time>
      </trkpt>
      <trkpt lat="42.8512" lon="2.81807">
        <ele>267</ele>
        <time>2024-07-19T10:21:41Z</time>
      </trkpt>
      <trkpt lat="42.8512" lon="2.81817">
        <ele>267</ele>
        <time>2024-07-19T10:21:42Z</time>
      </trkpt>
      <trkpt lat="42.85121" lon="2.81826">
        <ele>267</ele>
        <time>2024-07-19T10:21:43Z</time>
      </trkpt>
      <trkpt lat="42.85121" lon="2.81836">
        <ele>266</ele>
        <time>2024-07-19T10:21:44Z</time>
      </trkpt>
      <trkpt lat="42.85121" lon="2.81846">
        <ele>266</ele>
        <time>2024-07-19T10:21:45Z</time>
      </trkpt>
      <trkpt lat="42.85122" lon="2.81856">
        <ele>265</ele>
        <time>2024-07-19T10:21:46Z</time>
      </trkpt>
      <trkpt lat="42.85122" lon="2.81866">
        <ele>265</ele>
        <time>2024-07-19T10:21:47Z</time>
      </trkpt>
      <trkpt lat="42.85123" lon="2.81877">
        <ele>264</ele>
        <time>2024-07-19T10:21:48Z</time>
      </trkpt>
      <trkpt lat="42.85123" lon="2.81888">
        <ele>264</ele>
        <time>2024-07-19T10:21:49Z</time>
      </trkpt>
      <trkpt lat="42.85124" lon="2.81899">
        <ele>263</ele>
        <time>2024-07-19T10:21:50Z</time>
      </trkpt>
      <trkpt lat="42.85126" lon="2.8191">
        <ele>263</ele>
        <time>2024-07-19T10:21:51Z</time>
      </trkpt>
      <trkpt lat="42.85128" lon="2.81921">
        <ele>262</ele>
        <time>2024-07-19T10:21:52Z</time>
      </trkpt>
      <trkpt lat="42.8513" lon="2.81932">
        <ele>262</ele>
        <time>2024-07-19T10:21:53Z</time>
      </trkpt>
      <trkpt lat="42.85134" lon="2.81943">
        <ele>261</ele>
        <time>2024-07-19T10:21:54Z</time>
      </trkpt>
      <trkpt lat="42.85138" lon="2.81953">
        <ele>261</ele>
        <time>2024-07-19T10:21:55Z</time>
      </trkpt>
      <trkpt lat="42.85143" lon="2.81962">
        <ele>261</ele>
        <time>2024-07-19T10:21:56Z</time>
      </trkpt>
      <trkpt lat="42.85148" lon="2.81972">
        <ele>260</ele>
        <time>2024-07-19T10:21:57Z</time>
      </trkpt>
      <trkpt lat="42.85151" lon="2.81983">
        <ele>260</ele>
        <time>2024-07-19T10:21:58Z</time>
      </trkpt>
      <trkpt lat="42.85152" lon="2.81994">
        <ele>259</ele>
        <time>2024-07-19T10:21:59Z</time>
      </trkpt>
      <trkpt lat="42.85152" lon="2.82005">
        <ele>259</ele>
        <time>2024-07-19T10:22:00Z</time>
      </trkpt>
      <trkpt lat="42.85154" lon="2.82017">
        <ele>259</ele>
        <time>2024-07-19T10:22:01Z</time>
      </trkpt>
      <trkpt lat="42.85156" lon="2.82028">
        <ele>258</ele>
        <time>2024-07-19T10:22:02Z</time>
      </trkpt>
      <trkpt lat="42.85157" lon="2.8204">
        <ele>258</ele>
        <time>2024-07-19T10:22:03Z</time>
      </trkpt>
      <trkpt lat="42.8516" lon="2.82051">
        <ele>257</ele>
        <time>2024-07-19T10:22:04Z</time>
      </trkpt>
      <trkpt lat="42.85162" lon="2.82062">
        <ele>257</ele>
        <time>2024-07-19T10:22:05Z</time>
      </trkpt>
      <trkpt lat="42.85164" lon="2.82074">
        <ele>256</ele>
        <time>2024-07-19T10:22:06Z</time>
      </trkpt>
      <trkpt lat="42.85165" lon="2.82086">
        <ele>256</ele>
        <time>2024-07-19T10:22:07Z</time>
      </trkpt>
      <trkpt lat="42.85166" lon="2.82098">
        <ele>255</ele>
        <time>2024-07-19T10:22:08Z</time>
      </trkpt>
      <trkpt lat="42.85167" lon="2.8211">
        <ele>255</ele>
        <time>2024-07-19T10:22:09Z</time>
      </trkpt>
      <trkpt lat="42.85167" lon="2.82122">
        <ele>254</ele>
        <time>2024-07-19T10:22:10Z</time>
      </trkpt>
      <trkpt lat="42.85169" lon="2.82134">
        <ele>254</ele>
        <time>2024-07-19T10:22:11Z</time>
      </trkpt>
      <trkpt lat="42.8517" lon="2.82146">
        <ele>254</ele>
        <time>2024-07-19T10:22:12Z</time>
      </trkpt>
      <trkpt lat="42.85172" lon="2.82157">
        <ele>253</ele>
        <time>2024-07-19T10:22:13Z</time>
      </trkpt>
      <trkpt lat="42.85173" lon="2.82169">
        <ele>253</ele>
        <time>2024-07-19T10:22:14Z</time>
      </trkpt>
      <trkpt lat="42.85175" lon="2.8218">
        <ele>253</ele>
        <time>2024-07-19T10:22:15Z</time>
      </trkpt>
      <trkpt lat="42.85177" lon="2.82192">
        <ele>252</ele>
        <time>2024-07-19T10:22:16Z</time>
      </trkpt>
      <trkpt lat="42.85178" lon="2.82203">
        <ele>252</ele>
        <time>2024-07-19T10:22:17Z</time>
      </trkpt>
      <trkpt lat="42.8518" lon="2.82215">
        <ele>251</ele>
        <time>2024-07-19T10:22:18Z</time>
      </trkpt>
      <trkpt lat="42.85182" lon="2.82227">
        <ele>251</ele>
        <time>2024-07-19T10:22:19Z</time>
      </trkpt>
      <trkpt lat="42.85183" lon="2.82238">
        <ele>250</ele>
        <time>2024-07-19T10:22:20Z</time>
      </trkpt>
      <trkpt lat="42.85184" lon="2.8225">
        <ele>250</ele>
        <time>2024-07-19T10:22:21Z</time>
      </trkpt>
      <trkpt lat="42.85185" lon="2.82261">
        <ele>250</ele>
        <time>2024-07-19T10:22:22Z</time>
      </trkpt>
      <trkpt lat="42.85186" lon="2.82271">
        <ele>250</ele>
        <time>2024-07-19T10:22:23Z</time>
      </trkpt>
      <trkpt lat="42.85187" lon="2.82282">
        <ele>250</ele>
        <time>2024-07-19T10:22:24Z</time>
      </trkpt>
      <trkpt lat="42.85188" lon="2.82292">
        <ele>249</ele>
        <time>2024-07-19T10:22:25Z</time>
      </trkpt>
      <trkpt lat="42.85189" lon="2.82303">
        <ele>249</ele>
        <time>2024-07-19T10:22:26Z</time>
      </trkpt>
      <trkpt lat="42.85191" lon="2.82314">
        <ele>249</ele>
        <time>2024-07-19T10:22:27Z</time>
      </trkpt>
      <trkpt lat="42.85192" lon="2.82324">
        <ele>248</ele>
        <time>2024-07-19T10:22:28Z</time>
      </trkpt>
      <trkpt lat="42.85193" lon="2.82335">
        <ele>248</ele>
        <time>2024-07-19T10:22:29Z</time>
      </trkpt>
      <trkpt lat="42.85194" lon="2.82345">
        <ele>248</ele>
        <time>2024-07-19T10:22:30Z</time>
      </trkpt>
      <trkpt lat="42.85195" lon="2.82355">
        <ele>247</ele>
        <time>2024-07-19T10:22:31Z</time>
      </trkpt>
      <trkpt lat="42.85196" lon="2.82366">
        <ele>247</ele>
        <time>2024-07-19T10:22:32Z</time>
      </trkpt>
      <trkpt lat="42.85197" lon="2.82376">
        <ele>247</ele>
        <time>2024-07-19T10:22:33Z</time>
      </trkpt>
      <trkpt lat="42.85198" lon="2.82386">
        <ele>247</ele>
        <time>2024-07-19T10:22:34Z</time>
      </trkpt>
      <trkpt lat="42.85199" lon="2.82397">
        <ele>247</ele>
        <time>2024-07-19T10:22:35Z</time>
      </trkpt>
      <trkpt lat="42.852" lon="2.82407">
        <ele>246</ele>
        <time>2024-07-19T10:22:36Z</time>
      </trkpt>
      <trkpt lat="42.85201" lon="2.82418">
        <ele>246</ele>
        <time>2024-07-19T10:22:37Z</time>
      </trkpt>
      <trkpt lat="42.85201" lon="2.82428">
        <ele>246</ele>
        <time>2024-07-19T10:22:38Z</time>
      </trkpt>
      <trkpt lat="42.85202" lon="2.82438">
        <ele>246</ele>
        <time>2024-07-19T10:22:39Z</time>
      </trkpt>
      <trkpt lat="42.85202" lon="2.82448">
        <ele>246</ele>
        <time>2024-07-19T10:22:40Z</time>
      </trkpt>
      <trkpt lat="42.85203" lon="2.82458">
        <ele>246</ele>
        <time>2024-07-19T10:22:41Z</time>
      </trkpt>
      <trkpt lat="42.85204" lon="2.82468">
        <ele>245</ele>
        <time>2024-07-19T10:22:42Z</time>
      </trkpt>
      <trkpt lat="42.85205" lon="2.82477">
        <ele>245</ele>
        <time>2024-07-19T10:22:43Z</time>
      </trkpt>
      <trkpt lat="42.85205" lon="2.82487">
        <ele>245</ele>
        <time>2024-07-19T10:22:44Z</time>
      </trkpt>
      <trkpt lat="42.85206" lon="2.82497">
        <ele>245</ele>
        <time>2024-07-19T10:22:45Z</time>
      </trkpt>
      <trkpt lat="42.85206" lon="2.82507">
        <ele>244</ele>
        <time>2024-07-19T10:22:46Z</time>
      </trkpt>
      <trkpt lat="42.85206" lon="2.82517">
        <ele>244</ele>
        <time>2024-07-19T10:22:47Z</time>
      </trkpt>
      <trkpt lat="42.85207" lon="2.82527">
        <ele>244</ele>
        <time>2024-07-19T10:22:48Z</time>
      </trkpt>
      <trkpt lat="42.85207" lon="2.82536">
        <ele>244</ele>
        <time>2024-07-19T10:22:49Z</time>
      </trkpt>
      <trkpt lat="42.85208" lon="2.82546">
        <ele>244</ele>
        <time>2024-07-19T10:22:50Z</time>
      </trkpt>
      <trkpt lat="42.85209" lon="2.82555">
        <ele>244</ele>
        <time>2024-07-19T10:22:51Z</time>
      </trkpt>
      <trkpt lat="42.85209" lon="2.82564">
        <ele>244</ele>
        <time>2024-07-19T10:22:52Z</time>
      </trkpt>
      <trkpt lat="42.85209" lon="2.82574">
        <ele>244</ele>
        <time>2024-07-19T10:22:53Z</time>
      </trkpt>
      <trkpt lat="42.8521" lon="2.82583">
        <ele>244</ele>
        <time>2024-07-19T10:22:54Z</time>
      </trkpt>
      <trkpt lat="42.8521" lon="2.82592">
        <ele>244</ele>
        <time>2024-07-19T10:22:55Z</time>
      </trkpt>
      <trkpt lat="42.85211" lon="2.82601">
        <ele>243</ele>
        <time>2024-07-19T10:22:56Z</time>
      </trkpt>
      <trkpt lat="42.85211" lon="2.8261">
        <ele>243</ele>
        <time>2024-07-19T10:22:57Z</time>
      </trkpt>
      <trkpt lat="42.85211" lon="2.82619">
        <ele>243</ele>
        <time>2024-07-19T10:22:58Z</time>
      </trkpt>
      <trkpt lat="42.85212" lon="2.82628">
        <ele>243</ele>
        <time>2024-07-19T10:22:59Z</time>
      </trkpt>
      <trkpt lat="42.85213" lon="2.82637">
        <ele>243</ele>
        <time>2024-07-19T10:23:00Z</time>
      </trkpt>
      <trkpt lat="42.85214" lon="2.82646">
        <ele>243</ele>
        <time>2024-07-19T10:23:01Z</time>
      </trkpt>
      <trkpt lat="42.85215" lon="2.82655">
        <ele>242</ele>
        <time>2024-07-19T10:23:02Z</time>
      </trkpt>
      <trkpt lat="42.85216" lon="2.82664">
        <ele>242</ele>
        <time>2024-07-19T10:23:03Z</time>
      </trkpt>
      <trkpt lat="42.85217" lon="2.82673">
        <ele>242</ele>
        <time>2024-07-19T10:23:04Z</time>
      </trkpt>
      <trkpt lat="42.85219" lon="2.82682">
        <ele>242</ele>
        <time>2024-07-19T10:23:05Z</time>
      </trkpt>
      <trkpt lat="42.8522" lon="2.82691">
        <ele>242</ele>
        <time>2024-07-19T10:23:06Z</time>
      </trkpt>
      <trkpt lat="42.85223" lon="2.82709">
        <ele>241</ele>
        <time>2024-07-19T10:23:08Z</time>
      </trkpt>
      <trkpt lat="42.85225" lon="2.82718">
        <ele>241</ele>
        <time>2024-07-19T10:23:09Z</time>
      </trkpt>
      <trkpt lat="42.85226" lon="2.82727">
        <ele>241</ele>
        <time>2024-07-19T10:23:10Z</time>
      </trkpt>
      <trkpt lat="42.85228" lon="2.82736">
        <ele>240</ele>
        <time>2024-07-19T10:23:11Z</time>
      </trkpt>
      <trkpt lat="42.8523" lon="2.82745">
        <ele>240</ele>
        <time>2024-07-19T10:23:12Z</time>
      </trkpt>
      <trkpt lat="42.85231" lon="2.82755">
        <ele>240</ele>
        <time>2024-07-19T10:23:13Z</time>
      </trkpt>
      <trkpt lat="42.85233" lon="2.82764">
        <ele>240</ele>
        <time>2024-07-19T10:23:14Z</time>
      </trkpt>
      <trkpt lat="42.85234" lon="2.82773">
        <ele>239</ele>
        <time>2024-07-19T10:23:15Z</time>
      </trkpt>
      <trkpt lat="42.85236" lon="2.82783">
        <ele>239</ele>
        <time>2024-07-19T10:23:16Z</time>
      </trkpt>
      <trkpt lat="42.85237" lon="2.82792">
        <ele>239</ele>
        <time>2024-07-19T10:23:17Z</time>
      </trkpt>
      <trkpt lat="42.85238" lon="2.82802">
        <ele>239</ele>
        <time>2024-07-19T10:23:18Z</time>
      </trkpt>
      <trkpt lat="42.85239" lon="2.82811">
        <ele>239</ele>
        <time>2024-07-19T10:23:19Z</time>
      </trkpt>
      <trkpt lat="42.8524" lon="2.82821">
        <ele>238</ele>
        <time>2024-07-19T10:23:20Z</time>
      </trkpt>
      <trkpt lat="42.8524" lon="2.82831">
        <ele>238</ele>
        <time>2024-07-19T10:23:21Z</time>
      </trkpt>
      <trkpt lat="42.85241" lon="2.82841">
        <ele>238</ele>
        <time>2024-07-19T10:23:22Z</time>
      </trkpt>
      <trkpt lat="42.85242" lon="2.82851">
        <ele>238</ele>
        <time>2024-07-19T10:23:23Z</time>
      </trkpt>
      <trkpt lat="42.85243" lon="2.82861">
        <ele>238</ele>
        <time>2024-07-19T10:23:24Z</time>
      </trkpt>
      <trkpt lat="42.85244" lon="2.82871">
        <ele>238</ele>
        <time>2024-07-19T10:23:25Z</time>
      </trkpt>
      <trkpt lat="42.85246" lon="2.82881">
        <ele>238</ele>
        <time>2024-07-19T10:23:26Z</time>
      </trkpt>
      <trkpt lat="42.85248" lon="2.82891">
        <ele>237</ele>
        <time>2024-07-19T10:23:27Z</time>
      </trkpt>
      <trkpt lat="42.85251" lon="2.82901">
        <ele>237</ele>
        <time>2024-07-19T10:23:28Z</time>
      </trkpt>
      <trkpt lat="42.85253" lon="2.82911">
        <ele>237</ele>
        <time>2024-07-19T10:23:29Z</time>
      </trkpt>
      <trkpt lat="42.85255" lon="2.82921">
        <ele>237</ele>
        <time>2024-07-19T10:23:30Z</time>
      </trkpt>
      <trkpt lat="42.85257" lon="2.82931">
        <ele>237</ele>
        <time>2024-07-19T10:23:31Z</time>
      </trkpt>
      <trkpt lat="42.85259" lon="2.82942">
        <ele>236</ele>
        <time>2024-07-19T10:23:32Z</time>
      </trkpt>
      <trkpt lat="42.85261" lon="2.82952">
        <ele>236</ele>
        <time>2024-07-19T10:23:33Z</time>
      </trkpt>
      <trkpt lat="42.85263" lon="2.82963">
        <ele>236</ele>
        <time>2024-07-19T10:23:34Z</time>
      </trkpt>
      <trkpt lat="42.85265" lon="2.82973">
        <ele>236</ele>
        <time>2024-07-19T10:23:35Z</time>
      </trkpt>
      <trkpt lat="42.85267" lon="2.82984">
        <ele>235</ele>
        <time>2024-07-19T10:23:36Z</time>
      </trkpt>
      <trkpt lat="42.8527" lon="2.82995">
        <ele>235</ele>
        <time>2024-07-19T10:23:37Z</time>
      </trkpt>
      <trkpt lat="42.85272" lon="2.83005">
        <ele>235</ele>
        <time>2024-07-19T10:23:38Z</time>
      </trkpt>
      <trkpt lat="42.85275" lon="2.83016">
        <ele>235</ele>
        <time>2024-07-19T10:23:39Z</time>
      </trkpt>
      <trkpt lat="42.85279" lon="2.83026">
        <ele>234</ele>
        <time>2024-07-19T10:23:40Z</time>
      </trkpt>
      <trkpt lat="42.85283" lon="2.83036">
        <ele>234</ele>
        <time>2024-07-19T10:23:41Z</time>
      </trkpt>
      <trkpt lat="42.85287" lon="2.83046">
        <ele>233</ele>
        <time>2024-07-19T10:23:42Z</time>
      </trkpt>
      <trkpt lat="42.85291" lon="2.83057">
        <ele>233</ele>
        <time>2024-07-19T10:23:43Z</time>
      </trkpt>
      <trkpt lat="42.85296" lon="2.83068">
        <ele>232</ele>
        <time>2024-07-19T10:23:44Z</time>
      </trkpt>
      <trkpt lat="42.853" lon="2.83079">
        <ele>232</ele>
        <time>2024-07-19T10:23:45Z</time>
      </trkpt>
      <trkpt lat="42.85305" lon="2.83089">
        <ele>231</ele>
        <time>2024-07-19T10:23:46Z</time>
      </trkpt>
      <trkpt lat="42.8531" lon="2.831">
        <ele>231</ele>
        <time>2024-07-19T10:23:47Z</time>
      </trkpt>
      <trkpt lat="42.85315" lon="2.83111">
        <ele>230</ele>
        <time>2024-07-19T10:23:48Z</time>
      </trkpt>
      <trkpt lat="42.85321" lon="2.83122">
        <ele>230</ele>
        <time>2024-07-19T10:23:49Z</time>
      </trkpt>
      <trkpt lat="42.85326" lon="2.83132">
        <ele>229</ele>
        <time>2024-07-19T10:23:50Z</time>
      </trkpt>
      <trkpt lat="42.85332" lon="2.83143">
        <ele>229</ele>
        <time>2024-07-19T10:23:51Z</time>
      </trkpt>
      <trkpt lat="42.85337" lon="2.83154">
        <ele>228</ele>
        <time>2024-07-19T10:23:52Z</time>
      </trkpt>
      <trkpt lat="42.85343" lon="2.83165">
        <ele>228</ele>
        <time>2024-07-19T10:23:53Z</time>
      </trkpt>
      <trkpt lat="42.85349" lon="2.83176">
        <ele>227</ele>
        <time>2024-07-19T10:23:54Z</time>
      </trkpt>
      <trkpt lat="42.85354" lon="2.83186">
        <ele>227</ele>
        <time>2024-07-19T10:23:55Z</time>
      </trkpt>
      <trkpt lat="42.8536" lon="2.83197">
        <ele>226</ele>
        <time>2024-07-19T10:23:56Z</time>
      </trkpt>
      <trkpt lat="42.85365" lon="2.83208">
        <ele>226</ele>
        <time>2024-07-19T10:23:57Z</time>
      </trkpt>
      <trkpt lat="42.85371" lon="2.83219">
        <ele>225</ele>
        <time>2024-07-19T10:23:58Z</time>
      </trkpt>
      <trkpt lat="42.85377" lon="2.83231">
        <ele>225</ele>
        <time>2024-07-19T10:23:59Z</time>
      </trkpt>
      <trkpt lat="42.85383" lon="2.83242">
        <ele>224</ele>
        <time>2024-07-19T10:24:00Z</time>
      </trkpt>
      <trkpt lat="42.85389" lon="2.83252">
        <ele>224</ele>
        <time>2024-07-19T10:24:01Z</time>
      </trkpt>
      <trkpt lat="42.85395" lon="2.83263">
        <ele>223</ele>
        <time>2024-07-19T10:24:02Z</time>
      </trkpt>
      <trkpt lat="42.854" lon="2.83274">
        <ele>223</ele>
        <time>2024-07-19T10:24:03Z</time>
      </trkpt>
      <trkpt lat="42.85406" lon="2.83285">
        <ele>222</ele>
        <time>2024-07-19T10:24:04Z</time>
      </trkpt>
      <trkpt lat="42.85411" lon="2.83297">
        <ele>222</ele>
        <time>2024-07-19T10:24:05Z</time>
      </trkpt>
      <trkpt lat="42.85415" lon="2.83309">
        <ele>221</ele>
        <time>2024-07-19T10:24:06Z</time>
      </trkpt>
      <trkpt lat="42.85419" lon="2.83321">
        <ele>221</ele>
        <time>2024-07-19T10:24:07Z</time>
      </trkpt>
      <trkpt lat="42.85423" lon="2.83334">
        <ele>221</ele>
        <time>2024-07-19T10:24:08Z</time>
      </trkpt>
      <trkpt lat="42.85426" lon="2.83346">
        <ele>220</ele>
        <time>2024-07-19T10:24:09Z</time>
      </trkpt>
      <trkpt lat="42.85429" lon="2.83359">
        <ele>220</ele>
        <time>2024-07-19T10:24:10Z</time>
      </trkpt>
      <trkpt lat="42.85433" lon="2.8337">
        <ele>219</ele>
        <time>2024-07-19T10:24:11Z</time>
      </trkpt>
      <trkpt lat="42.85437" lon="2.83382">
        <ele>219</ele>
        <time>2024-07-19T10:24:12Z</time>
      </trkpt>
      <trkpt lat="42.85441" lon="2.83394">
        <ele>218</ele>
        <time>2024-07-19T10:24:13Z</time>
      </trkpt>
      <trkpt lat="42.85446" lon="2.83405">
        <ele>218</ele>
        <time>2024-07-19T10:24:14Z</time>
      </trkpt>
      <trkpt lat="42.85451" lon="2.83416">
        <ele>217</ele>
        <time>2024-07-19T10:24:15Z</time>
      </trkpt>
      <trkpt lat="42.85456" lon="2.83428">
        <ele>217</ele>
        <time>2024-07-19T10:24:16Z</time>
      </trkpt>
      <trkpt lat="42.85461" lon="2.83438">
        <ele>216</ele>
        <time>2024-07-19T10:24:17Z</time>
      </trkpt>
      <trkpt lat="42.85466" lon="2.83449">
        <ele>216</ele>
        <time>2024-07-19T10:24:18Z</time>
      </trkpt>
      <trkpt lat="42.85471" lon="2.8346">
        <ele>215</ele>
        <time>2024-07-19T10:24:19Z</time>
      </trkpt>
      <trkpt lat="42.85476" lon="2.8347">
        <ele>215</ele>
        <time>2024-07-19T10:24:20Z</time>
      </trkpt>
      <trkpt lat="42.85482" lon="2.8348">
        <ele>214</ele>
        <time>2024-07-19T10:24:21Z</time>
      </trkpt>
      <trkpt lat="42.85487" lon="2.8349">
        <ele>214</ele>
        <time>2024-07-19T10:24:22Z</time>
      </trkpt>
      <trkpt lat="42.85493" lon="2.835">
        <ele>214</ele>
        <time>2024-07-19T10:24:23Z</time>
      </trkpt>
      <trkpt lat="42.85498" lon="2.8351">
        <ele>213</ele>
        <time>2024-07-19T10:24:24Z</time>
      </trkpt>
      <trkpt lat="42.85502" lon="2.83521">
        <ele>213</ele>
        <time>2024-07-19T10:24:25Z</time>
      </trkpt>
      <trkpt lat="42.85506" lon="2.83532">
        <ele>212</ele>
        <time>2024-07-19T10:24:26Z</time>
      </trkpt>
      <trkpt lat="42.85508" lon="2.83543">
        <ele>212</ele>
        <time>2024-07-19T10:24:27Z</time>
      </trkpt>
      <trkpt lat="42.8551" lon="2.83554">
        <ele>212</ele>
        <time>2024-07-19T10:24:28Z</time>
      </trkpt>
      <trkpt lat="42.85509" lon="2.83566">
        <ele>211</ele>
        <time>2024-07-19T10:24:29Z</time>
      </trkpt>
      <trkpt lat="42.85508" lon="2.83578">
        <ele>211</ele>
        <time>2024-07-19T10:24:30Z</time>
      </trkpt>
      <trkpt lat="42.85508" lon="2.8359">
        <ele>211</ele>
        <time>2024-07-19T10:24:31Z</time>
      </trkpt>
      <trkpt lat="42.85507" lon="2.83601">
        <ele>210</ele>
        <time>2024-07-19T10:24:32Z</time>
      </trkpt>
      <trkpt lat="42.85506" lon="2.83613">
        <ele>210</ele>
        <time>2024-07-19T10:24:33Z</time>
      </trkpt>
      <trkpt lat="42.85506" lon="2.83625">
        <ele>209</ele>
        <time>2024-07-19T10:24:34Z</time>
      </trkpt>
      <trkpt lat="42.85505" lon="2.83637">
        <ele>209</ele>
        <time>2024-07-19T10:24:35Z</time>
      </trkpt>
      <trkpt lat="42.85505" lon="2.83649">
        <ele>209</ele>
        <time>2024-07-19T10:24:36Z</time>
      </trkpt>
      <trkpt lat="42.85504" lon="2.83661">
        <ele>208</ele>
        <time>2024-07-19T10:24:37Z</time>
      </trkpt>
      <trkpt lat="42.85503" lon="2.83672">
        <ele>208</ele>
        <time>2024-07-19T10:24:38Z</time>
      </trkpt>
      <trkpt lat="42.85503" lon="2.83684">
        <ele>208</ele>
        <time>2024-07-19T10:24:39Z</time>
      </trkpt>
      <trkpt lat="42.85502" lon="2.83694">
        <ele>207</ele>
        <time>2024-07-19T10:24:40Z</time>
      </trkpt>
      <trkpt lat="42.85503" lon="2.83705">
        <ele>207</ele>
        <time>2024-07-19T10:24:41Z</time>
      </trkpt>
      <trkpt lat="42.85508" lon="2.83725">
        <ele>206</ele>
        <time>2024-07-19T10:24:43Z</time>
      </trkpt>
      <trkpt lat="42.85511" lon="2.83735">
        <ele>206</ele>
        <time>2024-07-19T10:24:44Z</time>
      </trkpt>
      <trkpt lat="42.85515" lon="2.83744">
        <ele>206</ele>
        <time>2024-07-19T10:24:45Z</time>
      </trkpt>
      <trkpt lat="42.85519" lon="2.83753">
        <ele>205</ele>
        <time>2024-07-19T10:24:46Z</time>
      </trkpt>
      <trkpt lat="42.85525" lon="2.83762">
        <ele>205</ele>
        <time>2024-07-19T10:24:47Z</time>
      </trkpt>
      <trkpt lat="42.85531" lon="2.8377">
        <ele>204</ele>
        <time>2024-07-19T10:24:48Z</time>
      </trkpt>
      <trkpt lat="42.85536" lon="2.83779">
        <ele>204</ele>
        <time>2024-07-19T10:24:49Z</time>
      </trkpt>
      <trkpt lat="42.85542" lon="2.83788">
        <ele>203</ele>
        <time>2024-07-19T10:24:50Z</time>
      </trkpt>
      <trkpt lat="42.85548" lon="2.83797">
        <ele>203</ele>
        <time>2024-07-19T10:24:51Z</time>
      </trkpt>
      <trkpt lat="42.85553" lon="2.83808">
        <ele>202</ele>
        <time>2024-07-19T10:24:52Z</time>
      </trkpt>
      <trkpt lat="42.85558" lon="2.83818">
        <ele>202</ele>
        <time>2024-07-19T10:24:53Z</time>
      </trkpt>
      <trkpt lat="42.85563" lon="2.83829">
        <ele>201</ele>
        <time>2024-07-19T10:24:54Z</time>
      </trkpt>
      <trkpt lat="42.85567" lon="2.8384">
        <ele>200</ele>
        <time>2024-07-19T10:24:55Z</time>
      </trkpt>
      <trkpt lat="42.85572" lon="2.8385">
        <ele>200</ele>
        <time>2024-07-19T10:24:56Z</time>
      </trkpt>
      <trkpt lat="42.85577" lon="2.83861">
        <ele>199</ele>
        <time>2024-07-19T10:24:57Z</time>
      </trkpt>
      <trkpt lat="42.85581" lon="2.83871">
        <ele>199</ele>
        <time>2024-07-19T10:24:58Z</time>
      </trkpt>
      <trkpt lat="42.85586" lon="2.83882">
        <ele>198</ele>
        <time>2024-07-19T10:24:59Z</time>
      </trkpt>
      <trkpt lat="42.85591" lon="2.83892">
        <ele>197</ele>
        <time>2024-07-19T10:25:00Z</time>
      </trkpt>
      <trkpt lat="42.85596" lon="2.83903">
        <ele>197</ele>
        <time>2024-07-19T10:25:01Z</time>
      </trkpt>
      <trkpt lat="42.85601" lon="2.83914">
        <ele>196</ele>
        <time>2024-07-19T10:25:02Z</time>
      </trkpt>
      <trkpt lat="42.85606" lon="2.83925">
        <ele>195</ele>
        <time>2024-07-19T10:25:03Z</time>
      </trkpt>
      <trkpt lat="42.85611" lon="2.83935">
        <ele>195</ele>
        <time>2024-07-19T10:25:04Z</time>
      </trkpt>
      <trkpt lat="42.85616" lon="2.83946">
        <ele>194</ele>
        <time>2024-07-19T10:25:05Z</time>
      </trkpt>
      <trkpt lat="42.85622" lon="2.83957">
        <ele>193</ele>
        <time>2024-07-19T10:25:06Z</time>
      </trkpt>
      <trkpt lat="42.85627" lon="2.83968">
        <ele>193</ele>
        <time>2024-07-19T10:25:07Z</time>
      </trkpt>
      <trkpt lat="42.85632" lon="2.83979">
        <ele>192</ele>
        <time>2024-07-19T10:25:08Z</time>
      </trkpt>
      <trkpt lat="42.85638" lon="2.83989">
        <ele>191</ele>
        <time>2024-07-19T10:25:09Z</time>
      </trkpt>
      <trkpt lat="42.85643" lon="2.84">
        <ele>191</ele>
        <time>2024-07-19T10:25:10Z</time>
      </trkpt>
      <trkpt lat="42.85649" lon="2.8401">
        <ele>190</ele>
        <time>2024-07-19T10:25:11Z</time>
      </trkpt>
      <trkpt lat="42.85655" lon="2.84018">
        <ele>190</ele>
        <time>2024-07-19T10:25:12Z</time>
      </trkpt>
      <trkpt lat="42.85663" lon="2.84026">
        <ele>189</ele>
        <time>2024-07-19T10:25:13Z</time>
      </trkpt>
      <trkpt lat="42.8567" lon="2.84033">
        <ele>188</ele>
        <time>2024-07-19T10:25:14Z</time>
      </trkpt>
      <trkpt lat="42.85677" lon="2.84041">
        <ele>188</ele>
        <time>2024-07-19T10:25:15Z</time>
      </trkpt>
      <trkpt lat="42.85683" lon="2.84051">
        <ele>187</ele>
        <time>2024-07-19T10:25:16Z</time>
      </trkpt>
      <trkpt lat="42.85689" lon="2.84061">
        <ele>187</ele>
        <time>2024-07-19T10:25:17Z</time>
      </trkpt>
      <trkpt lat="42.85695" lon="2.84071">
        <ele>186</ele>
        <time>2024-07-19T10:25:18Z</time>
      </trkpt>
      <trkpt lat="42.857" lon="2.84082">
        <ele>186</ele>
        <time>2024-07-19T10:25:19Z</time>
      </trkpt>
      <trkpt lat="42.85706" lon="2.84092">
        <ele>185</ele>
        <time>2024-07-19T10:25:20Z</time>
      </trkpt>
      <trkpt lat="42.85711" lon="2.84102">
        <ele>184</ele>
        <time>2024-07-19T10:25:21Z</time>
      </trkpt>
      <trkpt lat="42.85717" lon="2.84113">
        <ele>184</ele>
        <time>2024-07-19T10:25:22Z</time>
      </trkpt>
      <trkpt lat="42.85723" lon="2.84123">
        <ele>183</ele>
        <time>2024-07-19T10:25:23Z</time>
      </trkpt>
      <trkpt lat="42.85728" lon="2.84134">
        <ele>183</ele>
        <time>2024-07-19T10:25:24Z</time>
      </trkpt>
      <trkpt lat="42.85733" lon="2.84145">
        <ele>182</ele>
        <time>2024-07-19T10:25:25Z</time>
      </trkpt>
      <trkpt lat="42.85738" lon="2.84156">
        <ele>181</ele>
        <time>2024-07-19T10:25:26Z</time>
      </trkpt>
      <trkpt lat="42.85742" lon="2.84168">
        <ele>181</ele>
        <time>2024-07-19T10:25:27Z</time>
      </trkpt>
      <trkpt lat="42.85746" lon="2.84181">
        <ele>180</ele>
        <time>2024-07-19T10:25:28Z</time>
      </trkpt>
      <trkpt lat="42.8575" lon="2.84193">
        <ele>179</ele>
        <time>2024-07-19T10:25:29Z</time>
      </trkpt>
      <trkpt lat="42.85754" lon="2.84204">
        <ele>179</ele>
        <time>2024-07-19T10:25:30Z</time>
      </trkpt>
      <trkpt lat="42.85759" lon="2.84216">
        <ele>178</ele>
        <time>2024-07-19T10:25:31Z</time>
      </trkpt>
      <trkpt lat="42.85764" lon="2.84226">
        <ele>178</ele>
        <time>2024-07-19T10:25:32Z</time>
      </trkpt>
      <trkpt lat="42.8577" lon="2.84236">
        <ele>177</ele>
        <time>2024-07-19T10:25:33Z</time>
      </trkpt>
      <trkpt lat="42.85775" lon="2.84246">
        <ele>177</ele>
        <time>2024-07-19T10:25:34Z</time>
      </trkpt>
      <trkpt lat="42.85782" lon="2.84255">
        <ele>176</ele>
        <time>2024-07-19T10:25:35Z</time>
      </trkpt>
      <trkpt lat="42.85788" lon="2.84264">
        <ele>176</ele>
        <time>2024-07-19T10:25:36Z</time>
      </trkpt>
      <trkpt lat="42.85793" lon="2.84273">
        <ele>175</ele>
        <time>2024-07-19T10:25:37Z</time>
      </trkpt>
      <trkpt lat="42.85799" lon="2.84282">
        <ele>175</ele>
        <time>2024-07-19T10:25:38Z</time>
      </trkpt>
      <trkpt lat="42.85805" lon="2.84291">
        <ele>174</ele>
        <time>2024-07-19T10:25:39Z</time>
      </trkpt>
      <trkpt lat="42.85811" lon="2.843">
        <ele>173</ele>
        <time>2024-07-19T10:25:40Z</time>
      </trkpt>
      <trkpt lat="42.85817" lon="2.84308">
        <ele>173</ele>
        <time>2024-07-19T10:25:41Z</time>
      </trkpt>
      <trkpt lat="42.85823" lon="2.84317">
        <ele>172</ele>
        <time>2024-07-19T10:25:42Z</time>
      </trkpt>
      <trkpt lat="42.8583" lon="2.84325">
        <ele>172</ele>
        <time>2024-07-19T10:25:43Z</time>
      </trkpt>
      <trkpt lat="42.85836" lon="2.84334">
        <ele>171</ele>
        <time>2024-07-19T10:25:44Z</time>
      </trkpt>
      <trkpt lat="42.85843" lon="2.84342">
        <ele>171</ele>
        <time>2024-07-19T10:25:45Z</time>
      </trkpt>
      <trkpt lat="42.85849" lon="2.8435">
        <ele>170</ele>
        <time>2024-07-19T10:25:46Z</time>
      </trkpt>
      <trkpt lat="42.85856" lon="2.84359">
        <ele>169</ele>
        <time>2024-07-19T10:25:47Z</time>
      </trkpt>
      <trkpt lat="42.85862" lon="2.84368">
        <ele>169</ele>
        <time>2024-07-19T10:25:48Z</time>
      </trkpt>
      <trkpt lat="42.85869" lon="2.84378">
        <ele>168</ele>
        <time>2024-07-19T10:25:49Z</time>
      </trkpt>
      <trkpt lat="42.85875" lon="2.84388">
        <ele>167</ele>
        <time>2024-07-19T10:25:50Z</time>
      </trkpt>
      <trkpt lat="42.85881" lon="2.84398">
        <ele>167</ele>
        <time>2024-07-19T10:25:51Z</time>
      </trkpt>
      <trkpt lat="42.85887" lon="2.84408">
        <ele>166</ele>
        <time>2024-07-19T10:25:52Z</time>
      </trkpt>
      <trkpt lat="42.85893" lon="2.84418">
        <ele>165</ele>
        <time>2024-07-19T10:25:53Z</time>
      </trkpt>
      <trkpt lat="42.85898" lon="2.84429">
        <ele>165</ele>
        <time>2024-07-19T10:25:54Z</time>
      </trkpt>
      <trkpt lat="42.85904" lon="2.84439">
        <ele>164</ele>
        <time>2024-07-19T10:25:55Z</time>
      </trkpt>
      <trkpt lat="42.85911" lon="2.84449">
        <ele>164</ele>
        <time>2024-07-19T10:25:56Z</time>
      </trkpt>
      <trkpt lat="42.85918" lon="2.84458">
        <ele>163</ele>
        <time>2024-07-19T10:25:57Z</time>
      </trkpt>
      <trkpt lat="42.85925" lon="2.84467">
        <ele>162</ele>
        <time>2024-07-19T10:25:58Z</time>
      </trkpt>
      <trkpt lat="42.85932" lon="2.84476">
        <ele>162</ele>
        <time>2024-07-19T10:25:59Z</time>
      </trkpt>
      <trkpt lat="42.85939" lon="2.84485">
        <ele>161</ele>
        <time>2024-07-19T10:26:00Z</time>
      </trkpt>
      <trkpt lat="42.85947" lon="2.84494">
        <ele>160</ele>
        <time>2024-07-19T10:26:01Z</time>
      </trkpt>
      <trkpt lat="42.85955" lon="2.84503">
        <ele>160</ele>
        <time>2024-07-19T10:26:02Z</time>
      </trkpt>
      <trkpt lat="42.85962" lon="2.84512">
        <ele>159</ele>
        <time>2024-07-19T10:26:03Z</time>
      </trkpt>
      <trkpt lat="42.85968" lon="2.84523">
        <ele>158</ele>
        <time>2024-07-19T10:26:04Z</time>
      </trkpt>
      <trkpt lat="42.85973" lon="2.84534">
        <ele>158</ele>
        <time>2024-07-19T10:26:05Z</time>
      </trkpt>
      <trkpt lat="42.85978" lon="2.84547">
        <ele>157</ele>
        <time>2024-07-19T10:26:06Z</time>
      </trkpt>
      <trkpt lat="42.85982" lon="2.84559">
        <ele>157</ele>
        <time>2024-07-19T10:26:07Z</time>
      </trkpt>
      <trkpt lat="42.85986" lon="2.84571">
        <ele>156</ele>
        <time>2024-07-19T10:26:08Z</time>
      </trkpt>
      <trkpt lat="42.85992" lon="2.84583">
        <ele>155</ele>
        <time>2024-07-19T10:26:09Z</time>
      </trkpt>
      <trkpt lat="42.85999" lon="2.84593">
        <ele>155</ele>
        <time>2024-07-19T10:26:10Z</time>
      </trkpt>
      <trkpt lat="42.86008" lon="2.846">
        <ele>154</ele>
        <time>2024-07-19T10:26:11Z</time>
      </trkpt>
      <trkpt lat="42.86017" lon="2.84605">
        <ele>153</ele>
        <time>2024-07-19T10:26:12Z</time>
      </trkpt>
      <trkpt lat="42.86028" lon="2.84606">
        <ele>152</ele>
        <time>2024-07-19T10:26:13Z</time>
      </trkpt>
      <trkpt lat="42.86038" lon="2.84604">
        <ele>152</ele>
        <time>2024-07-19T10:26:14Z</time>
      </trkpt>
      <trkpt lat="42.86048" lon="2.84603">
        <ele>151</ele>
        <time>2024-07-19T10:26:15Z</time>
      </trkpt>
      <trkpt lat="42.86058" lon="2.84606">
        <ele>151</ele>
        <time>2024-07-19T10:26:16Z</time>
      </trkpt>
      <trkpt lat="42.86066" lon="2.84613">
        <ele>151</ele>
        <time>2024-07-19T10:26:17Z</time>
      </trkpt>
      <trkpt lat="42.86073" lon="2.8462">
        <ele>151</ele>
        <time>2024-07-19T10:26:18Z</time>
      </trkpt>
      <trkpt lat="42.86079" lon="2.8463">
        <ele>151</ele>
        <time>2024-07-19T10:26:19Z</time>
      </trkpt>
      <trkpt lat="42.86083" lon="2.8464">
        <ele>151</ele>
        <time>2024-07-19T10:26:20Z</time>
      </trkpt>
      <trkpt lat="42.86084" lon="2.84651">
        <ele>151</ele>
        <time>2024-07-19T10:26:21Z</time>
      </trkpt>
      <trkpt lat="42.86083" lon="2.84661">
        <ele>151</ele>
        <time>2024-07-19T10:26:22Z</time>
      </trkpt>
      <trkpt lat="42.86083" lon="2.84671">
        <ele>151</ele>
        <time>2024-07-19T10:26:23Z</time>
      </trkpt>
      <trkpt lat="42.86081" lon="2.84681">
        <ele>151</ele>
        <time>2024-07-19T10:26:24Z</time>
      </trkpt>
      <trkpt lat="42.8608" lon="2.8469">
        <ele>151</ele>
        <time>2024-07-19T10:26:25Z</time>
      </trkpt>
      <trkpt lat="42.86078" lon="2.84699">
        <ele>151</ele>
        <time>2024-07-19T10:26:26Z</time>
      </trkpt>
      <trkpt lat="42.86078" lon="2.84708">
        <ele>151</ele>
        <time>2024-07-19T10:26:27Z</time>
      </trkpt>
      <trkpt lat="42.86077" lon="2.84717">
        <ele>151</ele>
        <time>2024-07-19T10:26:28Z</time>
      </trkpt>
      <trkpt lat="42.86078" lon="2.84733">
        <ele>151</ele>
        <time>2024-07-19T10:26:30Z</time>
      </trkpt>
      <trkpt lat="42.86079" lon="2.84741">
        <ele>151</ele>
        <time>2024-07-19T10:26:31Z</time>
      </trkpt>
      <trkpt lat="42.86081" lon="2.84749">
        <ele>151</ele>
        <time>2024-07-19T10:26:32Z</time>
      </trkpt>
      <trkpt lat="42.86084" lon="2.84758">
        <ele>151</ele>
        <time>2024-07-19T10:26:33Z</time>
      </trkpt>
      <trkpt lat="42.86086" lon="2.84765">
        <ele>151</ele>
        <time>2024-07-19T10:26:34Z</time>
      </trkpt>
      <trkpt lat="42.86089" lon="2.84773">
        <ele>151</ele>
        <time>2024-07-19T10:26:35Z</time>
      </trkpt>
      <trkpt lat="42.86092" lon="2.84781">
        <ele>151</ele>
        <time>2024-07-19T10:26:36Z</time>
      </trkpt>
      <trkpt lat="42.86095" lon="2.84788">
        <ele>151</ele>
        <time>2024-07-19T10:26:37Z</time>
      </trkpt>
      <trkpt lat="42.861" lon="2.84794">
        <ele>151</ele>
        <time>2024-07-19T10:26:38Z</time>
      </trkpt>
      <trkpt lat="42.86105" lon="2.84799">
        <ele>151</ele>
        <time>2024-07-19T10:26:39Z</time>
      </trkpt>
      <trkpt lat="42.8611" lon="2.84805">
        <ele>151</ele>
        <time>2024-07-19T10:26:40Z</time>
      </trkpt>
      <trkpt lat="42.86115" lon="2.8481">
        <ele>151</ele>
        <time>2024-07-19T10:26:41Z</time>
      </trkpt>
      <trkpt lat="42.8612" lon="2.84816">
        <ele>151</ele>
        <time>2024-07-19T10:26:42Z</time>
      </trkpt>
      <trkpt lat="42.86124" lon="2.84822">
        <ele>151</ele>
        <time>2024-07-19T10:26:43Z</time>
      </trkpt>
      <trkpt lat="42.86128" lon="2.84829">
        <ele>151</ele>
        <time>2024-07-19T10:26:44Z</time>
      </trkpt>
      <trkpt lat="42.86132" lon="2.84836">
        <ele>151</ele>
        <time>2024-07-19T10:26:45Z</time>
      </trkpt>
      <trkpt lat="42.86136" lon="2.84843">
        <ele>151</ele>
        <time>2024-07-19T10:26:46Z</time>
      </trkpt>
      <trkpt lat="42.86139" lon="2.8485">
        <ele>151</ele>
        <time>2024-07-19T10:26:47Z</time>
      </trkpt>
      <trkpt lat="42.86143" lon="2.84857">
        <ele>151</ele>
        <time>2024-07-19T10:26:48Z</time>
      </trkpt>
      <trkpt lat="42.86146" lon="2.84864">
        <ele>151</ele>
        <time>2024-07-19T10:26:49Z</time>
      </trkpt>
      <trkpt lat="42.8615" lon="2.8487">
        <ele>151</ele>
        <time>2024-07-19T10:26:50Z</time>
      </trkpt>
      <trkpt lat="42.86155" lon="2.84876">
        <ele>152</ele>
        <time>2024-07-19T10:26:51Z</time>
      </trkpt>
      <trkpt lat="42.8616" lon="2.8488">
        <ele>152</ele>
        <time>2024-07-19T10:26:52Z</time>
      </trkpt>
      <trkpt lat="42.86166" lon="2.84884">
        <ele>152</ele>
        <time>2024-07-19T10:26:53Z</time>
      </trkpt>
      <trkpt lat="42.86171" lon="2.84888">
        <ele>152</ele>
        <time>2024-07-19T10:26:54Z</time>
      </trkpt>
      <trkpt lat="42.86176" lon="2.84893">
        <ele>152</ele>
        <time>2024-07-19T10:26:55Z</time>
      </trkpt>
      <trkpt lat="42.86181" lon="2.84898">
        <ele>152</ele>
        <time>2024-07-19T10:26:56Z</time>
      </trkpt>
      <trkpt lat="42.86186" lon="2.84903">
        <ele>152</ele>
        <time>2024-07-19T10:26:57Z</time>
      </trkpt>
      <trkpt lat="42.8619" lon="2.84909">
        <ele>152</ele>
        <time>2024-07-19T10:26:58Z</time>
      </trkpt>
      <trkpt lat="42.86195" lon="2.84915">
        <ele>152</ele>
        <time>2024-07-19T10:26:59Z</time>
      </trkpt>
      <trkpt lat="42.862" lon="2.84921">
        <ele>152</ele>
        <time>2024-07-19T10:27:00Z</time>
      </trkpt>
      <trkpt lat="42.86204" lon="2.84927">
        <ele>152</ele>
        <time>2024-07-19T10:27:01Z</time>
      </trkpt>
      <trkpt lat="42.86208" lon="2.84933">
        <ele>152</ele>
        <time>2024-07-19T10:27:02Z</time>
      </trkpt>
      <trkpt lat="42.86213" lon="2.84939">
        <ele>153</ele>
        <time>2024-07-19T10:27:03Z</time>
      </trkpt>
      <trkpt lat="42.86218" lon="2.84945">
        <ele>153</ele>
        <time>2024-07-19T10:27:04Z</time>
      </trkpt>
      <trkpt lat="42.86222" lon="2.84952">
        <ele>153</ele>
        <time>2024-07-19T10:27:05Z</time>
      </trkpt>
      <trkpt lat="42.86226" lon="2.84958">
        <ele>153</ele>
        <time>2024-07-19T10:27:06Z</time>
      </trkpt>
      <trkpt lat="42.8623" lon="2.84964">
        <ele>153</ele>
        <time>2024-07-19T10:27:07Z</time>
      </trkpt>
      <trkpt lat="42.86234" lon="2.84971">
        <ele>153</ele>
        <time>2024-07-19T10:27:08Z</time>
      </trkpt>
      <trkpt lat="42.86238" lon="2.84977">
        <ele>153</ele>
        <time>2024-07-19T10:27:09Z</time>
      </trkpt>
      <trkpt lat="42.86242" lon="2.84983">
        <ele>153</ele>
        <time>2024-07-19T10:27:10Z</time>
      </trkpt>
      <trkpt lat="42.86247" lon="2.84989">
        <ele>153</ele>
        <time>2024-07-19T10:27:11Z</time>
      </trkpt>
      <trkpt lat="42.8625" lon="2.84996">
        <ele>154</ele>
        <time>2024-07-19T10:27:12Z</time>
      </trkpt>
      <trkpt lat="42.86253" lon="2.85002">
        <ele>154</ele>
        <time>2024-07-19T10:27:13Z</time>
      </trkpt>
      <trkpt lat="42.86256" lon="2.85008">
        <ele>154</ele>
        <time>2024-07-19T10:27:14Z</time>
      </trkpt>
      <trkpt lat="42.86259" lon="2.85015">
        <ele>154</ele>
        <time>2024-07-19T10:27:15Z</time>
      </trkpt>
      <trkpt lat="42.86262" lon="2.85021">
        <ele>154</ele>
        <time>2024-07-19T10:27:16Z</time>
      </trkpt>
      <trkpt lat="42.86264" lon="2.85027">
        <ele>155</ele>
        <time>2024-07-19T10:27:17Z</time>
      </trkpt>
      <trkpt lat="42.86267" lon="2.85033">
        <ele>155</ele>
        <time>2024-07-19T10:27:18Z</time>
      </trkpt>
      <trkpt lat="42.8627" lon="2.85039">
        <ele>155</ele>
        <time>2024-07-19T10:27:19Z</time>
      </trkpt>
      <trkpt lat="42.86273" lon="2.85045">
        <ele>155</ele>
        <time>2024-07-19T10:27:20Z</time>
      </trkpt>
      <trkpt lat="42.86276" lon="2.85051">
        <ele>156</ele>
        <time>2024-07-19T10:27:21Z</time>
      </trkpt>
      <trkpt lat="42.86278" lon="2.85057">
        <ele>156</ele>
        <time>2024-07-19T10:27:22Z</time>
      </trkpt>
      <trkpt lat="42.8628" lon="2.85063">
        <ele>156</ele>
        <time>2024-07-19T10:27:23Z</time>
      </trkpt>
      <trkpt lat="42.86284" lon="2.85068">
        <ele>156</ele>
        <time>2024-07-19T10:27:24Z</time>
      </trkpt>
      <trkpt lat="42.86286" lon="2.85074">
        <ele>157</ele>
        <time>2024-07-19T10:27:25Z</time>
      </trkpt>
      <trkpt lat="42.86289" lon="2.8508">
        <ele>157</ele>
        <time>2024-07-19T10:27:26Z</time>
      </trkpt>
      <trkpt lat="42.86291" lon="2.85085">
        <ele>157</ele>
        <time>2024-07-19T10:27:27Z</time>
      </trkpt>
      <trkpt lat="42.86294" lon="2.85091">
        <ele>157</ele>
        <time>2024-07-19T10:27:28Z</time>
      </trkpt>
      <trkpt lat="42.86297" lon="2.85096">
        <ele>157</ele>
        <time>2024-07-19T10:27:29Z</time>
      </trkpt>
      <trkpt lat="42.86299" lon="2.85102">
        <ele>158</ele>
        <time>2024-07-19T10:27:30Z</time>
      </trkpt>
      <trkpt lat="42.86301" lon="2.85107">
        <ele>158</ele>
        <time>2024-07-19T10:27:31Z</time>
      </trkpt>
      <trkpt lat="42.86304" lon="2.85113">
        <ele>158</ele>
        <time>2024-07-19T10:27:32Z</time>
      </trkpt>
      <trkpt lat="42.86306" lon="2.85118">
        <ele>159</ele>
        <time>2024-07-19T10:27:33Z</time>
      </trkpt>
      <trkpt lat="42.86311" lon="2.85128">
        <ele>159</ele>
        <time>2024-07-19T10:27:35Z</time>
      </trkpt>
      <trkpt lat="42.86317" lon="2.85137">
        <ele>160</ele>
        <time>2024-07-19T10:27:37Z</time>
      </trkpt>
      <trkpt lat="42.86323" lon="2.85146">
        <ele>160</ele>
        <time>2024-07-19T10:27:39Z</time>
      </trkpt>
      <trkpt lat="42.86326" lon="2.85151">
        <ele>161</ele>
        <time>2024-07-19T10:27:40Z</time>
      </trkpt>
      <trkpt lat="42.86328" lon="2.85156">
        <ele>161</ele>
        <time>2024-07-19T10:27:41Z</time>
      </trkpt>
      <trkpt lat="42.86333" lon="2.85166">
        <ele>161</ele>
        <time>2024-07-19T10:27:43Z</time>
      </trkpt>
      <trkpt lat="42.86338" lon="2.85175">
        <ele>162</ele>
        <time>2024-07-19T10:27:45Z</time>
      </trkpt>
      <trkpt lat="42.86343" lon="2.85184">
        <ele>162</ele>
        <time>2024-07-19T10:27:47Z</time>
      </trkpt>
      <trkpt lat="42.86349" lon="2.85193">
        <ele>163</ele>
        <time>2024-07-19T10:27:49Z</time>
      </trkpt>
      <trkpt lat="42.86354" lon="2.85201">
        <ele>164</ele>
        <time>2024-07-19T10:27:51Z</time>
      </trkpt>
      <trkpt lat="42.86359" lon="2.85211">
        <ele>165</ele>
        <time>2024-07-19T10:27:53Z</time>
      </trkpt>
      <trkpt lat="42.86364" lon="2.85221">
        <ele>165</ele>
        <time>2024-07-19T10:27:55Z</time>
      </trkpt>
      <trkpt lat="42.86368" lon="2.85232">
        <ele>166</ele>
        <time>2024-07-19T10:27:57Z</time>
      </trkpt>
      <trkpt lat="42.86372" lon="2.85242">
        <ele>167</ele>
        <time>2024-07-19T10:27:59Z</time>
      </trkpt>
      <trkpt lat="42.86375" lon="2.85253">
        <ele>167</ele>
        <time>2024-07-19T10:28:01Z</time>
      </trkpt>
      <trkpt lat="42.86378" lon="2.85263">
        <ele>168</ele>
        <time>2024-07-19T10:28:03Z</time>
      </trkpt>
      <trkpt lat="42.86382" lon="2.85272">
        <ele>169</ele>
        <time>2024-07-19T10:28:05Z</time>
      </trkpt>
      <trkpt lat="42.86386" lon="2.85282">
        <ele>170</ele>
        <time>2024-07-19T10:28:07Z</time>
      </trkpt>
      <trkpt lat="42.8639" lon="2.85291">
        <ele>170</ele>
        <time>2024-07-19T10:28:09Z</time>
      </trkpt>
      <trkpt lat="42.86393" lon="2.85302">
        <ele>171</ele>
        <time>2024-07-19T10:28:11Z</time>
      </trkpt>
      <trkpt lat="42.86397" lon="2.85312">
        <ele>172</ele>
        <time>2024-07-19T10:28:13Z</time>
      </trkpt>
      <trkpt lat="42.86401" lon="2.85321">
        <ele>172</ele>
        <time>2024-07-19T10:28:15Z</time>
      </trkpt>
      <trkpt lat="42.86406" lon="2.85331">
        <ele>173</ele>
        <time>2024-07-19T10:28:17Z</time>
      </trkpt>
      <trkpt lat="42.8641" lon="2.85341">
        <ele>173</ele>
        <time>2024-07-19T10:28:19Z</time>
      </trkpt>
      <trkpt lat="42.86414" lon="2.85351">
        <ele>174</ele>
        <time>2024-07-19T10:28:21Z</time>
      </trkpt>
      <trkpt lat="42.8642" lon="2.85361">
        <ele>174</ele>
        <time>2024-07-19T10:28:23Z</time>
      </trkpt>
      <trkpt lat="42.86422" lon="2.85366">
        <ele>175</ele>
        <time>2024-07-19T10:28:24Z</time>
      </trkpt>
      <trkpt lat="42.86425" lon="2.85371">
        <ele>175</ele>
        <time>2024-07-19T10:28:25Z</time>
      </trkpt>
      <trkpt lat="42.86427" lon="2.85377">
        <ele>175</ele>
        <time>2024-07-19T10:28:26Z</time>
      </trkpt>
      <trkpt lat="42.86428" lon="2.85383">
        <ele>176</ele>
        <time>2024-07-19T10:28:27Z</time>
      </trkpt>
      <trkpt lat="42.86428" lon="2.8539">
        <ele>176</ele>
        <time>2024-07-19T10:28:28Z</time>
      </trkpt>
      <trkpt lat="42.86427" lon="2.85396">
        <ele>176</ele>
        <time>2024-07-19T10:28:29Z</time>
      </trkpt>
      <trkpt lat="42.86425" lon="2.85402">
        <ele>176</ele>
        <time>2024-07-19T10:28:30Z</time>
      </trkpt>
      <trkpt lat="42.86424" lon="2.85408">
        <ele>177</ele>
        <time>2024-07-19T10:28:31Z</time>
      </trkpt>
      <trkpt lat="42.8642" lon="2.85419">
        <ele>177</ele>
        <time>2024-07-19T10:28:33Z</time>
      </trkpt>
      <trkpt lat="42.86417" lon="2.8543">
        <ele>177</ele>
        <time>2024-07-19T10:28:35Z</time>
      </trkpt>
      <trkpt lat="42.86415" lon="2.85436">
        <ele>178</ele>
        <time>2024-07-19T10:28:36Z</time>
      </trkpt>
      <trkpt lat="42.86413" lon="2.85441">
        <ele>179</ele>
        <time>2024-07-19T10:28:37Z</time>
      </trkpt>
      <trkpt lat="42.86409" lon="2.85452">
        <ele>179</ele>
        <time>2024-07-19T10:28:39Z</time>
      </trkpt>
      <trkpt lat="42.86405" lon="2.85462">
        <ele>180</ele>
        <time>2024-07-19T10:28:41Z</time>
      </trkpt>
      <trkpt lat="42.86401" lon="2.85473">
        <ele>181</ele>
        <time>2024-07-19T10:28:43Z</time>
      </trkpt>
      <trkpt lat="42.86398" lon="2.85483">
        <ele>182</ele>
        <time>2024-07-19T10:28:45Z</time>
      </trkpt>
      <trkpt lat="42.86394" lon="2.85494">
        <ele>182</ele>
        <time>2024-07-19T10:28:47Z</time>
      </trkpt>
      <trkpt lat="42.86391" lon="2.85504">
        <ele>183</ele>
        <time>2024-07-19T10:28:49Z</time>
      </trkpt>
      <trkpt lat="42.86387" lon="2.85515">
        <ele>184</ele>
        <time>2024-07-19T10:28:51Z</time>
      </trkpt>
      <trkpt lat="42.86383" lon="2.85525">
        <ele>184</ele>
        <time>2024-07-19T10:28:53Z</time>
      </trkpt>
      <trkpt lat="42.86378" lon="2.85535">
        <ele>185</ele>
        <time>2024-07-19T10:28:55Z</time>
      </trkpt>
      <trkpt lat="42.86372" lon="2.85543">
        <ele>185</ele>
        <time>2024-07-19T10:28:57Z</time>
      </trkpt>
      <trkpt lat="42.86366" lon="2.85551">
        <ele>186</ele>
        <time>2024-07-19T10:28:59Z</time>
      </trkpt>
      <trkpt lat="42.8636" lon="2.8556">
        <ele>186</ele>
        <time>2024-07-19T10:29:01Z</time>
      </trkpt>
      <trkpt lat="42.86354" lon="2.85567">
        <ele>187</ele>
        <time>2024-07-19T10:29:03Z</time>
      </trkpt>
      <trkpt lat="42.86348" lon="2.85573">
        <ele>187</ele>
        <time>2024-07-19T10:29:05Z</time>
      </trkpt>
      <trkpt lat="42.86342" lon="2.8558">
        <ele>188</ele>
        <time>2024-07-19T10:29:07Z</time>
      </trkpt>
      <trkpt lat="42.86336" lon="2.8559">
        <ele>188</ele>
        <time>2024-07-19T10:29:09Z</time>
      </trkpt>
      <trkpt lat="42.8633" lon="2.85598">
        <ele>189</ele>
        <time>2024-07-19T10:29:11Z</time>
      </trkpt>
      <trkpt lat="42.86324" lon="2.85607">
        <ele>189</ele>
        <time>2024-07-19T10:29:13Z</time>
      </trkpt>
      <trkpt lat="42.86321" lon="2.85617">
        <ele>190</ele>
        <time>2024-07-19T10:29:15Z</time>
      </trkpt>
      <trkpt lat="42.86317" lon="2.85627">
        <ele>190</ele>
        <time>2024-07-19T10:29:17Z</time>
      </trkpt>
      <trkpt lat="42.86314" lon="2.85638">
        <ele>190</ele>
        <time>2024-07-19T10:29:19Z</time>
      </trkpt>
      <trkpt lat="42.86313" lon="2.85649">
        <ele>191</ele>
        <time>2024-07-19T10:29:21Z</time>
      </trkpt>
      <trkpt lat="42.86316" lon="2.85661">
        <ele>191</ele>
        <time>2024-07-19T10:29:23Z</time>
      </trkpt>
      <trkpt lat="42.8632" lon="2.85671">
        <ele>192</ele>
        <time>2024-07-19T10:29:25Z</time>
      </trkpt>
      <trkpt lat="42.86324" lon="2.85675">
        <ele>192</ele>
        <time>2024-07-19T10:29:26Z</time>
      </trkpt>
      <trkpt lat="42.8633" lon="2.85682">
        <ele>192</ele>
        <time>2024-07-19T10:29:28Z</time>
      </trkpt>
      <trkpt lat="42.86339" lon="2.85687">
        <ele>193</ele>
        <time>2024-07-19T10:29:30Z</time>
      </trkpt>
      <trkpt lat="42.86343" lon="2.85688">
        <ele>193</ele>
        <time>2024-07-19T10:29:31Z</time>
      </trkpt>
      <trkpt lat="42.8635" lon="2.85686">
        <ele>193</ele>
        <time>2024-07-19T10:29:32Z</time>
      </trkpt>
      <trkpt lat="42.86354" lon="2.85687">
        <ele>194</ele>
        <time>2024-07-19T10:29:33Z</time>
      </trkpt>
      <trkpt lat="42.86363" lon="2.8569">
        <ele>194</ele>
        <time>2024-07-19T10:29:35Z</time>
      </trkpt>
      <trkpt lat="42.86371" lon="2.85692">
        <ele>194</ele>
        <time>2024-07-19T10:29:37Z</time>
      </trkpt>
      <trkpt lat="42.86379" lon="2.85695">
        <ele>195</ele>
        <time>2024-07-19T10:29:39Z</time>
      </trkpt>
      <trkpt lat="42.86387" lon="2.85699">
        <ele>195</ele>
        <time>2024-07-19T10:29:41Z</time>
      </trkpt>
      <trkpt lat="42.86395" lon="2.85702">
        <ele>195</ele>
        <time>2024-07-19T10:29:43Z</time>
      </trkpt>
      <trkpt lat="42.86404" lon="2.85705">
        <ele>196</ele>
        <time>2024-07-19T10:29:45Z</time>
      </trkpt>
      <trkpt lat="42.86412" lon="2.85708">
        <ele>196</ele>
        <time>2024-07-19T10:29:47Z</time>
      </trkpt>
      <trkpt lat="42.86419" lon="2.85712">
        <ele>197</ele>
        <time>2024-07-19T10:29:49Z</time>
      </trkpt>
      <trkpt lat="42.86427" lon="2.85715">
        <ele>198</ele>
        <time>2024-07-19T10:29:51Z</time>
      </trkpt>
      <trkpt lat="42.86435" lon="2.85719">
        <ele>198</ele>
        <time>2024-07-19T10:29:53Z</time>
      </trkpt>
      <trkpt lat="42.86443" lon="2.85724">
        <ele>199</ele>
        <time>2024-07-19T10:29:55Z</time>
      </trkpt>
      <trkpt lat="42.86452" lon="2.85727">
        <ele>199</ele>
        <time>2024-07-19T10:29:57Z</time>
      </trkpt>
      <trkpt lat="42.86461" lon="2.85732">
        <ele>200</ele>
        <time>2024-07-19T10:29:59Z</time>
      </trkpt>
      <trkpt lat="42.86465" lon="2.85735">
        <ele>200</ele>
        <time>2024-07-19T10:30:00Z</time>
      </trkpt>
      <trkpt lat="42.86469" lon="2.85738">
        <ele>201</ele>
        <time>2024-07-19T10:30:01Z</time>
      </trkpt>
      <trkpt lat="42.86476" lon="2.85744">
        <ele>201</ele>
        <time>2024-07-19T10:30:03Z</time>
      </trkpt>
      <trkpt lat="42.86483" lon="2.85752">
        <ele>201</ele>
        <time>2024-07-19T10:30:05Z</time>
      </trkpt>
      <trkpt lat="42.86488" lon="2.85761">
        <ele>202</ele>
        <time>2024-07-19T10:30:07Z</time>
      </trkpt>
      <trkpt lat="42.86492" lon="2.8577">
        <ele>203</ele>
        <time>2024-07-19T10:30:09Z</time>
      </trkpt>
      <trkpt lat="42.86496" lon="2.8578">
        <ele>203</ele>
        <time>2024-07-19T10:30:11Z</time>
      </trkpt>
      <trkpt lat="42.865" lon="2.8579">
        <ele>204</ele>
        <time>2024-07-19T10:30:13Z</time>
      </trkpt>
      <trkpt lat="42.86503" lon="2.85801">
        <ele>205</ele>
        <time>2024-07-19T10:30:15Z</time>
      </trkpt>
      <trkpt lat="42.86504" lon="2.85812">
        <ele>205</ele>
        <time>2024-07-19T10:30:17Z</time>
      </trkpt>
      <trkpt lat="42.86505" lon="2.85823">
        <ele>206</ele>
        <time>2024-07-19T10:30:19Z</time>
      </trkpt>
      <trkpt lat="42.86506" lon="2.85835">
        <ele>207</ele>
        <time>2024-07-19T10:30:21Z</time>
      </trkpt>
      <trkpt lat="42.86507" lon="2.85847">
        <ele>207</ele>
        <time>2024-07-19T10:30:23Z</time>
      </trkpt>
      <trkpt lat="42.86509" lon="2.85852">
        <ele>208</ele>
        <time>2024-07-19T10:30:24Z</time>
      </trkpt>
      <trkpt lat="42.86511" lon="2.85864">
        <ele>208</ele>
        <time>2024-07-19T10:30:26Z</time>
      </trkpt>
      <trkpt lat="42.86514" lon="2.85875">
        <ele>209</ele>
        <time>2024-07-19T10:30:28Z</time>
      </trkpt>
      <trkpt lat="42.86516" lon="2.85886">
        <ele>209</ele>
        <time>2024-07-19T10:30:30Z</time>
      </trkpt>
      <trkpt lat="42.86517" lon="2.85898">
        <ele>210</ele>
        <time>2024-07-19T10:30:32Z</time>
      </trkpt>
      <trkpt lat="42.86518" lon="2.8591">
        <ele>210</ele>
        <time>2024-07-19T10:30:34Z</time>
      </trkpt>
      <trkpt lat="42.86518" lon="2.85916">
        <ele>211</ele>
        <time>2024-07-19T10:30:35Z</time>
      </trkpt>
      <trkpt lat="42.86517" lon="2.85923">
        <ele>211</ele>
        <time>2024-07-19T10:30:36Z</time>
      </trkpt>
      <trkpt lat="42.86517" lon="2.8593">
        <ele>211</ele>
        <time>2024-07-19T10:30:37Z</time>
      </trkpt>
      <trkpt lat="42.86517" lon="2.85937">
        <ele>211</ele>
        <time>2024-07-19T10:30:38Z</time>
      </trkpt>
      <trkpt lat="42.86518" lon="2.85944">
        <ele>211</ele>
        <time>2024-07-19T10:30:39Z</time>
      </trkpt>
      <trkpt lat="42.86518" lon="2.85951">
        <ele>211</ele>
        <time>2024-07-19T10:30:40Z</time>
      </trkpt>
      <trkpt lat="42.86517" lon="2.85958">
        <ele>211</ele>
        <time>2024-07-19T10:30:41Z</time>
      </trkpt>
      <trkpt lat="42.86517" lon="2.85965">
        <ele>211</ele>
        <time>2024-07-19T10:30:42Z</time>
      </trkpt>
      <trkpt lat="42.86516" lon="2.85972">
        <ele>212</ele>
        <time>2024-07-19T10:30:43Z</time>
      </trkpt>
      <trkpt lat="42.86516" lon="2.85979">
        <ele>212</ele>
        <time>2024-07-19T10:30:44Z</time>
      </trkpt>
      <trkpt lat="42.86516" lon="2.85986">
        <ele>212</ele>
        <time>2024-07-19T10:30:45Z</time>
      </trkpt>
      <trkpt lat="42.86515" lon="2.85993">
        <ele>212</ele>
        <time>2024-07-19T10:30:46Z</time>
      </trkpt>
      <trkpt lat="42.86515" lon="2.86">
        <ele>212</ele>
        <time>2024-07-19T10:30:47Z</time>
      </trkpt>
      <trkpt lat="42.86515" lon="2.86006">
        <ele>212</ele>
        <time>2024-07-19T10:30:48Z</time>
      </trkpt>
      <trkpt lat="42.86515" lon="2.86013">
        <ele>212</ele>
        <time>2024-07-19T10:30:49Z</time>
      </trkpt>
      <trkpt lat="42.86515" lon="2.86019">
        <ele>212</ele>
        <time>2024-07-19T10:30:50Z</time>
      </trkpt>
      <trkpt lat="42.86515" lon="2.86025">
        <ele>212</ele>
        <time>2024-07-19T10:30:51Z</time>
      </trkpt>
      <trkpt lat="42.86516" lon="2.86037">
        <ele>212</ele>
        <time>2024-07-19T10:30:53Z</time>
      </trkpt>
      <trkpt lat="42.86523" lon="2.86042">
        <ele>212</ele>
        <time>2024-07-19T10:30:55Z</time>
      </trkpt>
      <trkpt lat="42.8653" lon="2.86038">
        <ele>212</ele>
        <time>2024-07-19T10:30:57Z</time>
      </trkpt>
      <trkpt lat="42.86537" lon="2.86032">
        <ele>212</ele>
        <time>2024-07-19T10:30:59Z</time>
      </trkpt>
      <trkpt lat="42.86543" lon="2.86025">
        <ele>213</ele>
        <time>2024-07-19T10:31:01Z</time>
      </trkpt>
      <trkpt lat="42.8655" lon="2.86016">
        <ele>213</ele>
        <time>2024-07-19T10:31:03Z</time>
      </trkpt>
      <trkpt lat="42.86552" lon="2.86011">
        <ele>213</ele>
        <time>2024-07-19T10:31:04Z</time>
      </trkpt>
      <trkpt lat="42.86554" lon="2.86005">
        <ele>214</ele>
        <time>2024-07-19T10:31:05Z</time>
      </trkpt>
      <trkpt lat="42.86557" lon="2.86">
        <ele>214</ele>
        <time>2024-07-19T10:31:06Z</time>
      </trkpt>
      <trkpt lat="42.8656" lon="2.85989">
        <ele>214</ele>
        <time>2024-07-19T10:31:08Z</time>
      </trkpt>
      <trkpt lat="42.86562" lon="2.85978">
        <ele>215</ele>
        <time>2024-07-19T10:31:10Z</time>
      </trkpt>
      <trkpt lat="42.86565" lon="2.85966">
        <ele>215</ele>
        <time>2024-07-19T10:31:12Z</time>
      </trkpt>
      <trkpt lat="42.86567" lon="2.85961">
        <ele>215</ele>
        <time>2024-07-19T10:31:13Z</time>
      </trkpt>
      <trkpt lat="42.86574" lon="2.85954">
        <ele>216</ele>
        <time>2024-07-19T10:31:15Z</time>
      </trkpt>
      <trkpt lat="42.86582" lon="2.85955">
        <ele>216</ele>
        <time>2024-07-19T10:31:17Z</time>
      </trkpt>
      <trkpt lat="42.86589" lon="2.85963">
        <ele>216</ele>
        <time>2024-07-19T10:31:19Z</time>
      </trkpt>
      <trkpt lat="42.86592" lon="2.85974">
        <ele>217</ele>
        <time>2024-07-19T10:31:21Z</time>
      </trkpt>
      <trkpt lat="42.86593" lon="2.8598">
        <ele>217</ele>
        <time>2024-07-19T10:31:22Z</time>
      </trkpt>
      <trkpt lat="42.86594" lon="2.85986">
        <ele>218</ele>
        <time>2024-07-19T10:31:23Z</time>
      </trkpt>
      <trkpt lat="42.86595" lon="2.85992">
        <ele>218</ele>
        <time>2024-07-19T10:31:24Z</time>
      </trkpt>
      <trkpt lat="42.86596" lon="2.86004">
        <ele>218</ele>
        <time>2024-07-19T10:31:26Z</time>
      </trkpt>
      <trkpt lat="42.86596" lon="2.8601">
        <ele>219</ele>
        <time>2024-07-19T10:31:27Z</time>
      </trkpt>
      <trkpt lat="42.86596" lon="2.86017">
        <ele>219</ele>
        <time>2024-07-19T10:31:28Z</time>
      </trkpt>
      <trkpt lat="42.86597" lon="2.86023">
        <ele>219</ele>
        <time>2024-07-19T10:31:29Z</time>
      </trkpt>
      <trkpt lat="42.86598" lon="2.86029">
        <ele>219</ele>
        <time>2024-07-19T10:31:30Z</time>
      </trkpt>
      <trkpt lat="42.866" lon="2.86035">
        <ele>220</ele>
        <time>2024-07-19T10:31:31Z</time>
      </trkpt>
      <trkpt lat="42.86607" lon="2.86042">
        <ele>220</ele>
        <time>2024-07-19T10:31:33Z</time>
      </trkpt>
      <trkpt lat="42.86615" lon="2.86042">
        <ele>220</ele>
        <time>2024-07-19T10:31:35Z</time>
      </trkpt>
      <trkpt lat="42.8662" lon="2.86034">
        <ele>221</ele>
        <time>2024-07-19T10:31:37Z</time>
      </trkpt>
      <trkpt lat="42.86622" lon="2.86022">
        <ele>221</ele>
        <time>2024-07-19T10:31:39Z</time>
      </trkpt>
      <trkpt lat="42.86622" lon="2.86011">
        <ele>222</ele>
        <time>2024-07-19T10:31:41Z</time>
      </trkpt>
      <trkpt lat="42.8662" lon="2.86005">
        <ele>222</ele>
        <time>2024-07-19T10:31:42Z</time>
      </trkpt>
      <trkpt lat="42.8662" lon="2.85998">
        <ele>222</ele>
        <time>2024-07-19T10:31:43Z</time>
      </trkpt>
      <trkpt lat="42.86621" lon="2.85992">
        <ele>222</ele>
        <time>2024-07-19T10:31:44Z</time>
      </trkpt>
      <trkpt lat="42.86621" lon="2.85985">
        <ele>222</ele>
        <time>2024-07-19T10:31:45Z</time>
      </trkpt>
      <trkpt lat="42.8662" lon="2.85978">
        <ele>223</ele>
        <time>2024-07-19T10:31:46Z</time>
      </trkpt>
      <trkpt lat="42.8662" lon="2.85972">
        <ele>223</ele>
        <time>2024-07-19T10:31:47Z</time>
      </trkpt>
      <trkpt lat="42.86621" lon="2.8596">
        <ele>223</ele>
        <time>2024-07-19T10:31:49Z</time>
      </trkpt>
      <trkpt lat="42.86622" lon="2.85949">
        <ele>223</ele>
        <time>2024-07-19T10:31:51Z</time>
      </trkpt>
      <trkpt lat="42.86623" lon="2.85937">
        <ele>224</ele>
        <time>2024-07-19T10:31:53Z</time>
      </trkpt>
      <trkpt lat="42.86624" lon="2.85926">
        <ele>224</ele>
        <time>2024-07-19T10:31:55Z</time>
      </trkpt>
      <trkpt lat="42.86625" lon="2.85914">
        <ele>225</ele>
        <time>2024-07-19T10:31:57Z</time>
      </trkpt>
      <trkpt lat="42.86626" lon="2.85903">
        <ele>225</ele>
        <time>2024-07-19T10:31:59Z</time>
      </trkpt>
      <trkpt lat="42.86627" lon="2.85891">
        <ele>226</ele>
        <time>2024-07-19T10:32:01Z</time>
      </trkpt>
      <trkpt lat="42.86629" lon="2.85879">
        <ele>226</ele>
        <time>2024-07-19T10:32:03Z</time>
      </trkpt>
      <trkpt lat="42.8663" lon="2.85873">
        <ele>227</ele>
        <time>2024-07-19T10:32:04Z</time>
      </trkpt>
      <trkpt lat="42.86631" lon="2.85867">
        <ele>227</ele>
        <time>2024-07-19T10:32:05Z</time>
      </trkpt>
      <trkpt lat="42.86631" lon="2.85855">
        <ele>227</ele>
        <time>2024-07-19T10:32:07Z</time>
      </trkpt>
      <trkpt lat="42.8663" lon="2.85843">
        <ele>228</ele>
        <time>2024-07-19T10:32:09Z</time>
      </trkpt>
      <trkpt lat="42.86628" lon="2.85832">
        <ele>228</ele>
        <time>2024-07-19T10:32:11Z</time>
      </trkpt>
      <trkpt lat="42.86626" lon="2.85826">
        <ele>228</ele>
        <time>2024-07-19T10:32:12Z</time>
      </trkpt>
      <trkpt lat="42.86624" lon="2.85814">
        <ele>228</ele>
        <time>2024-07-19T10:32:14Z</time>
      </trkpt>
      <trkpt lat="42.86623" lon="2.85808">
        <ele>229</ele>
        <time>2024-07-19T10:32:15Z</time>
      </trkpt>
      <trkpt lat="42.86623" lon="2.85797">
        <ele>229</ele>
        <time>2024-07-19T10:32:17Z</time>
      </trkpt>
      <trkpt lat="42.86628" lon="2.85789">
        <ele>230</ele>
        <time>2024-07-19T10:32:19Z</time>
      </trkpt>
      <trkpt lat="42.86636" lon="2.85787">
        <ele>230</ele>
        <time>2024-07-19T10:32:21Z</time>
      </trkpt>
      <trkpt lat="42.86643" lon="2.8579">
        <ele>231</ele>
        <time>2024-07-19T10:32:23Z</time>
      </trkpt>
      <trkpt lat="42.86647" lon="2.858">
        <ele>232</ele>
        <time>2024-07-19T10:32:25Z</time>
      </trkpt>
      <trkpt lat="42.86648" lon="2.85812">
        <ele>233</ele>
        <time>2024-07-19T10:32:27Z</time>
      </trkpt>
      <trkpt lat="42.8665" lon="2.85823">
        <ele>233</ele>
        <time>2024-07-19T10:32:29Z</time>
      </trkpt>
      <trkpt lat="42.8665" lon="2.8583">
        <ele>234</ele>
        <time>2024-07-19T10:32:30Z</time>
      </trkpt>
      <trkpt lat="42.86652" lon="2.85836">
        <ele>234</ele>
        <time>2024-07-19T10:32:31Z</time>
      </trkpt>
      <trkpt lat="42.86654" lon="2.85847">
        <ele>234</ele>
        <time>2024-07-19T10:32:33Z</time>
      </trkpt>
      <trkpt lat="42.86655" lon="2.85859">
        <ele>235</ele>
        <time>2024-07-19T10:32:35Z</time>
      </trkpt>
      <trkpt lat="42.86656" lon="2.85871">
        <ele>235</ele>
        <time>2024-07-19T10:32:37Z</time>
      </trkpt>
      <trkpt lat="42.86656" lon="2.85878">
        <ele>236</ele>
        <time>2024-07-19T10:32:38Z</time>
      </trkpt>
      <trkpt lat="42.86657" lon="2.8589">
        <ele>236</ele>
        <time>2024-07-19T10:32:40Z</time>
      </trkpt>
      <trkpt lat="42.86658" lon="2.85896">
        <ele>236</ele>
        <time>2024-07-19T10:32:41Z</time>
      </trkpt>
      <trkpt lat="42.8666" lon="2.85901">
        <ele>237</ele>
        <time>2024-07-19T10:32:42Z</time>
      </trkpt>
      <trkpt lat="42.86664" lon="2.85904">
        <ele>237</ele>
        <time>2024-07-19T10:32:43Z</time>
      </trkpt>
      <trkpt lat="42.86673" lon="2.85905">
        <ele>237</ele>
        <time>2024-07-19T10:32:45Z</time>
      </trkpt>
      <trkpt lat="42.86678" lon="2.85898">
        <ele>238</ele>
        <time>2024-07-19T10:32:47Z</time>
      </trkpt>
      <trkpt lat="42.8668" lon="2.85889">
        <ele>238</ele>
        <time>2024-07-19T10:32:49Z</time>
      </trkpt>
      <trkpt lat="42.86679" lon="2.85879">
        <ele>239</ele>
        <time>2024-07-19T10:32:51Z</time>
      </trkpt>
      <trkpt lat="42.86676" lon="2.85868">
        <ele>239</ele>
        <time>2024-07-19T10:32:53Z</time>
      </trkpt>
      <trkpt lat="42.86674" lon="2.85862">
        <ele>240</ele>
        <time>2024-07-19T10:32:54Z</time>
      </trkpt>
      <trkpt lat="42.86673" lon="2.85856">
        <ele>240</ele>
        <time>2024-07-19T10:32:55Z</time>
      </trkpt>
      <trkpt lat="42.86673" lon="2.85849">
        <ele>240</ele>
        <time>2024-07-19T10:32:56Z</time>
      </trkpt>
      <trkpt lat="42.86673" lon="2.85843">
        <ele>240</ele>
        <time>2024-07-19T10:32:57Z</time>
      </trkpt>
      <trkpt lat="42.86673" lon="2.85837">
        <ele>241</ele>
        <time>2024-07-19T10:32:58Z</time>
      </trkpt>
      <trkpt lat="42.86673" lon="2.85831">
        <ele>241</ele>
        <time>2024-07-19T10:32:59Z</time>
      </trkpt>
      <trkpt lat="42.86673" lon="2.85824">
        <ele>241</ele>
        <time>2024-07-19T10:33:00Z</time>
      </trkpt>
      <trkpt lat="42.86673" lon="2.85818">
        <ele>241</ele>
        <time>2024-07-19T10:33:01Z</time>
      </trkpt>
      <trkpt lat="42.86673" lon="2.85812">
        <ele>241</ele>
        <time>2024-07-19T10:33:02Z</time>
      </trkpt>
      <trkpt lat="42.86673" lon="2.858">
        <ele>242</ele>
        <time>2024-07-19T10:33:04Z</time>
      </trkpt>
      <trkpt lat="42.86673" lon="2.85788">
        <ele>242</ele>
        <time>2024-07-19T10:33:06Z</time>
      </trkpt>
      <trkpt lat="42.86671" lon="2.85776">
        <ele>242</ele>
        <time>2024-07-19T10:33:08Z</time>
      </trkpt>
      <trkpt lat="42.86668" lon="2.85765">
        <ele>242</ele>
        <time>2024-07-19T10:33:10Z</time>
      </trkpt>
      <trkpt lat="42.86667" lon="2.85759">
        <ele>243</ele>
        <time>2024-07-19T10:33:11Z</time>
      </trkpt>
      <trkpt lat="42.86665" lon="2.85753">
        <ele>243</ele>
        <time>2024-07-19T10:33:12Z</time>
      </trkpt>
      <trkpt lat="42.86663" lon="2.85741">
        <ele>243</ele>
        <time>2024-07-19T10:33:14Z</time>
      </trkpt>
      <trkpt lat="42.86664" lon="2.8573">
        <ele>244</ele>
        <time>2024-07-19T10:33:16Z</time>
      </trkpt>
      <trkpt lat="42.86668" lon="2.85722">
        <ele>245</ele>
        <time>2024-07-19T10:33:18Z</time>
      </trkpt>
      <trkpt lat="42.86674" lon="2.85715">
        <ele>245</ele>
        <time>2024-07-19T10:33:20Z</time>
      </trkpt>
      <trkpt lat="42.8668" lon="2.85709">
        <ele>246</ele>
        <time>2024-07-19T10:33:22Z</time>
      </trkpt>
      <trkpt lat="42.86689" lon="2.85708">
        <ele>246</ele>
        <time>2024-07-19T10:33:24Z</time>
      </trkpt>
      <trkpt lat="42.86694" lon="2.85709">
        <ele>247</ele>
        <time>2024-07-19T10:33:25Z</time>
      </trkpt>
      <trkpt lat="42.86698" lon="2.85711">
        <ele>247</ele>
        <time>2024-07-19T10:33:26Z</time>
      </trkpt>
      <trkpt lat="42.86702" lon="2.85713">
        <ele>247</ele>
        <time>2024-07-19T10:33:27Z</time>
      </trkpt>
      <trkpt lat="42.86709" lon="2.85721">
        <ele>248</ele>
        <time>2024-07-19T10:33:29Z</time>
      </trkpt>
      <trkpt lat="42.86715" lon="2.8573">
        <ele>248</ele>
        <time>2024-07-19T10:33:31Z</time>
      </trkpt>
      <trkpt lat="42.86719" lon="2.85739">
        <ele>249</ele>
        <time>2024-07-19T10:33:33Z</time>
      </trkpt>
      <trkpt lat="42.86724" lon="2.85747">
        <ele>249</ele>
        <time>2024-07-19T10:33:35Z</time>
      </trkpt>
      <trkpt lat="42.86729" lon="2.85755">
        <ele>250</ele>
        <time>2024-07-19T10:33:37Z</time>
      </trkpt>
      <trkpt lat="42.86734" lon="2.85763">
        <ele>251</ele>
        <time>2024-07-19T10:33:39Z</time>
      </trkpt>
      <trkpt lat="42.8674" lon="2.85771">
        <ele>251</ele>
        <time>2024-07-19T10:33:41Z</time>
      </trkpt>
      <trkpt lat="42.86745" lon="2.85779">
        <ele>252</ele>
        <time>2024-07-19T10:33:43Z</time>
      </trkpt>
      <trkpt lat="42.8675" lon="2.85787">
        <ele>252</ele>
        <time>2024-07-19T10:33:45Z</time>
      </trkpt>
      <trkpt lat="42.86755" lon="2.85795">
        <ele>253</ele>
        <time>2024-07-19T10:33:47Z</time>
      </trkpt>
      <trkpt lat="42.86761" lon="2.85803">
        <ele>253</ele>
        <time>2024-07-19T10:33:49Z</time>
      </trkpt>
      <trkpt lat="42.86766" lon="2.85812">
        <ele>254</ele>
        <time>2024-07-19T10:33:51Z</time>
      </trkpt>
      <trkpt lat="42.8677" lon="2.85821">
        <ele>254</ele>
        <time>2024-07-19T10:33:53Z</time>
      </trkpt>
      <trkpt lat="42.86775" lon="2.85829">
        <ele>255</ele>
        <time>2024-07-19T10:33:55Z</time>
      </trkpt>
      <trkpt lat="42.8678" lon="2.85838">
        <ele>256</ele>
        <time>2024-07-19T10:33:57Z</time>
      </trkpt>
      <trkpt lat="42.86784" lon="2.85847">
        <ele>256</ele>
        <time>2024-07-19T10:33:59Z</time>
      </trkpt>
      <trkpt lat="42.86788" lon="2.85857">
        <ele>257</ele>
        <time>2024-07-19T10:34:01Z</time>
      </trkpt>
      <trkpt lat="42.86792" lon="2.85866">
        <ele>258</ele>
        <time>2024-07-19T10:34:03Z</time>
      </trkpt>
      <trkpt lat="42.86795" lon="2.85874">
        <ele>258</ele>
        <time>2024-07-19T10:34:05Z</time>
      </trkpt>
      <trkpt lat="42.86799" lon="2.85883">
        <ele>259</ele>
        <time>2024-07-19T10:34:07Z</time>
      </trkpt>
      <trkpt lat="42.86803" lon="2.8589">
        <ele>259</ele>
        <time>2024-07-19T10:34:09Z</time>
      </trkpt>
      <trkpt lat="42.86808" lon="2.85897">
        <ele>260</ele>
        <time>2024-07-19T10:34:11Z</time>
      </trkpt>
      <trkpt lat="42.86813" lon="2.85903">
        <ele>261</ele>
        <time>2024-07-19T10:34:13Z</time>
      </trkpt>
      <trkpt lat="42.8682" lon="2.85908">
        <ele>261</ele>
        <time>2024-07-19T10:34:15Z</time>
      </trkpt>
      <trkpt lat="42.86826" lon="2.85913">
        <ele>262</ele>
        <time>2024-07-19T10:34:17Z</time>
      </trkpt>
      <trkpt lat="42.86833" lon="2.85917">
        <ele>262</ele>
        <time>2024-07-19T10:34:19Z</time>
      </trkpt>
      <trkpt lat="42.8684" lon="2.85922">
        <ele>263</ele>
        <time>2024-07-19T10:34:21Z</time>
      </trkpt>
      <trkpt lat="42.86848" lon="2.85927">
        <ele>264</ele>
        <time>2024-07-19T10:34:23Z</time>
      </trkpt>
      <trkpt lat="42.86855" lon="2.85931">
        <ele>264</ele>
        <time>2024-07-19T10:34:25Z</time>
      </trkpt>
      <trkpt lat="42.86863" lon="2.85935">
        <ele>265</ele>
        <time>2024-07-19T10:34:27Z</time>
      </trkpt>
      <trkpt lat="42.8687" lon="2.85939">
        <ele>265</ele>
        <time>2024-07-19T10:34:29Z</time>
      </trkpt>
      <trkpt lat="42.86877" lon="2.85943">
        <ele>266</ele>
        <time>2024-07-19T10:34:31Z</time>
      </trkpt>
      <trkpt lat="42.86884" lon="2.85947">
        <ele>266</ele>
        <time>2024-07-19T10:34:33Z</time>
      </trkpt>
      <trkpt lat="42.86891" lon="2.8595">
        <ele>267</ele>
        <time>2024-07-19T10:34:35Z</time>
      </trkpt>
      <trkpt lat="42.86898" lon="2.85955">
        <ele>268</ele>
        <time>2024-07-19T10:34:37Z</time>
      </trkpt>
      <trkpt lat="42.86905" lon="2.8596">
        <ele>268</ele>
        <time>2024-07-19T10:34:39Z</time>
      </trkpt>
      <trkpt lat="42.86912" lon="2.85964">
        <ele>269</ele>
        <time>2024-07-19T10:34:41Z</time>
      </trkpt>
      <trkpt lat="42.86919" lon="2.85969">
        <ele>269</ele>
        <time>2024-07-19T10:34:43Z</time>
      </trkpt>
      <trkpt lat="42.86926" lon="2.85976">
        <ele>270</ele>
        <time>2024-07-19T10:34:45Z</time>
      </trkpt>
      <trkpt lat="42.86933" lon="2.85981">
        <ele>270</ele>
        <time>2024-07-19T10:34:47Z</time>
      </trkpt>
      <trkpt lat="42.8694" lon="2.85987">
        <ele>271</ele>
        <time>2024-07-19T10:34:49Z</time>
      </trkpt>
      <trkpt lat="42.86947" lon="2.85992">
        <ele>271</ele>
        <time>2024-07-19T10:34:51Z</time>
      </trkpt>
      <trkpt lat="42.86953" lon="2.85997">
        <ele>271</ele>
        <time>2024-07-19T10:34:53Z</time>
      </trkpt>
      <trkpt lat="42.8696" lon="2.86002">
        <ele>272</ele>
        <time>2024-07-19T10:34:55Z</time>
      </trkpt>
      <trkpt lat="42.86967" lon="2.86008">
        <ele>272</ele>
        <time>2024-07-19T10:34:57Z</time>
      </trkpt>
      <trkpt lat="42.86974" lon="2.86013">
        <ele>272</ele>
        <time>2024-07-19T10:34:59Z</time>
      </trkpt>
      <trkpt lat="42.86981" lon="2.86018">
        <ele>273</ele>
        <time>2024-07-19T10:35:01Z</time>
      </trkpt>
      <trkpt lat="42.86988" lon="2.86024">
        <ele>273</ele>
        <time>2024-07-19T10:35:03Z</time>
      </trkpt>
      <trkpt lat="42.86996" lon="2.86029">
        <ele>273</ele>
        <time>2024-07-19T10:35:05Z</time>
      </trkpt>
      <trkpt lat="42.87002" lon="2.86035">
        <ele>274</ele>
        <time>2024-07-19T10:35:07Z</time>
      </trkpt>
      <trkpt lat="42.87009" lon="2.86041">
        <ele>274</ele>
        <time>2024-07-19T10:35:09Z</time>
      </trkpt>
      <trkpt lat="42.87014" lon="2.8605">
        <ele>274</ele>
        <time>2024-07-19T10:35:11Z</time>
      </trkpt>
      <trkpt lat="42.87017" lon="2.86057">
        <ele>275</ele>
        <time>2024-07-19T10:35:13Z</time>
      </trkpt>
      <trkpt lat="42.87022" lon="2.86063">
        <ele>275</ele>
        <time>2024-07-19T10:35:15Z</time>
      </trkpt>
      <trkpt lat="42.87026" lon="2.86069">
        <ele>276</ele>
        <time>2024-07-19T10:35:17Z</time>
      </trkpt>
      <trkpt lat="42.8703" lon="2.86075">
        <ele>276</ele>
        <time>2024-07-19T10:35:19Z</time>
      </trkpt>
      <trkpt lat="42.87035" lon="2.86081">
        <ele>277</ele>
        <time>2024-07-19T10:35:21Z</time>
      </trkpt>
      <trkpt lat="42.8704" lon="2.86087">
        <ele>277</ele>
        <time>2024-07-19T10:35:23Z</time>
      </trkpt>
      <trkpt lat="42.87044" lon="2.86093">
        <ele>278</ele>
        <time>2024-07-19T10:35:25Z</time>
      </trkpt>
      <trkpt lat="42.87048" lon="2.86098">
        <ele>279</ele>
        <time>2024-07-19T10:35:27Z</time>
      </trkpt>
      <trkpt lat="42.87051" lon="2.86104">
        <ele>279</ele>
        <time>2024-07-19T10:35:29Z</time>
      </trkpt>
      <trkpt lat="42.87054" lon="2.8611">
        <ele>280</ele>
        <time>2024-07-19T10:35:31Z</time>
      </trkpt>
      <trkpt lat="42.87056" lon="2.86116">
        <ele>280</ele>
        <time>2024-07-19T10:35:33Z</time>
      </trkpt>
      <trkpt lat="42.87059" lon="2.86122">
        <ele>281</ele>
        <time>2024-07-19T10:35:35Z</time>
      </trkpt>
      <trkpt lat="42.87061" lon="2.86128">
        <ele>282</ele>
        <time>2024-07-19T10:35:37Z</time>
      </trkpt>
      <trkpt lat="42.87063" lon="2.86136">
        <ele>282</ele>
        <time>2024-07-19T10:35:40Z</time>
      </trkpt>
      <trkpt lat="42.87065" lon="2.86142">
        <ele>283</ele>
        <time>2024-07-19T10:35:42Z</time>
      </trkpt>
      <trkpt lat="42.87069" lon="2.86147">
        <ele>284</ele>
        <time>2024-07-19T10:35:44Z</time>
      </trkpt>
      <trkpt lat="42.87074" lon="2.8615">
        <ele>284</ele>
        <time>2024-07-19T10:35:46Z</time>
      </trkpt>
      <trkpt lat="42.8708" lon="2.86152">
        <ele>285</ele>
        <time>2024-07-19T10:35:48Z</time>
      </trkpt>
      <trkpt lat="42.87086" lon="2.86154">
        <ele>285</ele>
        <time>2024-07-19T10:35:50Z</time>
      </trkpt>
      <trkpt lat="42.87091" lon="2.86157">
        <ele>286</ele>
        <time>2024-07-19T10:35:52Z</time>
      </trkpt>
      <trkpt lat="42.87097" lon="2.86161">
        <ele>286</ele>
        <time>2024-07-19T10:35:54Z</time>
      </trkpt>
      <trkpt lat="42.87103" lon="2.86164">
        <ele>287</ele>
        <time>2024-07-19T10:35:56Z</time>
      </trkpt>
      <trkpt lat="42.87104" lon="2.86171">
        <ele>287</ele>
        <time>2024-07-19T10:35:59Z</time>
      </trkpt>
      <trkpt lat="42.87098" lon="2.86173">
        <ele>288</ele>
        <time>2024-07-19T10:36:02Z</time>
      </trkpt>
      <trkpt lat="42.87093" lon="2.86175">
        <ele>288</ele>
        <time>2024-07-19T10:36:04Z</time>
      </trkpt>
      <trkpt lat="42.87087" lon="2.86179">
        <ele>288</ele>
        <time>2024-07-19T10:36:06Z</time>
      </trkpt>
      <trkpt lat="42.87079" lon="2.86184">
        <ele>288</ele>
        <time>2024-07-19T10:36:08Z</time>
      </trkpt>
      <trkpt lat="42.87072" lon="2.86187">
        <ele>288</ele>
        <time>2024-07-19T10:36:10Z</time>
      </trkpt>
      <trkpt lat="42.87064" lon="2.86189">
        <ele>288</ele>
        <time>2024-07-19T10:36:12Z</time>
      </trkpt>
      <trkpt lat="42.87056" lon="2.8619">
        <ele>288</ele>
        <time>2024-07-19T10:36:14Z</time>
      </trkpt>
      <trkpt lat="42.87048" lon="2.86191">
        <ele>288</ele>
        <time>2024-07-19T10:36:16Z</time>
      </trkpt>
      <trkpt lat="42.87039" lon="2.86192">
        <ele>288</ele>
        <time>2024-07-19T10:36:18Z</time>
      </trkpt>
      <trkpt lat="42.8703" lon="2.86196">
        <ele>288</ele>
        <time>2024-07-19T10:36:20Z</time>
      </trkpt>
      <trkpt lat="42.87023" lon="2.86201">
        <ele>288</ele>
        <time>2024-07-19T10:36:22Z</time>
      </trkpt>
      <trkpt lat="42.87017" lon="2.86209">
        <ele>288</ele>
        <time>2024-07-19T10:36:24Z</time>
      </trkpt>
      <trkpt lat="42.87011" lon="2.86217">
        <ele>288</ele>
        <time>2024-07-19T10:36:26Z</time>
      </trkpt>
      <trkpt lat="42.87004" lon="2.86222">
        <ele>288</ele>
        <time>2024-07-19T10:36:28Z</time>
      </trkpt>
      <trkpt lat="42.86998" lon="2.86228">
        <ele>288</ele>
        <time>2024-07-19T10:36:30Z</time>
      </trkpt>
      <trkpt lat="42.86991" lon="2.86233">
        <ele>289</ele>
        <time>2024-07-19T10:36:32Z</time>
      </trkpt>
      <trkpt lat="42.86982" lon="2.86234">
        <ele>288</ele>
        <time>2024-07-19T10:36:34Z</time>
      </trkpt>
      <trkpt lat="42.86976" lon="2.86228">
        <ele>288</ele>
        <time>2024-07-19T10:36:36Z</time>
      </trkpt>
      <trkpt lat="42.8697" lon="2.86221">
        <ele>288</ele>
        <time>2024-07-19T10:36:38Z</time>
      </trkpt>
      <trkpt lat="42.86964" lon="2.86214">
        <ele>287</ele>
        <time>2024-07-19T10:36:40Z</time>
      </trkpt>
      <trkpt lat="42.86957" lon="2.86206">
        <ele>287</ele>
        <time>2024-07-19T10:36:42Z</time>
      </trkpt>
      <trkpt lat="42.8695" lon="2.86199">
        <ele>286</ele>
        <time>2024-07-19T10:36:44Z</time>
      </trkpt>
      <trkpt lat="42.86944" lon="2.86192">
        <ele>286</ele>
        <time>2024-07-19T10:36:46Z</time>
      </trkpt>
      <trkpt lat="42.86938" lon="2.86183">
        <ele>285</ele>
        <time>2024-07-19T10:36:48Z</time>
      </trkpt>
      <trkpt lat="42.86932" lon="2.86177">
        <ele>285</ele>
        <time>2024-07-19T10:36:50Z</time>
      </trkpt>
      <trkpt lat="42.86925" lon="2.86172">
        <ele>285</ele>
        <time>2024-07-19T10:36:52Z</time>
      </trkpt>
      <trkpt lat="42.86918" lon="2.86167">
        <ele>285</ele>
        <time>2024-07-19T10:36:54Z</time>
      </trkpt>
      <trkpt lat="42.8691" lon="2.86168">
        <ele>284</ele>
        <time>2024-07-19T10:36:56Z</time>
      </trkpt>
      <trkpt lat="42.86909" lon="2.86178">
        <ele>284</ele>
        <time>2024-07-19T10:36:58Z</time>
      </trkpt>
      <trkpt lat="42.86915" lon="2.86188">
        <ele>284</ele>
        <time>2024-07-19T10:37:00Z</time>
      </trkpt>
      <trkpt lat="42.86922" lon="2.86197">
        <ele>283</ele>
        <time>2024-07-19T10:37:02Z</time>
      </trkpt>
      <trkpt lat="42.86925" lon="2.86202">
        <ele>283</ele>
        <time>2024-07-19T10:37:03Z</time>
      </trkpt>
      <trkpt lat="42.86928" lon="2.86208">
        <ele>283</ele>
        <time>2024-07-19T10:37:04Z</time>
      </trkpt>
      <trkpt lat="42.86931" lon="2.86213">
        <ele>282</ele>
        <time>2024-07-19T10:37:05Z</time>
      </trkpt>
      <trkpt lat="42.86934" lon="2.86219">
        <ele>282</ele>
        <time>2024-07-19T10:37:06Z</time>
      </trkpt>
      <trkpt lat="42.86937" lon="2.86224">
        <ele>282</ele>
        <time>2024-07-19T10:37:07Z</time>
      </trkpt>
      <trkpt lat="42.86939" lon="2.8623">
        <ele>282</ele>
        <time>2024-07-19T10:37:08Z</time>
      </trkpt>
      <trkpt lat="42.86942" lon="2.86235">
        <ele>282</ele>
        <time>2024-07-19T10:37:09Z</time>
      </trkpt>
      <trkpt lat="42.86945" lon="2.8624">
        <ele>282</ele>
        <time>2024-07-19T10:37:10Z</time>
      </trkpt>
      <trkpt lat="42.86949" lon="2.8625">
        <ele>282</ele>
        <time>2024-07-19T10:37:12Z</time>
      </trkpt>
      <trkpt lat="42.86953" lon="2.8626">
        <ele>282</ele>
        <time>2024-07-19T10:37:14Z</time>
      </trkpt>
      <trkpt lat="42.86957" lon="2.86269">
        <ele>282</ele>
        <time>2024-07-19T10:37:16Z</time>
      </trkpt>
      <trkpt lat="42.86961" lon="2.86279">
        <ele>281</ele>
        <time>2024-07-19T10:37:18Z</time>
      </trkpt>
      <trkpt lat="42.86965" lon="2.86289">
        <ele>281</ele>
        <time>2024-07-19T10:37:20Z</time>
      </trkpt>
      <trkpt lat="42.86969" lon="2.86299">
        <ele>281</ele>
        <time>2024-07-19T10:37:22Z</time>
      </trkpt>
      <trkpt lat="42.86974" lon="2.86308">
        <ele>280</ele>
        <time>2024-07-19T10:37:24Z</time>
      </trkpt>
      <trkpt lat="42.86977" lon="2.86313">
        <ele>280</ele>
        <time>2024-07-19T10:37:25Z</time>
      </trkpt>
      <trkpt lat="42.8698" lon="2.86317">
        <ele>279</ele>
        <time>2024-07-19T10:37:26Z</time>
      </trkpt>
      <trkpt lat="42.86984" lon="2.86322">
        <ele>279</ele>
        <time>2024-07-19T10:37:27Z</time>
      </trkpt>
      <trkpt lat="42.86988" lon="2.86326">
        <ele>278</ele>
        <time>2024-07-19T10:37:28Z</time>
      </trkpt>
      <trkpt lat="42.86994" lon="2.86334">
        <ele>278</ele>
        <time>2024-07-19T10:37:30Z</time>
      </trkpt>
      <trkpt lat="42.87001" lon="2.86341">
        <ele>278</ele>
        <time>2024-07-19T10:37:32Z</time>
      </trkpt>
      <trkpt lat="42.87009" lon="2.86348">
        <ele>277</ele>
        <time>2024-07-19T10:37:34Z</time>
      </trkpt>
      <trkpt lat="42.87013" lon="2.86351">
        <ele>277</ele>
        <time>2024-07-19T10:37:35Z</time>
      </trkpt>
      <trkpt lat="42.87017" lon="2.86356">
        <ele>277</ele>
        <time>2024-07-19T10:37:36Z</time>
      </trkpt>
      <trkpt lat="42.87022" lon="2.8636">
        <ele>276</ele>
        <time>2024-07-19T10:37:37Z</time>
      </trkpt>
      <trkpt lat="42.87026" lon="2.86364">
        <ele>275</ele>
        <time>2024-07-19T10:37:38Z</time>
      </trkpt>
      <trkpt lat="42.8703" lon="2.86368">
        <ele>275</ele>
        <time>2024-07-19T10:37:39Z</time>
      </trkpt>
      <trkpt lat="42.87037" lon="2.86376">
        <ele>274</ele>
        <time>2024-07-19T10:37:41Z</time>
      </trkpt>
      <trkpt lat="42.8704" lon="2.8638">
        <ele>274</ele>
        <time>2024-07-19T10:37:42Z</time>
      </trkpt>
      <trkpt lat="42.87048" lon="2.86387">
        <ele>273</ele>
        <time>2024-07-19T10:37:44Z</time>
      </trkpt>
      <trkpt lat="42.87052" lon="2.8639">
        <ele>272</ele>
        <time>2024-07-19T10:37:45Z</time>
      </trkpt>
      <trkpt lat="42.87056" lon="2.86394">
        <ele>271</ele>
        <time>2024-07-19T10:37:46Z</time>
      </trkpt>
      <trkpt lat="42.8706" lon="2.86397">
        <ele>270</ele>
        <time>2024-07-19T10:37:47Z</time>
      </trkpt>
      <trkpt lat="42.87066" lon="2.86398">
        <ele>270</ele>
        <time>2024-07-19T10:37:48Z</time>
      </trkpt>
      <trkpt lat="42.87071" lon="2.86399">
        <ele>269</ele>
        <time>2024-07-19T10:37:49Z</time>
      </trkpt>
      <trkpt lat="42.87076" lon="2.86399">
        <ele>269</ele>
        <time>2024-07-19T10:37:50Z</time>
      </trkpt>
      <trkpt lat="42.87082" lon="2.86401">
        <ele>268</ele>
        <time>2024-07-19T10:37:51Z</time>
      </trkpt>
      <trkpt lat="42.87087" lon="2.86404">
        <ele>268</ele>
        <time>2024-07-19T10:37:52Z</time>
      </trkpt>
      <trkpt lat="42.8709" lon="2.86408">
        <ele>267</ele>
        <time>2024-07-19T10:37:53Z</time>
      </trkpt>
      <trkpt lat="42.87095" lon="2.86412">
        <ele>267</ele>
        <time>2024-07-19T10:37:54Z</time>
      </trkpt>
      <trkpt lat="42.87098" lon="2.86416">
        <ele>267</ele>
        <time>2024-07-19T10:37:55Z</time>
      </trkpt>
      <trkpt lat="42.87102" lon="2.8642">
        <ele>267</ele>
        <time>2024-07-19T10:37:56Z</time>
      </trkpt>
      <trkpt lat="42.87106" lon="2.86424">
        <ele>267</ele>
        <time>2024-07-19T10:37:57Z</time>
      </trkpt>
      <trkpt lat="42.87113" lon="2.86431">
        <ele>266</ele>
        <time>2024-07-19T10:37:59Z</time>
      </trkpt>
      <trkpt lat="42.87116" lon="2.86441">
        <ele>266</ele>
        <time>2024-07-19T10:38:01Z</time>
      </trkpt>
      <trkpt lat="42.87117" lon="2.8645">
        <ele>265</ele>
        <time>2024-07-19T10:38:03Z</time>
      </trkpt>
      <trkpt lat="42.87114" lon="2.86459">
        <ele>264</ele>
        <time>2024-07-19T10:38:05Z</time>
      </trkpt>
      <trkpt lat="42.8711" lon="2.86469">
        <ele>263</ele>
        <time>2024-07-19T10:38:07Z</time>
      </trkpt>
      <trkpt lat="42.87109" lon="2.86475">
        <ele>262</ele>
        <time>2024-07-19T10:38:08Z</time>
      </trkpt>
      <trkpt lat="42.87106" lon="2.86486">
        <ele>262</ele>
        <time>2024-07-19T10:38:10Z</time>
      </trkpt>
      <trkpt lat="42.87104" lon="2.86496">
        <ele>261</ele>
        <time>2024-07-19T10:38:12Z</time>
      </trkpt>
      <trkpt lat="42.87105" lon="2.86506">
        <ele>260</ele>
        <time>2024-07-19T10:38:14Z</time>
      </trkpt>
      <trkpt lat="42.87108" lon="2.86517">
        <ele>259</ele>
        <time>2024-07-19T10:38:16Z</time>
      </trkpt>
      <trkpt lat="42.87112" lon="2.86526">
        <ele>258</ele>
        <time>2024-07-19T10:38:18Z</time>
      </trkpt>
      <trkpt lat="42.87115" lon="2.86535">
        <ele>256</ele>
        <time>2024-07-19T10:38:20Z</time>
      </trkpt>
      <trkpt lat="42.87115" lon="2.86546">
        <ele>255</ele>
        <time>2024-07-19T10:38:22Z</time>
      </trkpt>
      <trkpt lat="42.87115" lon="2.86557">
        <ele>254</ele>
        <time>2024-07-19T10:38:24Z</time>
      </trkpt>
      <trkpt lat="42.87115" lon="2.86569">
        <ele>253</ele>
        <time>2024-07-19T10:38:26Z</time>
      </trkpt>
      <trkpt lat="42.87113" lon="2.86582">
        <ele>252</ele>
        <time>2024-07-19T10:38:28Z</time>
      </trkpt>
      <trkpt lat="42.87113" lon="2.86588">
        <ele>251</ele>
        <time>2024-07-19T10:38:29Z</time>
      </trkpt>
      <trkpt lat="42.87111" lon="2.86594">
        <ele>250</ele>
        <time>2024-07-19T10:38:30Z</time>
      </trkpt>
      <trkpt lat="42.87111" lon="2.86605">
        <ele>249</ele>
        <time>2024-07-19T10:38:32Z</time>
      </trkpt>
      <trkpt lat="42.87107" lon="2.86615">
        <ele>249</ele>
        <time>2024-07-19T10:38:34Z</time>
      </trkpt>
      <trkpt lat="42.87104" lon="2.86626">
        <ele>248</ele>
        <time>2024-07-19T10:38:36Z</time>
      </trkpt>
      <trkpt lat="42.87102" lon="2.86632">
        <ele>247</ele>
        <time>2024-07-19T10:38:37Z</time>
      </trkpt>
      <trkpt lat="42.87099" lon="2.86642">
        <ele>246</ele>
        <time>2024-07-19T10:38:39Z</time>
      </trkpt>
      <trkpt lat="42.87095" lon="2.86651">
        <ele>245</ele>
        <time>2024-07-19T10:38:41Z</time>
      </trkpt>
      <trkpt lat="42.87091" lon="2.86658">
        <ele>244</ele>
        <time>2024-07-19T10:38:43Z</time>
      </trkpt>
      <trkpt lat="42.87085" lon="2.86665">
        <ele>243</ele>
        <time>2024-07-19T10:38:45Z</time>
      </trkpt>
      <trkpt lat="42.87081" lon="2.86667">
        <ele>241</ele>
        <time>2024-07-19T10:38:46Z</time>
      </trkpt>
      <trkpt lat="42.87076" lon="2.86673">
        <ele>240</ele>
        <time>2024-07-19T10:38:48Z</time>
      </trkpt>
      <trkpt lat="42.87077" lon="2.8668">
        <ele>239</ele>
        <time>2024-07-19T10:38:50Z</time>
      </trkpt>
      <trkpt lat="42.87081" lon="2.8669">
        <ele>238</ele>
        <time>2024-07-19T10:38:52Z</time>
      </trkpt>
      <trkpt lat="42.87084" lon="2.86695">
        <ele>237</ele>
        <time>2024-07-19T10:38:53Z</time>
      </trkpt>
      <trkpt lat="42.87087" lon="2.867">
        <ele>236</ele>
        <time>2024-07-19T10:38:54Z</time>
      </trkpt>
      <trkpt lat="42.87091" lon="2.86707">
        <ele>236</ele>
        <time>2024-07-19T10:38:55Z</time>
      </trkpt>
      <trkpt lat="42.87094" lon="2.86713">
        <ele>235</ele>
        <time>2024-07-19T10:38:56Z</time>
      </trkpt>
      <trkpt lat="42.87097" lon="2.8672">
        <ele>235</ele>
        <time>2024-07-19T10:38:57Z</time>
      </trkpt>
      <trkpt lat="42.871" lon="2.86727">
        <ele>234</ele>
        <time>2024-07-19T10:38:58Z</time>
      </trkpt>
      <trkpt lat="42.87101" lon="2.86735">
        <ele>233</ele>
        <time>2024-07-19T10:38:59Z</time>
      </trkpt>
      <trkpt lat="42.87106" lon="2.86749">
        <ele>232</ele>
        <time>2024-07-19T10:39:01Z</time>
      </trkpt>
      <trkpt lat="42.87108" lon="2.86756">
        <ele>232</ele>
        <time>2024-07-19T10:39:02Z</time>
      </trkpt>
      <trkpt lat="42.87109" lon="2.86762">
        <ele>231</ele>
        <time>2024-07-19T10:39:03Z</time>
      </trkpt>
      <trkpt lat="42.87113" lon="2.86774">
        <ele>230</ele>
        <time>2024-07-19T10:39:05Z</time>
      </trkpt>
      <trkpt lat="42.87114" lon="2.8678">
        <ele>230</ele>
        <time>2024-07-19T10:39:06Z</time>
      </trkpt>
      <trkpt lat="42.87116" lon="2.86786">
        <ele>229</ele>
        <time>2024-07-19T10:39:07Z</time>
      </trkpt>
      <trkpt lat="42.87118" lon="2.86793">
        <ele>228</ele>
        <time>2024-07-19T10:39:08Z</time>
      </trkpt>
      <trkpt lat="42.87118" lon="2.86799">
        <ele>227</ele>
        <time>2024-07-19T10:39:09Z</time>
      </trkpt>
      <trkpt lat="42.87116" lon="2.8681">
        <ele>227</ele>
        <time>2024-07-19T10:39:11Z</time>
      </trkpt>
      <trkpt lat="42.87116" lon="2.86817">
        <ele>226</ele>
        <time>2024-07-19T10:39:12Z</time>
      </trkpt>
      <trkpt lat="42.87116" lon="2.86824">
        <ele>225</ele>
        <time>2024-07-19T10:39:13Z</time>
      </trkpt>
      <trkpt lat="42.87117" lon="2.86831">
        <ele>224</ele>
        <time>2024-07-19T10:39:14Z</time>
      </trkpt>
      <trkpt lat="42.87119" lon="2.86839">
        <ele>223</ele>
        <time>2024-07-19T10:39:15Z</time>
      </trkpt>
      <trkpt lat="42.87122" lon="2.86846">
        <ele>222</ele>
        <time>2024-07-19T10:39:16Z</time>
      </trkpt>
      <trkpt lat="42.87126" lon="2.86853">
        <ele>221</ele>
        <time>2024-07-19T10:39:17Z</time>
      </trkpt>
      <trkpt lat="42.87129" lon="2.86858">
        <ele>221</ele>
        <time>2024-07-19T10:39:18Z</time>
      </trkpt>
      <trkpt lat="42.87131" lon="2.86866">
        <ele>221</ele>
        <time>2024-07-19T10:39:19Z</time>
      </trkpt>
      <trkpt lat="42.87133" lon="2.86873">
        <ele>220</ele>
        <time>2024-07-19T10:39:20Z</time>
      </trkpt>
      <trkpt lat="42.87138" lon="2.8688">
        <ele>220</ele>
        <time>2024-07-19T10:39:21Z</time>
      </trkpt>
      <trkpt lat="42.87142" lon="2.86885">
        <ele>219</ele>
        <time>2024-07-19T10:39:22Z</time>
      </trkpt>
      <trkpt lat="42.87146" lon="2.86889">
        <ele>219</ele>
        <time>2024-07-19T10:39:23Z</time>
      </trkpt>
      <trkpt lat="42.8715" lon="2.86894">
        <ele>218</ele>
        <time>2024-07-19T10:39:24Z</time>
      </trkpt>
      <trkpt lat="42.87154" lon="2.86898">
        <ele>218</ele>
        <time>2024-07-19T10:39:25Z</time>
      </trkpt>
      <trkpt lat="42.87157" lon="2.86901">
        <ele>218</ele>
        <time>2024-07-19T10:39:26Z</time>
      </trkpt>
      <trkpt lat="42.87161" lon="2.86905">
        <ele>218</ele>
        <time>2024-07-19T10:39:27Z</time>
      </trkpt>
      <trkpt lat="42.87165" lon="2.86908">
        <ele>218</ele>
        <time>2024-07-19T10:39:28Z</time>
      </trkpt>
      <trkpt lat="42.87173" lon="2.86914">
        <ele>218</ele>
        <time>2024-07-19T10:39:30Z</time>
      </trkpt>
      <trkpt lat="42.87178" lon="2.86918">
        <ele>218</ele>
        <time>2024-07-19T10:39:32Z</time>
      </trkpt>
      <trkpt lat="42.87182" lon="2.86924">
        <ele>218</ele>
        <time>2024-07-19T10:39:34Z</time>
      </trkpt>
      <trkpt lat="42.87187" lon="2.8693">
        <ele>217</ele>
        <time>2024-07-19T10:39:36Z</time>
      </trkpt>
      <trkpt lat="42.87192" lon="2.86938">
        <ele>217</ele>
        <time>2024-07-19T10:39:38Z</time>
      </trkpt>
      <trkpt lat="42.87197" lon="2.86947">
        <ele>217</ele>
        <time>2024-07-19T10:39:40Z</time>
      </trkpt>
      <trkpt lat="42.87202" lon="2.86957">
        <ele>217</ele>
        <time>2024-07-19T10:39:42Z</time>
      </trkpt>
      <trkpt lat="42.87206" lon="2.86967">
        <ele>216</ele>
        <time>2024-07-19T10:39:44Z</time>
      </trkpt>
      <trkpt lat="42.87208" lon="2.86973">
        <ele>216</ele>
        <time>2024-07-19T10:39:45Z</time>
      </trkpt>
      <trkpt lat="42.8721" lon="2.86979">
        <ele>215</ele>
        <time>2024-07-19T10:39:46Z</time>
      </trkpt>
      <trkpt lat="42.87211" lon="2.8699">
        <ele>215</ele>
        <time>2024-07-19T10:39:48Z</time>
      </trkpt>
      <trkpt lat="42.87207" lon="2.86998">
        <ele>214</ele>
        <time>2024-07-19T10:39:50Z</time>
      </trkpt>
      <trkpt lat="42.87199" lon="2.87">
        <ele>214</ele>
        <time>2024-07-19T10:39:52Z</time>
      </trkpt>
      <trkpt lat="42.8719" lon="2.86999">
        <ele>213</ele>
        <time>2024-07-19T10:39:54Z</time>
      </trkpt>
      <trkpt lat="42.87185" lon="2.86998">
        <ele>213</ele>
        <time>2024-07-19T10:39:55Z</time>
      </trkpt>
      <trkpt lat="42.8718" lon="2.86997">
        <ele>212</ele>
        <time>2024-07-19T10:39:56Z</time>
      </trkpt>
      <trkpt lat="42.87174" lon="2.86996">
        <ele>212</ele>
        <time>2024-07-19T10:39:57Z</time>
      </trkpt>
      <trkpt lat="42.87169" lon="2.86994">
        <ele>211</ele>
        <time>2024-07-19T10:39:58Z</time>
      </trkpt>
      <trkpt lat="42.87162" lon="2.86993">
        <ele>211</ele>
        <time>2024-07-19T10:39:59Z</time>
      </trkpt>
      <trkpt lat="42.87156" lon="2.86991">
        <ele>210</ele>
        <time>2024-07-19T10:40:00Z</time>
      </trkpt>
      <trkpt lat="42.87149" lon="2.86989">
        <ele>210</ele>
        <time>2024-07-19T10:40:01Z</time>
      </trkpt>
      <trkpt lat="42.87143" lon="2.86986">
        <ele>210</ele>
        <time>2024-07-19T10:40:02Z</time>
      </trkpt>
      <trkpt lat="42.87136" lon="2.86984">
        <ele>209</ele>
        <time>2024-07-19T10:40:03Z</time>
      </trkpt>
      <trkpt lat="42.87129" lon="2.86982">
        <ele>209</ele>
        <time>2024-07-19T10:40:04Z</time>
      </trkpt>
      <trkpt lat="42.87121" lon="2.86981">
        <ele>209</ele>
        <time>2024-07-19T10:40:05Z</time>
      </trkpt>
      <trkpt lat="42.87114" lon="2.86978">
        <ele>208</ele>
        <time>2024-07-19T10:40:06Z</time>
      </trkpt>
      <trkpt lat="42.87106" lon="2.86976">
        <ele>208</ele>
        <time>2024-07-19T10:40:07Z</time>
      </trkpt>
      <trkpt lat="42.87098" lon="2.86974">
        <ele>207</ele>
        <time>2024-07-19T10:40:08Z</time>
      </trkpt>
      <trkpt lat="42.8709" lon="2.86972">
        <ele>207</ele>
        <time>2024-07-19T10:40:09Z</time>
      </trkpt>
      <trkpt lat="42.87082" lon="2.8697">
        <ele>207</ele>
        <time>2024-07-19T10:40:10Z</time>
      </trkpt>
      <trkpt lat="42.87074" lon="2.86968">
        <ele>206</ele>
        <time>2024-07-19T10:40:11Z</time>
      </trkpt>
      <trkpt lat="42.87066" lon="2.86965">
        <ele>206</ele>
        <time>2024-07-19T10:40:12Z</time>
      </trkpt>
      <trkpt lat="42.87058" lon="2.86963">
        <ele>206</ele>
        <time>2024-07-19T10:40:13Z</time>
      </trkpt>
      <trkpt lat="42.8705" lon="2.86961">
        <ele>205</ele>
        <time>2024-07-19T10:40:14Z</time>
      </trkpt>
      <trkpt lat="42.87041" lon="2.86959">
        <ele>205</ele>
        <time>2024-07-19T10:40:15Z</time>
      </trkpt>
      <trkpt lat="42.87033" lon="2.86957">
        <ele>204</ele>
        <time>2024-07-19T10:40:16Z</time>
      </trkpt>
      <trkpt lat="42.87024" lon="2.86955">
        <ele>204</ele>
        <time>2024-07-19T10:40:17Z</time>
      </trkpt>
      <trkpt lat="42.87016" lon="2.86953">
        <ele>203</ele>
        <time>2024-07-19T10:40:18Z</time>
      </trkpt>
      <trkpt lat="42.87009" lon="2.86951">
        <ele>203</ele>
        <time>2024-07-19T10:40:19Z</time>
      </trkpt>
      <trkpt lat="42.87001" lon="2.86949">
        <ele>202</ele>
        <time>2024-07-19T10:40:20Z</time>
      </trkpt>
      <trkpt lat="42.86995" lon="2.86947">
        <ele>202</ele>
        <time>2024-07-19T10:40:21Z</time>
      </trkpt>
      <trkpt lat="42.86988" lon="2.86946">
        <ele>201</ele>
        <time>2024-07-19T10:40:22Z</time>
      </trkpt>
      <trkpt lat="42.86983" lon="2.86945">
        <ele>200</ele>
        <time>2024-07-19T10:40:23Z</time>
      </trkpt>
      <trkpt lat="42.86978" lon="2.86945">
        <ele>200</ele>
        <time>2024-07-19T10:40:24Z</time>
      </trkpt>
      <trkpt lat="42.8697" lon="2.86945">
        <ele>200</ele>
        <time>2024-07-19T10:40:26Z</time>
      </trkpt>
      <trkpt lat="42.86964" lon="2.86945">
        <ele>199</ele>
        <time>2024-07-19T10:40:28Z</time>
      </trkpt>
      <trkpt lat="42.86962" lon="2.86947">
        <ele>199</ele>
        <time>2024-07-19T10:40:45Z</time>
      </trkpt>
      <trkpt lat="42.86962" lon="2.86947">
        <ele>199</ele>
        <time>2024-07-19T10:40:45Z</time>
      </trkpt>
    </trkseg>
  </trk>
</gpx>